GFSNW_sfc_wetblb_000.txt.gz
Wetbulb
53.34 53.13 53.10 52.85 52.36 52.25 52.18 52.71 42.03 51.25 54.56 44.97 42.83 38.59 43.54 44.43 45.92 48.07 46.44 45.51 43.90 42.21 42.26 40.62 41.04 40.83 42.70 45.21 44.39 40.78 42.13 35.80 29.84 36.39 42.24 43.87 40.86 38.66 37.83 27.56 30.24 29.20 27.51 32.45
53.16 52.93 52.76 52.64 52.18 51.87 49.63 48.16 47.63 54.13 53.29 34.59 33.66 43.18 45.13 46.08 45.79 45.23 45.51 43.92 44.72 45.03 41.70 36.29 41.73 42.57 45.97 45.53 44.35 40.76 40.83 32.78 27.09 31.95 36.78 40.62 38.66 40.30 39.15 36.39 30.12 28.43 22.01 28.43
53.17 52.95 52.72 52.57 52.26 52.07 51.71 46.42 39.24 46.06 47.91 46.36 42.58 41.41 42.71 42.57 46.69 45.63 46.60 45.03 45.82 43.14 41.38 42.58 38.77 41.51 45.59 45.89 45.09 45.57 43.43 37.18 32.11 27.59 31.97 37.02 35.47 38.45 39.29 34.93 23.35 30.19 32.32 34.04
52.85 52.83 52.66 52.11 52.04 51.98 52.56 46.72 41.27 45.23 36.72 40.74 42.12 43.76 44.65 42.90 42.30 45.95 45.87 44.01 43.77 41.68 35.28 36.92 37.63 41.87 42.80 44.78 45.11 43.47 40.79 32.77 35.35 36.83 38.44 38.62 38.71 38.02 38.14 35.60 34.72 28.97 32.40 33.45
52.57 52.35 50.12 50.25 51.66 51.76 49.46 44.91 44.54 45.85 43.21 45.42 42.54 39.73 42.02 42.73 43.38 44.20 42.77 41.93 43.69 43.57 38.84 39.11 36.42 40.62 39.99 39.89 42.34 39.94 41.43 31.13 32.71 34.18 38.35 37.92 35.61 37.62 36.98 36.23 36.29 34.75 35.05 34.48
52.69 50.88 50.07 51.74 51.45 52.87 49.48 49.66 48.32 45.74 39.93 39.70 35.98 37.03 42.66 43.52 45.10 44.77 46.01 44.31 41.72 36.27 42.48 44.44 44.55 44.89 44.16 43.55 40.92 36.43 36.48 30.47 28.02 30.62 33.81 32.94 30.27 33.18 34.32 35.52 36.94 35.09 30.11 34.89
52.33 50.14 49.73 50.90 50.86 51.38 52.28 50.64 47.10 38.79 33.81 32.89 38.11 44.61 44.75 43.88 43.93 42.50 45.44 44.43 38.77 45.28 48.34 45.68 43.12 40.24 40.04 40.71 41.05 42.58 31.71 29.23 29.18 27.79 31.05 25.57 35.64 39.50 39.28 36.17 37.20 38.14 39.24 39.44
52.03 49.18 50.45 51.16 50.74 51.38 51.85 51.96 48.82 39.85 33.16 37.29 41.06 42.72 42.99 43.50 43.50 42.57 43.93 46.02 47.16 47.46 41.45 33.33 29.36 29.32 30.15 31.69 40.96 40.30 39.80 33.62 29.24 26.72 28.65 31.89 35.00 37.80 34.56 32.26 34.46 39.81 39.26 40.94
51.50 51.22 51.65 51.35 50.66 51.16 52.51 53.30 51.07 43.64 35.84 36.94 46.28 42.38 43.12 36.06 34.70 37.64 42.22 47.69 47.87 43.73 34.90 28.75 21.48 21.10 27.81 30.38 34.59 40.66 37.03 32.09 26.93 29.11 25.64 24.56 31.13 37.30 42.10 40.66 29.99 40.82 41.01 40.38
50.79 50.99 51.23 51.26 50.85 51.16 51.99 52.03 54.14 48.20 38.40 45.45 45.93 40.50 39.63 43.79 38.47 37.82 37.48 42.35 38.66 41.75 34.37 30.23 29.64 26.11 34.07 27.56 23.92 24.28 26.50 30.02 24.79 19.54 22.73 26.47 35.67 39.70 41.96 25.12 29.78 37.99 40.64 41.47
50.35 50.81 50.76 50.70 50.40 50.97 52.13 52.50 54.79 50.59 42.28 45.69 48.66 49.25 45.15 44.59 40.70 34.50 40.22 39.35 36.96 35.26 32.53 31.22 29.29 32.17 29.55 28.68 32.72 29.67 28.24 24.50 27.82 26.35 27.06 25.91 40.18 40.52 33.52 36.95 38.25 41.05 41.18 41.37
49.99 50.13 50.46 50.47 50.24 50.59 51.67 49.41 54.50 53.94 47.06 45.99 51.25 51.98 52.64 50.86 48.12 44.45 41.46 40.31 39.55 37.54 33.75 33.12 28.64 31.84 32.55 27.54 29.85 36.21 31.87 33.26 29.58 30.23 30.00 37.38 40.42 41.64 41.71 43.29 42.05 40.47 41.57 43.44
49.47 49.64 49.96 50.01 50.07 50.63 51.21 50.30 51.61 48.63 38.59 44.04 45.65 46.37 50.81 53.85 52.38 51.58 40.70 37.06 45.38 42.94 42.19 35.57 34.60 32.95 34.69 32.94 32.92 33.97 37.38 40.04 32.92 34.00 37.51 39.26 41.07 43.65 44.48 42.67 41.29 44.36 44.35 43.52
49.55 49.35 49.42 49.46 49.61 50.26 50.36 48.96 51.17 48.41 41.58 34.24 41.50 48.56 48.63 52.33 52.07 51.45 49.94 48.67 48.51 47.61 44.66 35.69 34.24 33.51 40.47 34.54 37.79 36.26 39.12 39.80 37.02 36.83 39.44 40.68 41.64 41.90 42.99 44.33 44.98 42.62 42.63 41.84
48.99 49.04 49.32 49.51 50.12 50.17 49.90 49.75 50.52 50.84 46.64 36.59 38.08 44.95 48.56 50.71 51.39 50.30 50.50 49.45 47.07 39.61 38.04 33.68 34.57 36.17 36.40 35.11 34.55 34.81 40.24 38.40 35.80 35.27 40.98 40.22 41.20 43.67 43.24 41.49 40.27 39.68 38.87 38.50
48.52 48.83 49.11 49.44 49.34 49.95 49.62 44.81 47.56 50.41 52.17 39.68 34.95 43.29 42.92 46.32 47.60 47.45 46.97 47.49 46.23 45.29 40.20 35.11 38.59 42.15 38.94 33.33 33.22 38.71 41.85 43.98 44.63 41.55 44.37 43.33 43.64 42.89 42.73 40.72 40.83 41.44 40.71 39.82
48.43 48.59 49.06 49.11 48.72 50.34 46.78 43.95 46.97 50.69 51.02 36.05 35.49 35.44 38.61 41.82 43.55 43.21 43.84 45.31 44.30 44.66 42.01 37.30 38.16 38.95 42.20 33.13 35.75 41.02 42.49 42.70 44.06 44.96 43.16 40.08 40.89 38.96 40.71 40.19 40.54 40.14 39.19 40.02
48.03 48.41 49.21 49.24 49.04 48.52 45.08 46.91 48.48 50.87 45.45 38.54 34.78 34.37 35.55 42.83 35.20 33.87 39.05 35.46 38.20 41.35 41.04 37.62 36.03 37.54 35.13 33.47 40.46 40.45 41.78 43.10 42.65 42.82 41.92 40.75 40.66 39.84 38.84 39.20 38.85 37.40 35.97 37.15
48.08 48.30 48.41 46.73 44.89 41.09 43.02 46.89 46.79 45.66 43.70 36.22 32.79 32.79 32.77 41.36 37.34 35.59 34.67 36.08 32.95 37.23 32.94 34.54 37.08 32.76 33.48 36.90 38.62 39.64 40.28 38.87 39.26 39.21 38.29 38.17 36.88 36.82 37.68 37.71 36.35 35.79 34.66 35.01
47.65 45.28 41.45 34.75 39.10 47.00 46.44 42.55 37.60 36.51 35.46 36.44 32.59 35.44 33.84 40.17 33.66 32.77 32.94 32.76 31.85 30.51 32.80 36.20 32.76 34.22 39.14 40.71 41.59 41.73 38.79 39.14 38.71 34.98 33.62 35.64 33.93 33.21 33.54 33.76 34.45 32.86 32.13 32.80
43.36 37.19 35.13 41.80 46.77 42.76 37.33 32.55 33.25 33.24 31.26 33.07 32.62 33.95 33.99 38.50 33.19 32.38 32.92 31.64 31.44 26.99 25.26 30.98 23.34 27.63 32.98 37.05 37.32 38.28 38.60 38.69 37.86 36.57 35.17 33.58 33.17 32.79 32.48 31.47 31.30 29.50 28.75 29.66
42.77 41.80 43.90 42.24 40.12 34.36 32.47 31.05 31.43 31.20 28.28 32.17 31.91 33.45 36.36 34.75 38.94 32.50 32.18 28.38 28.88 24.55 27.39 27.38 24.55 26.46 33.40 34.96 34.83 35.30 34.26 35.61 35.44 34.78 34.35 34.19 33.96 33.49 31.99 31.18 30.32 28.46 27.27 27.74
43.33 37.30 34.54 35.65 32.86 29.97 26.85 25.53 28.31 27.35 31.99 33.29 33.30 32.41 33.48 34.16 33.84 31.41 27.63 26.17 23.58 23.19 25.71 24.42 22.97 31.08 33.79 34.47 35.11 35.41 35.74 33.33 31.82 34.48 35.04 34.40 33.29 31.80 28.22 27.96 27.59 24.67 27.10 30.50
32.11 29.71 26.65 28.20 24.37 25.92 25.74 27.47 29.01 32.52 32.58 32.92 33.09 31.99 30.26 29.52 22.50 26.92 24.42 23.28 21.38 18.84 20.98 17.53 24.06 29.17 32.05 33.47 33.87 33.22 32.69 29.70 28.73 31.45 31.89 29.79 28.08 27.75 24.41 32.47 31.76 30.34 31.01 31.34
28.47 27.49 20.79 23.23 28.10 29.41 31.38 32.38 32.74 32.74 34.14 32.74 30.52 29.03 27.50 21.87 18.64 18.47 17.74 16.16 21.09 21.89 16.76 19.55 24.98 29.34 30.41 31.10 31.55 30.78 28.06 27.56 27.63 31.21 28.53 27.38 26.57 25.50 27.26 28.88 32.05 28.60 30.26 30.70
27.29 26.15 20.31 26.72 27.34 28.34 30.14 31.31 31.64 33.80 31.12 27.40 27.32 21.93 17.86 17.21 16.56 14.14 12.90 13.64 14.07 16.83 17.81 22.80 26.16 29.36 29.69 29.83 29.44 30.19 29.85 29.58 30.65 31.41 30.48 29.91 27.34 28.34 28.88 29.98 32.18 29.41 31.92 31.27
22.20 18.95 28.72 24.70 26.56 21.64 30.19 28.09 32.19 34.83 31.19 20.10 19.67 15.61 18.53 20.04 11.45 11.83 20.64 15.51 18.02 20.68 23.55 26.04 28.12 29.11 29.65 29.98 29.62 27.82 29.20 30.34 30.03 30.31 29.53 28.90 29.30 24.13 29.64 29.68 29.26 26.58 29.94 30.78

GFSNW_sfc_wetblb_003.txt.gz
Wetbulb
52.91 52.82 52.92 52.75 52.43 52.08 53.88 48.98 41.28 50.23 52.10 44.44 39.66 37.05 41.68 43.82 44.76 46.91 45.13 43.99 42.51 40.72 40.30 39.28 39.22 39.21 41.39 43.68 43.14 38.97 40.31 34.66 28.93 34.25 40.51 42.07 39.93 37.00 35.81 29.88 27.45 27.58 24.03 29.81
52.77 52.58 52.60 52.32 52.13 52.13 50.75 47.23 46.05 51.56 49.83 35.37 31.49 41.40 43.64 44.56 44.02 43.77 43.47 42.19 43.42 43.61 39.66 35.53 40.10 41.05 44.57 44.70 42.88 39.48 39.66 32.17 26.21 30.86 35.40 37.83 36.73 37.88 37.34 33.43 29.24 27.99 22.18 27.13
52.79 52.56 52.38 52.03 52.11 52.09 51.79 44.44 38.03 44.86 45.24 42.98 40.94 40.00 40.65 41.16 44.95 44.27 44.74 43.26 44.10 41.64 39.92 41.00 37.54 40.27 43.99 44.80 43.83 44.62 42.80 35.50 31.01 27.07 30.70 35.33 34.07 36.56 37.14 34.31 22.94 28.15 29.79 33.27
52.68 52.11 50.01 50.38 51.84 51.68 51.45 44.31 39.71 44.09 35.66 39.35 41.24 42.04 42.70 41.02 40.41 44.01 44.39 42.52 42.11 39.84 34.32 35.75 36.16 40.31 41.42 43.04 44.14 42.25 39.50 32.27 33.91 34.95 36.61 36.84 37.04 36.55 37.46 34.72 33.93 30.78 32.45 32.20
52.51 49.49 49.24 51.25 51.48 51.92 48.01 44.65 43.40 43.50 42.33 43.64 40.11 38.37 39.84 41.41 41.71 42.53 41.01 40.90 41.77 41.76 37.80 38.23 35.59 39.46 38.84 38.65 40.79 38.70 39.46 30.11 32.10 31.51 36.57 36.71 34.78 36.66 35.95 36.12 35.52 34.10 33.68 32.70
52.26 49.27 49.11 50.97 51.16 51.83 47.58 47.34 46.04 43.87 37.78 36.83 35.01 35.44 40.63 41.89 43.41 43.54 44.32 43.29 40.00 34.54 41.57 43.60 43.42 43.57 43.03 41.91 39.39 35.80 35.73 29.97 28.57 24.79 32.62 30.68 27.08 31.19 33.75 34.28 34.93 34.12 29.32 33.50
51.73 49.13 48.99 50.17 50.75 51.37 50.51 48.43 44.07 38.63 33.03 30.85 36.85 42.34 42.76 42.11 42.08 41.60 43.35 42.73 37.80 42.76 46.27 43.70 41.43 38.91 38.02 38.11 39.22 41.09 31.69 29.42 28.30 23.45 30.89 21.97 34.17 37.54 37.57 35.15 36.15 36.57 36.00 38.12
51.86 48.22 49.54 50.86 50.61 51.50 51.82 49.81 45.66 39.39 32.55 36.66 38.93 42.01 41.77 41.72 42.32 40.94 42.47 44.44 44.84 44.89 39.91 32.58 28.39 28.72 29.29 29.75 39.89 37.76 36.43 33.09 29.91 29.56 28.06 29.40 34.82 36.62 33.64 32.28 32.75 37.77 38.24 39.01
51.39 51.15 51.59 50.88 50.54 51.03 52.48 50.98 46.52 42.58 35.59 36.65 44.11 41.26 41.54 34.60 33.66 35.31 40.38 46.04 45.53 42.04 31.50 28.70 22.09 21.22 27.21 29.95 32.82 38.18 35.23 29.70 27.03 28.41 26.00 24.49 31.40 35.64 38.61 38.65 30.01 39.05 39.47 39.19
51.09 51.22 51.48 51.06 50.54 50.97 51.64 51.64 49.96 46.10 36.43 42.58 44.47 38.72 38.52 41.26 36.70 36.44 35.47 40.07 37.88 40.01 33.63 29.88 22.89 25.33 32.72 26.96 22.90 24.19 26.38 29.51 27.05 27.71 26.31 27.15 34.52 37.73 39.19 28.79 30.85 38.17 40.33 41.07
50.31 51.05 51.08 50.99 50.56 50.74 51.65 50.75 52.17 48.51 40.03 43.53 46.57 47.16 43.63 42.48 39.50 34.28 39.22 38.21 35.64 35.35 31.81 27.70 28.51 20.82 28.76 28.18 31.18 28.59 28.41 27.12 24.31 26.75 25.57 23.43 38.47 39.76 33.95 37.96 39.13 39.50 39.41 38.90
49.72 50.21 50.63 50.64 50.57 50.70 51.34 49.35 52.45 51.45 46.32 45.12 50.02 51.02 50.18 48.57 46.67 42.51 39.68 39.41 37.80 37.00 34.49 33.14 28.74 28.66 31.64 26.66 30.06 34.28 31.09 33.17 28.35 32.16 30.55 37.08 38.84 41.35 42.11 42.53 40.04 38.22 39.03 43.02
49.42 49.67 50.31 50.39 50.30 50.69 51.37 49.59 49.92 47.41 38.24 43.05 44.58 45.26 48.29 52.67 50.52 50.20 40.47 35.11 43.05 39.71 40.74 34.34 34.07 33.15 32.56 32.96 33.08 34.49 37.37 39.84 31.96 33.76 37.90 39.25 41.75 43.32 44.78 42.64 41.14 43.77 42.09 40.36
49.28 49.30 49.38 49.65 49.97 50.43 50.06 48.35 49.40 46.35 40.68 33.53 39.82 46.53 47.00 50.52 51.53 50.24 48.69 47.25 45.90 44.27 39.64 34.22 33.89 33.35 39.64 34.19 37.53 36.22 39.41 39.56 36.57 37.17 40.52 41.18 41.99 42.68 42.85 44.18 41.83 39.34 39.55 38.93
49.31 49.31 49.48 49.40 49.90 49.96 48.44 47.81 48.57 49.91 45.96 35.70 37.57 43.22 47.01 48.53 49.14 48.38 48.43 47.49 45.11 38.89 36.79 34.07 34.60 35.84 36.27 34.60 34.54 34.03 40.67 38.66 35.56 35.70 41.37 40.72 41.87 42.32 41.94 39.85 38.95 39.44 38.75 38.32
48.54 48.61 49.33 49.75 49.41 50.02 50.12 45.53 47.02 50.24 50.63 39.33 35.52 41.89 41.92 44.55 45.55 45.80 45.48 45.92 44.43 43.44 40.65 35.34 38.74 41.83 38.53 33.17 33.47 39.16 41.96 44.13 43.90 41.13 44.15 44.36 42.38 39.73 40.23 38.94 39.07 40.31 40.22 39.32
48.21 48.36 48.72 49.24 48.85 50.61 47.45 44.71 45.33 49.14 49.35 36.79 35.16 35.45 36.71 40.14 41.82 40.90 41.88 43.01 42.21 43.28 40.48 36.96 38.18 38.72 41.77 32.99 34.06 39.66 42.13 42.72 43.07 43.84 43.97 40.71 39.63 37.40 39.51 38.31 37.77 37.35 37.21 37.29
48.17 48.52 48.72 48.90 48.95 48.60 45.45 47.14 48.84 49.96 45.19 39.12 34.78 34.57 34.89 39.79 34.64 34.00 38.69 35.33 37.59 39.91 40.37 37.29 34.95 35.79 34.98 33.85 39.11 39.67 39.91 40.63 40.68 41.01 41.10 39.82 39.33 38.52 36.88 36.98 37.36 35.63 34.63 34.69
48.28 48.39 48.23 47.25 45.34 41.67 43.67 47.09 46.95 46.22 44.34 35.69 32.80 32.97 32.97 39.69 36.27 34.75 33.77 35.74 32.96 35.98 32.97 34.24 36.65 33.32 33.59 37.13 37.69 38.16 39.11 38.15 37.78 37.24 37.63 37.67 35.34 36.62 35.65 33.86 32.79 32.21 32.13 31.04
47.45 45.40 42.44 35.31 39.13 46.91 46.26 43.37 39.10 37.47 36.04 36.26 32.99 35.70 33.68 40.53 33.32 32.61 33.51 32.77 32.22 30.69 32.43 35.33 32.23 32.97 37.07 38.16 37.22 38.50 37.73 37.65 37.42 32.69 32.45 32.68 30.97 30.25 30.03 30.33 31.32 31.76 31.00 30.33
42.32 37.22 35.15 41.96 46.61 42.52 36.62 33.32 33.63 33.80 32.49 33.24 33.21 33.80 34.01 38.00 33.57 32.59 32.97 31.64 31.48 26.85 24.27 30.25 25.94 26.28 31.68 34.18 34.74 35.58 36.01 35.22 33.85 33.88 33.43 33.15 32.21 31.59 31.03 30.43 31.30 31.04 29.33 28.74
42.22 41.34 43.81 41.87 39.56 34.51 33.36 31.81 31.43 31.42 30.37 32.17 31.96 33.33 36.17 34.24 38.69 32.70 31.85 28.19 28.88 22.80 27.82 27.44 21.96 26.01 31.82 32.45 33.45 33.34 33.48 34.04 34.78 34.29 34.26 34.67 34.77 33.83 31.36 30.33 30.06 28.98 25.81 24.76
41.77 37.66 34.74 36.23 32.58 30.72 29.08 26.79 28.67 27.80 31.40 32.73 32.92 32.25 32.94 33.74 34.48 30.90 27.59 24.65 23.66 24.15 23.54 21.80 23.37 28.91 31.08 32.26 32.99 33.51 34.33 32.00 30.26 32.16 33.12 33.28 32.58 31.76 28.30 28.54 27.55 29.78 30.06 30.74
30.97 29.27 29.61 29.97 27.30 29.33 27.43 22.14 23.52 31.46 32.59 32.77 32.94 31.61 29.91 29.38 24.03 25.64 23.98 21.39 19.79 22.11 20.76 16.65 22.30 27.60 29.28 30.17 31.10 30.91 30.80 27.19 26.91 28.99 29.84 28.58 27.70 27.85 26.90 22.49 26.63 28.01 29.52 31.17
28.91 24.56 19.52 25.07 25.75 30.52 31.79 32.61 32.61 32.76 34.01 32.82 31.45 30.33 27.00 24.24 18.31 23.10 18.26 17.06 17.82 21.44 15.96 18.01 23.67 28.88 29.39 29.29 30.11 29.97 27.45 26.47 26.73 29.52 27.93 26.87 26.59 26.02 27.06 27.84 25.12 26.05 31.63 30.59
26.85 25.25 19.03 28.33 29.16 28.52 30.20 31.84 31.84 34.10 32.67 31.12 29.20 17.52 14.89 15.99 14.23 13.16 17.64 13.09 12.39 15.92 15.49 21.11 25.21 28.90 29.13 29.00 28.99 29.20 29.06 28.15 28.57 29.45 28.94 28.77 26.13 26.05 28.17 26.90 24.72 26.56 28.45 28.48
19.31 17.79 29.06 19.90 26.14 20.53 28.57 30.52 32.19 34.22 30.96 26.14 19.31 14.51 16.41 18.00 10.19 11.95 18.58 13.89 16.05 17.15 21.68 23.77 26.90 28.66 29.06 28.92 28.73 26.88 27.93 29.29 28.71 29.22 28.76 28.75 28.30 25.53 22.38 24.18 28.99 25.61 25.96 25.74

GFSNW_sfc_wetblb_006.txt.gz
Wetbulb
52.67 52.49 52.56 52.30 52.16 51.96 52.84 45.65 39.95 50.19 50.96 42.23 36.98 35.94 39.86 43.12 43.13 45.61 43.84 42.75 41.20 39.51 38.83 37.72 37.77 37.71 39.81 42.97 41.88 37.87 38.67 33.26 28.20 32.92 38.13 40.07 37.56 35.24 34.02 25.37 25.40 26.56 23.60 26.70
52.43 52.17 51.96 51.56 51.70 52.04 50.34 45.82 44.88 49.84 49.07 34.40 30.56 40.02 42.11 43.09 42.54 42.55 41.84 40.82 42.20 42.11 38.22 34.67 38.62 39.83 42.92 43.64 41.54 38.62 38.46 31.32 25.25 28.96 34.01 36.86 35.66 36.52 35.65 31.54 29.12 27.51 21.64 26.96
52.57 52.18 49.82 50.22 51.71 51.90 48.60 43.94 39.04 43.93 44.53 41.47 39.88 38.59 38.73 40.24 44.03 42.65 43.21 41.88 42.62 40.50 38.32 39.85 36.94 38.42 42.36 43.75 42.52 44.11 41.91 33.92 29.85 25.03 29.44 32.50 32.16 35.32 35.67 33.81 29.32 27.99 29.10 32.42
52.10 49.80 49.22 50.91 51.53 51.47 49.31 43.21 39.90 42.15 35.13 38.57 40.46 40.81 40.46 39.67 38.98 42.66 43.26 41.23 40.95 38.66 33.78 35.09 35.24 39.22 40.47 41.83 43.40 41.21 38.74 32.13 32.81 33.91 35.24 34.97 35.42 35.11 35.25 32.66 32.94 31.09 33.19 31.67
51.26 49.02 48.84 50.72 51.25 51.36 46.88 43.91 42.72 42.40 40.72 42.07 39.29 37.32 38.26 40.43 40.31 41.07 39.77 39.77 40.48 40.32 36.59 37.33 34.73 38.61 37.19 37.81 39.69 36.90 37.75 29.50 31.06 30.24 33.87 34.03 32.11 34.66 34.90 34.93 34.62 33.99 34.73 33.80
51.00 49.57 48.50 49.19 51.06 51.30 47.24 45.46 44.41 44.11 36.68 35.28 34.50 34.83 39.68 40.61 42.24 41.95 42.82 42.31 38.95 34.16 40.46 42.40 42.27 42.74 41.97 40.11 37.25 35.17 34.76 29.01 28.51 23.98 30.95 29.83 25.11 29.92 32.44 33.25 34.46 33.65 29.66 34.75
51.80 48.50 48.95 50.46 50.71 51.01 48.99 46.93 42.98 38.33 32.63 30.06 36.07 40.58 41.02 40.81 40.49 40.38 41.90 41.56 36.74 41.19 44.92 42.24 39.96 37.43 35.20 36.49 38.19 39.93 31.40 28.15 27.71 24.35 30.66 23.21 33.01 36.40 36.71 34.10 34.91 35.94 34.47 34.96
52.12 48.80 50.38 50.48 50.35 51.67 50.62 47.65 44.49 38.50 32.20 34.63 37.59 40.57 40.52 40.94 40.91 39.94 41.17 43.85 43.21 43.39 39.05 31.99 27.94 28.29 27.67 28.90 37.50 35.66 35.23 31.79 28.47 29.00 28.19 29.53 34.61 36.01 32.49 31.68 31.46 35.46 34.49 37.38
51.21 51.61 50.94 50.39 50.31 51.28 51.90 49.13 44.82 41.82 35.40 36.28 41.88 40.38 40.05 34.09 32.42 34.04 38.77 44.03 43.86 40.65 30.00 28.31 21.39 21.20 27.14 29.12 31.60 35.69 34.66 29.17 26.32 28.65 25.68 23.83 31.22 34.37 36.89 37.75 28.31 36.86 39.55 40.02
50.58 51.14 51.58 50.52 50.37 51.08 52.01 50.04 47.62 44.66 36.01 40.79 42.76 37.58 38.05 39.41 35.39 35.46 34.06 38.84 36.93 38.77 29.17 28.19 22.40 25.13 31.06 26.54 22.29 21.88 26.67 29.29 31.00 30.80 27.51 28.27 34.12 36.27 38.82 28.95 30.29 38.61 38.68 41.06
50.11 50.53 51.38 50.71 50.31 50.78 51.79 49.78 50.48 47.18 38.60 41.82 45.59 45.28 42.06 40.92 38.31 33.85 38.22 37.39 34.55 35.26 32.29 28.45 29.20 19.68 27.76 27.52 30.78 27.52 26.76 23.40 21.55 26.36 25.75 22.34 36.29 37.66 32.97 37.11 39.86 40.88 40.69 39.23
49.56 50.20 50.50 50.46 50.17 50.37 50.68 49.13 50.32 49.36 44.38 42.97 46.97 48.10 47.72 45.92 44.90 41.10 37.04 38.37 36.91 35.79 32.74 32.24 28.67 26.54 27.81 29.10 29.49 32.25 28.90 31.91 30.71 33.20 29.69 35.92 39.61 40.91 41.88 41.93 40.55 39.36 38.29 39.56
49.44 49.74 50.55 50.48 50.44 50.80 50.67 48.45 47.69 45.57 37.67 42.15 43.93 43.61 47.68 51.40 48.95 48.23 39.58 33.88 41.20 38.37 39.02 32.82 31.28 27.03 30.05 32.11 31.90 29.64 36.47 39.10 34.64 34.57 36.83 39.97 42.51 43.15 42.74 41.65 41.53 40.00 39.64 38.48
49.26 49.38 49.64 49.76 50.01 50.10 49.84 47.85 46.62 45.08 40.12 33.68 38.63 45.19 45.11 48.32 49.79 48.03 47.78 45.59 44.03 41.38 37.90 33.37 32.47 33.31 39.13 33.78 37.31 35.81 37.83 38.88 36.54 35.83 40.44 40.67 40.59 40.49 40.83 40.34 40.69 40.06 39.87 39.25
49.57 50.23 49.71 49.48 49.80 49.33 48.60 47.90 48.28 48.94 44.60 35.25 37.14 42.74 45.31 46.75 47.28 46.54 45.69 45.75 43.31 39.74 36.58 33.66 34.57 34.34 36.04 34.19 34.51 34.25 39.06 37.31 33.36 35.17 40.40 41.28 42.00 41.87 42.37 40.08 39.07 39.41 38.58 36.61
48.74 49.05 49.59 49.66 49.32 49.56 48.14 43.98 46.41 47.98 49.49 38.72 34.02 40.68 39.42 42.80 44.55 44.36 42.80 44.34 42.69 41.42 40.04 35.11 38.26 41.86 38.07 32.77 32.88 38.96 40.56 41.91 43.75 40.91 44.42 43.60 42.60 41.48 40.59 38.51 37.09 37.97 36.24 35.75
48.18 48.50 48.86 49.21 48.87 50.88 47.65 43.25 44.54 48.10 46.45 35.85 34.55 34.44 34.74 38.74 41.04 40.27 40.72 41.58 40.31 40.84 39.58 36.38 37.07 37.72 41.14 32.94 34.26 39.41 41.02 41.92 42.92 43.02 42.60 38.11 37.44 36.98 39.12 38.65 36.69 35.93 35.00 34.88
48.02 48.16 48.20 48.56 48.86 48.35 46.33 46.50 48.57 49.38 43.55 39.26 34.39 34.52 33.37 39.03 34.28 34.19 38.16 35.10 38.11 40.45 40.10 36.89 34.73 36.29 34.39 33.57 37.89 38.60 40.08 41.08 40.02 38.99 39.03 38.01 38.90 38.50 36.11 34.23 32.87 31.49 30.83 31.85
48.14 48.16 48.27 47.26 45.67 42.00 43.92 47.18 47.45 46.75 43.26 36.40 32.95 33.30 33.12 39.72 36.06 34.67 32.47 35.11 32.94 36.82 32.94 34.02 36.06 33.10 33.40 36.54 34.21 34.36 35.41 35.83 35.87 36.87 36.40 35.53 32.61 31.46 31.82 31.40 30.43 29.26 29.29 30.20
47.60 45.92 42.20 35.47 39.28 46.93 46.73 43.72 39.72 38.51 36.38 36.83 33.13 35.73 33.83 40.51 33.10 32.95 33.65 32.74 32.48 31.58 32.62 34.63 32.20 32.64 36.71 34.31 35.58 35.98 35.19 35.84 35.55 32.29 31.38 31.21 29.55 29.77 30.21 30.23 30.08 29.88 29.53 30.22
42.56 37.62 35.13 41.95 46.53 42.22 37.75 33.45 33.99 34.17 32.57 33.62 33.64 34.13 34.16 37.89 33.39 32.92 33.09 31.79 31.61 23.34 23.61 30.01 27.81 26.28 30.40 31.90 31.34 32.10 32.54 32.85 32.56 32.05 31.40 31.78 31.81 31.07 30.87 29.94 29.56 29.10 28.37 28.41
42.33 42.15 43.67 41.79 39.58 34.69 34.14 31.83 31.46 31.99 29.37 32.17 31.96 33.16 35.98 34.01 38.23 32.85 31.82 29.35 28.82 23.23 27.41 26.48 19.22 25.41 30.00 31.07 31.04 31.33 31.86 31.52 31.26 31.90 32.19 32.13 32.43 32.07 31.00 30.15 29.86 28.54 27.51 23.78
40.48 37.59 34.66 36.28 32.83 30.67 28.85 24.80 28.68 29.06 31.55 32.70 32.71 32.15 32.71 33.71 34.25 31.05 29.56 24.57 21.51 24.13 21.30 19.48 22.16 27.90 28.60 28.53 30.24 31.21 31.64 30.11 28.49 29.74 29.78 29.98 29.72 29.14 26.61 27.43 27.74 25.93 26.28 27.64
32.52 30.32 30.46 28.53 27.43 29.31 29.06 28.66 23.69 26.62 32.36 32.56 32.73 30.86 30.32 29.02 28.21 27.17 19.98 22.25 21.92 21.94 15.85 15.35 20.91 26.89 27.87 28.77 29.66 29.68 29.67 25.79 25.08 28.07 28.79 26.89 25.70 25.94 25.89 23.75 24.31 22.95 24.27 26.70
30.13 27.24 23.66 27.03 26.63 28.35 31.99 32.20 32.74 32.56 33.69 32.70 31.40 29.35 27.60 25.38 22.49 23.84 19.66 20.74 17.93 19.33 15.83 16.54 22.88 27.77 28.81 29.02 29.66 28.83 26.55 24.34 24.63 28.80 26.34 24.38 24.26 24.14 25.74 26.97 25.04 24.06 23.01 24.00
28.05 24.72 19.95 26.80 28.69 28.17 30.25 32.03 32.23 34.02 32.67 31.01 27.87 20.64 21.05 18.51 16.92 14.88 18.02 15.66 14.18 15.60 13.87 20.24 24.26 28.29 28.87 29.08 28.19 28.06 28.11 27.63 28.30 28.42 27.35 27.12 23.82 24.08 27.46 27.45 25.54 24.55 23.40 23.65
21.47 19.21 28.23 18.93 19.95 22.43 24.23 31.43 31.70 33.93 31.13 26.25 24.42 15.34 15.71 17.38 10.58 13.14 17.52 13.09 15.39 16.69 19.66 22.53 26.16 28.25 28.70 28.77 28.07 26.14 26.86 27.98 27.66 27.68 27.11 27.10 26.89 24.14 22.39 23.27 28.10 26.37 25.65 23.23

GFSNW_sfc_wetblb_009.txt.gz
Wetbulb
52.52 52.27 52.13 51.54 51.79 51.85 51.06 46.13 43.95 52.28 52.57 43.17 38.92 38.41 41.96 43.48 44.47 46.32 45.09 44.56 43.35 41.71 41.36 40.19 40.25 39.80 41.80 43.97 45.48 41.28 41.91 37.44 33.76 36.83 41.16 43.08 41.43 38.46 37.14 32.31 29.64 32.60 30.93 31.56
52.26 51.86 49.98 50.32 51.60 52.01 50.89 46.55 46.87 50.95 50.44 37.36 35.08 42.69 43.32 43.95 44.00 43.12 43.65 43.05 44.17 43.80 40.44 37.79 41.31 41.98 45.15 44.90 44.99 42.53 42.36 36.25 30.74 32.52 37.48 40.33 39.25 39.69 37.20 35.63 34.29 32.10 29.70 32.53
52.05 49.94 50.02 50.64 51.52 51.93 48.90 45.04 41.86 45.19 44.88 43.08 41.44 40.55 41.18 41.70 44.51 43.70 43.91 43.03 44.57 42.20 40.11 41.90 40.06 41.16 44.67 45.23 44.67 43.76 43.61 36.84 33.59 30.27 33.03 36.61 34.85 37.23 37.76 37.77 33.30 32.66 33.37 35.70
50.70 49.82 49.66 49.82 51.07 51.36 49.18 44.74 42.17 43.89 37.84 41.06 41.96 42.55 42.21 41.06 40.48 44.32 44.46 42.92 42.55 41.06 36.69 38.78 39.23 41.77 42.48 43.61 44.14 43.64 42.34 36.35 36.03 36.36 37.56 37.10 36.79 36.46 37.11 35.76 36.93 32.85 35.76 36.08
49.33 49.50 49.51 50.00 51.08 51.16 47.56 44.92 43.59 43.07 41.03 42.15 41.74 38.60 41.57 41.52 42.01 42.75 42.16 41.39 42.98 42.69 39.04 39.48 38.37 41.71 40.94 40.43 42.97 41.56 39.84 35.15 35.51 33.04 35.35 34.98 33.24 36.06 36.45 36.93 37.21 36.54 37.40 36.69
49.45 49.50 49.77 50.49 50.90 50.97 47.92 46.25 45.94 45.18 36.97 37.46 37.88 38.03 41.64 42.16 43.27 43.24 44.41 43.36 41.23 37.76 42.68 44.86 45.44 44.89 43.25 43.43 41.57 39.14 38.44 35.23 32.54 29.43 32.62 32.52 29.90 33.03 35.29 36.55 37.82 37.65 33.63 38.82
50.78 48.99 49.88 50.36 50.64 50.86 49.71 47.66 44.21 40.86 35.61 34.44 37.96 42.01 42.70 41.91 42.91 41.82 43.52 43.87 39.69 43.99 46.32 44.63 41.86 38.48 38.12 40.18 40.57 41.41 33.80 33.17 32.41 31.17 31.67 25.68 36.69 39.58 39.65 37.51 38.45 39.38 37.90 38.80
51.77 51.20 50.51 50.14 50.54 51.60 50.46 47.63 45.12 40.42 33.24 36.78 38.65 41.48 41.61 42.06 42.45 41.69 43.00 45.00 44.11 45.29 41.68 36.23 32.33 32.23 31.02 32.87 37.66 37.88 38.14 34.74 31.35 29.52 29.48 32.55 36.49 38.91 37.29 35.69 36.09 39.20 39.62 40.77
51.13 51.16 50.66 50.05 50.24 51.24 52.01 49.20 46.08 42.88 36.25 38.37 42.83 41.44 41.68 37.53 37.19 38.57 41.95 45.50 44.88 42.32 34.98 33.63 29.17 28.84 30.02 32.18 33.62 36.84 36.14 33.77 34.44 30.95 28.19 26.19 35.06 37.99 40.58 40.36 32.66 41.07 41.61 41.85
50.64 51.16 50.95 50.04 50.26 51.01 52.59 51.12 48.97 45.41 38.54 42.56 43.92 40.82 40.73 41.17 39.28 38.06 38.23 42.51 40.08 41.81 34.13 31.94 31.70 32.96 32.69 31.10 26.92 26.48 30.29 31.40 30.28 30.97 29.21 32.74 37.73 39.02 40.46 31.64 34.15 40.07 41.56 42.24
50.38 50.67 50.97 50.06 50.19 50.49 52.64 51.25 50.85 48.07 40.10 43.80 47.10 46.11 42.48 42.17 40.84 38.16 40.44 40.30 38.46 37.02 33.42 33.06 32.79 30.74 33.11 32.38 33.59 30.98 31.60 30.80 28.35 28.64 27.79 25.83 38.96 39.38 36.28 40.58 42.26 41.94 42.00 41.85
49.93 50.32 50.70 50.38 50.22 50.23 51.18 50.51 50.54 49.38 45.94 45.12 49.00 51.03 49.85 48.46 46.17 42.50 39.43 41.25 39.05 39.78 34.85 33.27 32.47 31.23 29.04 31.29 32.13 35.21 32.33 35.37 33.31 33.76 34.00 39.41 41.07 42.54 44.36 42.52 41.68 40.51 40.51 39.73
49.35 49.97 50.70 50.40 50.52 50.41 51.04 49.59 48.52 46.36 39.14 43.33 45.80 45.95 48.91 51.67 50.25 49.63 42.37 38.82 42.85 40.77 41.70 36.88 34.20 33.24 33.60 31.40 31.50 33.72 37.35 39.23 37.04 35.50 39.86 40.99 42.73 44.41 43.39 42.41 40.54 40.88 41.18 39.83
48.93 49.33 49.75 49.97 49.86 49.85 49.89 49.03 47.40 45.85 40.51 34.15 40.69 45.61 46.77 49.76 51.31 50.55 49.26 45.92 44.19 42.52 40.86 34.51 33.42 33.06 39.41 34.27 38.10 37.20 39.99 39.95 37.31 36.32 40.81 41.83 41.88 43.28 42.80 41.32 41.80 40.44 40.83 40.15
49.23 48.38 49.28 49.52 49.74 49.34 49.17 48.91 49.19 48.56 46.45 36.49 38.02 43.95 46.06 46.54 48.16 49.14 48.00 46.59 44.38 41.38 37.41 34.15 35.05 37.27 37.32 35.78 35.91 35.35 40.85 39.49 36.93 36.26 42.26 41.33 42.02 43.70 42.71 40.18 39.37 39.58 38.98 38.04
48.83 49.31 49.86 49.56 49.04 49.32 48.58 44.61 47.47 49.09 48.16 38.46 34.87 41.51 40.59 42.74 45.33 46.20 45.86 46.22 44.30 43.36 40.98 35.40 39.80 42.91 40.12 33.24 33.16 39.56 42.20 43.54 44.37 42.20 43.80 43.11 41.96 41.64 41.50 39.13 38.30 37.68 36.69 36.28
48.30 48.66 49.23 49.30 48.73 51.51 47.09 43.61 45.85 48.04 46.72 36.50 34.51 35.08 37.28 40.37 41.22 40.68 41.17 42.89 42.69 44.03 40.57 36.31 37.51 38.17 41.26 33.06 33.56 40.14 41.62 42.03 43.21 42.84 42.69 37.99 38.58 37.40 38.96 37.11 36.60 36.29 35.90 35.67
48.59 48.47 48.50 48.65 48.64 48.39 46.95 47.99 48.30 48.03 44.15 40.21 34.10 34.87 34.41 39.97 35.87 35.58 38.78 37.36 40.03 41.56 40.88 37.05 36.14 37.09 36.14 33.75 38.39 37.18 37.65 39.10 39.83 39.40 40.33 39.37 37.28 36.32 36.08 36.36 35.62 34.35 33.58 33.39
48.41 48.43 48.77 48.30 46.57 42.65 44.92 47.72 47.40 47.00 43.68 36.87 33.24 33.60 33.42 39.23 36.49 35.50 35.32 36.64 33.78 37.85 33.42 34.51 36.75 34.69 33.33 33.87 33.93 35.75 36.09 36.64 36.72 36.06 34.78 35.35 34.86 35.10 35.20 34.79 34.32 32.96 32.69 33.01
48.07 46.48 43.12 35.58 39.55 47.07 47.13 43.78 40.11 38.43 37.36 37.55 33.42 36.16 34.69 39.93 34.33 33.97 35.23 33.42 33.06 32.02 33.84 35.04 32.52 32.92 33.79 33.59 35.15 36.76 36.47 36.85 36.77 33.52 32.98 33.64 32.95 33.28 33.31 33.41 33.90 33.09 32.17 32.41
42.74 37.54 35.23 41.89 46.48 42.65 38.42 33.54 34.19 34.43 32.70 34.27 34.19 34.27 34.79 38.15 34.42 33.42 33.22 31.97 32.33 28.41 29.15 31.40 29.74 29.66 31.48 33.25 32.69 33.52 34.22 34.68 34.59 35.00 34.55 33.74 32.78 32.31 32.48 32.63 33.27 32.55 31.58 31.08
43.25 42.18 43.80 42.08 39.70 34.81 32.46 31.78 31.75 32.83 31.54 33.00 33.03 33.50 36.22 34.30 38.29 33.12 32.09 30.51 29.99 22.97 29.48 28.94 26.32 28.91 31.85 32.87 33.22 33.68 33.66 33.30 32.75 33.00 32.16 32.22 31.97 32.60 31.72 31.55 31.36 30.88 30.54 28.91
42.21 38.54 34.42 36.08 32.98 30.81 30.23 28.00 29.51 30.48 32.29 32.68 33.19 32.14 33.24 33.81 34.90 31.72 30.09 26.04 25.49 27.49 25.40 23.95 26.08 29.98 30.10 30.60 31.75 32.61 33.10 32.36 30.24 31.54 32.09 32.30 31.83 31.16 28.70 28.64 29.26 28.39 28.78 29.40
33.75 33.39 30.60 29.89 28.76 29.75 26.84 27.05 27.68 29.94 32.86 33.06 33.06 30.78 31.12 29.96 29.54 28.45 24.87 24.49 24.36 23.06 19.43 20.90 26.04 28.96 29.69 30.70 31.83 31.20 31.00 26.73 26.86 29.52 30.72 28.96 27.65 27.57 27.40 25.16 26.31 25.44 26.78 28.87
29.44 29.60 26.62 28.29 27.35 30.79 32.15 32.50 32.88 32.67 34.04 33.22 31.42 30.14 30.40 25.83 25.08 25.00 23.26 22.55 20.38 21.02 21.01 24.15 27.47 29.70 30.53 31.02 31.13 30.72 28.07 25.25 26.32 30.50 29.01 26.75 26.31 26.26 27.37 28.76 28.48 28.63 26.45 25.79
29.10 25.62 24.10 27.26 26.58 28.89 31.56 32.33 32.15 34.07 32.49 31.61 30.07 24.78 25.72 23.70 22.90 21.19 19.69 19.03 16.87 21.90 22.93 25.77 27.43 29.56 30.28 30.53 30.11 29.44 29.47 28.88 29.32 29.87 29.04 28.82 26.63 25.30 29.07 28.58 27.54 26.69 26.20 25.76
22.92 22.09 26.07 24.41 23.72 26.92 30.37 32.29 33.24 34.70 32.47 27.55 24.69 22.36 22.66 21.38 18.85 18.70 20.71 18.01 21.73 23.26 24.94 25.65 27.87 29.55 29.89 29.95 29.04 26.94 27.76 28.86 29.26 29.53 29.18 29.06 29.03 26.35 25.54 26.52 30.34 29.91 29.26 28.71

GFSNW_sfc_wetblb_012.txt.gz
Wetbulb
52.44 52.03 50.63 51.13 51.96 52.26 56.35 57.61 51.46 58.84 60.30 52.34 51.04 47.65 47.70 46.08 48.49 50.17 49.03 49.44 47.57 46.01 45.62 44.43 44.22 43.40 45.69 48.40 48.40 44.25 46.12 43.83 39.04 40.02 45.00 46.78 45.75 43.07 42.15 37.71 32.15 37.68 35.77 35.92
52.12 49.89 50.29 50.61 51.60 52.31 59.45 56.25 55.13 59.03 58.26 48.59 48.25 47.83 46.99 48.09 47.99 47.41 47.87 46.99 48.29 48.41 45.41 42.72 45.17 45.43 47.83 48.78 48.23 45.93 46.73 41.95 36.23 37.83 42.37 45.20 43.16 43.69 43.09 41.21 39.65 35.33 33.57 37.29
50.21 49.91 50.10 50.54 51.60 52.10 58.90 55.99 51.78 54.49 55.05 52.03 49.79 47.54 46.47 45.73 48.87 47.68 48.88 47.37 49.05 47.60 45.60 47.09 44.67 45.08 47.14 48.08 48.16 43.78 47.04 43.15 38.92 35.09 37.55 41.11 38.45 40.37 42.22 41.31 36.08 36.31 37.31 39.41
49.38 49.85 50.10 50.59 51.48 51.52 58.43 55.37 51.45 51.08 49.09 49.10 50.05 49.42 47.92 45.94 45.11 48.51 49.19 47.11 47.52 46.62 43.22 43.95 43.73 45.83 46.10 46.67 45.36 47.84 47.27 38.85 41.20 41.44 41.99 41.84 40.61 39.97 40.66 39.27 40.08 35.78 38.82 39.55
49.40 49.56 50.10 50.82 51.15 51.34 56.54 53.80 52.07 51.69 49.23 49.30 49.48 45.53 47.33 46.19 45.73 47.30 45.91 46.34 46.92 47.13 43.63 43.83 42.60 44.27 44.18 42.94 46.77 45.83 45.68 39.54 38.86 36.49 39.94 40.54 38.22 40.63 41.14 40.89 41.25 40.89 41.08 40.22
49.58 49.78 49.89 50.90 51.07 52.66 57.23 54.32 53.25 55.33 42.83 46.97 48.94 47.43 47.66 47.22 48.98 47.86 49.41 49.23 47.43 44.86 46.74 49.20 49.58 49.51 48.75 47.36 45.07 43.04 42.86 41.16 37.38 34.35 37.33 37.37 34.34 38.78 40.11 40.96 42.15 41.67 37.41 42.24
49.90 49.87 51.13 50.34 50.77 53.03 58.50 55.38 54.84 53.52 46.25 48.16 47.93 47.51 48.42 47.87 47.54 47.31 48.07 49.47 47.98 47.98 51.26 50.41 49.05 46.91 45.96 46.47 45.31 46.42 39.30 39.77 37.03 35.01 35.18 29.96 39.44 44.27 43.65 41.42 42.64 44.04 43.54 43.35
51.64 51.12 50.71 50.11 50.48 51.88 57.04 54.65 54.56 51.20 38.04 48.38 46.25 48.30 47.88 48.39 48.80 47.76 48.09 48.46 48.68 52.47 49.67 45.25 39.93 39.37 37.55 38.98 42.01 42.62 44.40 40.73 34.41 32.22 31.90 36.54 39.04 41.06 40.64 38.93 39.45 43.65 42.79 44.48
51.45 51.09 50.54 50.13 50.33 51.71 57.18 54.59 53.86 53.09 41.31 47.48 48.70 48.12 49.17 47.39 47.35 47.39 46.67 48.91 50.27 50.19 46.89 42.29 35.28 36.17 35.94 36.57 38.01 40.18 40.32 40.78 40.14 34.18 30.10 28.67 39.17 42.42 44.08 43.86 36.07 44.18 43.93 43.07
51.49 51.05 50.65 50.06 50.41 51.31 58.62 56.16 55.37 55.02 50.92 49.07 49.56 48.98 48.55 49.43 48.74 47.70 47.87 47.78 46.33 49.09 42.57 37.50 38.45 38.11 38.61 35.67 34.42 33.66 34.43 34.55 33.85 33.53 32.00 35.97 42.77 43.27 44.71 33.72 37.40 45.27 42.91 42.27
50.93 51.13 50.95 50.40 50.18 50.55 57.35 56.12 56.33 55.75 49.66 50.07 50.87 50.46 48.84 48.66 50.49 47.84 47.70 47.44 46.56 45.01 36.41 37.13 38.77 36.05 39.92 37.61 39.24 37.15 37.10 36.31 32.93 33.92 30.40 28.94 43.63 43.25 37.85 43.21 45.36 42.82 42.20 41.65
50.25 50.61 51.01 50.62 50.18 50.38 53.51 56.42 55.68 55.29 54.58 51.90 53.77 54.13 53.54 53.40 53.07 50.90 49.09 48.18 47.54 49.18 43.56 39.44 37.60 34.05 34.05 39.03 35.86 41.65 36.50 40.27 38.35 37.81 38.98 45.74 47.24 46.37 47.28 46.38 44.63 41.27 42.01 43.19
49.83 50.27 50.94 50.80 50.26 50.35 53.72 56.46 55.77 55.75 50.31 51.79 52.88 51.65 53.16 56.09 54.98 55.72 50.52 49.47 49.75 48.51 49.74 46.11 41.12 34.96 41.75 34.05 37.37 39.70 42.86 44.21 40.18 39.63 43.02 44.96 46.54 48.13 47.41 44.87 42.14 43.03 43.09 42.06
49.33 49.79 50.24 50.30 50.14 49.99 52.34 56.15 53.98 54.04 48.10 37.13 48.36 50.07 50.91 52.90 55.14 55.25 54.73 51.92 50.34 49.65 50.18 39.31 37.13 36.59 45.31 38.45 43.58 41.79 44.29 44.20 41.57 40.86 43.93 45.12 46.25 45.72 45.41 43.26 42.24 41.37 41.81 41.41
48.64 48.93 48.71 50.10 49.79 50.42 55.13 56.37 55.08 55.60 54.14 43.73 47.51 49.07 48.96 50.81 52.35 53.55 53.81 52.94 51.06 47.83 42.03 35.32 38.20 46.01 42.69 41.32 40.76 40.14 45.47 43.21 39.12 37.61 44.24 42.79 43.52 42.93 43.98 42.46 40.92 40.71 40.00 38.96
48.97 48.53 50.12 50.29 49.60 50.18 56.61 53.18 55.80 55.58 56.16 47.88 41.85 48.60 46.56 48.29 51.27 51.42 51.60 52.25 51.26 49.83 45.84 41.31 45.70 47.74 46.08 34.05 35.95 42.98 46.27 47.48 47.53 42.89 44.28 44.25 43.77 43.48 43.36 40.73 40.46 39.10 39.35 39.85
48.75 48.95 49.47 50.22 48.88 56.42 53.04 50.80 51.60 50.96 55.38 44.02 40.40 42.07 44.82 44.61 46.75 46.75 48.92 49.20 50.05 48.30 46.91 41.80 45.61 46.35 44.05 36.59 34.59 43.26 44.63 41.34 42.79 44.39 44.17 41.29 42.12 40.58 40.68 39.51 40.18 40.94 40.64 40.27
48.37 48.57 48.62 48.57 48.52 49.47 51.80 53.06 49.74 52.19 49.44 45.83 38.22 37.50 41.47 44.60 41.49 38.85 42.60 42.17 44.98 44.57 43.72 39.41 41.45 40.96 41.29 35.68 41.58 40.20 40.66 40.48 41.16 41.96 43.82 43.00 41.05 40.35 40.02 40.92 40.08 38.15 37.50 37.92
48.50 48.55 48.62 49.16 47.94 45.27 48.01 47.32 48.98 51.83 50.48 41.45 36.23 35.14 34.78 43.72 39.48 39.25 40.63 42.63 37.13 42.54 35.68 37.08 40.01 36.77 35.53 38.61 36.44 37.67 38.89 40.64 38.91 40.61 40.74 39.58 37.95 37.79 37.91 37.36 37.08 35.98 36.18 36.74
48.24 48.04 44.26 36.21 41.45 47.38 48.11 46.22 45.75 42.85 42.98 41.06 37.31 43.73 38.70 43.41 37.86 36.95 38.37 37.68 36.77 34.59 36.37 38.63 33.14 34.26 33.78 35.94 38.54 39.59 40.38 40.11 40.08 36.68 34.67 35.09 34.53 34.98 35.24 35.46 36.41 36.13 35.61 35.62
43.43 38.39 36.23 42.88 46.54 44.43 39.93 34.94 35.64 35.26 33.33 35.95 35.56 36.13 36.16 41.33 37.90 36.59 36.77 33.51 34.59 31.83 34.80 34.65 33.44 33.68 35.47 37.88 37.07 38.66 38.84 38.64 37.01 36.46 36.15 36.00 35.87 35.13 35.17 35.21 35.35 35.10 34.82 34.44
43.74 42.88 44.13 41.98 39.49 34.88 33.33 32.06 32.24 32.34 33.61 33.99 34.00 34.68 37.03 35.50 40.19 36.41 33.66 33.33 33.51 30.18 35.94 31.11 29.48 35.81 36.87 37.06 36.96 37.37 37.09 36.51 35.54 35.99 35.57 36.23 36.01 36.51 35.50 34.88 34.44 34.50 33.91 32.72
43.98 38.79 33.13 34.63 32.22 31.88 31.51 30.05 31.69 32.40 35.11 34.63 34.37 33.14 36.03 35.91 36.85 32.96 34.59 31.51 30.97 34.47 28.40 29.26 34.36 36.44 36.84 36.98 36.81 36.76 36.90 35.94 34.42 35.47 36.34 36.80 36.36 35.85 33.68 33.05 33.52 33.06 33.27 33.42
36.30 32.96 31.15 32.78 30.74 32.71 33.47 34.63 35.32 35.47 36.05 35.32 34.96 32.78 34.85 32.96 31.56 32.95 30.61 30.22 31.79 26.89 25.22 28.27 33.61 34.67 35.11 35.89 36.42 35.51 34.56 34.57 32.55 33.93 34.81 34.49 33.57 33.39 33.16 31.79 32.10 31.19 31.28 32.62
33.34 34.48 29.77 31.14 31.36 34.05 34.05 34.96 35.32 35.08 36.72 36.23 33.96 33.25 35.57 31.68 29.60 30.99 29.10 26.31 25.09 27.64 28.22 33.15 34.97 34.52 34.95 34.97 35.18 35.52 34.69 33.53 32.37 34.28 34.57 33.39 32.67 32.48 32.62 34.09 34.22 33.60 32.00 31.35
32.94 31.66 29.98 31.11 32.01 31.51 32.42 33.33 32.96 35.51 34.20 34.44 35.44 31.94 30.76 28.99 30.07 26.89 27.11 25.74 24.81 29.39 33.80 35.52 35.02 33.97 33.95 34.65 35.71 34.88 34.17 33.11 33.00 33.51 33.75 33.36 32.61 32.01 33.11 33.42 32.88 31.99 32.22 31.34
31.85 29.76 31.57 31.73 32.60 33.87 34.05 35.50 34.59 36.18 34.20 31.68 32.11 28.96 27.63 27.42 26.32 25.51 27.68 26.50 31.01 33.82 33.93 34.69 34.48 33.93 34.19 34.65 33.99 32.90 32.74 32.56 33.61 34.17 34.12 33.84 33.97 33.49 31.72 31.76 33.32 33.64 34.61 32.24

GFSNW_sfc_wetblb_015.txt.gz
Wetbulb
52.47 50.71 50.83 50.91 52.24 52.65 54.28 59.69 52.29 62.77 64.33 53.20 55.26 50.50 49.91 48.44 50.76 52.53 50.96 51.32 49.62 48.24 48.06 46.58 46.40 45.91 48.26 50.71 50.44 46.40 47.88 45.55 40.95 42.35 47.33 49.13 47.65 45.27 44.27 38.94 35.66 39.22 37.37 37.23
50.95 50.58 50.91 50.37 51.80 52.22 63.22 56.09 56.35 62.48 61.95 50.65 51.99 51.24 49.67 50.97 50.36 50.34 50.30 49.07 50.63 51.24 48.56 45.02 47.61 47.82 50.25 50.91 50.18 48.04 48.42 44.47 38.49 40.52 44.91 47.32 44.45 45.39 44.44 42.73 41.09 36.21 35.31 37.66
50.29 50.72 50.83 50.96 51.66 52.61 60.74 57.43 53.10 56.13 57.79 56.67 52.19 49.86 49.17 47.96 51.59 50.39 51.49 50.40 51.72 50.07 47.86 49.77 47.00 47.31 49.19 50.52 50.48 45.06 48.09 44.96 40.39 36.98 39.87 43.04 40.68 42.51 43.69 42.84 37.32 37.88 38.63 40.95
50.06 50.74 50.78 51.20 51.68 51.92 60.69 58.85 54.67 55.22 50.69 52.15 52.90 52.35 50.63 48.38 46.78 51.04 52.04 49.43 49.65 48.76 45.18 46.99 46.11 48.64 48.39 48.97 45.32 48.90 48.39 40.45 43.15 43.46 43.37 43.13 42.08 41.73 42.41 40.85 41.52 37.52 40.30 41.14
50.09 50.39 50.89 51.10 51.31 51.69 60.94 55.22 54.58 55.97 54.63 53.68 52.16 47.75 49.40 48.43 48.26 49.56 48.32 48.66 49.92 49.78 46.59 46.20 45.35 46.87 45.92 45.11 48.23 47.41 47.38 41.16 41.33 38.90 42.83 42.33 40.14 42.07 42.68 42.63 42.57 42.39 42.30 41.17
50.24 50.42 51.23 50.81 51.19 52.56 60.48 59.55 59.37 57.37 47.37 52.43 50.87 50.24 50.01 49.54 51.06 50.07 51.43 51.20 49.48 47.93 48.71 51.44 51.85 51.70 50.39 48.96 47.11 45.05 44.54 43.13 38.96 35.66 40.73 39.18 35.89 40.78 41.54 42.55 43.90 43.27 38.41 42.98
50.53 51.62 51.00 50.58 50.99 52.58 62.20 60.03 59.34 55.37 49.14 51.33 50.75 50.26 50.93 50.20 50.46 49.32 51.31 51.80 49.83 51.12 54.27 53.43 51.83 50.56 49.04 49.13 48.34 49.03 43.54 41.59 40.43 36.55 35.89 31.04 42.29 46.65 45.57 43.32 44.11 45.49 45.32 45.88
52.20 51.66 50.70 50.42 50.68 52.14 60.78 59.57 58.77 54.36 42.13 52.03 50.48 50.96 51.05 51.13 51.69 50.72 50.51 50.74 53.05 55.34 51.98 47.11 40.56 40.02 37.43 41.51 45.43 45.70 47.51 43.51 36.72 34.26 34.20 37.91 41.16 42.87 42.45 40.89 40.72 46.23 45.13 45.90
51.84 51.50 50.79 50.30 50.67 52.05 60.64 58.37 59.33 57.77 45.23 50.23 52.67 51.43 52.03 49.87 49.63 49.50 49.11 52.32 54.59 53.93 50.16 44.06 36.38 36.91 39.17 39.07 40.55 44.14 44.41 44.84 41.31 36.29 31.30 29.78 40.53 45.13 46.58 46.23 36.96 46.04 46.37 44.97
51.82 51.57 51.01 50.49 50.63 51.44 60.18 59.47 59.97 58.45 54.04 53.03 53.70 51.55 51.24 53.61 51.90 49.88 50.52 50.29 49.59 53.05 44.99 38.69 39.89 39.85 42.21 37.58 35.87 33.44 36.25 36.84 36.63 35.10 33.84 37.09 44.43 45.53 46.86 34.75 38.49 46.79 46.57 45.13
51.64 51.67 51.23 50.43 50.42 51.04 57.90 59.05 59.96 58.74 53.61 52.85 53.72 53.73 52.42 52.71 52.84 49.39 51.40 49.58 49.91 49.40 39.07 39.45 42.11 37.93 42.13 40.41 42.13 39.10 37.09 36.16 33.43 36.25 32.58 29.98 46.30 44.96 39.07 44.52 48.06 46.74 43.95 42.08
50.83 51.81 51.46 50.80 50.47 50.64 53.01 58.99 59.49 60.02 57.17 54.64 57.28 56.40 56.73 56.00 55.64 54.21 52.92 50.52 50.45 50.89 47.11 43.48 44.23 38.71 36.90 40.13 37.49 45.14 38.38 42.30 40.32 40.45 40.12 47.33 47.93 46.42 48.38 48.97 46.97 44.68 41.86 43.39
50.46 50.97 51.86 50.82 50.37 50.65 53.34 60.07 59.84 60.02 55.83 54.77 54.68 53.25 55.99 58.37 57.77 58.96 52.07 53.66 53.06 52.38 55.03 49.14 42.88 36.18 44.15 35.08 40.33 44.25 45.14 47.80 42.56 42.30 44.51 45.27 46.39 48.11 48.13 47.99 46.07 44.55 43.21 44.17
50.22 50.40 51.43 51.16 50.27 50.79 52.82 59.16 58.80 58.34 53.09 39.81 51.76 53.89 54.15 55.73 57.86 57.49 57.54 55.47 54.99 54.90 53.20 41.74 37.63 39.63 48.47 42.01 45.21 43.94 45.95 46.51 43.85 43.23 46.04 45.82 47.69 46.82 46.19 46.25 45.28 42.90 45.28 43.75
49.45 49.43 48.78 51.13 50.65 51.53 58.02 59.43 58.71 58.62 55.98 46.47 50.84 52.60 52.44 53.83 55.08 55.71 55.67 55.04 53.22 51.95 44.87 38.36 40.68 48.84 47.96 46.10 44.18 42.68 46.14 44.66 42.81 40.30 45.89 44.46 44.66 45.66 46.55 44.88 44.13 43.55 42.56 41.64
48.25 48.60 50.28 50.67 50.49 51.27 58.98 54.89 59.15 58.39 58.52 51.11 42.66 52.31 50.16 52.00 53.85 54.18 53.86 54.45 53.99 53.21 48.63 41.76 48.96 51.11 47.76 36.89 38.18 44.69 47.70 48.60 48.84 46.00 47.97 45.80 44.49 45.18 46.41 44.31 43.31 42.48 42.02 42.35
48.24 48.76 49.81 50.68 49.91 57.60 54.44 52.36 54.00 51.96 59.42 49.58 43.44 46.83 48.35 48.85 51.32 51.86 52.57 52.57 50.91 50.18 48.15 46.76 46.56 47.75 47.35 39.45 37.98 44.43 47.14 47.25 45.72 46.69 45.71 41.12 43.54 42.54 44.02 42.72 42.66 42.81 42.31 41.34
48.56 48.76 48.64 48.74 48.49 49.85 53.75 55.77 51.84 53.90 55.11 52.56 41.44 41.17 43.70 48.23 45.39 44.32 48.90 45.75 47.87 47.90 47.75 43.72 43.55 46.68 45.22 37.44 43.40 46.14 45.87 44.51 43.38 43.12 44.32 44.70 44.81 43.77 42.56 42.58 41.34 38.98 38.63 39.05
48.36 48.13 48.45 50.76 51.15 49.81 54.31 47.90 50.78 56.55 53.56 46.19 38.18 36.55 36.00 47.24 41.95 42.43 43.08 44.60 39.99 45.61 37.82 40.20 43.43 40.14 37.98 42.19 44.16 43.86 44.00 43.35 42.74 43.43 43.61 42.87 40.62 39.65 39.14 38.81 38.54 37.39 37.21 37.40
47.89 48.69 46.12 38.18 42.86 47.71 48.76 51.42 49.10 47.39 46.81 47.08 38.00 45.65 39.71 45.15 39.97 37.63 39.04 39.66 39.20 35.08 37.89 39.23 33.28 34.64 41.39 41.49 42.90 43.76 43.93 44.13 43.10 40.15 38.18 37.47 35.96 36.75 37.33 37.35 37.89 37.46 36.62 36.50
44.11 39.05 36.55 43.55 46.81 45.65 40.45 36.71 39.81 40.45 35.46 39.40 42.29 42.76 40.39 45.09 38.73 36.70 39.81 35.64 35.82 33.28 35.89 36.36 35.13 35.08 40.10 41.78 41.85 42.93 43.06 42.82 41.03 39.78 38.32 38.08 37.50 37.12 36.93 36.96 36.95 36.50 35.96 35.41
43.84 43.29 44.34 42.77 39.60 35.38 36.17 34.19 33.10 33.63 35.08 35.73 34.49 36.73 41.96 39.02 42.95 36.18 33.93 33.65 34.73 32.56 39.05 33.19 30.94 38.50 41.37 41.25 40.53 40.77 40.43 39.37 38.01 37.91 37.40 37.84 37.61 38.24 37.29 36.54 35.87 36.01 35.42 34.12
43.33 36.65 33.60 33.89 32.18 31.29 32.01 30.01 32.56 32.56 33.83 34.22 34.32 32.71 34.72 35.55 37.20 33.63 34.73 32.38 33.46 37.69 30.76 30.41 36.69 40.38 40.40 40.56 40.40 39.52 39.47 38.17 35.98 36.63 37.54 38.09 37.80 37.45 35.82 35.20 35.62 35.07 34.92 35.70
35.63 32.74 31.29 32.20 31.47 32.92 33.99 35.28 35.28 35.64 36.00 35.28 34.37 33.10 33.81 34.01 34.19 34.55 32.01 32.67 34.43 28.73 26.75 30.81 38.83 39.16 40.15 40.87 40.32 38.99 37.58 34.67 34.55 35.29 36.08 35.66 36.24 35.73 35.93 34.19 34.11 33.07 33.27 34.83
34.94 34.79 30.55 31.64 33.27 34.01 33.65 34.37 35.82 36.42 38.14 37.80 36.89 37.06 38.04 34.01 32.20 34.07 31.49 28.49 27.46 29.49 31.37 36.30 38.92 39.51 39.35 38.05 37.55 36.98 35.97 34.90 34.79 36.20 36.31 35.07 35.10 35.12 34.63 36.12 36.34 35.97 34.19 33.43
35.70 33.64 31.83 33.46 33.46 32.38 32.74 33.46 33.28 37.36 37.42 38.03 37.93 34.01 32.74 31.47 32.88 29.39 29.45 29.06 27.39 32.27 36.32 39.21 37.86 36.39 36.68 36.76 37.08 36.97 36.84 35.50 35.39 35.52 35.42 35.80 35.21 33.96 35.05 35.91 34.67 33.65 33.10 32.56
34.17 32.15 34.92 34.37 34.73 33.65 33.10 36.00 35.76 38.72 35.82 33.10 34.66 30.55 30.27 30.92 29.85 28.69 32.30 30.58 34.28 37.13 37.76 37.93 37.33 35.53 35.84 36.28 36.19 35.22 35.30 35.03 35.34 35.46 35.84 36.06 36.40 36.13 34.61 33.27 35.87 35.70 34.98 33.96

GFSNW_sfc_wetblb_021.txt.gz
Wetbulb
50.52 50.15 50.34 50.47 52.08 53.15 54.26 54.41 44.45 59.17 60.41 45.13 46.19 43.89 49.95 47.02 48.95 51.49 50.55 49.47 47.50 46.10 45.78 44.77 44.52 43.88 45.66 48.82 48.40 43.16 43.51 40.69 31.29 39.63 44.41 45.87 43.22 41.51 41.12 28.77 30.50 29.52 27.99 29.82
50.26 49.97 50.24 51.52 51.90 52.44 56.10 50.84 51.80 59.05 58.62 38.47 39.05 48.70 49.45 50.32 48.52 48.68 48.84 47.79 49.21 48.91 45.81 41.52 45.56 45.48 49.01 49.58 46.57 43.48 43.97 38.37 29.61 35.70 41.02 44.03 40.14 42.68 42.58 40.17 32.59 29.58 22.50 27.29
49.93 50.13 50.21 51.67 51.92 52.76 54.71 52.85 43.43 50.40 51.60 51.22 48.18 48.18 46.28 46.88 50.79 49.88 50.46 48.98 49.38 47.21 45.26 47.19 44.20 44.44 48.58 48.70 46.44 45.52 45.78 41.25 35.22 29.75 35.11 38.41 35.83 39.20 39.80 38.01 28.36 29.68 30.66 35.47
49.75 50.47 50.57 51.57 51.74 52.07 55.16 52.68 48.07 48.01 40.22 43.80 46.70 48.46 47.78 46.27 45.79 49.61 50.10 47.47 47.85 45.95 40.00 43.42 43.17 45.48 46.06 47.74 45.60 45.88 43.66 35.91 38.92 39.64 40.10 40.00 38.41 37.94 38.13 36.35 36.24 29.29 33.25 36.62
49.79 50.48 51.49 51.14 51.29 51.12 54.00 52.16 51.09 49.65 46.67 46.84 46.55 44.93 46.19 46.61 47.68 47.51 46.52 45.46 47.56 47.37 43.08 43.92 42.24 45.16 43.94 42.97 44.50 43.52 44.27 33.69 33.55 32.43 40.14 38.81 35.38 37.77 38.51 38.38 38.96 37.92 38.03 37.14
49.82 52.03 51.20 50.85 51.22 52.32 53.99 54.76 55.43 52.26 46.70 45.30 43.87 44.30 47.21 48.07 48.67 48.92 50.44 47.98 45.28 41.46 45.26 46.48 46.57 46.38 45.72 46.05 43.36 41.52 40.86 33.45 30.17 28.82 35.80 33.54 27.69 35.23 38.72 39.22 40.35 38.84 31.95 38.16
51.86 52.07 51.05 50.58 50.96 52.24 57.62 56.46 55.38 47.07 39.94 45.40 46.50 49.50 49.50 48.07 48.36 46.02 49.10 49.14 43.97 47.60 49.40 46.64 44.91 43.33 43.85 46.52 44.82 46.72 36.47 34.28 31.03 24.55 26.51 17.36 37.56 42.43 42.06 39.65 40.62 40.87 41.37 41.34
52.07 51.53 50.96 50.57 50.85 51.69 57.01 56.64 55.81 46.45 35.89 47.51 48.17 47.99 48.15 48.40 48.73 47.05 47.55 49.08 49.57 49.91 48.01 36.97 32.40 31.93 30.73 37.15 43.45 43.08 44.07 33.63 25.66 25.25 25.57 31.14 37.72 41.38 39.01 36.46 35.56 42.94 41.63 41.53
51.43 50.98 50.50 50.91 50.81 51.57 56.87 55.40 56.63 52.02 41.03 41.87 51.95 47.35 47.91 43.53 43.27 44.28 46.37 50.74 51.40 50.51 37.70 31.15 27.08 26.97 32.23 33.04 37.81 41.36 42.06 36.49 29.16 27.82 19.27 16.44 33.24 42.31 44.69 42.79 28.68 43.37 42.87 40.66
51.43 50.93 50.47 50.22 50.56 51.16 56.56 55.36 56.83 55.89 45.21 49.21 50.48 46.27 45.53 49.05 46.30 42.80 45.34 45.84 44.33 47.84 33.50 32.77 30.16 29.67 38.86 31.52 30.08 26.95 31.64 32.13 24.73 22.74 18.58 28.39 40.20 43.76 44.80 28.50 30.00 42.34 42.55 40.75
52.03 51.13 50.64 50.49 50.39 50.74 55.46 54.33 56.60 54.73 46.98 48.78 52.76 52.66 49.11 49.16 47.53 39.44 45.22 41.47 41.08 36.19 35.02 32.55 31.96 28.70 31.80 32.46 37.15 32.43 28.50 27.12 24.21 29.00 26.98 22.83 43.62 42.48 33.85 37.57 42.96 43.46 41.75 40.20
53.03 51.50 50.87 50.55 50.43 51.14 52.20 53.43 56.51 57.68 52.37 50.35 53.17 52.74 53.52 52.71 52.47 48.90 47.01 43.05 46.09 44.16 37.57 33.83 34.96 32.76 34.90 32.79 27.39 40.18 31.71 34.71 31.38 32.38 30.74 39.98 43.55 42.02 43.65 44.60 43.36 41.23 40.71 43.27
51.62 52.18 51.39 50.99 50.50 51.05 52.42 54.92 55.50 55.91 47.60 48.85 49.72 49.09 52.83 54.79 54.26 55.00 45.71 45.65 50.11 48.03 48.58 39.74 39.28 30.52 36.00 28.03 31.45 32.41 39.97 43.45 34.31 36.10 41.03 42.39 42.97 44.67 44.83 43.92 42.29 43.06 44.01 43.09
50.80 51.44 49.96 50.66 50.81 50.77 52.25 54.23 55.32 52.99 47.23 36.25 45.54 52.99 51.08 54.08 54.60 54.69 53.93 52.06 52.04 50.30 44.26 37.77 35.87 31.41 42.19 32.97 35.83 33.46 38.73 42.19 39.57 35.86 40.93 42.19 43.99 44.67 44.25 43.38 43.80 44.16 45.11 44.53
48.41 47.96 48.21 50.41 50.55 50.57 55.32 55.32 54.73 54.57 50.46 38.41 39.58 50.39 51.41 52.97 52.90 52.51 53.11 51.68 49.52 44.24 37.65 34.78 34.15 34.88 37.33 33.05 34.37 33.45 42.88 39.45 34.56 31.97 41.94 41.44 41.98 43.37 45.05 44.02 43.52 43.27 42.22 39.02
47.51 48.46 49.53 50.59 49.93 50.10 55.02 50.32 54.03 52.18 54.76 43.58 36.58 47.86 47.78 50.03 51.15 51.21 50.50 50.10 48.93 47.32 40.63 35.13 40.68 47.38 39.37 33.44 32.19 41.06 44.75 45.62 44.48 41.60 45.02 44.03 43.62 43.73 44.60 43.55 43.62 42.36 39.67 38.65
47.74 48.97 49.84 50.39 48.96 51.95 48.97 47.12 49.62 49.17 52.27 40.22 36.73 38.86 44.64 46.44 48.83 46.70 48.30 48.55 46.12 46.00 41.63 37.50 35.56 38.79 42.82 33.88 32.13 41.49 44.34 44.87 44.60 45.43 43.87 41.11 42.06 40.63 44.34 43.51 41.46 41.10 38.02 36.65
47.47 49.20 49.48 49.01 47.29 48.71 50.00 50.45 50.20 50.01 49.62 43.96 37.10 36.91 36.48 46.32 36.76 37.65 43.89 37.70 42.56 44.78 40.82 38.67 36.00 38.20 35.37 33.80 40.80 43.57 44.95 44.84 43.69 43.53 43.59 42.49 42.56 43.27 41.24 40.65 37.15 35.30 34.03 33.75
48.47 48.63 49.64 50.91 49.83 45.63 48.83 48.32 48.73 53.15 48.61 37.96 34.06 32.53 31.44 43.25 39.48 37.80 37.46 41.63 34.04 40.41 34.96 36.05 38.99 34.52 34.58 38.94 41.02 42.18 42.86 41.87 41.82 43.25 43.35 43.43 42.66 42.40 37.13 35.78 34.76 33.21 32.27 32.38
48.46 49.38 46.60 39.63 42.36 47.13 48.47 49.21 42.55 40.22 39.69 40.40 35.33 37.97 35.78 40.60 35.51 34.42 35.13 34.22 34.06 33.14 34.39 38.25 33.14 34.43 39.05 41.30 42.52 43.03 42.79 44.15 43.93 40.39 39.98 38.79 34.50 34.47 34.19 33.97 33.97 33.24 32.21 32.21
44.73 39.45 35.87 42.52 46.73 46.07 40.38 37.14 36.91 37.88 34.57 38.74 37.88 36.51 36.19 39.79 33.99 33.66 34.72 32.96 33.14 31.17 30.35 32.97 32.04 31.84 36.26 40.58 41.15 42.27 42.97 43.33 41.83 39.16 38.28 37.13 35.71 34.36 33.84 33.04 31.50 30.57 29.97 30.19
43.13 42.50 43.92 42.11 38.91 35.37 35.89 34.22 34.03 34.06 33.98 34.72 34.39 35.66 39.25 36.38 41.86 34.48 34.04 33.27 32.76 29.64 35.66 32.40 29.46 32.11 38.80 39.86 40.31 40.96 38.24 37.89 37.63 37.98 36.92 36.58 36.25 35.42 32.58 31.44 30.84 30.76 30.00 26.15
41.87 37.80 34.58 36.39 32.22 31.28 31.27 29.93 30.90 31.82 32.40 33.83 33.47 32.96 33.68 35.16 36.60 32.77 32.73 31.64 30.58 33.56 30.92 26.83 29.00 37.85 39.18 39.54 36.93 34.32 34.59 32.96 33.29 34.83 35.63 35.33 34.51 33.44 30.63 29.30 30.56 26.64 29.76 30.71
34.79 33.12 30.30 31.48 30.15 30.72 30.35 31.25 32.05 32.76 32.59 32.77 32.96 32.20 32.56 32.41 32.40 31.84 30.68 31.08 31.42 28.69 24.31 21.46 32.93 37.22 38.43 37.84 35.62 33.40 31.38 29.08 30.18 30.58 30.94 29.99 29.94 29.55 27.57 28.17 26.56 23.76 27.81 29.53
33.11 33.23 29.20 29.79 31.11 32.02 32.02 32.20 32.40 32.88 34.54 33.50 32.58 32.40 33.45 31.48 30.53 31.11 29.61 27.55 26.42 27.95 27.59 30.75 33.90 35.13 34.77 33.60 33.14 30.78 29.76 26.96 29.20 31.18 30.05 26.45 26.84 27.93 29.87 29.87 29.91 30.09 26.73 28.05
33.83 32.34 30.50 32.20 32.23 31.85 32.08 32.06 31.90 35.07 33.32 33.68 33.29 31.29 31.28 29.23 29.82 28.12 28.10 27.35 25.89 29.64 31.67 32.84 32.46 32.46 32.73 32.84 32.97 31.82 31.68 30.75 30.76 30.88 31.05 30.18 26.46 25.25 30.06 30.08 29.10 26.51 27.77 26.65
32.11 30.48 33.50 32.71 32.36 31.21 31.81 32.97 33.14 36.52 33.30 31.63 31.85 28.45 26.43 29.48 27.39 26.98 30.39 28.51 30.19 32.00 31.85 32.13 32.51 32.24 32.16 31.44 31.48 29.81 31.13 31.55 31.45 31.35 31.15 30.89 30.66 27.51 27.78 28.45 31.36 30.62 30.62 27.33

GFSNW_sfc_wetblb_024.txt.gz
Wetbulb
49.65 49.86 50.20 50.54 51.92 52.68 53.01 50.65 41.97 55.59 53.58 40.69 42.63 41.63 47.77 46.82 47.18 49.71 48.14 47.46 46.31 43.77 43.56 43.03 42.45 42.01 43.71 47.33 46.51 40.50 42.00 37.75 30.19 37.90 42.46 43.60 41.11 39.54 37.88 27.27 29.33 27.63 26.10 27.91
49.85 49.86 49.78 51.53 51.95 52.43 52.14 47.41 49.36 56.62 51.12 34.31 34.51 45.08 47.53 48.18 46.54 46.54 46.64 46.08 47.43 47.18 43.86 40.64 43.86 43.70 47.20 46.58 44.82 41.97 41.42 35.67 28.23 34.04 39.26 42.04 38.69 40.64 40.71 36.61 30.52 28.84 21.39 26.80
49.65 49.73 50.11 51.54 51.77 52.54 53.67 49.74 41.69 47.48 49.34 46.26 43.21 44.50 44.13 44.89 48.65 47.78 48.32 46.96 47.65 45.59 43.44 45.28 42.32 42.84 46.67 46.18 44.19 44.49 44.78 38.63 33.61 29.47 33.88 36.69 33.61 36.75 38.64 36.00 26.79 28.29 28.44 32.98
49.54 49.76 51.00 51.30 51.54 51.76 52.36 50.26 44.82 44.91 37.89 40.71 44.72 46.05 45.86 44.37 43.67 47.63 48.01 45.42 45.83 44.16 38.95 41.92 40.95 43.74 44.48 45.95 44.49 43.99 41.62 34.36 36.62 36.92 37.88 37.53 35.93 35.27 35.28 34.21 34.15 29.32 31.81 33.62
49.55 50.24 51.01 50.87 51.23 51.59 51.79 50.55 48.66 46.43 41.65 44.07 44.27 43.48 44.56 44.59 45.73 45.93 44.56 43.26 45.59 45.22 41.12 42.29 40.63 43.17 41.79 40.85 41.90 41.08 41.98 32.27 32.52 30.76 37.87 36.80 32.89 35.36 36.08 36.41 36.46 36.01 36.19 35.47
50.13 51.68 50.70 50.56 51.04 51.63 52.73 53.71 53.28 47.96 43.09 40.76 41.23 42.35 45.06 46.00 47.02 47.00 48.25 46.02 42.74 40.12 43.62 44.22 44.01 44.22 44.90 44.44 41.63 40.23 38.13 31.77 28.09 25.90 33.19 31.75 26.45 33.91 37.00 36.71 37.32 36.77 31.72 36.32
52.05 51.23 50.34 50.20 50.73 52.46 57.35 55.96 52.80 44.69 37.84 42.30 42.75 47.43 47.17 46.15 46.13 44.73 47.15 46.54 42.23 46.19 48.28 44.01 42.60 41.42 42.81 44.07 43.43 43.69 34.73 31.92 27.63 22.31 23.59 16.00 34.24 40.16 40.32 37.88 38.42 39.43 38.86 38.57
51.06 50.38 49.96 49.86 50.26 51.29 55.03 55.39 52.57 44.02 34.48 44.51 45.54 45.93 46.17 46.48 46.51 45.42 46.14 47.67 47.25 47.75 44.36 33.69 31.61 30.40 32.59 35.60 41.69 42.37 40.54 30.31 26.08 20.20 23.95 28.05 34.89 39.26 37.64 35.45 34.69 41.00 39.27 39.29
50.46 50.22 49.80 49.90 50.25 51.30 53.57 53.23 54.51 46.45 39.78 40.14 49.29 45.05 46.09 41.87 41.07 41.72 44.92 49.13 49.81 45.58 33.99 29.40 26.26 25.44 28.82 31.45 36.03 40.03 39.12 32.92 26.20 27.70 16.54 15.33 29.98 40.00 42.80 40.70 29.38 42.05 41.23 39.24
50.39 50.76 50.04 49.97 50.37 51.31 54.19 52.63 54.80 51.33 43.16 47.14 48.60 43.80 44.20 46.19 42.97 40.55 42.97 43.84 42.83 43.01 28.81 31.31 24.44 29.28 36.02 30.02 28.71 26.30 29.06 26.02 24.32 16.43 16.13 26.11 35.52 41.62 42.44 28.48 30.07 41.42 41.21 39.65
50.32 50.33 49.93 50.04 50.64 50.82 53.27 52.18 54.34 51.60 44.06 47.54 50.92 50.27 47.12 46.85 43.95 38.16 42.98 40.30 38.97 36.64 29.89 26.84 32.66 24.77 30.81 30.64 34.81 31.58 29.06 27.07 23.90 23.46 17.21 21.45 40.18 40.52 33.49 36.63 40.89 42.11 40.58 39.76
50.19 50.10 50.03 49.87 50.13 50.58 53.25 50.01 54.90 54.84 49.37 48.52 50.96 51.34 51.57 50.96 49.83 46.44 43.64 40.61 41.75 40.15 35.17 34.20 35.36 26.57 33.63 29.25 28.04 37.76 30.37 32.08 30.00 31.91 30.98 37.93 41.10 40.35 41.30 43.14 41.71 40.69 39.91 41.69
50.76 49.66 49.54 50.01 50.28 50.93 53.77 52.40 52.97 51.67 43.91 45.91 48.05 47.96 51.84 53.15 52.18 52.58 43.65 42.69 48.26 46.09 43.29 37.47 32.56 27.09 33.04 29.56 31.36 32.79 38.12 41.30 33.42 34.61 39.01 39.78 41.35 43.02 43.40 42.92 41.37 42.09 44.05 43.96
49.43 47.62 47.88 49.27 50.09 50.81 53.32 51.93 52.27 48.49 43.35 34.96 43.41 51.50 49.32 53.11 53.02 53.18 51.82 50.18 49.27 45.89 41.43 35.85 34.23 29.03 38.06 30.05 33.05 31.46 35.91 40.31 37.88 34.02 38.95 40.68 42.62 41.99 42.31 41.95 42.48 43.49 44.88 44.20
48.33 48.51 49.41 49.70 49.86 50.59 53.42 52.38 50.83 51.93 46.23 38.31 38.32 48.38 50.37 51.29 51.77 51.76 51.65 50.02 47.18 41.29 36.70 34.23 33.22 31.40 34.80 32.99 31.34 31.91 40.75 38.40 33.96 31.99 39.89 39.65 40.48 42.20 43.18 41.59 42.64 44.27 42.79 35.62
48.24 48.96 50.38 49.75 49.09 50.96 52.92 47.35 51.88 50.06 50.56 40.41 33.82 44.63 45.67 47.47 50.34 49.66 49.25 48.69 46.90 43.70 38.16 34.73 37.38 43.73 35.99 33.43 34.84 39.35 43.22 44.84 43.69 40.56 44.08 43.51 42.68 43.37 44.35 43.80 43.27 41.62 36.25 34.56
48.31 49.71 49.29 47.50 48.63 49.50 47.88 44.07 48.87 48.77 49.10 38.63 36.15 34.83 43.09 45.25 47.00 44.18 45.54 45.89 44.29 44.07 37.97 35.72 37.63 36.04 40.55 33.32 32.66 39.94 42.99 44.24 44.20 44.18 43.04 40.17 40.99 40.45 44.68 44.71 41.19 37.27 35.00 34.14
48.74 49.80 49.57 48.52 48.64 49.54 48.68 48.83 48.18 48.78 45.81 40.12 33.67 32.19 34.67 44.38 35.47 36.57 41.08 36.82 40.54 41.61 40.86 38.41 35.41 36.14 34.83 33.84 39.26 41.98 43.93 43.72 43.32 42.81 42.34 41.48 42.28 43.76 39.90 37.39 35.67 33.35 31.75 31.86
49.35 49.28 49.56 48.87 47.41 44.64 48.08 47.48 46.88 50.38 45.68 36.18 32.77 31.00 31.09 41.04 38.60 36.59 35.01 38.39 33.31 39.01 34.77 35.12 36.27 33.82 33.11 37.56 39.54 41.21 42.14 41.29 41.54 42.03 42.41 42.71 42.29 37.72 35.47 34.86 33.50 32.17 31.67 31.46
48.46 47.33 44.06 39.77 42.35 46.99 47.21 45.74 41.21 38.84 40.36 38.26 33.13 37.30 33.56 39.83 34.05 33.88 33.49 33.47 32.58 32.40 34.75 38.14 33.14 34.42 37.61 38.93 41.28 41.47 41.91 42.17 42.63 40.87 40.17 37.24 34.05 34.00 34.08 33.20 33.80 32.87 31.66 30.82
44.96 40.33 36.77 42.06 46.26 43.66 38.83 36.62 36.04 37.03 34.53 37.82 36.19 35.70 35.70 37.58 33.82 33.84 33.13 32.54 32.90 30.46 28.88 30.01 28.65 30.32 34.36 39.12 39.73 40.31 42.54 40.50 39.70 40.17 37.51 36.46 35.50 33.83 33.30 32.52 31.59 30.44 30.03 29.85
43.69 42.94 43.96 41.81 38.84 36.09 35.65 33.67 34.00 33.84 33.58 33.96 34.40 34.91 38.68 36.01 38.88 34.14 33.82 31.89 31.98 28.08 33.10 32.22 29.22 32.33 37.18 35.46 34.47 35.46 36.79 36.73 36.33 36.86 36.00 35.91 35.19 34.92 32.75 31.53 30.43 30.21 29.75 25.10
42.31 38.54 34.92 37.06 32.71 32.03 32.98 31.18 30.89 31.81 32.39 33.82 33.31 33.49 33.49 35.31 36.59 32.96 32.75 31.30 30.39 33.31 31.30 29.17 30.55 37.76 35.88 33.87 33.85 33.43 34.54 33.89 33.99 34.56 35.21 34.75 33.79 32.79 30.12 28.91 29.79 25.87 29.24 30.05
35.31 33.82 30.25 31.65 29.40 29.96 29.95 31.08 31.84 32.22 32.40 32.60 32.77 32.00 32.37 32.04 32.57 32.01 30.70 31.24 31.29 28.68 24.48 20.96 33.02 37.46 37.04 34.08 33.54 32.26 30.46 29.09 30.10 30.70 31.83 30.90 29.59 28.81 26.46 24.94 24.80 22.51 26.76 29.03
33.20 30.46 28.08 27.75 30.09 31.26 31.60 32.21 32.39 32.74 33.99 32.95 32.37 32.19 33.26 31.29 30.14 30.71 29.03 27.12 25.47 27.36 26.29 30.56 32.71 34.14 33.22 31.69 31.68 30.37 29.76 28.20 29.99 30.78 29.42 25.65 25.35 26.59 28.47 28.68 28.81 29.33 25.64 24.97
32.72 31.83 29.29 30.66 30.75 31.26 32.07 31.87 32.07 34.50 32.95 32.95 32.74 31.09 30.53 28.09 29.21 27.15 26.95 26.37 23.97 27.58 31.12 32.63 31.90 32.08 32.08 32.31 32.10 31.39 31.38 30.78 30.74 30.62 30.51 29.63 25.40 23.44 29.14 29.18 27.65 26.18 24.55 25.70
32.09 30.31 32.75 32.18 31.44 30.53 32.25 32.40 32.40 35.66 33.46 30.34 31.00 25.60 24.28 28.68 25.51 26.04 29.76 26.80 29.99 31.91 31.81 31.96 32.04 32.06 31.63 31.36 31.31 30.18 31.27 31.35 30.97 30.92 30.68 30.23 29.95 26.16 26.02 26.99 30.56 30.02 29.93 26.62

GFSNW_sfc_wetblb_027.txt.gz
Wetbulb
50.17 49.86 49.86 50.03 52.36 52.57 52.64 47.95 40.14 53.57 49.21 39.67 40.11 40.39 46.00 46.63 45.39 48.18 46.97 46.06 44.11 41.86 42.01 41.26 40.65 40.33 41.99 45.55 44.84 38.67 40.53 36.05 29.81 36.06 40.98 42.18 39.26 37.36 35.57 25.50 27.92 26.56 25.00 27.02
49.81 49.45 49.69 51.12 52.16 52.62 51.57 45.76 49.05 55.23 47.43 32.92 33.65 41.84 46.38 46.23 44.75 45.09 44.94 44.31 45.68 45.32 42.45 39.10 41.89 42.11 45.38 44.39 43.23 40.38 40.04 34.39 28.07 32.97 37.76 39.84 36.97 38.52 37.34 33.99 29.81 27.93 20.73 26.07
49.71 49.06 49.63 51.74 51.93 52.41 52.66 47.08 40.65 45.59 47.79 42.44 40.41 41.39 42.56 42.90 47.15 46.20 46.38 45.11 46.22 43.64 42.24 43.58 40.53 41.28 44.92 43.76 42.31 44.29 43.13 36.90 32.19 28.70 32.14 35.36 32.03 35.04 36.77 34.20 26.28 27.60 27.32 30.05
49.44 49.37 50.49 51.65 51.73 51.80 52.30 48.19 42.23 43.52 37.80 41.11 43.80 43.99 43.87 42.57 41.89 45.95 46.22 43.91 44.22 42.31 38.07 39.91 39.42 42.14 42.59 43.21 43.75 41.91 39.70 33.03 34.75 34.64 35.69 35.35 33.97 34.11 34.60 33.17 32.61 28.96 30.60 32.13
49.28 49.69 51.21 51.20 51.32 51.59 50.28 48.06 45.22 44.16 39.39 42.27 42.96 41.84 43.24 43.16 43.94 44.25 42.69 42.35 43.66 43.03 40.21 41.13 39.78 41.77 39.97 38.09 40.80 39.75 39.89 31.11 31.31 30.53 35.76 34.88 31.53 34.11 33.42 33.39 33.96 34.29 33.46 33.77
49.92 51.20 50.54 50.77 50.99 51.80 49.06 49.66 50.47 45.76 40.35 39.62 39.49 40.77 44.16 44.68 45.43 45.40 45.96 44.82 41.62 38.43 41.79 43.25 43.02 42.88 43.35 42.66 40.22 38.65 35.60 30.64 27.09 23.98 30.90 29.42 24.21 31.43 35.04 35.58 36.22 35.40 30.74 35.70
51.42 50.46 50.09 50.31 50.92 51.73 54.79 53.03 49.12 43.32 36.06 37.60 40.00 45.14 45.40 44.79 44.75 43.57 45.27 44.91 41.65 44.62 45.18 42.35 41.56 40.29 41.51 43.06 42.01 41.54 33.21 29.65 24.43 20.93 22.92 16.23 32.13 37.09 38.10 35.95 36.52 37.51 36.89 37.68
50.29 49.78 49.76 50.03 50.58 51.76 56.38 53.70 49.08 42.48 33.57 41.98 43.70 44.84 44.57 45.00 45.15 43.87 44.73 46.00 45.65 45.96 40.02 32.83 31.86 29.57 31.47 34.53 40.05 39.39 38.44 29.31 24.94 19.74 21.79 27.27 32.77 37.30 35.95 34.65 33.62 38.90 37.67 37.58
49.85 49.37 49.47 49.52 50.51 52.09 54.71 52.77 50.35 45.79 41.28 41.43 47.26 44.31 44.37 40.52 39.56 40.68 43.43 47.75 47.55 42.72 31.60 28.68 24.74 24.22 28.66 30.12 34.63 39.05 35.59 30.66 25.69 24.98 15.62 14.80 29.50 37.83 40.74 38.88 28.72 40.18 39.02 37.89
50.00 49.60 49.55 49.84 50.37 52.76 53.05 52.45 52.23 48.80 42.70 45.68 46.73 42.82 42.88 43.99 41.14 39.24 41.84 42.99 40.99 40.60 27.66 23.46 24.34 27.82 33.01 28.93 27.58 26.78 28.55 24.14 21.94 16.10 15.43 25.35 33.77 39.78 40.65 28.20 28.64 40.07 40.20 39.44
49.97 49.55 49.46 49.71 49.98 51.70 52.78 51.69 52.73 49.69 43.66 46.68 49.04 48.95 45.70 44.67 42.47 37.79 41.76 39.80 38.09 32.35 29.02 25.97 27.26 22.69 30.16 30.03 33.07 31.43 29.54 28.18 26.92 25.75 18.84 22.83 38.21 38.23 33.11 36.35 37.79 41.18 40.34 39.45
49.69 49.47 49.67 49.85 50.18 51.54 51.95 51.05 53.76 52.74 48.17 47.39 49.76 50.07 49.96 49.33 47.22 44.57 41.53 41.58 39.89 39.06 32.14 29.42 30.96 25.68 32.86 27.71 26.19 35.34 28.98 31.43 29.18 30.80 30.46 36.97 38.86 38.74 40.08 41.03 40.99 40.70 40.30 40.09
46.78 47.11 48.25 50.01 50.64 51.87 52.85 51.76 50.95 47.95 43.03 45.74 47.03 46.54 50.88 51.83 51.07 50.90 42.02 40.80 45.12 42.52 40.43 37.38 31.73 25.74 30.94 28.86 30.42 30.93 36.20 38.38 31.66 33.13 36.75 37.83 39.03 40.75 41.62 42.13 40.85 41.09 41.74 42.01
47.56 47.83 49.43 49.76 50.85 51.66 52.04 50.75 49.98 46.13 41.24 34.76 42.54 50.16 48.37 51.83 52.32 52.16 49.62 48.09 45.59 42.82 39.20 34.33 32.95 26.62 35.45 28.91 32.26 31.69 35.67 38.21 35.43 32.97 37.11 39.45 41.72 42.23 42.02 41.27 41.72 42.38 43.42 42.90
48.41 49.42 49.34 49.29 51.07 51.46 52.02 50.21 49.04 49.74 44.31 36.86 36.73 46.75 48.80 48.92 51.34 50.49 49.76 47.93 44.95 40.30 35.70 33.13 32.66 30.82 33.75 33.56 30.36 32.28 38.65 37.07 32.17 32.06 38.83 39.10 38.82 42.09 42.01 40.59 40.71 42.27 40.92 36.26
48.97 49.35 48.19 48.55 50.12 51.64 48.94 44.55 50.05 50.16 47.62 39.95 34.30 43.06 44.37 46.34 48.76 48.57 48.14 47.75 44.85 41.63 38.05 34.17 36.05 40.53 35.14 33.22 34.41 39.20 41.47 42.54 40.81 38.74 40.72 40.67 40.09 40.96 42.18 41.63 43.02 41.04 35.71 34.81
49.06 48.75 48.01 48.74 48.71 48.77 45.66 41.40 46.88 47.94 46.40 38.15 36.15 34.99 41.44 43.74 44.68 42.24 43.90 43.78 42.71 42.53 38.77 35.03 35.41 34.81 39.27 33.65 32.44 39.03 41.52 42.57 42.77 43.07 42.09 38.96 40.09 40.32 43.51 42.93 37.96 37.06 34.99 34.43
49.57 49.24 48.39 48.35 48.99 49.04 47.32 47.79 47.13 47.25 42.77 38.28 32.62 30.91 34.34 42.86 36.69 36.73 40.77 37.10 39.97 39.38 38.33 37.80 36.50 35.48 34.19 32.79 38.47 40.50 42.16 42.28 41.91 42.15 41.63 41.42 42.02 42.86 39.41 35.67 34.61 33.25 32.24 31.79
49.80 48.59 48.49 48.12 46.66 45.75 47.63 46.84 46.84 47.25 43.93 35.06 32.30 30.25 30.40 39.74 37.90 36.17 35.05 38.28 33.62 38.56 34.22 34.93 35.55 33.27 33.51 37.39 38.24 39.99 40.45 40.30 40.97 41.31 40.76 41.07 39.53 35.48 34.46 34.44 33.31 31.86 31.11 31.12
47.28 46.95 42.35 36.02 42.85 46.79 46.43 44.39 39.07 37.55 39.76 36.88 32.65 35.95 32.45 39.36 33.84 33.68 33.04 33.77 32.76 32.83 32.32 38.15 32.94 34.07 36.66 37.60 38.74 40.38 40.65 41.10 41.63 38.62 37.68 33.25 33.23 33.76 34.00 33.66 33.85 33.14 31.81 31.20
43.32 38.09 37.30 43.09 45.58 42.51 38.36 35.59 34.53 37.13 35.63 37.40 35.97 35.05 35.39 37.86 33.87 32.73 31.72 32.56 32.35 30.29 28.06 32.80 29.89 30.17 33.08 34.62 33.33 35.98 36.83 38.48 36.96 37.44 36.74 36.46 35.57 34.21 33.49 32.04 31.79 31.28 30.72 29.98
42.54 41.18 42.60 39.11 36.78 34.17 33.84 31.82 33.66 33.77 33.18 33.78 34.37 35.08 38.39 35.82 36.68 33.90 33.65 30.16 31.38 27.32 33.27 31.83 28.09 30.51 31.56 31.47 32.52 34.56 36.46 36.77 36.25 36.88 35.99 35.78 35.38 34.88 33.07 32.34 31.29 30.84 29.70 25.12
42.54 38.96 35.74 37.14 33.25 33.01 33.27 31.61 31.25 31.79 32.38 33.43 33.30 33.30 33.12 35.26 36.16 33.12 32.70 31.26 30.06 32.38 31.22 29.39 31.04 31.62 33.57 34.39 34.73 35.18 36.54 35.92 35.97 36.46 36.49 35.72 34.07 32.71 30.50 29.27 29.89 27.06 28.97 29.65
35.54 33.66 30.92 31.97 29.38 29.56 30.15 31.05 31.61 31.82 32.38 32.57 32.57 32.17 32.53 32.21 32.51 31.81 30.66 31.22 31.07 28.85 25.21 21.24 31.62 35.03 35.94 33.22 32.39 30.97 29.66 28.76 30.10 30.36 30.81 30.27 29.08 28.81 26.96 25.91 25.40 23.76 26.80 28.65
32.40 32.03 27.46 27.88 29.77 31.02 31.44 32.02 32.36 32.38 33.80 32.74 32.54 32.35 33.15 31.43 30.48 30.69 28.99 26.93 24.90 25.12 21.15 29.07 31.46 32.05 32.13 30.57 31.42 31.10 29.87 27.78 29.21 30.15 28.92 26.31 25.35 25.85 27.31 27.75 27.63 28.36 22.92 23.29
32.40 31.43 29.35 30.72 30.60 30.90 32.23 32.21 32.06 34.31 32.76 32.92 32.71 31.07 29.55 27.88 28.82 23.64 21.84 22.82 19.31 22.96 30.10 32.27 32.19 31.26 31.47 33.15 33.52 31.31 30.90 30.40 30.24 30.45 30.48 29.71 25.92 24.59 29.18 28.48 27.16 24.24 22.90 23.69
31.12 30.34 32.56 31.35 31.25 31.07 32.05 32.42 32.57 35.36 32.91 30.51 30.12 23.65 24.51 28.64 26.40 25.82 29.17 25.69 29.26 31.47 31.92 31.82 32.39 32.40 31.44 31.57 31.93 30.50 31.12 31.19 30.83 30.64 30.23 29.96 29.55 25.05 25.51 26.38 30.25 29.40 28.76 24.39

GFSNW_sfc_wetblb_030.txt.gz
Wetbulb
51.86 50.76 49.98 50.06 50.27 52.39 51.44 44.10 39.67 53.35 47.64 39.67 38.46 39.16 44.19 46.32 43.79 46.23 45.35 44.38 41.99 40.10 40.22 39.45 38.77 38.87 40.70 43.31 43.45 37.71 38.92 35.10 30.20 34.76 39.10 40.35 37.76 35.66 33.73 25.07 26.84 25.78 24.54 26.15
50.54 50.21 49.77 50.01 50.99 52.59 50.45 47.00 48.64 53.68 45.68 33.39 33.05 40.09 44.23 45.01 43.19 43.89 43.47 42.93 43.98 43.81 40.89 37.73 40.02 40.52 43.57 42.84 41.37 38.99 39.39 33.73 28.40 31.83 35.42 37.64 35.26 36.80 35.13 31.82 29.06 27.57 20.44 25.27
49.92 49.64 49.36 50.12 50.88 52.50 50.09 46.75 41.51 45.38 44.80 40.52 39.36 39.44 41.44 41.40 45.10 44.56 44.93 43.75 44.43 42.16 40.58 41.85 39.30 40.00 43.20 42.27 41.09 44.01 41.98 35.15 31.90 28.45 30.47 33.46 31.72 34.94 34.92 33.02 25.21 26.70 26.62 28.95
49.53 49.40 49.55 51.55 51.52 52.12 51.18 45.55 41.69 43.88 38.29 40.99 38.55 41.28 42.49 41.03 40.44 44.50 44.95 42.38 42.72 41.10 37.27 38.30 37.82 40.81 40.95 41.26 43.16 40.87 38.27 32.44 33.10 32.89 33.82 33.50 32.09 32.67 34.22 32.58 31.56 28.77 29.60 30.18
49.13 49.60 49.81 51.20 51.47 51.75 49.41 47.23 42.55 40.57 38.36 43.45 41.81 40.03 41.51 41.62 42.17 42.68 41.13 41.19 41.94 41.46 39.15 39.97 38.59 40.62 38.98 36.77 39.63 37.84 38.16 30.74 30.28 31.16 33.97 33.00 31.14 32.72 32.48 32.25 31.74 32.33 31.26 31.63
49.21 49.73 50.95 50.84 51.14 51.21 47.84 48.90 48.49 43.57 38.30 38.88 38.87 39.68 42.63 43.13 44.46 43.73 44.15 43.34 40.76 38.28 40.61 42.02 41.72 41.78 41.44 40.58 38.90 36.52 33.73 30.14 27.76 24.77 28.88 27.72 24.14 30.86 32.65 32.50 33.82 33.30 29.71 33.80
50.62 50.80 50.51 50.33 50.98 51.55 51.64 50.99 48.12 42.02 33.28 35.88 40.68 43.24 43.80 43.13 43.17 42.55 43.49 43.21 40.24 42.19 43.41 41.77 40.98 39.92 40.92 41.91 40.70 39.30 31.53 28.73 23.47 20.17 22.27 16.03 30.96 35.16 35.07 34.47 35.31 35.67 35.12 36.06
50.28 49.95 50.04 50.19 50.55 51.17 53.27 51.72 47.58 41.68 31.72 36.99 40.23 43.13 43.26 43.61 43.71 42.46 43.28 44.59 43.79 44.09 38.70 33.47 32.85 29.63 32.20 33.62 38.14 35.59 35.49 28.37 23.53 18.99 20.57 26.85 31.52 34.80 34.69 33.55 32.86 37.73 36.61 36.58
49.25 49.25 49.42 50.01 50.69 51.55 54.09 51.55 48.09 45.83 39.21 39.54 44.58 42.78 42.68 39.46 38.31 39.28 41.71 46.00 44.75 40.53 30.17 28.61 25.18 25.59 30.26 29.26 33.36 37.36 33.59 30.14 25.70 20.48 16.10 14.81 29.29 34.70 38.58 37.60 29.02 37.63 38.50 36.70
49.25 49.39 49.31 50.00 51.02 52.25 53.72 51.66 50.42 47.33 42.24 44.69 44.57 41.64 41.93 42.26 39.93 38.25 41.01 42.24 39.47 39.08 26.75 22.57 23.54 25.85 31.11 27.62 26.66 26.54 27.51 24.20 21.12 16.69 15.11 24.46 32.64 37.65 38.84 28.00 29.76 37.72 38.92 37.66
49.34 49.32 49.27 50.08 51.62 51.87 55.58 52.71 51.36 48.14 43.35 45.41 47.73 47.88 43.84 42.93 41.27 37.13 40.95 39.26 37.83 31.80 29.28 26.38 25.84 22.50 29.20 29.61 31.97 31.41 29.46 28.77 27.87 23.96 15.83 21.86 36.56 38.24 32.95 36.24 35.56 39.10 38.86 38.32
48.03 48.21 49.31 50.02 51.19 51.78 53.70 52.82 52.47 51.06 47.34 46.47 48.75 48.88 48.78 47.59 45.71 43.19 40.51 41.28 39.32 38.59 31.57 25.83 28.50 28.12 31.32 27.47 25.76 33.67 28.96 30.98 27.54 29.37 29.59 36.16 37.22 37.82 38.63 38.81 38.63 39.11 39.12 39.89
48.57 49.47 49.50 50.71 51.27 51.39 52.96 51.20 48.26 47.46 43.08 45.02 46.36 46.10 50.01 50.82 49.70 49.06 41.26 38.82 43.01 40.22 38.46 32.54 31.46 25.31 29.22 26.06 28.73 29.42 34.67 36.16 29.74 31.93 35.31 36.08 37.48 38.59 41.19 40.17 40.26 40.73 41.29 40.79
48.75 49.52 49.87 50.27 50.57 51.00 51.55 49.77 48.19 44.26 40.96 35.24 41.33 48.74 47.23 50.12 51.07 50.49 48.17 45.61 43.06 40.72 37.74 32.78 30.14 26.49 33.69 26.94 30.45 29.84 34.53 36.14 33.84 32.21 36.42 36.60 39.54 40.56 40.19 40.79 40.94 40.78 41.95 41.75
48.95 49.01 50.69 50.72 50.79 50.92 51.29 49.18 47.96 47.68 43.08 36.97 37.21 45.29 46.74 48.33 49.90 48.58 47.75 46.04 43.63 39.65 35.34 32.99 31.30 28.26 31.61 32.70 29.68 31.53 36.83 35.66 31.35 30.77 37.28 37.43 38.06 40.27 41.65 40.76 40.75 41.81 40.45 37.33
47.16 47.61 48.59 49.72 48.33 49.79 46.56 43.70 48.46 48.68 45.81 40.44 34.65 41.75 43.00 45.32 46.75 46.59 46.14 46.21 42.94 40.76 38.06 33.87 34.82 38.71 34.47 32.92 33.14 37.97 39.38 40.19 38.95 37.43 38.88 39.01 38.97 40.03 40.14 40.50 40.97 39.47 35.80 34.14
47.92 48.17 48.54 48.96 49.18 49.13 43.25 40.42 45.66 46.86 44.88 38.16 35.50 34.71 40.16 41.77 43.33 41.12 42.48 42.89 41.44 41.07 38.48 33.77 34.53 35.72 37.41 32.19 30.67 38.05 40.14 41.31 41.14 41.34 40.75 38.24 38.76 39.20 42.04 41.74 36.22 35.91 34.47 34.13
48.28 48.17 48.51 48.62 48.52 48.04 46.23 46.66 46.91 46.85 41.53 37.71 31.90 31.20 34.04 41.57 36.61 36.70 40.74 37.24 39.88 40.01 38.69 37.29 35.09 36.20 34.39 33.40 36.99 39.55 40.94 41.53 41.07 41.24 40.39 39.89 40.48 40.45 34.37 34.59 34.83 32.97 32.31 32.55
48.21 47.66 48.19 48.40 46.42 45.10 45.68 46.79 46.50 45.76 42.94 33.77 30.44 30.16 29.62 39.16 37.42 35.81 36.52 38.36 34.82 38.45 34.09 35.51 35.10 32.99 33.05 35.25 35.05 36.94 38.64 38.71 39.47 39.94 40.07 37.53 34.79 32.81 33.49 34.37 33.73 32.22 31.17 31.12
47.21 46.80 43.52 37.87 42.76 46.45 46.11 43.67 38.61 37.21 36.57 38.81 32.99 34.12 33.23 39.30 33.91 33.56 32.95 34.18 33.01 32.93 33.37 37.96 33.17 32.96 34.88 31.60 32.00 33.74 36.25 39.02 39.82 36.50 31.93 31.60 32.24 33.82 34.49 34.04 34.47 33.09 31.33 32.03
43.81 39.46 38.08 42.65 44.66 42.55 36.65 33.11 32.61 35.77 32.12 36.32 35.48 34.89 34.95 37.98 34.18 33.70 31.08 33.01 32.34 30.46 27.67 32.93 29.94 30.14 31.94 31.51 33.82 35.37 35.94 36.24 36.15 35.83 36.06 36.17 35.79 33.91 32.16 31.75 32.46 32.63 31.77 30.18
42.36 41.41 41.74 38.87 36.78 34.79 32.79 31.21 33.70 33.49 31.32 33.70 34.26 34.79 37.90 35.35 35.05 33.71 33.68 29.86 30.78 25.82 32.32 31.36 27.27 28.88 31.05 33.57 34.56 36.27 36.99 36.75 35.80 35.56 34.53 34.72 34.30 34.61 34.25 33.82 31.83 30.92 29.64 27.21
41.15 37.33 33.38 34.78 31.97 32.63 32.83 31.09 31.86 32.07 32.42 33.31 33.37 33.19 33.17 34.99 35.92 32.99 32.57 31.27 29.57 32.46 30.20 29.10 30.41 31.84 35.07 35.92 36.04 35.41 36.50 35.92 35.89 35.40 35.67 35.20 34.60 33.07 30.65 28.96 29.61 27.56 28.92 29.54
35.71 34.11 32.93 31.94 30.09 29.79 30.19 31.29 31.84 31.71 32.27 32.45 32.81 32.25 32.60 32.28 32.75 31.89 31.27 30.97 31.29 28.60 25.08 21.85 30.94 33.32 35.05 30.47 30.72 30.49 29.19 28.06 29.52 30.04 30.44 29.79 29.08 28.56 27.20 26.21 25.52 24.00 26.34 28.01
32.28 32.55 27.11 27.50 29.49 30.91 31.32 31.89 32.22 32.24 33.49 32.81 32.79 32.60 33.49 31.48 30.68 30.20 28.85 26.05 21.35 22.19 20.00 28.46 30.92 32.24 30.89 31.25 33.07 30.76 28.79 25.42 27.56 28.86 28.16 24.00 24.36 25.26 27.14 27.17 27.21 27.77 22.96 22.53
32.38 30.95 29.39 30.59 31.09 30.59 31.92 31.93 31.92 34.02 33.01 32.81 33.11 31.11 27.54 26.11 28.67 25.29 23.63 21.65 16.44 22.04 29.10 31.87 32.36 32.12 31.70 32.55 34.11 31.28 31.09 30.07 29.74 29.48 29.74 28.64 24.63 23.30 28.54 27.53 26.31 22.32 21.03 21.57
30.89 30.20 32.24 31.08 31.60 31.13 31.75 32.30 32.46 35.09 32.76 30.56 28.25 23.35 22.90 26.43 22.82 22.30 26.16 20.53 27.07 30.97 30.45 31.41 32.14 31.27 31.79 32.99 31.65 30.22 30.60 30.21 29.98 29.87 29.70 29.49 28.77 24.26 25.58 27.16 29.33 28.54 28.10 22.34

GFSNW_sfc_wetblb_033.txt.gz
Wetbulb
51.73 51.86 51.76 50.68 50.03 51.69 51.59 45.43 41.17 54.63 49.68 41.76 40.35 39.45 42.50 46.62 46.10 47.61 46.90 45.58 43.89 42.13 42.42 41.69 41.15 41.25 43.51 45.59 46.61 42.86 42.55 39.57 36.47 39.29 42.53 44.07 42.59 40.12 38.86 33.84 30.83 31.23 31.39 34.35
51.38 51.65 50.60 50.02 50.44 52.35 49.82 44.55 49.32 54.91 47.75 36.68 36.26 42.00 45.52 46.80 44.79 45.61 45.96 45.20 45.90 46.02 42.95 40.20 42.36 42.86 45.57 45.51 44.51 42.75 42.82 38.38 34.32 36.41 39.65 42.07 40.60 40.05 37.49 35.62 35.03 31.63 33.00 34.52
51.55 50.76 49.81 49.68 51.17 52.65 51.48 48.17 43.15 47.30 44.55 42.59 40.97 41.91 42.71 43.49 46.49 46.13 46.02 45.06 46.17 44.63 43.02 43.34 41.24 42.08 44.95 44.98 44.17 43.71 43.98 38.01 37.37 34.71 36.32 38.15 36.90 38.15 37.56 37.82 33.29 32.42 34.01 35.92
50.73 49.81 49.67 49.68 50.62 52.24 51.35 46.34 43.79 46.45 39.74 40.47 40.72 42.91 43.84 42.76 42.54 46.38 46.40 44.85 44.74 43.35 40.00 40.90 40.25 42.91 42.81 43.47 44.08 43.31 42.39 37.42 37.15 36.27 36.63 36.91 36.47 36.87 36.95 36.16 36.32 35.16 35.76 35.00
49.91 49.51 49.40 49.51 50.57 51.99 50.77 45.36 42.77 41.63 40.78 43.49 41.87 41.57 42.55 42.61 43.87 44.87 44.04 43.40 44.61 45.14 41.60 42.58 40.47 42.60 41.49 39.98 42.76 41.67 40.30 36.04 35.87 34.63 35.70 35.13 34.88 36.38 36.55 36.85 36.06 36.34 35.78 36.02
49.39 49.15 49.15 50.33 51.47 51.97 49.23 50.05 47.80 44.57 38.20 40.76 39.20 40.17 42.67 43.51 45.57 45.29 45.23 45.10 43.33 41.59 43.97 44.82 43.65 43.60 43.43 43.02 41.96 38.85 37.43 35.36 33.26 30.32 31.15 31.46 30.35 35.34 36.61 36.27 37.19 38.88 35.09 40.74
48.93 48.99 49.55 50.63 51.76 51.37 51.89 50.97 47.31 41.35 34.95 39.08 39.45 42.78 45.18 43.87 45.23 43.88 44.86 45.36 43.33 44.39 46.18 44.56 44.48 42.66 42.53 42.60 40.07 40.42 34.62 32.16 29.16 29.90 27.34 25.71 36.32 39.05 38.55 37.71 38.97 38.74 38.68 39.95
48.57 49.98 50.19 50.36 51.27 51.92 53.78 52.27 48.28 41.59 33.57 38.06 40.89 43.64 43.65 44.20 44.71 44.09 44.59 45.24 44.98 45.63 42.22 38.45 36.38 34.65 35.67 36.41 37.98 36.96 37.39 32.90 27.43 29.96 27.44 30.98 35.54 35.33 36.52 36.25 37.61 40.39 39.90 40.58
49.81 49.60 49.85 50.14 50.78 51.89 53.99 52.30 49.79 45.50 38.65 38.44 44.21 43.62 43.89 41.35 40.78 42.01 43.54 46.23 45.74 42.19 35.15 34.19 31.78 31.90 34.98 33.11 36.16 38.73 35.49 34.21 34.35 26.74 27.47 25.34 34.10 37.37 41.75 41.37 34.59 40.93 41.42 39.94
49.21 49.29 49.78 50.00 51.04 51.57 53.88 52.36 50.69 48.96 43.61 46.86 45.83 43.33 43.04 43.62 41.95 40.49 42.23 43.27 43.11 42.75 33.81 32.37 32.66 32.85 33.83 31.49 29.63 31.40 33.45 31.40 30.97 23.10 29.36 30.94 36.31 38.87 42.12 33.58 36.08 39.90 42.06 41.50
49.20 49.29 49.64 49.85 50.56 51.65 54.46 51.75 52.59 49.80 44.66 47.23 49.24 48.95 44.13 44.06 43.97 40.82 43.03 42.21 41.42 37.00 35.08 35.07 32.62 32.76 33.63 33.47 34.49 33.68 33.46 31.56 30.15 25.64 26.64 28.17 38.74 41.01 37.70 41.79 41.11 41.88 42.42 42.04
48.63 49.13 49.89 49.98 50.79 51.45 53.28 51.85 53.65 51.25 48.38 47.55 50.01 50.24 50.47 50.56 48.04 44.60 42.77 44.29 41.86 41.84 36.62 33.15 31.87 32.38 32.32 31.26 32.16 36.06 32.81 36.22 33.93 33.62 34.94 40.16 40.38 42.42 42.91 42.11 41.92 43.28 42.84 43.00
48.93 49.43 50.45 50.78 51.31 51.55 53.04 52.99 50.68 48.76 45.22 46.59 47.67 47.29 50.40 50.72 50.10 50.79 43.99 41.20 44.79 41.58 41.09 36.24 34.24 33.06 34.19 32.44 32.98 34.64 37.00 37.92 35.69 35.53 39.22 38.35 40.53 42.05 42.00 43.29 43.64 44.73 44.71 44.50
48.96 49.57 50.19 50.60 50.75 51.34 52.34 50.45 49.38 46.51 43.06 36.58 43.98 48.86 47.39 49.82 51.79 51.99 49.20 45.59 43.32 41.84 40.23 35.10 33.99 34.56 35.73 32.76 35.65 35.48 37.90 37.69 36.44 35.86 38.96 39.53 41.06 42.00 44.27 43.77 44.18 43.94 44.47 44.24
50.05 49.49 49.68 50.23 50.87 51.13 51.85 50.34 49.06 47.70 45.57 38.10 40.00 45.97 46.77 48.23 49.80 47.91 47.51 46.23 44.50 41.73 37.94 34.57 35.89 34.03 35.73 34.92 34.37 34.25 38.53 38.35 36.25 35.71 40.45 40.84 41.49 43.31 44.48 43.42 43.44 43.86 43.18 39.54
48.26 49.47 50.37 50.00 50.03 49.66 48.63 46.52 48.89 47.86 46.52 42.43 36.69 42.62 42.91 45.08 46.81 46.20 45.92 46.42 43.82 42.84 40.63 34.76 37.47 40.05 37.60 33.84 34.21 39.16 41.03 41.76 41.15 40.97 42.76 42.61 43.27 43.47 44.13 43.74 43.17 40.88 38.41 37.31
48.57 49.08 49.60 49.90 49.38 49.61 43.55 41.92 46.26 46.37 45.21 39.67 35.62 36.37 40.83 42.23 43.95 42.62 43.03 44.44 42.67 43.04 39.43 35.94 37.14 38.78 38.77 34.29 34.63 38.46 40.50 42.14 42.79 43.72 43.09 42.19 42.56 42.14 42.32 38.21 36.23 35.99 35.18 35.54
48.04 48.23 48.23 48.32 48.39 48.00 47.41 47.22 46.43 46.54 41.37 39.21 33.84 33.54 36.34 42.01 38.50 37.32 41.44 39.26 41.92 41.15 39.30 38.13 35.94 37.82 36.33 34.28 35.02 35.65 37.81 39.38 41.90 41.50 42.89 41.82 38.61 36.20 35.17 35.75 35.63 34.34 33.91 33.60
47.45 47.68 47.75 48.13 46.37 44.20 45.96 46.43 46.22 45.76 43.29 34.52 31.11 32.49 33.03 41.70 37.67 36.76 38.09 39.40 36.21 39.00 35.31 36.84 38.40 34.19 31.52 29.50 30.59 32.48 33.97 35.67 37.74 36.32 35.13 34.84 34.58 34.64 34.97 34.53 33.62 31.72 31.30 31.54
47.21 46.84 43.47 38.28 43.41 46.13 45.97 43.42 39.96 38.68 37.41 39.49 32.77 36.03 34.40 40.03 35.67 34.40 34.72 35.31 34.37 35.04 34.77 38.09 34.02 32.48 30.81 33.47 34.74 35.47 35.68 35.78 38.48 36.94 32.48 34.21 33.12 32.77 32.98 33.45 33.49 33.24 33.33 34.22
44.12 41.04 38.90 44.12 45.00 43.63 37.85 34.79 34.73 35.32 32.70 36.70 35.53 36.38 35.17 38.76 35.53 33.66 33.84 33.46 33.63 32.25 33.12 34.41 31.00 29.90 29.29 34.34 35.53 36.47 36.70 36.69 36.33 36.21 35.34 35.15 34.30 34.02 33.13 33.42 33.49 34.55 34.99 33.48
43.75 43.45 43.33 41.50 39.08 35.66 34.79 32.77 33.80 32.53 31.82 34.14 34.55 34.91 38.02 35.82 37.13 34.90 34.37 31.31 31.52 28.33 33.50 32.35 28.22 27.21 33.11 35.10 35.53 36.71 37.05 36.49 36.50 36.88 36.03 35.93 35.56 35.97 35.83 35.71 34.86 33.45 32.13 30.20
42.51 39.06 35.88 37.13 33.58 31.78 27.09 30.13 31.25 32.20 32.95 33.78 33.64 33.30 34.20 35.80 36.71 33.48 33.84 31.82 30.98 34.03 31.20 29.55 29.48 31.33 35.45 34.92 35.40 35.41 35.99 35.69 35.54 35.62 35.79 35.68 35.40 34.24 32.44 30.89 31.16 30.09 31.01 31.20
34.36 32.45 28.87 27.78 31.10 30.84 31.01 32.14 32.39 31.83 32.59 32.77 33.49 32.59 33.68 32.95 32.95 32.23 32.21 31.46 32.32 29.29 27.14 25.10 30.63 33.54 30.93 31.70 31.55 31.15 29.92 27.82 30.13 30.66 30.99 30.06 29.51 29.49 28.79 28.11 28.18 27.81 29.61 29.96
32.95 32.39 27.44 27.53 29.96 31.55 31.59 31.98 32.36 32.33 33.60 33.13 33.30 33.31 34.26 32.18 31.34 30.65 30.36 27.36 24.26 25.12 24.15 28.91 30.77 31.15 31.06 33.07 32.34 30.97 30.40 27.31 29.92 31.16 30.04 26.97 26.49 27.39 28.78 29.70 29.86 29.07 26.29 26.59
33.09 31.12 29.12 31.03 30.80 31.30 32.04 32.04 31.85 34.29 32.72 33.10 33.42 31.62 30.35 28.26 29.29 25.47 24.98 25.11 21.79 25.97 30.76 31.84 31.77 31.11 33.34 33.90 34.51 32.41 32.52 31.14 30.74 30.68 30.46 29.61 27.38 26.78 29.11 28.89 28.77 26.98 26.88 25.15
31.55 30.10 32.39 32.01 32.21 31.27 31.86 32.21 31.83 34.58 33.10 30.94 29.49 25.80 25.24 28.00 25.27 24.94 27.60 24.38 27.95 31.82 32.50 33.36 33.84 33.60 33.54 34.14 34.20 30.74 30.76 30.87 30.45 30.40 29.79 28.81 28.70 27.49 26.91 25.28 26.49 26.43 27.09 25.97

GFSNW_sfc_wetblb_036.txt.gz
Wetbulb
49.60 49.82 52.40 51.89 51.35 51.47 51.85 53.04 46.36 59.77 60.25 50.26 51.70 46.53 47.71 48.13 49.50 51.61 49.06 49.20 47.64 46.43 47.03 45.64 44.92 44.71 46.79 50.15 50.01 47.35 48.11 47.14 42.27 43.86 46.52 47.81 47.17 45.73 45.13 38.86 36.28 39.16 38.34 39.02
48.06 49.19 50.99 51.32 50.82 52.14 54.18 50.00 52.42 56.35 54.69 45.96 46.51 48.04 47.72 50.78 48.48 49.45 49.47 48.21 49.47 49.88 47.67 44.24 46.67 47.51 48.05 49.03 48.96 48.41 48.37 45.16 39.95 40.90 44.13 46.44 44.73 46.11 45.07 42.88 42.38 37.96 36.91 39.33
49.09 48.87 49.87 50.80 50.65 52.19 56.83 51.92 47.60 53.00 52.21 51.36 49.13 46.67 46.58 47.21 50.34 49.89 50.39 49.48 50.69 49.14 47.32 48.30 46.29 46.82 47.20 47.81 48.20 43.82 47.78 45.93 43.53 39.20 41.76 45.03 42.38 44.00 44.59 43.84 38.38 38.92 39.72 40.97
49.39 49.79 51.25 50.52 50.80 51.83 56.23 53.34 49.55 52.64 45.91 46.30 48.79 48.98 47.81 46.98 46.90 50.19 51.44 48.89 49.91 48.90 45.50 46.06 45.80 47.49 45.47 47.22 44.92 47.96 48.51 43.20 43.42 42.33 41.95 41.93 42.18 42.64 43.42 41.90 42.72 38.93 41.58 41.02
48.23 50.06 50.59 50.36 50.85 51.90 56.91 50.89 50.05 50.67 50.32 49.09 47.65 45.69 46.73 47.53 47.76 49.18 48.19 48.90 49.84 50.22 47.51 48.09 46.18 47.80 47.09 46.49 47.45 47.47 46.24 42.65 41.84 39.71 41.06 40.74 39.63 42.69 42.90 43.61 43.47 42.93 43.46 42.61
48.43 50.63 49.89 49.94 50.39 51.59 55.69 56.76 53.31 52.90 44.15 47.14 46.65 46.59 47.99 48.45 50.94 48.83 49.71 51.51 49.83 48.60 48.62 50.47 51.72 50.55 50.13 49.10 47.83 46.09 45.21 42.87 39.96 36.10 37.51 37.82 35.91 41.16 42.91 43.22 44.93 44.39 40.98 45.48
50.40 49.96 49.42 49.51 50.04 51.68 59.32 58.64 54.75 52.01 44.58 46.00 45.44 47.26 49.62 49.72 50.25 49.39 48.81 51.00 50.46 48.73 52.35 52.05 51.19 49.85 48.34 47.89 45.72 46.42 42.39 41.90 39.14 36.88 33.87 31.76 40.74 43.30 43.36 43.86 45.04 46.16 45.35 46.15
49.55 49.02 48.90 49.36 49.95 51.40 60.54 58.42 55.41 51.36 41.24 47.30 46.34 48.42 49.45 49.92 50.39 49.09 49.36 48.83 50.37 52.47 49.58 47.09 43.25 43.39 43.07 43.18 43.59 43.39 44.22 41.56 35.24 36.79 34.36 38.20 40.57 40.42 39.92 39.88 41.13 45.88 45.11 46.12
48.56 48.69 48.88 49.52 50.42 51.95 59.87 57.92 56.96 55.23 48.03 45.65 49.26 48.94 50.65 48.84 49.09 48.44 46.44 48.63 50.65 48.62 47.36 45.28 40.81 38.77 41.56 39.34 41.01 43.23 41.81 42.37 41.93 35.04 35.54 33.78 39.85 42.44 45.63 45.15 38.56 45.10 46.14 45.83
48.23 48.66 49.31 49.73 50.65 51.52 59.38 57.52 57.02 56.96 51.57 49.83 52.03 49.37 49.32 51.76 50.83 48.80 46.85 46.79 47.10 48.26 45.87 43.61 42.85 40.98 40.61 38.01 36.43 35.20 39.03 39.13 37.57 36.13 36.62 38.88 42.90 43.08 45.87 36.31 39.19 46.64 47.00 47.52
49.32 49.48 49.37 49.89 50.66 51.74 58.58 56.65 57.88 58.14 52.53 51.96 53.05 51.90 50.81 50.22 52.49 49.07 48.39 47.92 47.40 47.08 45.27 45.02 42.65 42.00 40.72 39.93 40.70 39.49 39.38 38.21 37.03 35.33 35.00 33.11 43.79 44.56 40.86 45.78 48.24 47.08 48.08 48.65
48.92 49.32 49.41 50.03 50.86 51.81 54.85 56.29 57.34 58.25 55.02 52.38 54.68 53.80 54.37 53.34 52.76 52.46 50.59 51.00 49.25 50.75 47.51 44.85 42.69 38.94 37.09 40.31 39.57 41.79 38.64 42.85 42.04 41.07 42.16 44.71 46.23 47.61 48.94 48.63 47.79 48.29 48.49 49.14
48.78 49.17 49.54 50.38 51.16 51.68 54.83 57.05 56.66 57.24 53.85 52.48 54.15 51.87 54.15 55.84 55.01 55.98 51.12 50.72 51.35 49.46 50.10 47.92 45.69 37.55 43.94 36.96 40.92 41.15 42.97 43.28 42.06 40.41 44.27 45.08 46.45 47.97 48.74 48.93 48.23 48.81 49.34 49.42
48.44 49.22 49.28 50.11 50.83 51.40 53.77 56.53 54.75 56.37 52.63 42.08 49.71 53.79 51.88 53.85 56.05 55.50 53.94 52.58 50.66 49.40 51.08 47.53 41.45 41.79 43.72 42.48 43.06 43.21 44.09 43.55 42.10 42.01 45.24 45.96 46.53 46.89 47.92 48.56 49.78 49.16 49.74 48.88
49.32 49.43 49.59 50.51 50.78 51.12 54.52 53.91 53.33 54.27 53.00 43.80 49.18 51.29 51.36 53.03 53.88 52.65 53.09 52.40 51.51 50.83 47.64 41.90 44.77 43.88 43.78 42.56 42.62 42.45 44.12 42.90 42.20 41.58 43.92 44.05 45.72 48.22 48.74 47.87 48.27 48.88 48.20 45.38
49.45 49.92 50.34 50.36 50.26 50.42 57.81 53.15 52.67 52.22 54.61 51.84 43.81 49.48 48.66 51.16 52.47 51.67 50.82 51.60 51.54 51.69 48.72 41.84 44.64 43.25 45.57 38.79 41.36 42.03 44.23 45.56 46.10 44.55 47.38 47.49 47.95 48.02 47.95 46.46 45.27 45.14 44.40 43.23
48.99 49.55 49.67 49.49 50.55 54.43 51.81 49.60 50.20 48.23 52.17 49.75 42.01 45.45 47.44 48.26 50.16 47.51 49.89 50.59 49.70 50.42 45.01 40.33 42.37 43.30 46.13 39.18 41.70 39.63 41.65 43.49 45.17 46.35 47.13 45.69 44.07 42.07 42.43 41.60 41.11 40.44 39.53 38.53
48.77 48.95 48.82 48.67 48.86 50.87 52.44 51.33 47.58 48.74 50.64 50.96 41.97 41.11 46.62 47.64 44.21 42.99 45.38 45.38 49.44 44.84 41.97 42.16 40.90 41.35 42.72 38.73 36.12 38.23 40.60 42.20 43.72 41.63 44.85 42.95 41.58 40.98 39.81 39.56 37.05 34.13 33.70 33.71
47.82 47.91 48.12 53.51 51.42 52.51 52.04 46.57 46.92 52.19 51.44 45.12 37.55 40.99 38.53 44.93 40.73 41.30 43.80 46.17 39.35 43.27 39.36 40.28 43.65 37.54 34.57 31.41 34.08 36.07 37.54 37.74 38.89 40.07 41.16 39.58 37.78 36.11 35.27 34.68 34.57 33.42 34.04 35.23
47.68 52.17 49.97 45.70 48.62 46.22 47.75 50.51 49.44 47.78 46.37 43.80 35.92 40.73 37.22 43.48 41.24 38.44 39.94 40.75 38.33 37.11 38.45 40.69 37.37 30.40 33.64 34.95 35.47 36.48 37.59 39.79 39.43 37.16 34.36 34.53 34.14 34.69 35.41 35.76 36.13 36.70 37.10 37.58
51.31 48.34 44.47 50.12 46.81 50.47 46.35 41.42 41.46 42.67 38.57 40.42 38.96 41.32 38.99 42.20 38.75 36.70 39.15 37.06 37.64 34.98 37.35 38.17 34.90 29.88 31.15 35.65 36.16 37.88 38.27 38.76 38.91 38.99 38.29 38.22 37.34 36.35 35.77 36.15 36.94 37.45 37.42 36.63
48.22 48.43 47.92 48.04 45.09 43.92 37.21 35.19 37.35 38.14 36.28 37.65 38.23 38.48 40.32 39.35 43.69 38.33 37.87 34.23 35.00 30.93 37.89 35.20 31.10 30.88 34.71 35.82 36.07 37.06 37.70 37.55 37.68 38.67 37.93 37.98 37.83 38.35 37.59 36.39 35.61 34.85 34.20 33.26
49.66 46.00 40.20 43.53 38.28 35.37 35.92 32.64 34.63 34.23 35.19 35.60 36.04 35.36 39.30 39.59 41.91 36.23 36.52 32.84 33.35 38.29 33.15 31.90 31.43 33.58 34.26 35.94 36.49 36.47 37.66 37.41 37.13 36.77 37.05 36.57 35.74 34.94 34.16 33.33 33.89 34.38 34.36 34.65
38.78 37.17 33.92 34.65 34.11 34.47 34.29 35.56 35.56 33.38 34.29 35.37 38.09 35.74 37.19 36.82 36.10 34.29 33.74 32.84 34.65 31.18 29.43 29.48 31.53 34.57 34.32 35.88 36.59 35.97 34.04 32.27 34.12 34.43 34.50 33.02 32.86 32.64 33.20 32.55 32.45 32.48 32.15 32.50
35.78 37.59 30.83 31.18 31.92 32.84 32.47 32.84 33.74 34.27 35.07 36.10 36.28 35.74 38.26 33.92 32.84 33.56 33.53 30.84 29.97 31.33 30.60 32.01 33.72 34.17 35.04 34.52 34.01 34.29 33.35 32.39 34.33 34.90 32.90 32.16 31.94 32.70 32.78 32.79 31.74 30.68 29.75 28.65
35.10 34.20 31.57 32.84 32.47 31.75 32.29 32.47 32.11 35.04 34.83 35.37 36.05 33.92 34.11 31.75 33.65 31.57 30.83 30.99 28.88 30.14 32.32 33.33 32.39 34.74 34.87 33.89 35.13 35.75 34.33 34.07 34.22 34.18 33.43 32.20 30.95 30.65 31.09 30.72 28.51 27.93 28.05 26.62
33.00 32.26 33.74 33.56 33.02 32.11 32.11 33.02 32.84 34.76 34.11 32.66 35.36 31.93 29.89 33.05 31.02 29.41 32.97 31.30 33.15 33.75 33.20 33.50 35.81 35.46 35.35 34.06 35.45 33.50 33.74 33.96 33.77 32.48 30.43 29.35 28.93 28.46 27.31 25.91 26.39 26.60 26.99 26.46

GFSNW_sfc_wetblb_039.txt.gz
Wetbulb
50.11 50.34 50.70 50.15 52.34 52.04 51.70 53.77 46.24 59.41 61.44 46.63 49.83 47.68 50.32 49.90 50.93 53.60 50.41 49.94 48.32 47.02 47.65 46.26 45.76 45.21 48.24 52.55 52.24 48.06 50.53 47.68 42.91 45.00 49.58 50.46 49.62 47.31 47.15 40.86 38.68 41.25 40.48 40.28
49.43 49.78 50.41 48.99 51.66 52.01 54.23 50.33 52.14 58.67 57.21 43.70 48.26 50.70 50.49 51.16 49.88 51.42 49.76 47.96 49.65 50.36 48.21 45.14 47.24 47.42 51.57 52.16 51.86 49.41 50.86 45.36 40.16 42.48 46.53 48.88 46.37 47.45 47.22 46.65 44.58 40.13 38.66 40.62
49.27 49.49 49.10 49.42 51.31 52.05 55.65 51.99 47.36 50.34 54.40 51.66 50.32 48.81 48.42 47.50 52.77 51.28 51.06 49.37 50.55 49.01 47.34 49.50 47.14 47.77 49.77 51.61 51.65 45.52 50.10 46.52 43.76 39.84 43.10 47.12 44.89 46.43 47.52 45.69 40.70 40.33 41.11 43.05
48.95 49.07 48.79 49.17 50.85 51.77 53.87 51.74 49.20 51.59 46.23 49.03 48.68 51.21 49.17 47.10 47.43 52.06 52.58 50.02 49.93 48.74 46.22 47.24 47.58 49.96 48.99 50.18 46.04 49.51 50.61 44.73 46.16 46.24 46.22 45.96 45.51 45.09 45.58 44.46 44.72 41.71 43.14 43.41
48.43 48.87 48.98 48.79 49.26 51.47 50.71 50.43 50.67 53.02 49.63 51.03 49.31 48.12 48.37 47.26 49.22 50.58 49.30 47.93 50.33 50.85 48.46 49.28 47.36 50.20 49.68 48.50 50.46 50.26 50.45 44.87 45.59 42.92 46.18 45.34 43.45 45.22 45.43 44.92 45.33 44.83 44.85 44.14
48.47 48.77 48.77 48.49 48.68 50.94 49.69 56.12 57.39 55.28 49.73 50.40 48.53 48.93 48.63 48.33 52.14 51.63 52.80 51.37 50.52 50.32 51.37 54.40 54.82 54.59 53.66 52.78 50.57 49.41 48.55 45.96 42.47 38.20 41.71 41.44 37.16 42.94 44.35 45.16 46.47 45.96 42.71 46.76
47.98 48.10 48.35 47.43 49.95 50.84 55.64 57.62 56.46 53.59 47.82 50.71 48.46 49.74 50.02 49.28 51.93 50.53 52.54 54.31 52.58 53.17 56.36 55.59 54.41 52.87 51.40 51.07 49.99 51.93 47.31 46.03 43.41 38.81 36.04 30.91 43.02 45.79 45.06 44.49 46.07 47.28 46.99 47.53
47.57 47.62 47.73 48.00 50.06 50.56 53.83 58.51 56.97 53.83 45.83 50.83 49.30 49.95 49.82 51.28 53.14 52.26 52.39 51.97 54.82 56.60 54.38 49.13 45.17 45.76 44.63 45.50 46.97 46.61 48.65 45.35 38.87 37.70 36.66 40.84 42.51 43.63 42.66 41.82 42.27 46.86 45.76 46.82
47.43 47.75 48.17 49.32 49.81 50.55 51.79 55.41 61.04 57.65 52.40 50.53 51.27 49.49 51.00 50.39 50.93 50.80 49.13 54.31 55.08 53.20 52.45 48.34 41.68 39.65 42.89 42.11 44.06 46.34 45.02 46.48 42.60 37.88 34.82 32.61 42.52 45.00 47.38 46.66 39.35 46.89 47.16 46.99
47.32 48.99 49.37 49.20 49.45 50.36 52.90 57.29 61.01 57.77 52.26 52.81 53.33 49.67 50.23 53.16 52.94 51.24 49.96 50.17 50.02 52.59 49.57 44.20 44.17 42.83 45.59 40.76 40.09 37.36 41.17 41.65 39.02 39.01 38.30 41.56 46.09 45.96 47.71 38.01 41.11 48.31 48.69 48.54
48.89 48.88 48.85 48.97 49.29 50.13 52.27 58.89 61.87 59.73 54.91 54.52 55.69 54.74 52.89 54.30 54.03 50.48 51.91 50.38 50.57 50.40 45.90 47.18 46.24 44.34 44.82 43.51 44.71 42.35 40.91 40.70 38.22 41.17 35.97 33.40 46.77 46.53 41.71 47.70 49.22 49.52 49.71 49.76
48.26 48.54 48.59 49.00 49.40 50.65 51.96 57.89 60.95 62.29 57.39 54.61 57.94 56.86 57.22 56.42 56.82 55.76 53.54 53.02 52.20 52.85 50.08 49.54 49.68 41.77 40.28 44.96 40.39 46.39 41.33 45.69 44.58 43.66 43.79 47.69 48.38 47.61 49.63 50.17 48.97 49.32 49.68 50.58
47.97 48.38 48.86 49.18 50.05 51.32 53.37 59.97 61.73 60.21 56.03 54.35 55.27 53.93 56.48 58.17 58.57 59.67 53.79 55.71 55.75 54.43 56.75 52.41 50.93 41.09 48.53 39.30 44.31 45.09 46.45 47.15 44.50 42.89 45.82 46.51 47.88 49.27 49.87 50.63 50.14 50.96 51.22 50.65
48.68 48.63 49.04 49.54 50.47 50.96 52.98 58.97 61.29 59.94 56.03 45.79 51.09 56.85 54.20 57.05 58.57 57.96 58.10 56.93 56.32 55.85 56.00 52.76 43.91 43.31 49.34 46.89 47.13 45.94 47.02 46.65 44.46 44.42 46.75 47.70 48.32 49.36 50.30 50.21 51.06 51.12 51.79 51.53
48.71 49.15 49.27 50.00 50.93 52.27 56.66 59.38 58.17 59.55 56.39 47.66 50.01 54.59 54.73 56.50 56.79 56.18 56.66 56.08 54.59 53.37 50.80 44.54 47.68 49.23 48.10 47.97 47.33 45.88 47.52 45.86 44.48 43.96 46.51 46.54 47.69 49.88 49.79 49.48 48.66 48.95 49.19 48.22
48.30 49.22 49.61 50.07 50.85 52.19 56.50 55.07 56.25 57.59 60.42 53.29 47.06 53.30 52.34 54.91 55.88 55.21 55.02 55.95 55.53 55.93 50.94 48.53 49.90 47.89 50.25 42.12 43.94 45.82 46.34 46.81 47.04 46.46 48.78 48.94 48.76 46.68 46.76 44.71 44.42 44.82 44.16 43.67
48.37 49.10 49.73 50.01 50.38 56.77 54.29 51.22 53.35 52.13 58.98 52.59 46.08 46.68 51.39 52.61 53.94 52.55 54.24 55.50 53.70 54.80 50.95 45.03 49.48 48.48 49.79 41.67 43.26 43.17 43.72 45.44 46.98 47.15 48.34 45.95 44.52 42.65 44.34 42.85 40.79 40.03 38.70 38.05
48.91 49.21 48.36 48.87 49.36 50.30 53.32 51.23 47.52 52.44 54.10 54.67 43.88 42.57 48.11 52.01 48.85 46.07 51.23 51.29 53.36 48.57 45.21 46.26 44.19 46.05 46.05 43.05 40.89 42.29 43.27 45.68 43.53 44.74 46.02 44.52 44.04 42.79 40.40 40.59 39.61 36.77 35.46 35.90
48.77 48.87 48.88 55.26 55.55 55.02 52.92 46.35 49.43 55.68 53.46 47.78 38.01 40.19 37.82 49.06 45.45 47.15 47.55 51.20 42.08 47.64 41.98 43.70 44.88 40.63 38.85 37.78 38.82 40.12 40.73 40.54 41.00 41.88 41.52 40.30 38.85 39.02 38.84 37.98 38.05 36.72 36.16 37.42
48.20 54.69 53.97 50.73 51.20 47.12 48.42 51.74 52.09 52.20 49.74 47.30 39.28 45.40 41.73 47.17 44.79 41.49 42.55 42.42 41.32 38.75 41.39 44.81 40.50 36.25 38.13 37.78 38.39 39.43 39.78 41.90 41.14 37.97 36.81 36.83 36.99 37.25 38.05 38.35 38.71 38.74 38.87 39.07
55.37 51.82 47.71 51.55 47.76 53.16 49.63 44.08 45.17 46.67 41.27 42.27 41.89 44.90 41.72 45.98 40.58 37.60 42.27 38.72 41.29 36.09 39.14 39.79 36.28 34.25 35.06 37.00 38.23 39.79 41.13 42.49 42.05 41.95 40.98 40.40 39.40 37.87 37.36 37.63 37.82 37.81 36.72 35.71
49.17 51.19 51.40 52.32 49.66 46.77 39.00 36.92 39.21 40.35 37.30 39.35 39.02 40.03 42.10 42.06 46.93 41.22 41.42 35.89 37.62 33.57 41.51 37.71 34.31 33.45 35.37 36.54 37.37 38.35 39.89 40.69 40.26 40.74 39.61 39.39 38.71 38.63 37.57 36.47 35.93 35.31 35.69 33.95
53.33 49.22 41.79 45.70 39.48 36.56 35.11 32.56 35.00 34.83 37.27 37.34 38.84 36.50 41.21 41.76 43.89 38.89 38.41 34.93 35.50 40.47 34.82 33.43 33.56 34.44 35.80 36.82 38.14 38.67 39.80 39.28 38.67 37.82 37.92 37.28 36.04 35.87 35.78 34.51 34.72 36.51 35.63 35.70
44.41 39.38 34.20 35.11 35.11 34.57 34.39 36.02 36.20 34.39 35.65 38.01 40.15 37.29 39.77 39.44 36.92 37.10 33.66 34.20 36.45 31.97 30.48 31.47 33.39 34.21 36.01 37.75 38.38 38.13 35.77 34.89 35.89 35.85 35.73 34.63 34.78 34.13 33.98 33.37 32.98 32.41 31.64 31.75
36.08 38.95 32.39 32.03 32.93 33.30 33.12 33.66 35.11 35.03 36.98 39.97 38.67 39.02 40.88 36.02 34.57 36.25 34.02 31.48 31.01 33.52 32.88 34.06 34.15 36.30 37.41 36.92 37.22 35.63 33.97 33.78 35.36 36.06 33.86 33.48 35.35 34.31 33.75 32.70 31.38 30.53 29.02 28.54
36.33 34.59 32.21 32.93 32.93 32.03 32.57 32.93 32.57 35.78 36.91 40.02 41.94 37.24 36.38 33.66 34.90 32.36 33.61 33.43 31.95 32.29 34.40 34.97 35.23 35.95 36.36 36.33 36.85 36.85 36.76 36.37 36.39 35.91 34.52 32.49 31.25 32.55 31.89 30.70 28.90 29.09 28.44 26.48
35.36 32.57 33.66 34.20 32.93 31.85 32.03 33.12 32.74 35.88 35.65 33.48 36.57 34.57 31.97 35.03 32.91 31.57 35.13 32.57 34.10 33.34 33.94 34.93 35.95 34.96 36.16 36.80 36.05 34.86 36.07 36.25 35.35 33.93 33.06 31.77 30.83 29.88 28.84 27.50 27.87 27.73 28.16 27.59

GFSNW_sfc_wetblb_042.txt.gz
Wetbulb
49.11 49.71 50.90 50.86 51.86 52.49 51.25 49.15 42.97 57.34 59.50 46.71 46.16 45.14 47.93 48.94 51.12 52.49 50.48 49.77 47.90 46.20 47.19 45.31 44.35 44.19 47.23 51.06 51.17 47.20 49.78 47.46 43.18 44.55 49.42 50.44 48.43 46.26 46.35 41.63 38.38 41.75 40.42 38.98
48.36 49.24 50.12 50.78 51.28 52.18 50.60 46.46 49.00 57.81 57.07 41.69 43.30 46.92 48.02 50.16 49.90 50.48 49.66 48.58 49.25 49.54 47.08 44.35 46.57 47.38 52.59 53.59 50.67 48.49 50.45 46.00 39.71 41.45 45.92 48.74 45.56 46.16 46.25 46.47 46.31 40.21 37.56 39.35
46.79 49.09 49.63 50.26 50.15 52.26 51.54 47.98 44.15 49.70 52.99 50.65 45.44 45.31 46.21 46.94 52.60 50.24 51.27 49.98 49.97 48.48 47.26 49.30 46.75 47.07 50.62 52.54 51.88 47.04 50.93 46.98 42.64 38.38 41.47 45.90 44.24 45.46 46.11 45.56 40.75 40.09 40.11 41.76
47.07 48.85 49.41 50.25 49.71 51.46 51.10 50.08 46.49 49.19 43.13 46.58 47.06 49.55 47.85 46.79 46.98 50.66 51.63 49.15 48.19 47.64 45.07 46.41 45.89 48.37 49.55 50.74 46.79 49.64 50.07 42.69 44.32 44.38 45.57 45.86 45.21 45.14 45.45 43.76 44.58 40.27 42.92 42.64
47.38 48.73 49.38 48.97 49.31 51.08 48.38 47.68 46.99 51.21 49.03 49.10 47.00 46.07 47.76 47.65 48.70 49.02 48.42 47.89 48.77 49.45 46.68 46.92 45.58 48.58 49.65 47.50 50.12 49.48 50.50 44.08 45.61 43.37 46.13 45.50 42.95 44.40 44.66 44.72 44.69 44.11 44.35 43.97
46.82 48.26 49.02 48.64 48.85 49.15 47.73 50.53 54.45 51.44 46.98 48.27 45.54 47.12 48.74 49.01 51.09 51.39 51.56 50.81 49.81 48.85 50.61 53.59 54.49 54.88 54.30 52.24 50.14 48.61 48.38 46.65 43.57 39.47 42.58 40.90 35.36 42.25 43.59 44.21 45.91 45.57 41.57 46.53
47.48 48.40 48.66 48.55 48.85 48.37 47.76 51.65 54.46 49.51 45.71 47.05 46.62 49.04 50.31 49.58 50.75 49.67 52.27 53.52 51.12 53.63 57.20 56.24 55.03 53.64 52.75 52.87 51.82 52.60 48.44 47.08 45.08 39.57 35.82 31.32 42.36 46.64 44.98 43.28 44.18 45.45 45.80 46.05
47.84 47.94 48.06 48.21 48.13 48.87 46.22 49.86 52.69 52.47 44.01 48.42 48.39 48.74 50.62 52.46 51.91 48.75 52.37 53.33 55.82 57.36 55.18 49.33 45.05 44.94 43.09 46.48 48.53 48.38 50.80 46.61 40.12 36.84 36.20 40.39 42.62 44.19 43.34 42.34 42.02 45.82 44.99 45.84
47.41 47.54 47.76 47.94 47.66 48.05 48.35 46.58 49.06 51.34 49.20 47.92 51.87 50.75 52.17 49.62 49.54 48.11 50.71 55.24 58.57 57.07 53.14 49.44 41.98 39.96 42.72 41.85 43.27 46.90 46.38 48.89 43.61 38.78 35.57 30.95 42.96 45.11 47.39 46.42 38.82 46.86 46.78 46.56
47.21 47.12 47.39 47.50 47.92 47.78 46.85 47.56 50.01 49.28 50.78 54.46 53.45 50.02 50.51 53.47 49.05 47.85 50.05 50.04 50.70 54.45 49.67 41.27 45.53 43.21 46.08 41.15 40.00 36.59 40.78 42.08 37.78 37.97 37.79 40.99 46.21 46.67 47.56 38.24 40.63 48.09 48.23 48.10
46.81 47.11 47.24 47.13 47.36 47.78 47.53 48.79 52.42 50.26 51.93 55.10 56.24 55.72 53.54 53.21 47.07 45.60 51.68 50.71 51.69 52.32 46.90 48.09 47.67 43.86 46.47 44.93 45.22 41.98 39.94 40.31 37.56 41.87 35.17 32.93 47.33 45.94 41.51 47.08 49.76 48.95 49.06 49.40
46.35 46.68 47.16 47.47 47.82 48.34 49.72 48.23 53.32 55.03 54.24 55.10 58.40 57.42 57.90 57.56 56.53 54.68 53.87 53.67 52.00 52.68 50.25 49.74 50.85 40.39 40.29 44.30 41.15 47.59 41.81 45.76 43.87 43.06 42.41 48.53 49.13 47.90 49.91 50.55 49.02 49.43 49.58 49.83
46.74 46.58 46.95 48.18 49.01 49.80 50.24 50.65 54.02 59.08 55.56 53.52 54.93 53.86 57.01 58.67 57.61 60.39 53.26 58.02 56.39 55.54 58.65 53.24 51.34 39.58 49.40 38.81 45.42 46.72 47.30 48.63 45.99 44.74 46.21 47.12 48.27 49.55 50.41 50.40 49.60 50.14 50.82 50.71
47.40 47.00 48.48 48.70 49.08 50.06 50.06 49.64 54.98 60.41 55.77 44.59 50.94 57.66 54.75 58.20 59.40 59.09 60.64 59.46 59.66 58.81 57.67 54.07 42.84 42.07 51.36 48.23 48.93 47.77 47.21 47.47 44.82 44.76 46.95 47.71 48.93 49.42 49.21 49.70 50.34 49.55 50.42 48.33
48.14 48.25 48.42 48.74 49.26 50.03 50.82 53.07 58.00 59.44 55.97 46.63 49.35 54.54 56.13 57.25 57.76 56.68 58.40 58.34 56.95 55.37 51.02 41.50 48.84 50.79 49.93 49.54 49.30 48.05 48.08 46.23 44.73 44.25 46.95 47.14 45.66 46.75 47.87 46.12 45.35 45.93 46.08 43.28
47.98 48.05 48.42 49.20 49.65 50.30 53.37 51.21 57.51 58.66 60.30 52.78 45.12 52.79 53.27 55.77 56.90 55.79 55.89 56.82 57.43 55.99 50.99 49.63 50.56 50.44 51.43 41.94 44.79 47.10 47.90 48.66 48.44 46.91 48.76 48.55 46.03 45.29 44.51 42.43 42.52 42.10 41.69 40.62
48.00 48.41 49.44 49.67 50.00 54.89 51.57 50.55 51.41 49.26 59.09 52.07 43.51 45.10 50.91 54.25 54.25 53.74 54.35 56.58 54.58 54.51 51.03 47.70 49.28 48.37 49.72 41.72 44.75 45.44 45.72 46.75 47.66 47.64 47.84 43.50 45.37 41.36 42.19 41.08 39.56 39.56 39.22 38.86
48.52 49.12 49.62 48.97 48.38 49.17 50.79 52.98 49.26 49.65 55.61 54.20 42.37 38.81 46.92 52.40 49.60 46.90 52.14 52.32 52.45 49.30 45.65 46.48 46.33 46.51 48.66 44.32 43.50 44.39 44.77 45.74 44.99 44.84 45.72 43.82 42.83 42.02 40.96 40.87 39.33 37.39 36.57 36.98
48.95 49.15 49.19 54.25 55.29 54.22 51.36 47.57 48.60 57.18 53.10 46.97 37.90 39.72 37.54 50.00 45.82 46.14 47.92 50.37 41.35 46.91 42.07 43.53 45.82 41.24 39.67 42.58 41.87 41.64 42.84 42.82 41.85 42.40 42.30 41.68 40.25 39.21 39.03 38.80 38.03 36.58 36.53 37.87
49.15 53.21 53.04 46.97 52.81 47.62 49.54 52.46 50.88 51.43 50.55 47.17 40.80 45.93 41.53 46.06 44.70 41.53 42.43 42.78 41.54 39.59 40.59 44.40 40.59 36.49 39.17 39.91 40.84 41.72 42.52 42.84 42.20 38.33 37.12 37.97 37.22 37.45 37.59 37.44 38.22 37.14 36.65 36.20
56.04 52.76 47.56 52.16 48.30 52.24 49.71 45.22 44.68 44.22 40.99 42.18 43.26 44.95 42.16 46.64 40.69 38.12 42.55 38.49 41.28 36.45 39.33 39.12 36.65 35.33 36.13 38.77 39.75 41.40 43.00 42.64 42.02 41.69 40.83 39.94 38.73 37.30 37.18 37.00 36.95 35.84 35.07 33.50
51.67 51.49 52.27 52.37 50.01 45.59 38.19 35.55 39.70 40.63 37.62 39.00 39.42 41.84 42.44 43.49 47.40 40.95 41.63 35.62 38.81 34.72 41.66 37.16 34.48 34.03 37.03 38.14 39.08 40.58 41.32 40.72 39.86 40.29 39.07 39.13 38.55 38.26 36.93 35.69 34.89 34.69 34.13 31.57
54.09 48.67 41.55 45.85 39.40 35.91 35.55 32.27 34.94 33.78 36.27 37.16 39.03 36.34 41.31 42.12 43.40 38.55 37.23 34.26 35.70 41.91 34.96 33.83 34.17 34.77 36.72 37.57 38.51 38.93 39.82 39.67 39.08 38.25 37.46 36.40 35.62 35.68 34.99 33.26 33.66 34.15 33.58 31.86
43.81 38.61 33.92 35.55 33.19 33.73 33.55 34.46 34.10 33.73 34.46 37.36 39.17 37.18 38.60 39.17 35.73 37.00 33.55 34.64 36.09 32.00 30.87 32.60 32.92 34.58 36.60 38.19 38.79 37.42 35.69 34.36 35.55 35.70 35.12 33.90 33.19 32.37 32.01 30.43 30.18 28.57 28.68 28.84
36.91 38.08 31.38 31.54 32.27 32.83 32.83 33.55 34.46 34.56 37.42 39.17 39.58 39.40 40.28 35.73 34.46 36.45 33.55 31.56 30.87 32.80 32.82 33.90 34.00 35.99 37.35 37.42 36.13 34.27 34.09 33.19 34.01 34.35 33.13 32.53 32.69 32.58 31.33 29.93 29.62 28.71 25.93 25.79
35.40 33.67 32.10 32.83 32.63 31.91 32.47 32.47 32.47 35.69 37.34 40.56 42.77 37.36 34.64 33.19 34.46 33.07 32.98 32.13 31.78 32.09 33.67 34.54 35.72 36.25 36.56 36.44 35.25 35.02 35.63 35.96 35.10 34.18 32.86 31.80 30.75 30.24 30.17 28.58 27.73 26.15 25.69 23.16
33.37 31.92 32.10 32.83 32.27 31.53 31.92 32.47 32.60 36.04 36.45 33.73 37.82 33.92 31.86 35.20 33.13 31.48 33.19 31.00 32.25 33.33 33.70 35.12 36.27 35.53 35.91 35.92 35.49 34.90 35.66 35.57 34.64 34.02 32.99 31.10 30.72 29.93 28.89 27.10 26.73 27.10 27.65 23.52

GFSNW_sfc_wetblb_045.txt.gz
Wetbulb
47.43 48.60 49.97 50.38 51.32 51.68 50.96 48.85 41.35 51.76 55.36 43.52 43.14 40.07 43.29 46.05 47.61 50.55 49.35 48.14 46.62 43.59 43.50 43.70 41.42 41.75 44.32 47.62 49.15 44.60 46.55 41.70 36.93 41.26 46.62 48.22 45.13 42.85 42.50 30.92 32.89 33.78 29.16 31.66
47.10 47.59 49.02 49.94 50.55 51.21 48.28 45.13 46.10 52.81 52.50 35.48 37.82 42.51 43.64 46.18 46.86 47.10 48.26 46.71 47.86 47.41 43.62 42.47 43.66 44.13 50.14 49.92 47.75 45.28 46.39 39.90 32.69 37.39 42.35 45.55 41.98 43.54 43.22 42.30 38.31 33.62 26.34 31.54
46.70 47.63 48.25 49.40 50.28 50.98 49.88 46.22 40.34 47.39 48.25 43.03 40.06 40.18 40.92 41.93 48.61 47.73 49.10 48.63 48.36 45.66 43.25 45.31 43.45 45.12 49.98 50.37 48.01 45.89 48.08 43.84 38.23 31.99 36.70 41.02 39.73 42.38 42.93 40.49 30.35 32.57 33.43 37.36
46.78 47.00 46.52 49.36 49.80 50.54 49.45 46.23 41.81 47.12 41.55 41.28 41.38 42.55 42.31 41.92 42.81 48.03 49.39 47.73 46.57 44.51 40.96 42.74 42.65 46.48 47.35 49.19 46.69 47.03 45.81 38.85 40.52 40.90 43.07 43.31 42.26 41.82 42.34 41.58 40.51 34.37 37.73 39.48
46.28 46.46 46.84 47.36 49.37 50.24 45.89 43.88 43.33 47.92 44.76 45.84 43.47 41.64 41.27 42.38 44.99 46.46 45.94 45.50 46.67 45.76 42.93 43.66 42.24 46.20 45.75 44.27 45.72 44.52 45.78 38.25 39.20 37.49 43.43 41.89 38.13 40.72 41.00 40.76 41.13 39.94 39.61 39.15
46.08 45.94 46.47 46.76 49.28 48.97 44.32 47.70 48.81 47.68 43.49 43.91 42.43 41.16 42.73 43.61 47.15 48.65 49.93 47.52 46.55 43.99 46.26 47.60 48.83 48.49 49.29 48.18 45.20 42.57 43.09 39.85 34.65 31.74 37.27 36.64 29.23 37.50 39.56 40.81 41.46 40.36 35.17 39.57
44.92 44.41 45.14 47.79 48.74 48.52 47.44 46.92 48.73 46.30 40.01 43.66 42.75 43.28 44.46 45.23 46.69 46.50 49.37 48.86 46.84 49.19 52.55 51.22 49.98 48.29 48.85 49.21 47.84 48.22 42.39 40.38 34.36 29.51 29.57 21.48 38.07 43.17 42.25 40.20 40.72 40.83 40.96 40.98
45.20 45.98 47.64 48.17 48.44 48.96 46.69 47.44 47.87 47.35 35.39 44.55 44.78 43.50 44.43 47.05 48.53 47.35 49.49 50.41 51.71 52.50 50.71 43.13 39.53 37.69 36.96 41.43 46.58 45.15 46.95 38.56 32.32 27.40 27.33 34.87 39.02 41.21 40.57 38.44 37.28 42.13 40.92 42.00
45.70 46.15 47.93 47.84 48.29 48.95 46.42 45.40 47.06 43.46 43.69 42.93 47.94 43.86 45.88 44.56 44.86 44.32 47.54 52.59 52.00 51.29 47.55 39.48 33.67 32.08 37.42 37.27 39.80 44.76 44.29 42.06 32.04 29.58 25.53 21.15 36.51 41.92 44.87 42.99 31.77 43.32 43.35 42.43
45.38 46.08 47.01 48.00 48.25 48.75 46.54 43.89 47.06 43.82 43.02 47.93 47.60 43.70 45.16 48.87 46.02 43.66 46.03 48.93 48.33 50.01 35.14 35.26 31.46 32.25 42.66 33.94 33.33 31.63 31.15 32.11 28.20 25.33 24.47 32.03 43.34 44.20 45.13 30.28 32.93 43.45 44.06 43.59
46.33 46.93 47.46 47.96 47.85 47.83 45.80 44.00 48.53 45.45 44.22 47.18 50.39 50.39 47.03 48.42 46.30 40.93 46.86 46.31 47.27 44.89 37.85 36.36 33.02 32.54 35.98 36.71 41.65 36.59 33.36 31.51 26.49 31.14 30.05 27.58 44.31 42.87 36.41 41.10 43.24 44.05 43.89 43.85
47.00 47.21 47.48 47.64 47.94 47.90 47.35 43.34 48.66 51.18 46.19 47.04 52.45 54.36 54.16 53.10 51.10 49.28 47.59 48.73 47.90 48.54 43.12 40.55 37.71 36.71 34.43 34.69 30.33 43.25 34.24 39.40 34.78 36.08 34.62 43.45 44.05 43.90 45.68 45.60 44.05 44.35 44.51 45.97
46.77 47.00 47.11 47.55 47.54 47.85 47.39 45.45 48.80 49.37 45.98 44.35 46.90 50.95 53.78 56.17 53.43 54.37 46.95 48.56 52.33 50.67 52.12 45.15 41.07 35.50 37.28 30.24 32.91 36.57 42.06 44.99 38.78 37.59 42.07 42.68 45.43 46.63 47.10 46.92 45.57 45.41 44.50 43.71
46.49 46.54 46.95 47.22 47.34 47.67 47.76 45.85 49.25 49.82 45.64 34.83 46.53 56.17 53.41 56.63 57.78 56.63 56.97 55.25 54.65 53.72 50.82 40.49 36.94 35.92 44.59 34.55 39.35 38.23 41.16 42.28 40.95 38.96 43.30 44.06 43.77 44.74 44.97 44.52 44.97 41.69 40.75 40.31
46.24 46.58 46.65 46.88 47.42 47.99 48.37 49.31 49.82 50.91 45.41 42.76 46.74 51.85 54.08 55.98 56.54 54.81 55.87 54.53 51.40 47.88 40.36 35.90 38.09 42.86 40.17 38.78 38.22 34.85 42.60 41.33 34.56 34.06 42.73 41.70 40.19 41.77 42.79 40.79 40.50 41.18 39.28 37.86
45.87 46.63 47.00 47.45 48.58 49.40 49.19 44.95 49.38 51.21 52.37 47.49 39.50 49.95 50.73 53.61 53.91 54.18 53.89 52.64 51.49 49.69 43.31 38.27 43.52 46.18 40.46 33.19 30.37 42.21 43.93 44.67 45.12 43.03 43.87 41.56 40.50 40.00 40.52 38.87 38.74 38.71 37.69 37.30
45.46 46.42 47.56 48.54 48.81 49.96 46.86 47.33 51.28 50.00 50.55 45.78 38.98 40.43 49.41 51.42 51.12 48.87 50.46 51.47 48.33 48.34 44.24 39.75 41.20 41.87 42.75 34.37 32.31 41.49 43.78 43.93 44.62 45.07 42.51 39.15 40.19 36.99 38.83 38.21 37.86 37.87 36.83 36.32
47.67 48.11 48.23 48.38 48.78 49.63 48.48 52.58 50.16 49.07 52.21 46.70 37.84 36.83 42.34 50.01 43.68 39.98 47.38 45.64 45.28 43.65 42.73 41.85 35.72 39.41 34.22 32.20 39.60 41.80 43.27 42.68 41.61 40.99 42.24 39.95 39.87 38.62 37.60 37.71 36.67 35.20 34.35 34.69
48.07 48.36 48.65 49.10 49.43 48.87 49.78 47.47 47.57 51.95 49.69 38.42 34.83 36.24 35.53 47.09 42.95 41.98 42.74 43.06 37.77 44.05 36.28 39.34 38.10 35.67 34.29 38.74 39.20 40.10 41.25 39.77 39.18 39.96 39.55 38.65 37.22 37.12 36.35 35.99 35.02 33.87 33.31 34.22
48.58 50.79 49.65 41.14 48.20 47.92 49.49 50.39 44.46 43.27 42.97 40.86 36.08 41.60 36.98 43.97 37.53 36.28 36.71 35.61 35.35 33.53 36.12 40.38 35.13 32.41 37.16 37.68 39.32 40.62 40.65 40.72 39.12 36.03 34.95 36.26 36.03 36.39 36.25 35.77 35.92 34.83 33.88 32.66
49.26 46.88 42.78 48.31 47.78 49.73 42.15 34.69 34.79 37.06 33.66 36.27 38.55 40.35 39.04 43.81 35.41 35.16 35.65 33.84 33.10 29.40 32.29 32.48 31.37 31.67 35.44 38.89 39.21 39.17 42.38 41.50 40.47 40.08 39.13 38.57 36.74 35.98 34.69 33.79 33.50 31.96 30.55 29.25
49.65 49.05 49.91 48.85 45.76 39.46 33.41 32.79 34.74 32.62 32.18 35.43 36.05 37.48 40.89 38.32 42.77 34.44 35.70 33.28 30.30 27.30 37.40 33.43 29.05 32.60 35.77 37.42 37.48 39.90 40.15 39.47 38.84 39.11 37.92 37.98 37.32 35.89 34.08 33.27 31.92 29.88 28.76 27.10
49.09 43.71 37.72 41.08 35.43 31.51 29.18 25.47 32.18 32.41 33.36 35.35 34.94 34.27 35.72 37.22 37.75 34.49 34.39 32.47 27.39 34.18 32.60 30.18 30.57 34.80 36.41 37.22 38.07 38.12 38.57 37.83 36.21 35.09 34.92 34.10 33.31 32.86 31.77 30.51 30.97 28.84 27.15 27.38
38.64 34.84 31.92 32.61 31.84 30.48 30.05 31.68 32.29 32.27 32.82 34.46 35.90 34.27 34.27 33.92 33.66 33.18 31.63 32.44 33.41 29.90 27.52 26.24 31.57 34.72 35.85 37.22 36.85 36.46 34.64 32.94 33.21 32.76 32.06 30.42 29.78 29.19 28.40 26.49 25.55 25.57 25.34 25.19
33.24 33.08 28.70 29.05 30.99 32.05 32.08 32.45 32.61 33.09 35.34 35.53 35.35 34.76 35.78 33.00 32.68 32.79 31.90 29.82 28.07 27.36 25.83 31.16 33.52 35.63 36.60 35.29 33.56 32.40 31.42 31.59 32.35 33.11 31.26 30.11 28.87 27.14 26.65 27.19 26.51 25.29 20.99 18.31
33.22 31.63 31.01 32.03 32.05 31.67 32.03 32.08 32.11 34.69 33.72 34.81 33.96 32.59 32.30 31.49 31.58 30.99 30.08 25.62 24.56 29.19 31.17 33.40 35.51 35.70 33.74 33.03 33.17 33.67 33.67 32.46 32.10 31.51 30.78 30.11 27.97 25.90 25.37 25.24 24.92 18.32 17.59 13.90
31.75 30.00 31.88 31.71 31.43 30.22 31.11 31.93 32.23 35.23 33.72 32.45 32.62 30.42 29.36 32.22 30.07 27.99 30.21 27.49 29.72 31.82 33.07 34.97 35.03 34.05 32.01 32.27 32.97 33.20 33.00 32.23 31.17 30.71 29.35 27.87 27.86 26.36 25.07 22.62 23.70 24.67 22.89 14.56

GFSNW_sfc_wetblb_048.txt.gz
Wetbulb
47.43 47.52 46.88 49.05 50.20 50.65 49.37 44.65 38.62 50.75 54.29 41.87 40.85 39.88 42.48 44.30 45.47 48.29 47.06 47.53 45.66 42.32 41.84 40.48 40.12 40.08 42.90 46.23 46.98 42.85 44.30 40.57 34.71 39.25 45.91 46.75 43.58 40.15 40.72 30.31 31.24 31.73 27.70 30.68
46.73 47.29 47.20 48.33 49.33 50.28 46.07 40.58 43.10 50.72 50.85 36.65 35.56 41.07 42.78 44.09 44.31 45.81 45.60 45.67 46.75 45.67 41.34 38.79 41.65 41.87 47.60 48.27 45.99 43.18 44.37 38.49 32.08 36.27 41.47 44.23 41.08 42.15 41.78 40.00 35.07 31.48 25.99 30.86
46.88 47.06 47.04 47.83 48.96 50.06 46.56 42.59 37.59 45.25 47.52 44.14 38.82 37.63 39.72 40.40 45.50 44.25 45.66 45.28 47.00 44.76 42.35 43.77 41.18 43.61 47.67 48.17 47.17 46.18 46.35 40.16 36.30 31.18 35.86 39.24 37.19 41.16 40.93 38.31 29.06 31.29 31.87 35.96
46.20 46.84 47.15 47.72 48.67 49.85 45.80 42.68 38.78 42.39 38.61 40.82 40.28 40.11 40.05 39.63 39.28 44.75 47.04 44.97 44.71 43.41 39.57 40.66 40.47 44.77 45.36 46.95 45.90 45.63 43.72 37.46 38.87 39.57 41.00 41.25 40.02 39.71 39.62 37.87 37.99 32.77 36.29 36.92
46.16 46.36 47.10 47.19 47.97 49.50 43.39 39.00 40.15 43.43 41.76 42.51 41.02 39.77 37.96 38.99 40.67 42.70 42.23 43.15 45.08 44.87 41.70 41.88 40.24 44.60 43.21 42.35 44.06 42.59 44.02 36.70 37.52 36.39 40.44 39.84 37.09 38.16 37.86 38.85 38.91 38.42 38.03 36.57
45.38 46.07 45.86 46.90 47.50 48.73 42.25 44.19 46.08 44.11 40.86 41.18 39.40 38.44 38.90 39.87 42.20 43.75 44.85 45.82 45.00 43.78 45.02 46.05 45.61 47.89 47.24 46.33 43.00 41.34 40.93 37.91 32.38 30.86 34.66 35.03 29.39 36.38 38.07 38.47 38.60 39.30 33.68 38.01
44.24 44.90 45.54 46.56 47.38 48.50 45.36 44.51 45.14 43.86 37.59 41.40 40.29 41.27 41.74 41.35 42.22 40.72 46.18 45.95 44.36 47.47 50.33 48.45 47.12 45.79 47.69 46.98 45.16 45.53 39.34 37.10 31.61 27.84 28.20 21.90 37.44 42.06 41.06 38.13 38.35 38.68 39.09 39.14
43.63 44.73 45.79 46.58 46.92 46.42 45.76 46.39 45.72 43.60 35.77 42.32 42.88 42.77 41.86 43.71 44.39 43.82 44.84 48.53 50.01 50.73 47.45 41.03 37.78 35.38 37.39 40.17 43.54 44.03 44.40 36.13 30.55 26.37 26.77 33.12 37.73 39.27 38.08 36.49 35.39 39.91 39.28 40.56
44.72 45.45 45.77 46.14 46.17 45.63 46.10 46.23 47.39 43.15 40.98 39.77 46.11 43.70 43.56 40.72 41.04 41.30 45.90 51.11 51.00 50.37 42.98 35.43 32.00 30.71 36.58 36.25 38.59 43.00 41.41 38.60 32.90 28.16 24.43 21.97 34.78 39.81 42.66 41.63 30.54 41.52 41.53 41.46
44.75 45.23 45.25 45.56 45.70 45.40 46.58 45.38 47.74 44.13 39.75 44.43 46.74 43.78 42.36 44.40 42.30 41.16 44.85 46.79 45.40 47.58 33.83 32.76 30.35 31.30 40.50 32.86 32.18 31.00 31.05 30.99 27.78 23.22 23.39 29.15 39.24 42.37 42.91 30.06 31.32 41.80 42.32 41.86
44.97 45.21 45.44 45.88 45.40 47.85 46.79 43.56 47.71 43.63 40.24 43.59 47.84 48.22 43.39 45.10 44.98 40.67 44.13 44.26 43.80 40.44 34.77 35.54 33.23 29.08 35.10 34.63 38.29 34.39 32.73 29.59 25.41 28.17 23.50 25.72 43.37 41.39 35.97 37.89 41.44 42.23 42.27 42.03
44.78 45.16 45.96 47.39 47.83 48.22 45.84 41.03 47.90 48.82 43.59 44.37 47.72 48.18 47.98 47.69 49.18 46.97 45.45 44.48 45.28 45.91 41.31 38.27 36.97 34.88 32.49 33.41 30.96 41.03 33.54 35.55 32.32 34.15 32.70 41.11 42.89 42.29 43.30 43.79 42.78 42.70 43.26 44.25
45.06 45.69 47.06 47.45 47.83 48.22 45.21 42.79 45.28 45.56 41.43 43.52 45.26 45.09 52.07 53.93 53.36 53.58 45.05 45.53 49.74 48.63 49.99 44.55 40.84 34.60 35.84 31.32 31.16 35.94 39.98 43.79 38.05 36.91 40.59 41.98 43.33 44.42 44.42 43.41 40.31 40.26 41.31 41.71
45.07 46.16 46.85 47.33 47.46 47.67 46.24 42.04 46.42 45.50 45.09 36.27 41.49 52.95 51.85 55.20 54.64 53.70 52.31 50.59 51.32 50.92 48.19 40.28 37.53 35.34 41.74 32.98 38.60 36.54 40.04 41.09 38.25 38.19 40.62 41.75 41.65 41.60 40.87 39.73 39.88 38.89 38.86 38.72
46.09 46.63 46.95 47.25 47.57 47.79 45.63 44.94 46.79 48.55 45.99 38.43 40.00 50.03 53.99 55.37 55.43 53.66 55.54 52.13 49.28 44.06 38.55 35.86 38.51 40.79 39.83 36.87 36.80 33.30 40.96 39.03 34.46 33.36 41.94 39.31 38.40 39.60 41.01 39.12 38.44 38.37 36.90 35.87
46.10 46.62 47.01 47.22 47.20 47.22 45.50 40.26 46.17 48.81 49.94 42.63 36.23 48.75 50.40 53.64 53.86 52.89 52.75 52.78 50.64 48.23 43.10 38.81 43.00 45.21 38.25 32.57 29.79 40.84 42.16 43.21 43.47 40.70 41.40 39.12 38.29 38.55 39.17 37.38 37.01 36.89 35.84 35.19
46.12 46.37 46.53 46.65 46.62 45.28 42.70 40.19 47.19 49.06 49.66 42.27 37.07 39.36 49.39 52.31 51.21 48.36 50.41 50.76 46.70 47.96 43.85 39.13 40.01 41.82 40.83 32.29 31.87 40.45 41.73 41.53 40.84 40.48 39.55 36.74 37.80 35.43 37.28 36.76 36.34 36.09 34.79 34.37
45.73 46.19 46.69 46.46 47.01 46.95 44.57 48.63 49.87 50.27 46.65 44.75 37.16 38.14 41.30 49.92 42.66 42.35 47.59 43.77 43.89 43.76 42.06 39.32 33.88 38.54 32.08 31.58 38.81 40.52 40.05 40.61 40.28 39.60 40.16 38.27 37.26 36.28 35.35 35.80 35.39 33.77 33.08 32.66
45.78 45.98 46.60 47.77 46.05 44.51 44.93 48.12 48.96 50.05 47.62 39.45 34.26 35.70 35.32 45.17 40.98 40.36 40.47 41.38 36.59 42.29 35.86 36.46 37.75 33.33 30.41 36.77 38.71 38.13 39.21 38.06 36.81 37.47 37.02 36.40 35.11 34.80 34.69 34.29 33.75 32.37 30.23 30.59
45.92 46.63 45.42 38.96 45.00 49.01 49.25 47.76 44.56 44.00 42.53 40.04 34.97 39.26 36.97 41.96 35.73 35.71 36.28 36.06 34.78 33.52 36.05 39.73 32.49 32.21 35.99 37.29 38.10 38.81 38.86 38.34 37.45 34.26 32.98 33.77 33.61 34.12 33.80 33.44 32.81 31.73 30.07 29.49
47.06 45.45 41.46 48.27 48.39 47.22 43.99 36.43 34.74 36.59 32.23 34.92 38.25 39.46 38.34 42.53 35.12 34.07 33.63 33.71 30.78 30.84 34.60 32.82 32.24 31.28 35.02 38.24 39.09 40.26 40.25 39.84 38.92 37.86 37.13 37.42 36.54 35.03 32.93 31.68 31.25 29.98 29.05 28.78
49.00 48.30 48.72 46.94 43.60 37.02 33.84 32.08 32.46 33.24 31.97 35.20 35.70 36.97 40.42 37.56 40.56 34.11 34.47 32.13 29.27 28.34 36.83 33.49 29.09 32.74 37.37 39.41 38.94 39.95 39.89 39.27 38.26 38.13 37.07 36.65 35.32 34.35 32.30 30.31 28.43 28.29 28.80 26.61
47.08 42.19 36.70 39.65 33.43 31.02 23.68 24.97 30.59 31.07 32.78 34.76 34.20 34.04 35.50 36.95 38.07 34.14 33.76 27.15 27.49 32.85 30.60 25.43 30.30 34.62 36.02 37.15 37.76 37.13 37.16 35.99 35.25 34.74 34.50 33.83 33.24 32.72 29.92 27.32 27.01 27.25 26.55 24.41
36.90 32.15 30.05 30.81 29.56 29.26 29.48 30.88 31.67 32.24 32.44 33.90 33.89 33.52 34.60 33.00 34.05 32.78 31.63 32.94 33.34 24.95 24.97 25.10 31.77 34.44 35.63 36.44 35.58 34.10 32.96 32.17 32.15 31.54 31.10 29.98 29.02 27.80 28.16 27.28 26.12 24.83 23.29 22.07
31.27 32.41 27.61 27.98 30.76 31.85 31.86 32.26 32.57 32.89 34.38 33.89 34.17 33.86 34.82 32.62 32.24 31.97 31.06 29.12 27.60 24.53 24.64 30.36 33.96 34.73 34.80 33.39 32.69 31.68 30.70 30.69 30.67 30.56 28.54 27.52 27.12 26.20 25.80 25.91 25.39 24.34 22.02 19.22
31.38 30.89 30.81 32.02 31.82 31.07 31.43 31.85 32.09 34.87 32.98 33.52 33.15 31.94 30.62 30.41 31.31 29.62 28.31 24.92 26.51 28.71 30.58 33.22 35.14 33.59 32.28 32.13 32.39 32.86 32.68 31.28 30.45 29.62 28.58 27.13 25.84 25.27 25.40 24.79 22.71 20.09 19.70 17.16
30.07 29.06 31.86 31.49 31.08 30.20 31.11 31.68 32.21 34.83 33.52 32.29 30.65 29.76 28.95 31.06 29.47 27.59 29.68 26.40 28.94 31.14 32.56 34.05 33.13 31.81 32.14 32.64 32.23 31.91 31.95 30.99 30.41 30.20 28.62 26.93 26.13 25.08 24.71 22.35 22.74 23.43 21.58 17.78

GFSNW_sfc_wetblb_051.txt.gz
Wetbulb
46.85 47.59 49.02 49.11 49.00 49.33 48.52 41.00 35.37 49.67 52.32 42.57 40.76 37.11 41.06 43.87 44.62 46.13 45.11 44.96 44.39 42.38 39.96 38.59 38.44 38.80 41.66 43.94 44.47 40.45 42.37 37.90 32.44 37.96 42.82 44.13 41.06 39.51 38.73 29.76 30.36 29.84 27.44 29.85
46.58 48.14 48.68 48.55 48.50 49.33 45.69 37.89 39.65 51.23 49.71 36.96 37.31 39.54 40.73 43.16 43.35 43.59 43.27 43.13 45.08 44.52 39.75 36.51 39.85 40.70 44.90 46.56 43.79 42.12 42.88 36.49 30.62 34.32 38.38 41.65 39.62 41.28 40.71 37.73 33.14 30.11 25.42 30.40
46.28 47.88 47.77 47.72 47.87 49.10 45.63 40.11 33.96 43.93 46.17 44.18 39.93 37.97 38.62 39.22 44.99 43.03 44.04 43.08 44.57 42.98 40.80 41.66 39.86 40.73 46.10 46.32 45.19 45.44 44.73 38.84 35.53 30.94 35.17 38.24 36.82 39.31 39.34 37.56 29.12 30.54 30.54 34.32
46.07 47.93 47.57 47.46 47.52 48.65 45.14 40.66 34.68 40.06 36.69 38.99 41.49 40.55 39.11 38.46 39.05 42.92 43.89 40.86 41.76 41.87 38.31 39.12 38.66 43.14 43.96 44.96 44.24 43.96 42.63 36.30 37.15 37.77 38.68 38.94 38.54 37.84 38.15 36.93 36.23 32.10 34.90 35.01
46.50 47.35 47.17 47.15 46.17 47.33 42.92 37.25 37.40 40.78 38.62 40.18 40.08 39.91 38.10 38.02 40.43 40.91 39.60 39.79 43.81 42.56 40.12 41.36 38.36 42.71 41.76 41.66 42.55 41.80 41.97 35.15 35.20 33.96 37.97 38.39 36.19 38.44 38.05 37.82 37.44 37.04 36.54 35.81
46.49 46.41 46.53 46.60 46.28 46.33 41.88 40.52 43.20 40.75 38.82 37.97 36.97 37.80 37.91 38.48 42.09 42.86 43.57 42.41 41.80 40.64 43.82 46.01 45.47 46.08 45.39 44.51 42.42 39.50 39.05 36.65 32.52 30.33 33.93 33.94 29.23 35.27 37.88 37.94 37.67 37.80 33.10 37.49
46.26 46.17 45.93 46.13 46.42 46.29 45.49 41.16 43.05 40.25 32.67 37.61 37.49 38.63 40.72 39.01 40.85 39.75 42.83 43.81 40.96 44.85 48.89 47.39 45.78 44.69 44.84 44.93 43.57 43.46 37.59 34.71 30.42 27.12 28.18 21.30 36.08 40.26 39.92 37.33 36.10 36.60 37.01 37.85
45.92 45.50 45.74 46.14 46.28 47.21 44.38 42.53 43.16 42.36 30.12 39.46 39.16 39.14 39.66 41.22 41.83 41.25 41.97 43.73 46.32 47.28 47.14 40.97 37.80 34.66 36.08 38.46 42.24 42.66 41.75 34.43 29.08 26.83 26.61 31.32 35.77 36.99 36.75 35.62 34.05 38.15 37.25 38.59
45.14 45.28 45.61 46.04 46.29 46.66 44.39 43.99 45.08 43.38 39.43 38.70 43.35 40.19 41.11 38.04 38.09 38.82 41.33 45.54 48.55 49.83 41.75 34.56 32.95 31.89 35.74 35.55 36.93 41.36 39.57 37.53 32.79 25.87 24.24 22.65 34.86 39.31 40.93 39.96 29.69 40.16 40.02 39.26
44.66 44.56 44.90 45.50 45.73 46.87 44.77 45.36 47.09 44.42 38.71 43.35 45.02 41.30 40.44 42.59 40.62 37.95 39.04 45.12 45.82 47.21 34.52 31.83 30.67 30.66 39.21 32.78 31.99 31.51 31.37 30.98 29.93 24.54 24.70 29.71 37.68 40.73 40.91 30.46 31.69 40.35 41.28 40.88
44.32 43.92 44.18 45.16 44.97 45.73 44.64 43.37 47.90 44.29 39.68 41.10 46.19 45.62 42.69 43.19 42.39 37.68 40.91 43.76 43.01 39.56 35.58 33.68 31.09 27.90 34.82 33.44 36.50 34.04 34.18 30.40 25.95 26.88 22.93 26.53 40.79 39.44 34.42 36.78 39.52 40.95 40.86 41.02
43.75 44.16 44.69 45.16 45.66 46.49 45.22 42.11 47.74 47.77 41.41 42.15 45.99 45.99 46.45 45.47 44.81 43.35 43.47 42.32 43.33 43.64 39.65 35.97 34.37 32.10 29.04 32.71 30.34 38.93 32.84 36.47 33.41 34.17 32.44 39.32 41.29 39.88 40.85 41.45 41.57 41.00 41.74 42.08
44.44 44.98 45.36 45.64 45.82 45.83 44.24 44.17 46.00 44.92 40.09 39.68 41.77 43.45 48.14 49.65 47.81 49.94 43.45 43.31 47.70 46.49 46.35 40.38 38.54 33.38 35.25 30.71 31.35 35.11 38.72 41.31 36.09 36.28 39.21 40.32 41.24 40.84 40.67 41.29 40.53 41.18 42.60 40.03
44.81 44.86 45.16 45.31 45.94 46.04 46.38 44.53 45.98 43.36 43.14 35.49 39.95 49.43 49.91 53.21 52.89 51.36 51.20 48.84 49.48 48.20 45.55 37.88 35.91 33.54 41.02 31.63 38.09 37.02 40.62 40.86 37.62 36.87 39.01 40.26 39.85 38.49 38.53 38.35 38.69 37.82 38.07 38.14
44.71 44.42 44.58 45.75 46.50 46.87 45.74 45.90 45.73 47.04 39.95 37.74 40.81 46.44 49.28 53.47 53.08 52.20 51.53 50.51 47.48 42.81 38.10 34.75 35.56 40.20 39.63 38.11 38.71 35.22 40.29 39.34 35.91 33.89 40.88 39.53 38.63 38.64 39.35 37.86 36.64 36.80 36.17 35.19
43.12 46.56 47.11 47.09 46.86 46.06 44.29 38.43 42.98 47.06 48.05 41.78 35.08 45.11 46.20 50.87 51.53 51.14 49.46 49.60 47.22 44.68 40.37 37.55 41.81 43.37 39.36 34.82 34.87 41.05 41.88 42.88 42.11 40.51 43.15 39.08 38.21 37.78 38.10 36.54 36.05 36.01 35.39 35.05
45.56 46.45 46.66 46.61 46.24 42.90 39.08 38.21 44.08 46.82 48.55 41.48 35.16 36.21 43.79 51.69 48.50 46.06 47.53 47.17 44.31 45.02 41.51 36.78 38.56 40.30 38.50 28.06 31.31 39.60 40.73 40.13 39.41 39.33 38.75 35.73 36.61 34.47 36.41 35.59 35.24 35.14 33.69 33.29
46.31 46.36 46.35 46.47 46.45 44.48 39.39 45.91 47.94 48.11 43.82 43.61 34.55 35.88 39.10 49.32 43.10 42.15 45.84 42.97 43.47 43.82 41.16 38.27 34.54 37.97 30.84 32.21 37.42 39.06 39.14 39.00 38.68 38.00 38.78 37.45 35.93 35.39 34.10 34.46 33.97 32.42 31.52 31.23
46.08 46.27 46.22 44.88 43.29 37.63 42.76 47.94 48.98 49.66 42.92 35.72 33.66 33.85 33.89 44.91 41.97 40.68 39.78 43.06 36.02 42.25 36.40 37.49 39.68 33.72 32.85 34.76 36.99 38.17 38.83 37.95 35.04 35.71 35.43 35.17 33.61 33.20 33.34 33.16 31.89 29.65 28.51 29.26
45.85 45.18 42.27 37.62 40.86 47.63 47.86 46.34 42.37 42.36 42.89 42.29 34.59 39.73 36.38 43.04 35.84 35.67 34.95 35.25 34.74 33.83 36.39 39.61 34.30 33.53 36.50 36.65 38.18 37.79 37.20 36.46 36.01 32.99 31.70 32.41 32.35 32.52 32.39 31.72 31.70 30.73 28.66 29.13
42.97 40.19 38.92 46.80 48.10 45.57 40.56 34.51 34.87 35.68 33.06 35.98 37.72 38.41 38.29 42.01 35.56 34.54 34.90 33.11 32.71 32.53 34.46 35.42 32.37 32.11 35.15 37.77 37.85 38.38 38.35 38.26 38.20 37.51 36.45 35.75 34.95 33.53 31.72 30.24 29.99 29.46 29.00 28.15
44.20 46.32 48.19 47.06 43.87 37.69 33.92 31.63 32.40 32.56 31.81 34.81 35.64 36.83 39.58 37.21 40.61 33.69 33.90 32.19 29.58 30.20 36.06 33.03 30.89 32.21 36.66 37.84 37.49 38.33 38.97 38.48 37.97 38.31 36.86 36.34 34.92 33.61 31.40 29.72 29.05 28.95 28.20 25.30
47.67 42.18 36.63 38.77 33.42 31.40 28.96 28.00 29.98 30.18 32.55 34.54 34.19 33.65 34.13 36.05 36.79 31.57 28.80 25.00 26.80 33.09 32.13 30.86 29.13 34.02 37.52 38.01 38.17 37.26 38.25 37.89 36.60 35.19 34.62 33.31 31.19 30.69 29.49 28.13 27.51 26.39 24.95 24.27
36.08 34.86 29.32 30.47 28.83 29.08 29.24 30.83 31.75 32.14 32.20 32.94 34.19 33.12 33.63 32.58 33.02 31.52 24.65 31.82 32.20 21.52 20.34 23.41 31.61 34.72 35.59 35.65 35.27 34.12 33.02 32.44 32.50 32.09 31.25 29.37 27.94 26.88 26.93 26.59 25.35 23.37 22.48 22.55
32.58 32.90 26.90 28.09 30.89 31.79 31.81 32.20 32.37 32.85 34.15 33.29 33.33 33.21 32.86 32.32 31.68 30.71 30.50 28.68 26.72 22.38 22.08 29.94 33.09 34.39 33.64 32.88 32.38 31.51 30.93 30.69 30.50 30.66 29.22 27.67 26.42 25.44 25.06 25.56 24.79 22.91 20.69 19.12
32.21 30.64 30.02 31.18 31.58 30.21 31.16 31.75 32.00 34.61 32.91 31.99 30.94 28.20 26.33 30.30 29.88 28.45 26.86 21.22 21.28 27.78 30.36 32.62 33.25 32.26 31.86 31.66 31.92 32.00 31.64 30.37 29.29 29.04 28.01 26.91 25.69 24.58 24.23 24.26 22.71 20.80 19.40 17.65
30.32 28.60 31.79 30.89 30.87 30.18 31.08 31.60 31.70 34.57 33.29 32.00 29.39 29.03 28.72 31.24 28.41 26.43 28.37 25.44 28.16 30.90 31.76 32.60 32.31 31.58 31.53 31.87 31.20 30.81 30.16 29.17 28.07 27.13 26.89 26.27 25.67 23.61 22.42 21.24 21.83 22.30 20.35 17.14

GFSNW_sfc_wetblb_054.txt.gz
Wetbulb
47.86 47.58 47.68 47.98 49.86 49.60 47.66 42.85 33.01 46.13 51.80 41.88 42.15 38.56 39.07 43.12 43.90 45.19 43.31 43.47 42.97 41.15 38.34 36.66 36.54 37.17 40.26 42.53 42.29 39.12 40.88 35.98 30.86 36.72 41.04 42.01 39.19 38.09 36.71 29.43 29.59 29.12 26.67 28.57
47.68 47.38 47.52 47.43 49.27 49.16 44.14 38.52 36.16 50.01 47.94 34.11 36.74 40.95 40.82 42.04 42.47 42.27 41.78 41.46 43.52 43.99 38.71 34.61 38.07 38.78 43.04 43.03 42.02 40.31 41.52 34.52 29.03 32.46 36.49 39.42 38.32 39.39 38.91 36.01 32.35 29.37 24.63 29.88
47.58 47.17 47.01 46.77 49.04 49.09 45.14 38.74 30.51 42.12 43.74 42.11 38.03 38.10 38.27 37.45 43.89 42.53 42.62 41.47 42.93 41.70 39.99 40.74 36.94 38.85 43.57 44.44 43.10 44.84 43.82 36.77 33.38 30.11 33.23 36.61 35.48 38.01 38.26 36.60 28.82 30.35 29.74 33.47
47.32 46.98 47.19 46.61 48.35 48.55 44.87 39.23 33.06 38.92 34.72 35.86 38.90 39.08 38.68 36.70 37.30 42.42 42.81 39.99 40.33 40.24 37.40 37.86 36.49 41.09 42.88 43.39 43.98 42.31 41.48 35.24 35.59 35.81 36.84 37.46 36.87 36.59 36.39 35.42 35.14 31.76 34.52 33.42
47.06 46.80 46.69 46.48 48.44 48.47 42.62 35.89 33.59 40.72 36.16 37.35 37.67 39.02 37.24 36.79 38.64 39.93 38.76 38.52 41.18 40.81 38.25 39.71 37.80 41.99 40.10 39.83 40.80 40.29 40.02 34.72 34.27 33.28 36.10 36.02 34.37 35.66 36.13 36.19 35.59 34.95 34.83 34.67
46.99 46.60 46.44 47.30 47.96 47.50 41.50 41.10 40.03 40.06 37.58 37.36 34.20 35.75 37.72 37.62 41.03 42.11 42.58 41.45 40.07 38.36 41.74 44.63 44.98 44.63 44.48 43.80 40.48 38.20 37.84 34.95 31.00 30.26 32.67 34.01 29.47 34.94 35.98 35.99 36.59 37.14 32.44 37.29
46.59 46.14 46.37 47.30 47.47 46.87 43.56 41.57 40.48 38.10 31.44 36.72 34.84 36.58 39.56 38.65 39.88 39.03 42.85 43.51 40.22 42.93 48.58 47.24 45.14 43.30 42.94 42.90 42.01 41.91 35.91 34.05 30.14 26.58 27.89 21.16 36.23 38.77 38.66 37.31 36.80 36.53 35.45 35.31
46.14 45.73 46.00 47.02 47.11 47.15 44.76 42.29 40.48 39.27 32.51 36.75 36.77 37.23 37.60 39.54 41.23 40.54 41.70 43.75 45.01 45.89 44.26 37.40 36.11 34.68 36.50 37.96 41.06 40.80 39.74 32.91 28.51 27.44 26.77 30.84 33.91 36.54 36.17 35.09 34.54 37.32 35.66 37.11
45.21 45.86 46.30 46.48 46.55 47.19 45.01 44.22 42.96 42.59 37.55 34.95 40.06 37.66 38.61 36.90 35.94 36.29 39.29 44.59 46.23 46.72 39.95 33.38 29.98 29.88 35.08 34.92 36.39 40.21 38.32 35.91 31.66 25.49 23.69 22.12 33.01 37.95 39.27 38.34 29.90 38.50 38.46 37.98
45.57 45.83 45.48 45.84 46.41 46.75 45.31 43.77 44.53 42.09 36.79 40.82 41.28 37.76 37.47 40.65 38.41 34.72 37.48 40.17 40.84 44.80 29.63 28.16 29.34 31.56 37.93 32.05 32.80 32.39 31.29 29.35 27.19 22.09 23.64 29.73 37.96 38.86 39.87 29.91 32.17 38.57 39.59 39.47
45.40 45.33 45.28 45.59 46.03 46.54 45.03 42.75 45.50 42.92 39.41 40.72 44.48 43.25 40.42 40.26 40.47 34.01 37.83 39.76 40.37 36.71 33.75 32.57 33.07 28.23 34.74 33.26 36.06 35.08 34.86 31.53 26.14 26.21 23.04 27.20 40.13 38.85 34.81 36.94 37.61 39.10 39.60 39.93
45.10 45.17 45.12 45.71 46.09 46.47 45.01 40.41 47.11 47.57 41.16 41.45 44.67 44.20 44.61 43.59 43.42 41.83 40.32 39.35 40.35 41.01 37.51 34.71 31.50 29.90 29.07 32.91 31.31 37.47 34.51 37.17 34.03 34.65 34.11 39.25 40.06 38.96 39.89 40.05 39.54 39.89 40.35 40.46
44.84 44.86 45.16 45.64 45.82 46.40 44.73 41.23 43.00 44.69 40.52 40.39 41.32 39.98 46.22 47.66 46.23 46.95 40.12 41.23 45.90 43.74 43.84 38.44 35.94 31.71 33.84 29.73 31.88 34.07 37.55 39.45 35.71 36.18 39.01 39.71 40.84 40.74 40.44 40.44 40.65 41.56 41.29 38.82
44.20 44.16 44.16 45.22 45.02 45.69 45.00 41.93 44.35 43.76 39.19 32.73 38.52 48.87 46.59 49.75 48.66 46.98 47.73 46.41 47.68 46.13 43.75 37.08 35.40 32.10 39.55 32.28 36.42 36.07 38.28 40.11 37.08 35.84 38.43 39.72 40.79 38.59 38.87 38.19 38.93 38.22 37.63 36.89
43.98 44.36 44.58 45.26 45.24 45.36 43.96 43.59 43.99 44.31 38.82 35.59 35.73 43.82 46.95 48.67 50.65 49.59 48.97 48.63 45.81 41.43 36.92 34.04 35.10 37.98 38.06 34.68 35.25 33.59 39.73 38.29 35.73 34.65 41.85 40.51 39.76 38.60 38.95 37.91 36.84 37.08 35.80 34.61
44.33 44.08 44.99 44.74 44.95 45.09 42.09 37.74 44.49 47.45 45.06 36.12 32.70 42.62 42.62 47.14 51.39 51.19 48.75 48.95 45.01 42.96 39.26 34.28 38.81 41.50 39.98 33.23 31.41 40.05 41.71 42.43 43.45 41.69 42.93 38.17 38.31 37.24 37.35 35.97 35.69 35.80 35.12 34.84
44.28 44.87 44.96 45.10 44.60 43.61 40.22 37.44 41.64 47.04 45.77 39.21 31.08 32.69 41.34 48.78 50.33 47.60 47.85 45.37 43.70 43.28 39.51 34.48 37.63 38.76 39.50 27.69 31.06 38.95 40.42 40.07 40.35 39.22 38.70 35.73 36.94 35.00 35.47 35.05 34.62 34.78 33.08 32.76
44.29 44.67 44.82 45.41 45.57 44.39 39.39 42.23 45.69 46.61 43.57 41.86 29.91 33.74 37.97 47.20 43.16 42.38 46.31 42.09 41.38 41.69 38.97 34.93 33.69 36.92 30.79 33.41 36.55 37.50 37.79 38.09 37.96 36.83 37.48 37.25 35.32 34.40 32.99 33.32 32.92 31.33 30.36 30.47
45.81 45.93 45.46 44.21 41.97 38.57 38.50 46.84 46.54 45.76 40.99 34.10 32.17 33.06 32.12 42.07 41.21 39.97 41.14 41.50 34.93 40.33 34.78 36.58 37.65 32.58 33.00 35.77 35.79 36.27 37.15 36.99 34.26 35.33 35.00 34.74 32.94 32.33 32.28 32.10 31.45 29.97 29.20 29.53
45.33 42.76 39.12 34.00 38.00 45.48 47.32 45.01 41.06 40.42 39.68 40.99 33.88 37.56 34.19 42.11 35.49 34.96 35.10 34.95 34.57 33.67 36.15 39.20 31.48 33.24 35.10 36.15 37.47 38.07 36.68 35.86 35.45 32.61 31.26 31.85 31.69 31.31 31.07 30.50 30.96 30.41 30.34 30.58
39.58 37.59 35.91 41.53 46.91 43.69 39.82 34.34 35.10 35.46 33.45 36.29 36.13 37.23 35.78 40.87 35.53 33.68 33.05 32.77 33.32 32.17 34.52 34.94 32.55 33.66 35.20 37.32 37.39 38.19 37.45 37.27 37.51 36.46 35.26 34.88 33.30 31.46 29.83 29.27 30.08 30.38 30.29 28.92
42.73 43.24 45.82 45.29 42.94 36.81 32.61 31.76 32.17 33.06 31.41 34.12 34.92 36.62 38.46 36.94 40.89 34.67 34.28 32.50 31.75 31.07 36.01 33.27 31.27 33.30 36.57 37.09 36.78 37.38 38.07 37.26 36.32 36.48 34.62 34.23 33.36 32.13 30.66 29.65 29.01 28.65 27.32 25.63
43.85 42.39 35.97 37.60 32.73 30.89 25.77 26.57 29.83 30.72 32.76 34.16 34.44 33.51 34.33 35.73 37.82 32.56 31.49 29.22 30.17 33.42 32.20 31.37 31.47 34.94 36.25 36.74 37.27 36.89 37.84 36.91 35.93 34.94 34.40 32.81 31.50 31.33 30.26 28.25 27.62 26.65 25.45 24.44
35.41 33.14 27.92 29.96 28.48 28.48 29.27 30.86 31.81 31.84 32.00 32.77 33.67 32.94 33.12 32.58 32.32 30.87 30.47 31.76 31.85 27.95 26.55 23.62 31.58 34.48 35.06 35.58 35.79 34.55 33.27 32.68 32.09 31.07 30.68 29.83 29.12 27.87 27.43 26.49 25.16 24.02 23.22 23.30
31.85 31.75 26.96 28.26 30.93 31.66 31.48 32.03 32.38 32.70 33.80 32.93 33.39 33.08 34.35 31.92 30.81 30.19 30.56 29.33 26.61 24.81 19.77 29.54 32.19 33.63 33.74 33.07 32.71 31.87 31.32 30.58 29.64 29.18 27.62 26.79 26.45 25.12 23.86 23.82 23.91 22.93 21.28 20.25
31.77 30.16 28.59 30.09 30.01 29.27 30.59 30.83 31.48 34.30 32.74 33.09 32.73 31.04 31.03 29.76 29.59 27.18 26.71 25.00 23.17 27.25 29.79 31.82 32.48 31.69 31.68 31.53 31.67 31.57 31.05 30.09 29.07 28.15 27.13 26.16 24.93 23.93 22.90 22.47 21.41 20.43 19.75 18.87
29.56 28.05 29.57 29.40 29.38 27.92 29.43 30.33 30.23 33.47 32.96 31.46 30.94 28.81 27.03 31.16 27.42 25.15 27.53 24.29 27.66 30.12 30.86 31.55 31.84 30.99 30.64 30.29 29.87 29.64 29.25 28.41 27.58 26.86 26.04 24.92 24.65 23.54 22.27 20.31 21.00 21.39 19.50 17.91

GFSNW_sfc_wetblb_057.txt.gz
Wetbulb
49.49 49.33 48.73 48.46 48.67 49.76 47.84 42.12 33.50 43.67 49.32 38.26 39.92 36.19 39.57 42.30 42.74 46.03 44.07 44.25 42.96 41.99 39.74 38.30 38.35 38.37 42.17 43.57 44.28 41.65 44.31 40.95 36.10 40.02 44.10 44.79 43.76 42.56 41.58 37.18 33.89 33.89 33.11 35.22
49.28 49.10 48.57 47.99 48.29 49.45 44.75 38.52 38.37 45.76 45.54 31.68 34.35 39.25 40.04 41.79 41.96 43.02 42.87 41.78 43.88 45.34 42.22 37.40 39.85 40.34 44.26 43.41 43.88 43.15 43.76 38.62 34.18 36.06 40.38 43.50 42.22 42.28 41.06 39.25 37.47 33.87 33.51 36.93
49.53 49.03 48.23 47.89 48.06 49.30 45.02 38.59 32.23 39.62 41.26 40.56 36.67 36.18 36.82 38.27 43.40 42.86 43.74 42.91 43.39 43.53 41.90 42.63 39.93 40.16 44.36 44.03 44.80 44.66 45.66 39.73 38.06 34.29 37.80 40.64 38.89 40.58 41.03 41.21 35.85 36.75 36.02 39.71
49.39 49.02 48.11 47.57 47.77 48.68 44.41 38.34 34.74 38.16 32.71 33.76 36.29 38.02 37.94 36.57 37.50 42.31 43.72 41.24 41.46 41.41 38.59 40.22 38.94 43.21 44.78 45.35 45.00 44.89 45.48 38.91 38.79 38.87 39.13 40.14 40.66 40.64 39.85 39.45 40.81 37.71 40.27 37.67
49.34 48.49 47.75 47.23 47.62 48.68 41.52 35.14 35.10 37.42 37.80 36.78 35.21 37.61 36.30 36.76 38.67 40.20 39.10 39.87 41.40 42.11 39.44 41.07 38.66 41.41 43.51 42.91 43.54 42.91 43.22 38.64 38.77 37.43 38.74 39.17 37.98 39.85 40.24 40.41 39.58 39.40 39.50 38.92
48.90 48.13 47.33 46.94 47.12 47.86 40.47 41.78 40.45 38.76 36.89 36.09 33.01 34.45 36.52 37.84 40.24 41.55 42.93 42.11 40.82 39.74 42.13 45.20 46.05 46.43 46.56 46.17 44.74 41.65 40.70 38.36 36.23 34.33 36.70 37.48 33.59 38.36 38.99 39.70 40.92 41.78 37.64 43.34
48.67 47.61 46.80 46.70 47.07 47.05 44.08 41.88 40.96 36.91 31.76 35.06 33.89 35.27 38.91 38.38 39.87 39.06 41.73 43.68 40.83 43.82 47.99 47.85 47.02 45.57 44.15 44.32 43.64 44.95 39.42 37.92 35.19 32.59 31.95 29.11 40.89 41.72 42.08 41.23 41.61 41.69 40.48 41.48
48.03 47.05 46.52 46.39 46.86 47.41 44.27 43.07 41.53 39.08 30.13 36.56 36.41 35.51 37.52 40.62 41.88 40.58 41.68 43.78 45.68 47.44 45.82 39.08 36.75 36.54 38.23 39.99 42.45 41.75 42.11 36.95 32.20 32.23 32.55 35.61 38.12 39.87 40.29 40.21 41.33 42.22 41.60 41.02
47.05 46.34 46.38 46.07 46.41 47.69 45.06 43.60 44.15 41.46 36.17 35.21 39.37 36.89 37.53 36.84 37.44 38.25 40.98 45.93 47.79 46.61 39.77 35.11 31.74 32.58 36.73 36.71 37.97 40.86 38.12 38.59 37.82 30.70 30.37 29.12 38.54 41.87 42.55 43.17 35.86 42.80 42.12 41.37
46.48 46.13 45.95 45.94 46.78 47.79 45.15 43.18 45.26 42.13 37.63 40.79 41.45 37.46 36.79 40.42 38.83 37.03 39.58 41.88 42.41 45.77 34.84 33.62 32.86 33.10 40.27 35.90 34.00 34.19 34.61 33.76 33.83 29.94 33.40 34.90 39.82 42.18 43.23 36.24 39.53 43.05 43.22 43.39
46.10 45.69 45.92 46.22 46.91 47.33 45.10 43.19 45.51 43.02 39.62 40.38 43.60 42.87 40.47 40.77 40.61 35.57 39.01 40.15 40.76 38.78 34.62 34.38 34.54 33.03 36.87 37.57 38.35 36.59 36.39 33.76 32.77 31.72 31.74 32.11 42.53 40.41 38.97 44.15 42.55 43.62 43.56 43.84
45.59 45.55 45.76 46.42 46.90 47.05 46.15 41.56 45.55 46.39 41.39 41.32 44.81 44.93 45.26 44.01 45.69 41.88 41.48 40.48 40.84 41.27 38.26 37.08 36.50 34.59 33.29 36.77 34.45 39.78 36.51 39.22 37.38 37.89 39.23 44.15 43.22 45.42 44.68 43.55 44.77 43.14 44.38 43.96
45.26 45.47 45.79 46.68 46.64 47.03 45.35 42.51 42.95 43.32 39.97 39.46 41.29 40.74 47.18 47.11 45.96 47.66 41.99 42.38 45.97 44.25 46.27 41.21 40.22 36.02 37.42 34.07 35.26 38.70 39.86 42.56 40.00 40.29 41.87 42.16 43.38 44.43 43.80 44.38 44.31 43.92 44.87 42.59
45.58 45.54 45.61 45.90 46.13 46.48 44.34 41.50 44.01 41.99 40.78 33.52 37.56 47.18 45.18 48.81 48.46 47.26 47.86 47.71 48.53 47.33 46.18 39.64 36.81 37.16 41.14 37.31 41.04 39.79 41.15 42.60 39.76 39.29 41.50 42.33 44.17 43.81 43.55 42.37 42.51 41.03 40.98 40.64
45.20 45.37 45.48 45.67 46.05 45.60 43.28 42.74 43.76 43.30 39.10 33.10 35.97 43.15 45.59 47.21 48.93 47.34 47.77 47.86 47.49 44.68 40.85 36.38 38.57 40.43 40.12 37.98 39.29 37.88 42.37 40.92 39.26 39.31 44.25 44.64 45.40 45.11 42.65 41.24 40.70 40.21 38.05 36.94
44.39 44.59 45.01 45.22 45.36 44.12 40.92 35.80 43.32 44.27 45.73 37.38 31.64 41.95 43.43 47.78 49.17 48.37 47.30 47.94 47.48 46.54 42.88 39.54 41.36 43.25 42.41 36.75 37.83 43.09 43.93 44.12 45.43 44.62 45.41 40.45 39.55 39.45 41.02 39.51 38.65 38.70 38.27 37.36
44.03 44.39 45.07 45.12 44.99 41.81 37.07 34.95 41.19 43.55 44.15 38.75 32.30 34.99 41.66 45.61 48.24 48.64 48.48 49.64 47.70 46.08 43.50 39.18 42.03 42.53 42.63 34.98 37.86 42.65 43.05 43.60 41.96 41.18 41.19 38.56 38.92 38.66 38.30 37.66 37.13 36.82 36.03 35.70
44.00 44.50 44.87 44.75 44.39 43.88 39.88 44.09 45.84 44.36 41.45 41.45 31.20 32.29 38.13 46.59 42.70 42.14 46.49 43.54 44.35 43.08 42.11 38.38 40.19 39.80 36.94 35.45 39.44 40.34 40.15 39.81 39.70 40.07 39.12 40.28 37.54 36.33 35.15 34.93 34.69 33.17 32.10 32.26
43.85 43.89 44.45 42.87 41.04 35.20 39.59 45.88 46.77 46.89 42.56 34.47 32.86 31.70 33.27 43.60 40.84 40.61 41.02 41.96 36.01 42.00 37.12 38.57 40.71 36.84 36.50 39.58 39.25 39.17 38.82 39.15 37.50 36.25 36.08 36.22 35.70 34.51 33.82 33.97 33.62 31.86 31.17 31.68
44.47 42.77 38.92 34.53 39.64 44.71 46.21 42.97 39.46 39.16 40.03 39.92 34.04 36.36 34.91 41.56 37.78 36.57 36.48 36.56 35.44 34.20 38.03 40.79 35.85 36.91 38.53 38.12 39.33 39.84 38.22 37.05 36.47 34.03 32.62 32.85 32.94 33.12 32.91 33.05 33.48 32.51 31.94 31.48
41.90 38.10 35.22 40.39 45.38 41.58 38.51 34.39 33.70 33.86 33.10 36.07 36.42 35.64 36.42 42.13 37.56 34.73 35.03 33.31 33.30 32.95 35.95 37.07 35.83 34.62 38.16 38.77 38.81 38.67 38.04 37.64 38.15 37.65 36.55 36.38 34.34 33.00 31.90 31.69 32.19 32.34 31.53 29.19
42.77 42.35 43.58 42.90 39.22 34.73 31.23 31.70 32.84 32.84 30.49 35.03 34.90 36.09 38.81 37.98 40.99 36.98 35.21 32.72 32.54 32.13 35.88 33.13 32.71 34.37 36.56 37.73 37.28 37.32 37.98 37.87 36.73 36.75 35.25 34.57 33.44 32.79 31.72 30.98 30.08 28.69 27.44 26.68
42.45 41.04 35.76 36.17 32.39 28.68 29.12 27.76 30.37 31.44 32.93 34.29 34.94 33.48 35.65 36.91 36.95 33.30 32.93 31.09 30.58 34.48 32.21 31.77 31.38 35.37 36.10 37.27 37.45 36.88 37.25 36.60 35.30 34.00 32.94 31.99 31.48 31.87 30.34 28.11 28.27 27.90 26.53 26.26
34.28 31.98 29.00 29.36 27.55 28.36 29.00 31.26 32.00 31.82 32.40 32.77 33.82 32.95 33.84 33.11 32.72 32.40 31.29 32.19 31.83 30.40 29.33 27.08 31.88 33.05 34.65 35.40 35.36 34.11 32.37 31.90 31.73 31.28 30.81 29.66 28.91 27.98 28.02 27.59 27.04 25.66 24.26 24.13
31.26 31.39 27.05 28.16 31.27 31.41 31.63 31.83 32.36 32.31 33.60 32.90 33.27 33.45 34.44 31.86 31.48 32.03 31.92 30.33 26.57 26.32 25.86 30.04 32.13 33.20 33.19 32.27 32.04 31.12 30.16 29.51 29.02 28.67 27.33 26.53 26.28 25.52 25.13 25.88 25.32 24.10 23.21 22.54
31.15 27.64 24.92 28.04 28.08 26.26 28.50 28.69 29.74 32.53 32.19 33.08 33.54 31.83 31.65 30.71 30.60 28.74 26.23 26.55 23.69 26.80 29.54 31.39 31.86 31.05 31.02 30.81 30.58 30.05 29.26 28.45 27.68 27.26 26.69 25.55 24.48 23.44 22.82 23.13 22.59 22.39 22.10 21.14
29.63 26.10 27.07 25.94 26.32 25.07 26.18 27.82 28.63 32.63 32.57 31.11 31.70 25.79 24.38 30.69 27.03 24.11 26.72 23.84 26.14 28.36 29.80 30.71 30.90 29.70 29.33 29.49 29.08 28.54 28.11 27.43 26.90 26.24 25.28 23.90 23.43 23.43 22.29 20.47 21.28 21.52 20.57 20.23

GFSNW_sfc_wetblb_060.txt.gz
Wetbulb
50.29 50.04 49.92 49.91 49.32 49.14 48.27 41.92 33.70 49.91 49.14 35.56 37.83 35.41 41.12 43.05 44.09 48.07 45.89 45.71 44.88 43.88 42.84 41.39 41.68 42.53 45.01 48.85 49.02 45.21 48.64 45.55 41.03 43.17 47.87 49.12 48.42 46.59 46.32 40.44 38.01 40.91 40.04 39.65
49.79 50.03 49.72 49.72 49.08 49.18 46.64 37.96 38.73 48.96 47.70 30.04 32.32 39.46 40.66 42.87 43.18 44.33 44.63 43.28 45.18 47.24 44.78 40.12 43.08 43.90 48.32 48.67 48.74 46.74 48.12 43.76 38.65 40.26 44.00 47.15 45.32 46.72 46.83 45.83 44.25 40.05 38.66 40.69
49.28 49.27 49.64 49.41 48.87 48.94 48.02 38.99 32.72 39.20 41.38 42.63 36.22 36.09 37.82 38.45 44.21 44.31 45.84 44.67 45.62 43.67 43.02 46.08 42.70 43.22 45.63 48.25 49.34 47.02 48.70 45.50 42.03 37.92 41.19 44.74 42.78 44.71 46.19 45.01 40.37 40.69 41.57 42.96
48.99 49.40 49.79 49.54 48.75 48.62 45.66 39.22 37.26 38.80 30.81 35.14 37.89 38.98 39.15 37.73 38.35 43.95 46.29 44.05 44.11 42.87 40.12 42.64 42.54 44.45 46.10 46.14 45.91 48.37 48.84 42.39 44.16 44.45 44.81 44.72 43.96 43.45 44.54 43.21 43.95 40.74 43.09 43.30
48.43 48.83 49.42 49.10 48.52 48.48 42.02 36.58 38.62 41.44 38.67 39.08 37.72 37.64 37.09 37.79 39.55 41.29 41.46 42.04 43.79 44.13 41.66 43.06 40.84 43.68 45.82 45.42 47.28 47.26 48.17 42.63 44.53 42.12 44.77 44.01 42.25 44.17 44.62 44.97 44.73 45.21 45.33 44.63
48.33 48.88 49.10 48.67 48.13 47.62 40.56 42.18 45.82 42.73 38.53 37.28 35.26 37.50 36.89 38.97 42.00 43.82 44.53 44.57 43.03 41.94 43.48 46.60 47.53 47.52 47.42 47.06 46.37 46.43 45.75 44.05 41.89 38.49 42.94 42.16 36.95 42.86 44.26 45.08 46.80 46.47 43.09 47.48
48.15 48.48 48.15 48.09 47.89 47.32 46.97 43.41 44.49 40.07 35.29 36.79 34.65 36.92 38.82 39.05 41.11 40.70 44.30 46.09 43.40 45.78 48.95 48.34 48.27 47.49 46.61 47.39 48.30 49.69 45.33 44.45 43.66 38.72 37.52 32.77 43.60 47.54 48.37 46.30 47.11 48.59 48.24 48.76
47.79 47.90 47.54 47.78 47.44 47.65 45.84 44.54 44.63 40.93 36.94 38.72 37.77 36.81 37.81 41.13 42.90 42.25 43.31 45.96 48.06 49.89 46.01 41.18 37.73 39.69 41.29 43.98 46.77 47.45 48.64 45.14 39.91 38.20 37.00 41.63 42.20 43.69 45.03 44.89 45.34 49.70 48.70 49.72
47.46 47.42 47.55 47.40 47.02 47.35 45.93 45.30 49.77 45.48 39.47 37.76 41.19 37.28 38.67 38.17 40.11 41.63 43.56 48.44 50.99 49.06 43.80 40.73 33.90 32.44 37.33 39.26 41.58 45.01 44.89 45.30 43.67 37.55 36.29 34.45 43.34 48.10 50.03 49.07 41.73 50.06 49.58 49.02
47.20 47.41 47.47 46.97 46.88 47.40 45.91 46.57 50.17 46.49 39.44 43.05 43.32 38.92 38.22 42.91 42.53 41.26 43.39 45.10 45.65 48.04 41.25 38.45 36.77 35.26 41.79 37.72 38.39 37.24 39.30 39.25 38.79 38.59 38.26 42.07 47.20 47.12 48.71 39.85 43.64 50.69 50.85 50.28
47.14 47.22 46.78 46.48 46.63 47.40 47.25 45.91 49.74 47.68 42.05 43.32 44.33 45.37 42.30 43.25 44.00 40.60 44.55 43.72 44.03 43.32 39.18 38.80 39.17 39.64 40.69 41.01 43.21 41.24 40.05 38.75 37.95 40.17 37.97 35.93 46.89 45.59 44.30 49.95 50.84 51.91 51.14 51.41
46.87 46.44 46.28 46.14 46.70 46.90 46.87 42.54 48.18 50.25 45.68 43.69 46.98 46.76 48.77 47.85 47.86 45.83 47.03 44.18 44.13 44.77 41.73 42.48 42.67 40.81 40.98 41.15 37.19 45.50 40.55 44.01 43.02 42.34 44.07 49.59 48.96 51.30 51.88 51.62 52.04 50.58 51.65 51.23
46.11 46.07 46.25 46.62 46.68 46.68 46.72 45.94 46.93 46.49 44.15 43.85 44.54 41.64 48.36 50.30 50.49 53.71 43.89 46.11 47.43 46.73 49.88 45.76 45.13 41.55 44.92 40.75 40.49 42.92 44.43 45.54 43.26 43.88 48.67 48.04 49.01 50.67 49.91 50.49 50.35 50.10 50.90 50.97
45.63 45.93 46.05 46.25 46.90 46.32 46.75 46.15 47.60 46.01 42.70 37.35 39.43 47.93 44.65 50.38 50.89 50.77 51.51 50.17 52.33 51.83 50.01 46.52 42.68 42.43 46.13 43.92 44.67 44.35 47.36 46.34 45.27 46.38 49.20 47.05 48.40 50.37 51.67 49.81 49.19 49.10 50.10 50.10
45.70 45.95 46.11 46.38 46.26 46.35 46.21 47.23 47.48 48.25 42.81 35.85 39.49 44.69 45.75 47.99 50.63 50.06 50.48 50.69 50.86 50.50 47.21 40.21 41.59 47.55 46.20 46.06 44.74 44.22 47.26 46.25 43.97 44.62 50.68 49.70 51.59 51.92 53.28 50.24 48.94 48.93 48.31 47.17
45.08 46.07 45.84 45.80 45.43 45.85 44.01 38.51 45.97 48.03 46.49 39.70 34.02 43.51 43.06 45.62 46.36 48.47 49.40 49.32 49.32 49.44 47.62 46.28 47.55 49.05 47.38 42.98 41.85 47.29 48.89 50.42 51.24 49.85 51.76 52.15 47.36 46.29 49.56 49.60 49.28 48.42 47.38 47.21
45.05 45.27 44.91 44.78 44.73 45.74 40.49 38.46 44.13 46.45 48.40 40.28 35.06 36.43 43.57 44.43 44.81 48.44 48.18 50.12 49.09 48.28 46.84 46.05 46.90 47.78 46.35 44.03 40.88 47.00 49.96 50.99 51.79 50.40 47.83 47.15 46.08 48.15 45.87 46.41 46.77 45.06 46.03 45.26
44.68 44.92 44.63 44.41 44.12 43.99 42.12 47.52 46.20 47.13 43.66 41.03 34.01 35.56 38.52 47.35 43.04 43.33 50.05 47.64 47.19 46.87 45.68 47.51 45.61 47.26 46.49 41.31 46.08 48.20 49.55 50.15 47.93 48.22 48.27 47.47 46.43 45.05 44.05 44.32 42.78 41.75 41.22 41.09
44.97 44.83 44.22 44.05 43.22 40.38 42.89 45.71 45.39 48.29 43.76 35.62 33.86 32.93 33.46 44.63 42.72 43.10 42.18 43.80 38.22 43.51 38.71 43.39 45.23 43.35 39.52 43.25 45.51 47.14 48.31 47.35 49.17 47.29 44.46 43.66 43.53 43.12 41.87 41.32 40.93 40.36 38.54 38.56
44.14 43.97 39.92 34.62 41.58 43.42 46.00 41.76 38.38 37.99 41.43 40.31 34.38 38.87 33.11 41.32 39.55 38.40 39.81 42.56 39.98 35.30 37.61 44.02 37.11 41.76 46.77 47.94 47.70 48.26 48.06 47.79 44.87 41.86 40.43 41.42 41.02 40.80 40.43 40.49 41.32 40.03 38.52 38.06
42.00 38.00 38.28 43.09 44.33 42.25 40.12 34.36 33.02 36.48 34.07 38.60 38.23 37.85 37.37 44.29 40.92 38.46 41.47 36.02 35.98 34.59 36.61 39.29 38.22 37.69 42.17 42.23 45.71 45.94 45.21 44.71 44.35 44.19 43.47 43.40 42.81 40.95 39.00 38.01 38.89 38.07 36.85 35.05
42.61 43.10 45.59 43.25 39.13 37.24 32.94 32.28 34.89 34.11 32.32 39.22 37.44 37.96 41.39 41.83 46.46 42.75 38.98 35.68 35.30 34.50 37.55 33.86 34.57 35.52 37.65 39.08 40.44 41.43 42.03 41.89 40.76 41.37 40.45 40.64 39.64 39.46 38.07 35.79 34.84 33.02 30.65 29.24
44.07 42.50 37.79 37.14 34.10 28.95 29.50 27.10 31.72 32.73 37.13 37.65 37.00 36.12 41.61 42.01 43.45 37.10 36.41 33.50 32.78 35.77 33.31 33.44 31.72 34.50 36.14 37.53 37.64 36.95 37.26 36.12 34.74 33.66 34.27 34.05 33.40 32.87 32.37 29.84 29.63 29.60 29.31 28.92
36.04 33.43 30.42 31.51 30.00 30.38 30.88 32.96 35.03 34.03 36.22 37.13 37.95 35.50 38.38 36.58 36.58 35.31 33.86 34.59 34.77 31.87 32.19 28.78 32.63 33.21 33.95 34.34 34.11 32.70 31.48 31.27 30.82 30.48 30.35 29.67 29.14 28.05 28.62 28.42 28.57 27.72 26.71 27.09
31.50 31.51 26.30 28.93 31.45 31.02 30.51 32.58 34.18 33.28 34.83 35.65 35.12 35.30 38.65 33.32 33.50 34.59 33.68 32.23 29.24 29.25 27.00 29.86 31.53 33.02 32.90 31.39 30.40 29.57 29.06 28.34 27.90 28.13 27.54 27.84 28.17 27.29 26.76 27.61 27.50 26.50 25.72 25.29
30.70 26.39 23.99 27.14 27.63 26.54 27.54 27.81 28.71 32.64 32.51 34.38 35.12 32.78 33.32 31.87 34.05 30.47 27.95 29.43 23.80 26.29 29.05 30.81 32.23 30.10 30.04 29.22 28.90 28.66 28.53 28.12 28.34 28.71 28.42 27.42 26.28 25.69 25.19 25.57 25.13 25.27 25.18 24.18
28.78 25.27 26.16 24.99 25.04 24.11 25.94 27.94 27.34 31.77 32.22 31.48 32.82 27.94 26.74 32.70 27.41 25.04 26.58 23.82 26.55 29.30 29.88 30.67 30.71 29.54 29.29 29.29 28.89 28.66 28.70 28.06 27.48 26.72 26.12 25.68 25.82 26.27 25.28 23.57 24.30 24.14 23.41 22.94

GFSNW_sfc_wetblb_063.txt.gz
Wetbulb
50.39 50.46 50.43 50.32 50.16 49.74 47.99 43.95 34.37 48.45 50.62 36.28 39.88 33.97 39.97 43.30 43.65 46.57 46.60 48.06 45.53 44.93 45.96 41.89 41.39 42.81 46.22 49.38 49.60 46.39 49.13 46.67 42.78 44.32 48.91 50.21 49.27 47.06 47.14 41.24 40.07 42.61 41.70 41.86
49.84 50.04 50.27 50.14 50.07 49.86 45.71 38.98 38.98 49.55 48.27 31.67 35.86 39.02 39.73 41.46 42.95 43.45 44.98 45.19 48.07 48.46 46.12 42.17 42.25 43.73 49.17 49.91 49.41 47.82 48.77 44.44 39.86 41.74 46.03 48.66 46.46 48.34 48.68 47.90 46.41 41.10 39.23 41.30
49.06 49.47 49.95 50.07 50.06 49.74 46.18 39.26 32.20 40.41 42.98 43.19 39.14 36.67 36.90 37.90 43.89 44.28 46.18 45.76 47.88 47.05 45.34 47.40 44.22 43.44 46.94 50.06 49.78 48.28 49.84 45.92 43.34 39.48 42.54 46.08 43.38 45.47 47.18 46.48 42.25 41.70 42.00 43.87
48.60 49.22 49.21 50.02 50.01 49.40 45.27 39.39 36.53 39.61 32.97 36.52 39.68 39.66 39.11 36.66 37.33 43.81 45.70 44.59 45.13 45.44 42.13 43.97 43.76 45.91 45.93 47.51 47.32 49.30 49.13 42.70 44.75 45.16 46.16 45.93 45.14 44.97 45.54 44.55 45.38 41.99 43.93 44.50
48.08 48.50 49.42 49.81 49.87 48.91 42.70 36.34 39.21 41.80 40.18 40.25 39.02 38.47 37.52 37.23 39.64 41.81 41.37 42.30 44.36 45.87 44.06 44.29 43.25 45.35 45.70 44.73 48.16 48.03 49.65 43.83 45.02 42.80 45.57 45.37 43.27 44.95 45.45 45.18 45.14 44.90 45.13 44.64
47.82 48.22 48.46 48.52 49.54 48.35 41.27 44.15 46.38 43.41 38.63 39.05 37.91 38.67 38.03 38.77 41.61 43.42 44.67 43.98 44.42 44.16 46.68 47.89 47.82 48.56 47.43 48.48 47.50 46.70 47.37 45.87 43.28 39.27 44.48 44.27 40.14 43.92 44.93 45.62 46.88 46.44 43.10 47.33
47.77 47.74 48.17 48.21 48.95 47.79 44.40 46.09 45.86 40.27 35.34 38.03 38.90 39.60 40.26 39.40 41.65 40.85 44.35 45.89 44.16 48.16 50.62 48.84 48.20 47.29 46.60 47.35 47.26 50.08 46.53 45.63 45.22 40.20 40.11 33.79 44.18 49.09 48.43 46.53 47.39 48.51 48.36 49.05
47.85 47.35 47.82 47.95 47.86 48.25 46.04 47.27 45.86 41.90 37.10 39.43 38.41 39.53 39.48 41.34 42.53 42.12 43.98 46.14 48.73 51.45 47.35 42.12 37.97 38.79 40.50 42.84 46.35 47.79 49.90 46.94 43.21 39.08 38.68 42.00 44.42 46.48 46.56 45.58 45.38 49.47 48.68 49.73
47.18 46.92 47.44 47.89 48.14 48.07 46.40 48.20 50.25 46.25 40.53 38.86 42.33 39.68 41.06 38.86 40.00 40.78 44.14 49.53 52.03 50.29 44.89 41.03 34.20 32.96 37.60 38.00 40.93 47.66 48.09 49.11 45.10 41.25 36.03 33.59 43.38 48.26 51.26 50.57 42.93 50.75 50.71 50.48
46.87 47.05 47.26 47.36 47.48 47.49 46.47 47.96 51.98 46.75 40.72 43.32 43.54 40.30 39.76 43.48 42.61 40.85 43.95 45.69 46.56 49.50 42.40 39.16 36.66 35.18 39.95 37.16 38.84 38.69 41.33 43.01 40.83 40.05 38.65 42.09 47.86 49.56 51.46 41.31 44.16 51.43 51.63 51.59
46.77 47.01 47.32 47.62 47.64 47.11 46.03 47.03 51.52 47.94 42.07 43.82 45.70 45.82 43.30 42.49 43.85 40.69 44.62 43.05 45.58 44.55 40.17 39.57 39.82 40.55 40.36 40.48 43.38 42.33 40.32 39.72 40.02 41.22 39.25 36.68 49.78 48.42 45.20 50.54 53.76 53.44 53.40 53.23
46.87 47.22 47.13 47.35 47.26 47.05 47.54 46.28 50.99 51.06 46.53 44.33 49.21 49.91 50.20 47.86 47.47 46.01 45.25 44.76 45.04 45.88 42.28 43.89 43.82 42.87 43.21 41.20 38.62 47.30 40.53 45.73 42.69 44.27 44.37 51.16 50.69 51.48 52.72 54.22 53.97 54.56 54.30 54.33
47.04 46.94 47.15 47.51 47.14 46.70 47.73 47.36 49.30 48.29 43.41 44.56 45.78 44.34 50.09 51.13 51.58 53.04 45.32 48.17 49.01 47.73 50.31 46.49 45.44 41.15 44.44 40.60 40.92 43.29 47.06 49.75 45.93 46.70 49.22 50.20 51.61 52.95 53.21 54.05 54.04 54.78 54.52 54.97
46.90 46.94 47.00 46.14 47.13 47.58 48.09 46.12 48.55 47.13 43.76 38.93 41.95 49.70 46.62 50.37 51.48 51.38 52.19 51.04 51.87 51.36 50.75 47.07 45.70 42.89 46.18 43.85 44.13 43.53 45.52 47.03 45.70 45.53 47.96 49.24 51.80 52.61 52.95 53.95 54.21 53.61 53.18 53.99
46.72 46.68 46.86 46.31 47.04 47.26 48.07 48.18 49.84 49.90 43.87 39.24 41.33 46.25 46.87 47.50 47.78 49.14 50.96 51.29 50.08 48.46 46.25 43.90 42.69 45.07 44.59 46.53 46.26 43.78 46.48 45.41 45.06 44.11 49.05 50.34 50.88 53.67 55.05 54.34 53.97 53.07 52.52 52.29
45.70 46.10 46.22 46.52 46.49 47.29 45.45 39.31 47.40 49.74 49.60 43.64 36.88 45.78 44.79 45.57 45.49 47.15 48.53 49.59 49.94 49.33 47.29 46.59 46.65 48.31 46.80 43.39 41.99 46.96 47.66 48.43 49.87 48.41 51.53 52.23 52.94 50.99 51.63 53.24 54.33 54.17 52.90 52.93
45.65 45.70 46.06 46.10 46.29 46.70 42.05 40.82 45.44 47.32 50.01 42.97 37.56 38.56 44.07 45.89 44.40 43.96 47.65 49.20 48.61 48.53 47.18 46.36 47.03 47.34 47.74 46.12 41.14 45.85 48.21 49.78 50.13 51.88 51.92 49.57 51.52 50.48 50.47 51.11 52.46 50.46 52.15 51.91
45.31 45.19 44.59 44.93 45.58 45.77 43.29 46.62 46.36 48.99 45.97 44.78 36.58 36.60 40.40 45.85 40.75 40.53 48.68 45.84 46.90 46.36 45.80 47.37 45.67 47.75 47.28 41.52 45.41 47.17 48.54 49.08 49.71 50.85 52.38 51.66 52.10 50.26 49.51 49.45 49.15 48.02 48.63 48.76
44.34 44.00 44.33 44.79 43.14 41.59 43.52 45.37 46.20 50.60 45.69 37.75 35.16 34.86 34.85 47.19 43.76 43.43 45.59 45.91 40.95 46.72 43.99 44.85 45.82 43.92 40.53 43.96 45.28 46.56 48.41 48.60 49.11 51.01 51.71 51.51 48.41 48.88 48.39 47.19 46.49 46.76 45.84 45.77
43.66 44.39 41.75 37.69 42.63 45.23 45.11 43.96 41.35 42.52 43.95 42.53 35.54 41.74 38.37 40.35 41.33 40.90 39.64 44.91 41.21 36.53 42.20 47.07 42.84 42.45 46.84 46.91 45.48 49.44 50.21 49.13 51.02 47.15 46.75 47.05 46.50 47.28 46.13 45.26 46.05 46.13 44.44 43.86
45.27 41.61 37.13 44.00 44.68 44.27 40.95 35.35 35.92 35.96 32.76 38.77 39.90 40.45 37.84 41.02 34.63 38.93 43.41 39.82 38.78 35.22 39.64 39.70 37.01 37.98 39.37 42.52 44.11 45.82 47.22 47.67 47.91 47.63 46.90 46.72 46.54 46.62 44.84 43.97 44.16 43.34 42.31 40.17
43.25 43.86 44.64 43.96 41.53 36.45 33.04 32.52 35.85 34.19 33.21 39.90 38.98 38.56 37.67 35.80 34.27 39.03 37.74 37.81 37.13 33.77 39.64 34.67 32.12 33.51 36.41 37.99 39.13 39.39 41.58 43.11 43.82 44.38 43.82 44.01 43.86 43.32 40.85 37.97 33.40 31.40 30.80 30.25
47.17 43.45 37.94 36.88 36.05 30.51 29.96 26.76 31.64 33.51 39.10 39.83 40.06 36.17 38.39 37.48 41.49 38.55 38.73 35.04 34.49 38.35 33.41 31.31 31.18 34.01 34.96 34.96 35.99 34.58 35.02 35.12 35.04 34.28 35.20 33.68 31.76 31.84 31.34 29.71 30.00 28.88 27.46 27.47
37.58 35.01 30.14 32.27 30.07 31.15 30.37 28.68 34.31 35.20 36.49 39.14 41.46 37.92 38.72 37.76 37.58 35.76 33.77 34.13 35.76 32.32 31.28 28.77 30.92 32.52 33.41 32.52 32.47 30.76 29.54 29.74 29.17 28.49 29.01 28.78 28.82 28.96 29.98 29.99 29.95 28.71 27.47 27.38
32.25 32.68 25.08 27.59 30.97 31.43 31.49 30.42 33.03 32.73 35.57 40.50 38.42 37.31 38.29 34.67 34.13 34.13 33.22 32.14 30.06 28.81 27.79 30.18 31.49 32.14 31.11 29.55 29.15 28.55 28.27 28.62 28.60 29.03 28.53 28.67 28.81 28.35 28.34 29.16 29.07 28.09 26.90 25.60
31.44 27.30 25.55 27.68 29.63 28.28 27.65 27.38 27.69 30.98 30.68 39.39 38.63 33.22 35.04 32.32 34.13 31.20 28.01 29.02 23.72 26.95 29.73 30.96 31.23 29.92 30.47 30.32 30.10 30.15 30.74 30.25 29.84 29.68 28.93 28.52 27.68 27.32 27.32 27.90 27.45 27.04 26.33 25.40
28.29 25.99 26.66 25.88 26.37 25.03 25.24 29.28 28.33 30.74 32.12 32.14 34.23 29.54 26.80 34.28 29.06 24.64 25.75 24.22 25.51 28.59 30.36 30.99 31.32 29.99 29.71 30.40 30.00 29.80 29.65 28.97 28.71 28.54 28.51 28.01 28.10 27.70 26.35 24.20 24.75 24.67 24.42 24.47

GFSNW_sfc_wetblb_069.txt.gz
Wetbulb
49.65 49.90 50.31 50.60 50.80 50.75 49.38 43.71 33.88 45.50 47.56 35.60 35.38 30.69 34.06 38.53 37.80 41.21 39.11 39.82 38.41 37.37 38.21 37.29 40.44 40.07 42.49 46.60 46.11 41.53 44.21 42.05 36.53 39.12 45.60 47.98 45.22 42.40 43.40 35.18 35.68 37.67 32.44 34.20
49.12 49.33 49.49 50.10 50.37 50.51 47.20 39.25 38.30 45.87 44.78 30.20 30.27 34.97 34.84 36.83 36.49 37.60 37.58 36.66 39.52 41.00 38.20 34.94 42.26 43.03 46.92 47.03 44.67 42.10 44.31 39.57 33.25 36.33 42.65 45.49 42.37 43.75 44.42 44.82 41.70 35.99 29.23 34.00
49.24 49.46 49.61 49.60 49.94 50.59 47.74 37.57 31.65 38.86 40.79 38.21 32.18 31.51 32.29 33.27 38.54 38.36 39.77 38.21 39.26 38.50 37.98 40.28 41.06 42.15 46.41 46.52 46.25 46.52 46.11 41.47 38.07 32.56 37.75 42.96 39.78 42.65 43.64 42.27 33.24 35.49 35.96 39.70
48.91 49.43 49.46 49.61 50.04 50.05 47.49 37.08 34.25 36.74 32.50 33.58 34.31 34.60 34.62 32.01 32.76 37.47 39.61 36.94 37.01 36.49 35.13 37.32 38.83 43.22 44.60 45.81 46.57 45.03 43.96 37.17 39.89 40.53 43.74 44.39 43.24 42.24 42.21 41.67 42.44 36.73 39.73 41.44
47.96 48.58 48.69 49.00 49.38 50.00 44.83 32.24 35.02 37.23 34.19 37.17 34.59 34.63 33.35 33.38 34.79 36.34 34.29 34.10 36.81 38.77 36.53 38.45 38.04 41.89 42.57 40.73 44.76 42.71 43.99 37.32 40.41 38.47 42.96 43.64 41.65 43.14 42.70 42.81 41.93 40.85 43.88 42.50
47.41 47.75 48.07 48.54 48.95 49.14 44.17 40.07 41.08 38.52 35.08 34.98 33.20 32.33 33.39 35.06 37.26 38.02 39.51 37.77 36.60 36.28 38.46 44.62 45.85 45.47 45.11 44.51 42.38 40.61 41.32 39.68 38.13 33.53 40.42 40.69 33.56 40.47 41.82 43.46 43.52 42.24 37.63 42.02
47.24 47.38 47.35 47.68 48.21 48.32 43.13 40.19 40.71 36.97 31.63 34.26 33.53 34.99 35.72 35.32 37.10 35.29 39.50 39.65 37.33 40.49 48.78 48.41 47.17 45.77 44.47 43.84 44.11 44.84 41.51 40.48 38.19 33.53 34.54 28.67 39.32 46.02 46.08 43.79 44.73 44.34 43.40 43.70
47.17 46.99 46.95 47.12 47.39 48.19 45.54 42.77 41.23 38.11 32.31 34.62 35.81 35.39 35.67 36.87 38.04 38.01 38.32 40.64 41.77 42.93 46.68 40.21 37.71 37.10 38.27 39.10 43.31 43.87 43.83 41.43 33.57 32.66 32.74 37.46 41.10 43.63 43.42 42.22 41.25 44.93 43.16 44.66
46.80 46.43 46.94 46.91 47.18 47.91 45.59 43.20 44.61 41.91 35.67 34.13 38.90 36.41 37.00 33.85 33.84 35.18 37.89 43.08 43.08 42.55 39.41 36.53 31.21 30.35 35.01 35.27 38.17 43.79 43.23 42.09 37.14 33.12 30.06 28.05 38.75 45.33 48.09 46.56 35.02 46.25 46.32 45.33
47.26 47.35 47.01 46.99 46.68 47.08 45.45 42.33 44.67 43.03 37.09 39.53 40.74 36.86 36.47 39.49 37.18 34.58 37.16 38.37 39.23 43.64 32.83 31.58 29.05 29.27 37.82 32.03 32.03 32.27 32.34 33.85 31.35 30.77 31.85 35.92 44.74 46.87 48.29 35.72 35.44 47.20 47.51 46.18
47.10 47.30 47.26 47.08 46.55 46.79 45.35 43.08 45.60 43.49 39.71 40.62 43.64 43.46 39.86 39.96 39.20 34.08 36.97 36.97 37.18 35.79 34.18 32.67 30.94 26.88 35.63 33.97 38.18 35.95 34.15 32.93 31.88 32.64 32.01 30.44 47.29 45.72 40.82 43.14 46.73 48.00 47.05 47.80
46.38 46.80 46.80 46.78 46.63 46.83 46.01 40.66 46.38 49.19 43.24 41.82 46.26 45.67 46.42 45.09 43.98 41.22 39.70 37.85 39.12 38.79 36.32 37.95 35.26 30.99 29.77 33.74 26.36 41.35 34.03 38.70 36.38 38.09 35.89 44.95 47.62 46.58 48.44 49.90 48.84 48.72 48.18 48.37
46.38 46.75 46.79 46.70 46.96 47.25 45.54 43.74 46.05 46.12 42.17 40.55 40.72 40.77 47.38 49.89 47.93 47.54 39.70 39.16 43.92 42.82 45.42 41.65 37.86 31.65 35.75 28.73 31.48 33.70 41.79 44.77 39.91 40.58 43.56 44.80 47.02 49.19 50.03 50.44 49.51 50.48 49.28 48.90
46.59 46.36 46.45 46.66 47.09 46.95 46.74 44.74 46.27 45.50 41.95 33.96 38.08 47.44 44.85 50.79 49.62 47.99 47.23 46.14 46.46 44.85 44.35 40.87 37.65 31.39 40.32 33.21 37.45 36.17 41.91 44.62 42.69 41.13 44.77 45.57 46.76 47.72 48.61 49.58 50.64 50.75 50.68 50.00
46.45 46.70 46.89 47.18 47.08 47.07 46.63 46.82 46.91 47.68 41.14 33.37 38.37 44.76 46.21 48.31 46.98 46.48 46.80 45.92 43.67 40.58 39.55 37.71 36.89 38.95 37.99 37.81 38.58 36.48 41.68 40.82 39.35 37.07 45.07 44.37 45.63 48.10 49.12 48.38 49.21 50.01 50.03 49.31
46.74 47.04 47.45 47.34 47.52 47.32 45.13 39.20 45.40 48.35 47.70 40.15 32.81 42.53 42.59 43.84 44.90 44.79 44.37 44.04 43.54 42.09 38.72 36.64 41.63 43.45 40.34 28.54 30.66 40.95 43.17 44.04 43.88 41.51 45.73 47.77 49.13 49.79 49.44 47.84 48.40 49.24 48.64 49.40
46.52 46.55 46.90 46.73 46.61 45.81 41.38 37.99 42.12 47.21 46.57 39.09 33.46 33.65 41.23 43.88 43.05 41.53 41.98 43.32 41.70 41.37 42.50 39.76 41.79 41.46 40.64 29.34 30.63 41.14 43.79 45.38 46.27 46.50 47.19 44.91 46.13 45.40 47.64 47.88 48.54 48.07 48.40 47.97
46.52 46.49 46.41 46.43 46.66 46.01 41.59 44.48 46.76 47.26 43.67 42.00 29.79 31.92 36.50 43.19 36.90 35.38 41.21 38.28 39.27 40.70 40.66 40.12 40.17 41.78 37.80 30.55 39.51 41.74 44.58 46.40 45.68 46.48 46.56 45.75 48.59 47.93 46.72 47.07 46.32 45.19 44.62 44.67
45.99 45.92 46.33 45.28 43.93 39.55 41.16 45.56 46.18 46.87 42.61 33.09 30.96 28.18 27.05 41.45 37.69 37.86 37.64 39.37 29.05 40.70 35.97 37.86 40.84 36.77 34.10 37.30 38.03 38.80 39.90 41.84 43.86 46.31 45.87 46.25 45.63 45.75 45.00 44.65 44.29 42.75 41.78 42.00
45.94 45.10 40.03 35.31 40.65 45.66 45.05 42.96 38.19 38.86 38.26 38.36 31.09 35.19 31.45 38.71 36.32 31.90 32.45 31.35 30.75 30.85 34.05 39.82 34.43 32.75 35.82 36.37 37.69 37.50 38.20 39.27 40.25 41.57 41.24 42.22 42.14 40.87 38.04 36.45 37.37 36.69 33.82 30.51
43.01 37.71 36.69 41.56 44.86 42.95 37.95 30.88 31.57 33.66 29.93 34.10 33.22 34.89 32.40 37.70 33.07 32.52 33.85 32.30 32.09 26.44 29.97 33.09 31.99 28.69 32.09 33.80 34.47 34.86 36.73 37.37 36.94 37.73 37.14 37.03 38.86 36.28 33.76 31.49 30.48 29.35 27.95 25.80
41.82 40.51 42.67 41.96 38.80 35.13 30.26 28.87 30.84 29.68 28.27 32.41 30.78 32.52 35.03 31.43 37.77 33.32 33.64 31.48 31.41 26.76 34.08 29.37 26.84 27.56 30.56 30.69 30.55 30.78 32.27 33.68 33.56 33.98 33.11 32.67 31.73 30.94 29.32 27.84 26.65 26.02 25.84 25.45
43.89 41.41 35.07 34.99 31.15 27.92 24.61 24.07 24.20 26.69 30.94 34.07 31.86 32.80 31.46 33.47 35.67 30.73 32.79 29.35 30.99 34.86 30.35 24.63 25.17 28.54 28.71 28.90 29.11 28.37 29.45 29.62 29.33 28.92 28.98 28.41 27.50 27.82 26.85 25.20 25.55 25.24 24.28 24.24
35.35 31.58 21.70 24.36 22.38 24.54 23.18 25.02 26.75 30.00 30.85 29.44 31.78 28.43 31.60 33.37 30.90 31.38 30.31 31.94 31.74 27.78 23.33 20.43 24.94 27.33 27.96 28.47 28.84 27.41 27.20 27.65 27.33 26.94 26.92 26.16 25.57 24.86 25.20 25.03 25.20 24.11 23.14 23.46
25.12 25.22 21.51 21.39 27.18 27.34 27.68 28.85 29.23 29.51 30.02 29.76 33.28 33.67 34.96 32.06 31.20 31.59 30.51 28.75 21.19 20.68 19.20 23.95 26.10 28.22 28.47 28.12 28.50 27.80 27.29 26.99 26.39 26.12 24.99 24.31 24.05 23.51 23.15 24.07 24.05 23.55 22.74 22.35
24.47 22.25 19.24 21.49 19.10 15.73 23.66 25.01 26.08 29.50 28.55 29.52 31.66 31.86 30.73 29.26 26.25 23.73 20.80 20.77 16.21 18.49 22.29 25.35 27.32 26.70 27.11 27.10 27.46 27.35 27.12 26.16 25.20 24.99 24.55 23.97 23.19 22.81 23.10 23.72 23.70 23.15 22.99 21.83
25.28 21.28 21.85 21.74 21.71 21.19 23.63 26.19 25.78 29.43 27.94 28.53 29.87 21.50 24.03 29.49 22.20 18.75 21.69 17.42 19.39 21.92 22.57 23.32 24.32 26.03 25.88 26.00 25.77 25.60 25.38 24.81 24.78 24.69 24.59 24.33 24.87 24.12 22.94 21.43 22.82 23.14 22.45 20.95

GFSNW_sfc_wetblb_072.txt.gz
Wetbulb
49.18 49.56 49.95 50.29 50.58 50.72 48.95 44.33 34.29 45.74 47.18 34.77 34.47 28.97 33.75 38.01 36.44 39.42 36.71 38.01 36.34 34.81 35.41 34.88 36.08 36.26 40.20 44.48 44.05 40.18 42.91 38.75 33.58 37.43 44.58 45.94 42.99 41.84 40.86 34.29 34.94 36.87 31.35 33.17
48.65 48.91 49.33 49.77 50.08 50.65 46.62 39.84 37.61 45.54 43.62 29.66 30.33 33.13 32.99 35.55 35.35 35.64 35.54 35.42 37.28 38.58 35.64 31.92 38.12 38.64 45.38 46.20 43.39 40.89 41.72 36.80 31.23 33.76 40.62 43.40 40.40 42.27 42.87 42.46 39.77 35.38 30.36 33.52
48.76 48.86 49.11 49.37 49.68 50.33 46.99 35.69 30.97 38.18 39.81 37.07 33.42 31.43 30.92 31.61 37.28 35.62 36.66 36.08 37.63 34.97 33.40 37.10 36.88 38.33 44.88 46.57 45.96 45.66 44.86 38.60 36.09 31.42 35.11 40.49 38.02 41.53 42.94 41.38 33.33 35.40 35.39 39.89
48.90 49.06 49.13 49.23 49.44 49.71 47.01 35.00 32.64 36.14 31.86 32.75 34.23 33.95 32.96 30.68 31.50 36.93 37.67 33.84 34.85 34.44 31.27 33.52 35.65 41.40 42.35 45.65 45.55 45.13 42.71 35.60 38.04 39.10 41.31 41.59 40.45 40.48 42.02 40.07 39.55 36.47 39.38 40.04
47.92 48.34 48.57 48.82 48.98 49.23 44.25 31.12 33.95 36.82 35.24 36.18 33.74 33.96 31.04 31.38 32.91 34.67 32.93 32.34 35.57 36.11 32.47 33.62 32.89 40.21 40.63 41.53 43.11 41.73 42.58 35.17 38.04 35.91 40.66 41.05 38.63 41.26 42.62 42.50 40.69 41.35 41.33 40.66
47.16 47.26 47.84 47.96 48.88 48.80 43.01 42.05 40.58 38.39 35.56 34.80 32.60 30.95 32.53 32.61 35.60 36.10 37.04 36.08 33.99 32.75 35.33 39.11 43.60 43.80 44.43 44.27 41.17 39.56 39.47 37.37 34.49 30.80 39.04 38.86 33.32 38.49 41.00 41.58 42.70 41.55 37.35 42.34
47.08 47.03 47.15 47.34 48.22 48.34 45.29 41.71 41.55 36.47 31.86 32.95 33.07 34.39 34.59 33.87 35.35 33.56 37.70 37.84 35.34 38.18 45.93 45.55 45.59 44.82 44.02 43.74 43.14 43.75 39.59 37.70 35.18 29.14 33.80 27.61 37.57 45.05 45.01 42.56 43.84 44.53 42.92 43.39
47.31 46.82 46.84 46.92 47.54 48.10 45.50 42.37 41.54 37.76 31.99 33.61 34.67 34.80 34.25 35.38 36.27 36.12 35.82 38.50 40.43 40.90 40.65 37.66 34.23 33.62 35.18 37.30 41.46 42.03 42.63 39.73 31.44 29.92 30.40 35.12 38.79 42.44 42.77 41.61 40.61 45.27 43.03 44.10
46.92 46.85 46.72 46.74 47.19 47.82 45.99 42.25 44.38 41.55 35.04 32.68 36.71 34.64 35.71 32.61 32.63 33.28 35.62 40.78 41.81 39.60 36.95 33.65 29.34 27.33 32.37 33.07 36.50 42.37 42.26 40.83 35.13 29.54 28.10 24.81 36.10 44.15 47.12 46.16 35.60 45.61 45.55 44.42
46.57 46.88 46.73 46.83 46.90 47.45 45.71 42.15 44.36 40.18 34.79 37.17 38.13 34.63 34.21 37.34 35.34 32.33 34.59 36.64 36.61 39.53 30.73 27.05 26.47 27.52 36.32 30.21 30.65 33.30 31.73 32.47 29.49 27.87 27.42 32.76 41.84 45.42 47.30 35.84 35.93 46.06 47.08 45.79
46.46 46.96 46.57 46.56 46.66 47.17 45.65 43.02 44.28 40.26 34.62 39.60 41.08 41.44 37.67 37.93 37.80 31.58 34.69 35.08 34.84 33.90 28.34 28.66 27.68 25.93 31.90 32.75 36.50 35.18 34.50 32.04 30.43 29.93 26.84 27.31 44.92 44.99 39.73 42.17 45.24 46.53 46.63 47.33
46.44 46.74 46.71 46.49 46.95 47.16 46.69 40.96 44.57 44.91 40.22 40.29 44.03 43.32 45.05 44.00 43.27 39.23 37.48 35.80 35.84 36.38 32.60 33.07 31.84 26.50 26.78 31.12 28.67 39.73 32.16 35.66 33.25 34.46 33.61 42.47 46.03 46.47 47.51 47.48 45.89 46.76 47.18 48.31
46.25 46.69 46.87 46.88 47.04 47.37 46.20 42.31 43.31 42.91 38.36 39.99 39.81 40.42 46.20 48.26 47.42 46.10 36.50 36.90 41.56 39.80 41.05 37.29 35.95 29.31 32.27 25.13 29.03 32.60 38.56 42.52 37.14 37.71 41.15 43.85 46.01 47.65 48.64 48.55 47.08 48.68 48.47 48.12
46.46 47.01 46.92 47.04 47.09 47.18 45.79 42.79 43.62 42.74 38.32 33.02 36.71 46.36 44.91 49.13 47.86 46.93 44.96 43.86 44.68 43.40 41.09 36.02 34.26 33.75 38.65 30.32 34.28 33.05 36.02 40.83 39.05 38.61 41.92 44.96 45.47 47.61 48.31 49.24 49.02 47.94 48.96 48.30
46.59 46.83 47.03 47.08 47.09 46.99 45.04 43.70 45.32 45.59 39.35 34.27 37.18 42.77 44.78 46.53 46.79 45.93 46.02 44.56 42.20 39.30 35.58 33.25 32.86 37.29 37.74 37.25 36.43 33.80 40.73 39.97 36.56 35.49 44.11 43.37 44.40 46.69 49.23 47.52 46.52 48.29 48.43 48.43
46.41 46.50 46.87 46.50 46.41 46.40 44.27 39.25 44.57 47.69 47.01 36.54 31.25 41.48 41.24 43.89 44.87 44.69 44.73 44.40 42.51 42.62 38.00 34.28 38.00 42.17 40.00 33.89 30.29 37.63 41.18 41.83 43.51 40.23 43.43 45.15 46.39 46.85 47.41 45.70 47.22 48.51 47.29 47.57
46.18 46.50 46.62 46.23 45.97 45.33 40.46 37.36 43.16 47.19 46.22 37.78 33.95 33.55 41.81 44.02 43.93 42.11 42.48 43.31 40.75 39.89 39.03 35.76 37.59 39.87 40.78 33.64 31.07 38.41 39.88 43.70 44.20 45.09 43.82 43.00 44.77 45.07 47.40 47.40 47.17 46.85 46.22 44.70
46.41 46.39 46.27 46.37 46.76 46.12 43.01 45.07 46.67 46.52 42.10 39.19 29.84 33.83 35.41 41.91 37.03 36.45 40.73 37.13 37.50 37.58 36.95 36.99 37.82 39.45 38.50 33.31 37.54 37.85 37.87 40.22 41.03 41.14 44.85 43.60 46.31 45.61 45.27 45.77 45.36 42.93 40.21 37.18
46.12 45.73 46.39 44.95 43.37 40.28 41.50 46.92 46.94 46.41 40.31 29.58 28.75 26.57 31.15 40.33 36.69 36.03 36.27 36.49 28.25 36.01 29.69 33.80 37.50 35.61 30.97 32.60 33.86 35.72 36.66 35.95 36.31 40.65 43.14 43.93 43.38 42.63 42.36 43.13 41.50 36.93 32.42 31.01
45.70 43.99 39.59 35.94 40.84 45.36 45.37 42.33 37.99 37.26 36.09 35.71 28.63 33.47 31.84 37.35 34.65 33.76 30.47 30.14 27.07 26.71 30.80 37.04 33.05 29.85 32.82 32.67 34.01 34.15 35.26 36.03 36.74 37.05 36.54 37.51 37.99 36.41 35.32 34.02 33.01 31.62 29.24 28.03
39.27 38.09 36.09 40.58 44.40 41.21 36.33 30.27 29.62 31.32 28.60 32.83 32.69 34.48 32.78 35.89 32.36 32.75 33.77 30.85 31.18 22.38 28.88 30.33 30.78 25.77 28.67 30.98 31.46 31.94 33.03 35.03 34.43 34.80 33.80 32.53 33.94 32.46 29.67 27.97 27.50 27.19 26.38 25.11
39.26 38.81 40.74 39.37 36.48 31.58 27.10 24.08 28.17 28.57 29.13 32.52 30.68 32.90 33.22 30.50 36.86 33.35 32.91 31.06 30.63 24.18 32.05 26.07 22.84 24.97 28.16 28.65 28.76 28.91 30.66 31.33 30.69 31.04 30.28 29.92 29.14 28.49 26.93 26.06 25.25 25.03 25.05 24.32
41.34 37.50 32.13 31.61 27.19 20.10 19.14 19.41 24.86 27.17 29.58 30.54 32.70 28.11 28.11 32.05 35.22 30.96 32.22 30.00 29.56 33.68 26.54 20.70 21.89 25.53 27.36 27.50 27.44 27.25 28.27 27.84 26.83 26.22 26.37 26.03 25.60 25.99 25.02 23.53 23.86 23.93 23.15 23.13
31.26 26.31 19.12 19.56 17.53 20.66 21.72 23.55 24.84 29.08 28.64 28.28 30.34 30.07 32.02 31.69 30.82 31.23 30.00 31.13 28.83 22.68 16.43 16.37 22.95 25.70 27.53 27.49 27.78 26.13 24.86 24.60 24.12 23.50 23.40 22.93 22.68 22.32 22.83 22.86 23.23 22.15 21.15 21.64
24.36 23.57 16.51 17.74 22.38 21.90 25.79 27.15 26.64 28.98 29.12 28.89 32.17 32.57 33.89 31.48 30.58 27.51 26.40 21.51 15.60 17.74 15.75 21.12 24.27 26.46 26.40 25.75 25.75 24.64 24.15 23.51 23.18 23.40 22.89 22.65 22.62 22.17 21.94 23.05 23.18 22.68 21.65 20.93
20.95 19.94 15.50 18.86 13.69 11.94 16.59 24.07 24.76 28.04 27.09 29.01 30.53 30.94 28.33 25.43 21.48 18.61 17.32 16.70 13.51 16.30 19.48 21.86 25.50 24.16 24.16 24.37 24.90 24.59 24.37 23.76 23.01 22.98 22.93 22.73 22.00 21.26 21.19 21.79 21.60 21.35 21.07 19.51
21.36 17.15 14.59 11.55 7.27 9.74 16.07 23.66 24.12 27.92 26.46 25.49 27.33 19.36 19.53 26.03 19.69 16.20 19.21 12.98 15.80 19.13 20.44 22.14 22.72 23.26 23.73 24.26 24.39 24.18 23.94 23.40 23.33 23.09 23.39 22.96 23.63 22.87 21.37 19.21 20.58 21.19 20.68 19.97

GFSNW_sfc_wetblb_075.txt.gz
Wetbulb
47.85 48.26 48.79 49.31 49.75 50.14 48.54 43.84 34.46 46.50 47.36 33.72 34.11 29.97 30.87 36.69 35.76 38.31 35.79 35.78 34.12 33.10 34.20 33.02 34.17 34.09 37.20 41.84 43.05 37.65 39.80 36.53 32.39 35.77 41.85 43.77 41.75 39.13 40.98 32.37 33.05 33.63 30.16 32.59
47.83 48.11 48.59 48.94 49.52 49.94 46.59 39.15 37.45 46.21 44.55 29.82 30.14 33.77 33.14 33.62 34.08 34.68 34.65 34.20 35.29 36.30 33.28 30.17 34.93 37.32 41.98 44.11 43.51 38.38 40.14 34.73 28.86 32.58 37.92 41.34 38.78 39.75 40.44 40.31 38.60 33.12 28.94 33.18
47.85 48.24 48.47 48.65 48.98 49.83 46.64 34.06 30.58 38.02 40.42 37.24 33.00 31.34 31.20 29.70 35.30 34.21 36.13 34.70 35.56 34.03 31.88 35.17 32.67 35.82 41.47 45.66 44.56 45.86 44.04 36.36 34.67 30.46 32.96 39.01 36.36 39.48 41.41 39.96 33.03 33.83 34.72 38.01
48.04 48.15 48.42 48.73 49.00 49.28 46.39 34.61 32.21 36.02 30.40 33.11 34.20 34.14 33.26 30.44 29.43 34.35 34.96 32.04 32.38 31.30 28.95 31.83 32.02 36.65 39.50 42.23 44.91 43.40 41.80 34.47 36.08 38.07 39.59 40.95 39.93 39.38 40.06 36.98 38.53 35.73 37.70 39.13
48.32 48.45 48.62 48.68 48.95 49.15 43.20 30.92 33.88 37.40 33.61 36.22 33.92 34.04 31.58 31.33 32.24 33.50 30.95 31.46 34.10 33.16 29.57 30.98 30.46 35.72 38.20 39.19 43.43 41.69 42.17 35.22 37.25 35.02 39.01 40.71 38.61 40.34 39.05 38.25 39.42 39.08 39.59 39.01
47.49 47.59 47.52 47.81 48.36 48.44 41.58 41.07 40.05 38.77 35.91 34.84 32.32 31.25 32.63 32.81 34.69 34.84 35.64 34.76 33.29 32.04 33.74 36.67 37.99 39.09 41.98 43.58 41.38 40.21 39.55 35.70 33.40 30.45 37.78 37.98 31.59 36.26 39.58 39.18 40.32 39.89 35.77 40.82
46.93 47.00 46.96 47.24 47.53 47.70 45.37 43.15 41.00 36.06 31.61 33.67 32.78 34.12 34.06 33.77 34.04 32.18 36.46 35.97 33.29 36.82 40.63 40.43 38.79 37.24 39.86 42.47 42.64 44.08 38.43 37.23 32.84 30.16 33.51 25.72 35.99 43.01 43.29 41.11 42.42 44.18 42.61 42.89
46.72 46.69 46.72 46.90 47.21 47.66 43.94 44.56 41.52 37.29 31.74 34.87 34.58 35.03 33.93 34.76 35.70 34.26 35.13 37.28 39.30 40.02 37.03 31.69 30.13 30.45 32.89 36.40 40.11 41.04 42.15 39.00 33.41 29.47 28.89 33.14 36.66 40.81 41.42 39.47 39.28 44.28 43.42 44.17
46.62 46.55 46.66 46.92 46.86 47.35 44.86 44.16 44.95 41.39 34.81 33.58 36.69 34.71 35.59 31.66 31.27 32.35 35.27 40.75 40.93 39.11 32.88 29.94 25.02 24.10 29.39 30.71 34.47 40.41 40.36 40.62 35.44 31.81 27.18 22.78 34.31 42.55 45.94 44.56 33.84 45.01 44.70 43.66
47.04 46.80 46.66 46.94 47.13 47.21 44.74 43.24 45.15 40.12 34.57 37.07 37.99 34.51 34.14 36.31 33.82 30.75 34.11 35.88 35.33 37.88 29.84 27.32 25.96 26.16 34.30 28.79 28.66 31.24 31.92 31.55 31.19 31.39 30.67 32.28 39.89 43.70 46.40 34.81 34.24 45.35 45.96 46.06
46.95 46.91 46.86 46.79 47.21 47.02 45.19 42.44 45.39 38.62 34.91 36.31 40.14 40.76 36.47 36.31 35.98 30.25 34.08 35.18 33.87 32.65 28.11 29.41 26.61 23.43 30.00 29.30 33.18 32.20 31.74 30.34 26.15 29.90 28.32 28.04 43.48 43.52 38.64 41.41 44.43 46.55 45.63 45.76
47.00 47.07 47.11 46.98 47.14 46.97 46.36 40.50 44.09 44.69 39.65 39.34 43.14 43.09 43.69 42.56 41.49 38.35 37.58 35.77 35.41 35.13 31.14 30.55 28.83 25.69 24.34 29.24 25.48 36.30 30.37 34.78 31.66 35.58 33.09 42.12 44.66 44.84 46.81 47.14 45.76 45.82 46.21 46.42
46.29 46.10 46.79 47.09 47.14 47.13 46.26 41.74 43.10 42.52 38.48 37.20 37.63 39.94 43.67 45.92 44.07 44.71 35.96 36.40 40.84 38.80 38.67 35.28 33.26 28.16 30.87 24.49 26.87 29.70 34.78 40.44 36.16 37.51 41.25 43.17 45.23 46.09 47.95 48.11 47.44 47.64 46.70 46.53
46.22 46.43 46.52 46.59 47.28 47.01 46.40 41.46 43.62 41.21 38.42 32.33 36.89 46.09 44.13 47.66 46.85 44.96 43.51 42.67 44.04 42.76 40.75 34.48 30.68 28.36 36.11 28.57 32.22 30.82 34.52 39.00 38.78 38.67 41.38 43.73 44.16 45.13 45.72 47.23 48.77 46.84 47.17 47.07
46.61 46.63 46.58 46.79 46.71 47.09 45.15 44.15 43.92 42.49 38.06 30.64 35.71 43.48 44.86 46.65 46.78 45.69 45.82 44.45 42.28 40.20 35.64 33.10 30.43 34.90 35.77 34.99 34.99 32.19 37.06 36.46 34.59 33.46 40.74 42.06 41.73 45.08 46.88 46.70 47.43 47.00 46.86 47.64
46.34 46.63 46.84 46.75 46.82 45.92 43.20 38.28 43.04 44.19 44.12 35.13 32.37 41.97 41.81 43.87 44.65 44.17 43.70 43.60 42.05 40.15 36.22 33.23 36.63 40.69 36.24 26.67 29.15 37.72 39.19 39.77 39.93 39.35 42.53 42.82 44.69 45.08 46.63 46.05 44.89 47.08 45.59 45.95
46.42 46.40 46.70 46.82 45.66 44.32 39.24 36.07 41.24 45.68 43.93 33.96 33.08 35.40 40.98 43.00 42.20 40.74 41.47 43.25 41.79 41.42 38.05 34.83 36.15 37.05 37.00 30.44 27.78 37.00 38.01 38.36 38.91 41.81 40.55 41.65 43.17 43.13 45.32 46.50 45.42 43.22 40.33 39.16
46.11 46.50 46.06 45.94 45.75 45.73 42.77 44.83 46.61 45.42 39.79 38.56 32.10 32.98 36.61 40.59 35.85 34.92 40.07 37.16 37.94 39.47 38.33 35.25 37.07 37.46 37.28 32.88 33.46 35.28 36.53 36.96 38.69 37.05 37.92 41.63 42.98 43.61 43.76 44.59 42.91 37.39 34.36 32.86
45.96 46.08 45.92 43.02 42.58 40.12 42.48 46.56 46.50 46.64 41.16 29.66 29.42 27.87 30.56 38.26 34.94 36.85 35.99 35.13 27.36 33.90 31.57 33.55 33.99 33.65 29.43 29.45 31.35 32.17 32.70 33.95 34.78 35.70 39.47 39.90 38.56 37.64 37.14 38.18 36.54 32.05 30.31 28.42
45.76 43.72 38.21 33.17 41.10 45.94 45.68 42.48 37.89 36.96 35.79 34.48 28.21 32.95 33.31 35.61 34.77 33.17 32.64 30.68 27.69 26.58 30.73 34.95 31.76 28.81 29.75 29.81 31.51 31.33 31.66 33.04 34.75 33.56 33.61 32.16 34.84 31.14 30.03 29.96 30.19 29.14 27.35 25.79
39.26 37.42 34.02 41.63 44.99 40.73 35.41 29.29 28.83 29.51 27.98 30.50 30.41 32.41 31.95 36.07 31.52 31.66 30.94 26.65 30.09 23.52 28.30 29.42 29.20 23.21 25.61 28.64 29.44 30.00 30.82 32.60 32.22 33.76 32.32 31.38 30.67 29.34 27.63 25.95 25.84 25.35 24.85 24.02
38.86 39.10 40.00 37.84 32.86 27.63 24.85 21.79 27.05 29.50 28.40 32.46 31.35 31.94 32.04 32.16 37.20 32.77 33.08 30.12 30.57 22.22 32.25 27.36 20.08 23.16 26.67 26.73 26.88 27.40 28.78 28.39 27.82 29.18 27.96 27.89 27.48 27.28 26.28 25.19 24.09 23.54 23.16 22.37
38.84 34.33 29.21 28.26 22.85 16.86 20.08 18.12 24.61 24.31 28.01 28.74 31.49 31.18 28.95 31.23 34.63 31.67 32.18 29.97 28.51 31.65 23.16 18.47 20.21 23.39 26.03 26.35 26.28 24.62 25.71 25.41 24.87 24.47 24.66 24.63 24.12 24.70 23.69 22.17 22.63 22.37 21.33 21.48
27.67 23.56 14.41 16.25 13.07 18.29 19.54 21.81 22.49 27.94 27.76 27.66 29.57 31.27 30.96 31.65 30.66 31.12 29.35 28.35 26.30 19.30 15.33 14.91 21.50 24.13 24.66 25.34 25.26 23.48 22.23 22.75 22.67 22.24 22.33 22.09 21.82 21.33 21.80 21.85 21.64 20.41 19.12 19.78
21.74 20.96 13.46 16.46 20.32 20.31 22.34 25.44 26.68 27.00 28.50 28.48 31.44 32.18 31.37 29.63 26.35 23.68 22.34 15.77 11.94 15.62 13.86 19.75 22.65 24.40 24.02 23.32 22.88 21.92 21.66 21.81 21.90 21.88 21.22 20.76 20.91 20.46 20.26 21.37 21.33 20.66 19.61 18.90
21.65 19.33 15.86 17.18 14.89 16.77 19.55 21.33 22.58 26.39 26.16 28.92 30.58 29.15 22.88 17.27 16.82 14.53 13.91 13.87 11.11 13.02 17.73 20.93 23.56 22.55 22.71 22.45 22.92 23.02 22.84 22.28 21.95 21.73 21.49 21.09 20.14 19.56 19.72 20.52 19.97 19.13 18.32 16.94
18.94 15.12 14.69 9.17 11.78 12.48 17.69 21.45 20.50 24.81 24.97 21.21 24.28 17.00 16.26 23.72 16.83 14.17 16.32 9.19 14.19 16.88 18.22 20.06 20.66 19.96 19.81 20.53 20.66 21.62 22.70 22.46 22.47 22.06 21.78 21.13 21.44 21.04 19.47 17.44 18.61 18.89 18.41 16.93

GFSNW_sfc_wetblb_078.txt.gz
Wetbulb
47.14 47.17 47.69 47.89 48.08 48.78 47.15 42.15 33.25 46.86 47.79 35.65 33.58 30.10 31.81 35.47 33.82 36.54 33.84 34.79 32.85 31.39 32.03 30.73 32.27 32.82 37.27 40.98 41.41 37.64 38.18 33.70 29.42 34.08 39.79 40.81 39.91 37.34 38.63 31.89 30.82 31.14 29.17 32.59
46.87 47.15 47.38 47.74 48.01 48.63 44.69 38.31 37.90 46.64 44.87 30.33 30.20 33.41 33.20 33.65 32.50 33.25 33.62 32.84 34.48 34.71 31.00 28.15 32.75 34.59 41.88 43.65 42.11 39.39 41.71 33.34 26.57 30.84 36.59 38.37 37.13 38.00 39.80 39.82 36.55 31.24 28.84 32.39
46.96 47.15 47.25 47.51 47.69 48.49 45.40 34.20 30.32 37.75 41.06 38.53 34.08 31.26 30.93 31.02 34.44 32.98 35.05 34.65 34.64 32.46 30.97 33.09 30.79 32.35 37.64 41.74 42.10 45.22 43.57 37.91 31.22 27.47 30.56 34.90 33.98 37.46 39.15 39.39 30.73 31.18 32.23 36.07
46.95 47.46 47.47 47.60 47.65 48.02 45.31 34.72 31.37 34.85 29.67 33.52 33.66 33.66 32.30 30.67 29.64 33.60 34.88 31.27 32.23 30.72 27.67 28.81 28.65 32.93 34.81 39.94 43.02 43.10 41.30 33.55 34.13 35.98 36.60 37.56 37.71 37.62 38.96 36.70 35.35 32.95 34.95 36.93
47.46 47.52 47.73 47.92 48.16 48.29 42.37 30.88 33.04 37.30 32.65 35.74 34.12 33.70 31.41 31.27 32.05 32.34 30.14 29.65 32.48 32.29 28.89 30.09 28.43 32.36 33.55 33.55 41.24 40.65 41.56 33.96 34.57 32.70 36.41 36.91 35.28 37.34 37.53 37.18 37.28 36.81 36.36 36.58
46.94 46.87 47.38 47.98 48.21 47.76 41.06 39.61 39.41 38.24 34.64 32.67 32.73 31.93 32.47 32.67 34.95 35.01 35.89 33.67 32.31 31.09 32.87 35.03 35.42 35.94 35.72 35.68 33.89 36.97 38.62 34.40 31.64 28.59 35.26 35.59 30.39 35.35 36.59 37.44 39.07 38.35 33.99 38.38
46.58 46.94 46.95 47.11 47.97 47.74 43.52 41.53 40.05 36.06 31.12 32.72 32.80 34.16 34.55 33.78 34.57 32.63 35.45 36.21 33.24 36.09 39.24 39.03 37.27 35.98 35.69 36.28 35.93 37.72 36.44 34.62 32.84 28.46 30.73 23.05 34.59 41.23 42.11 39.92 40.64 40.98 40.73 41.84
46.50 46.45 46.55 46.76 47.11 46.66 44.58 44.32 40.34 36.43 31.19 34.58 33.94 34.53 33.96 35.01 36.44 34.85 35.05 37.13 38.69 40.46 35.38 32.03 29.20 28.13 31.09 33.59 36.66 38.21 39.90 37.20 31.79 29.86 28.63 31.54 34.79 39.35 39.97 37.84 37.20 42.10 41.74 43.63
46.29 46.28 46.24 46.48 46.62 46.81 44.05 42.16 44.26 40.78 33.78 32.89 37.03 34.66 35.62 32.27 32.10 33.34 35.04 39.90 41.34 38.74 33.58 30.73 25.90 23.38 27.75 29.25 34.40 39.50 38.35 39.20 34.81 31.20 28.43 24.84 33.09 40.09 44.14 42.94 32.30 43.57 44.07 42.71
46.35 46.52 46.50 46.50 46.55 47.11 44.38 41.92 42.71 39.79 34.72 37.64 38.54 35.06 34.73 36.06 34.26 31.65 34.03 35.48 35.46 37.85 31.34 28.44 26.57 25.24 31.47 27.28 29.61 31.12 33.87 33.24 32.74 31.17 28.73 32.73 39.68 42.05 44.13 32.22 34.35 44.51 45.85 44.84
46.61 46.67 46.61 46.77 46.68 46.85 45.01 42.28 43.83 39.41 34.72 38.47 40.77 39.84 36.39 35.94 35.42 30.81 34.38 34.36 33.21 32.29 29.32 29.37 28.33 23.67 28.32 28.90 31.42 31.73 30.85 28.99 29.16 31.91 29.59 27.44 42.62 43.56 37.80 40.27 43.53 44.93 45.54 45.80
46.72 46.70 46.79 46.86 46.91 46.94 46.54 40.07 44.90 43.98 39.64 38.94 43.56 43.09 42.94 41.87 40.85 37.54 37.50 35.32 33.63 33.63 29.52 29.03 28.09 24.76 22.98 28.11 24.08 34.40 28.80 32.98 30.68 32.59 32.45 40.24 42.76 44.06 45.89 46.66 45.11 45.31 45.78 46.25
46.52 46.84 47.09 46.99 47.18 47.03 46.31 42.03 43.37 41.97 38.15 36.64 37.91 37.22 42.42 44.76 44.10 44.17 35.19 34.90 38.47 35.94 37.84 32.18 31.13 26.54 29.31 24.12 26.15 28.67 32.62 37.62 33.73 34.83 37.82 40.35 42.80 45.19 47.35 47.52 46.68 47.44 47.40 47.06
46.58 46.68 46.84 46.97 46.99 47.13 46.51 41.43 43.37 41.71 38.19 31.08 32.24 42.74 40.20 44.65 44.40 43.48 42.51 41.48 43.22 41.00 39.40 33.26 29.73 27.70 33.83 27.45 30.67 29.42 32.33 35.07 34.76 34.89 38.11 40.30 42.50 44.71 46.35 47.23 47.31 46.92 46.41 46.06
46.42 46.49 46.72 47.02 47.07 47.11 45.15 44.16 43.52 41.35 36.05 28.19 30.49 41.91 44.00 45.83 43.59 42.51 43.47 43.41 41.28 37.96 35.45 29.59 29.22 32.76 34.94 32.78 32.88 30.50 35.56 34.47 32.01 30.55 38.35 38.29 39.68 43.61 45.54 44.93 45.43 47.37 45.81 45.95
45.90 46.22 46.52 46.58 46.72 45.54 42.40 37.13 42.68 44.20 40.67 34.53 29.93 41.87 41.20 43.05 44.36 42.03 41.44 41.68 40.62 39.82 35.72 32.70 35.49 38.88 35.15 26.63 27.84 35.01 36.80 37.71 38.52 37.16 40.06 39.24 40.59 41.50 44.09 44.91 44.79 43.71 41.61 41.62
46.06 46.31 46.33 46.15 45.79 43.59 38.94 36.88 40.41 44.96 42.40 35.37 31.97 34.08 41.30 43.06 43.68 42.39 42.35 43.58 41.69 41.00 38.47 33.89 34.45 35.94 36.35 28.61 26.27 35.23 36.14 35.65 36.37 38.71 37.95 38.15 39.18 38.75 42.25 43.27 41.62 38.82 36.51 34.82
46.01 46.08 45.49 45.47 45.82 45.20 41.61 44.17 44.74 43.58 38.78 37.06 30.30 32.90 36.33 42.55 35.99 35.41 41.25 37.89 38.91 39.14 38.33 38.20 35.03 36.67 35.75 31.78 31.99 33.24 33.32 33.12 35.93 35.35 36.75 38.46 38.11 36.88 36.92 37.63 37.11 31.87 29.65 29.05
45.69 45.55 45.13 43.51 41.88 38.76 41.06 45.45 45.34 44.90 39.35 32.05 30.82 30.77 30.09 38.67 34.61 36.15 34.87 34.34 30.76 33.54 34.08 35.67 36.23 33.79 26.86 27.03 29.10 29.71 30.36 30.39 31.72 33.91 36.49 34.86 33.04 31.53 31.58 33.27 32.35 29.69 28.44 26.42
44.72 40.95 37.52 33.21 38.84 46.17 45.58 41.86 37.82 37.52 37.87 33.33 31.62 32.80 32.57 35.00 34.23 32.51 27.84 30.24 28.99 27.86 31.47 36.36 31.41 25.31 28.43 27.66 29.40 29.06 29.56 30.47 32.31 31.74 31.62 30.74 32.16 28.55 26.68 26.24 27.08 26.54 25.40 24.93
41.16 35.50 32.72 42.21 45.20 41.61 37.31 30.98 30.69 30.99 29.50 33.18 33.51 33.49 32.88 35.31 30.48 31.32 31.40 25.74 26.73 21.66 27.59 30.97 26.55 21.10 24.02 27.39 27.24 27.94 28.55 29.01 29.32 31.34 31.09 30.56 29.51 28.35 26.29 24.71 24.65 24.01 23.25 22.23
40.81 40.37 41.45 37.03 31.97 28.69 27.25 23.20 29.35 29.65 28.79 31.13 32.45 31.34 31.99 31.29 36.38 31.59 33.28 28.84 29.34 22.36 31.52 23.89 16.87 21.66 25.28 25.51 25.27 24.57 25.37 25.96 25.56 26.59 26.66 27.20 27.34 27.23 25.42 23.87 22.66 22.04 21.44 20.12
37.96 33.42 26.87 26.87 20.92 14.51 18.05 15.33 22.67 23.20 26.97 27.97 31.25 29.47 29.83 30.53 34.28 32.26 32.00 29.29 26.65 29.05 20.33 16.16 18.99 23.38 24.06 24.13 23.86 23.29 23.89 23.87 23.67 23.04 23.39 23.32 23.33 24.36 23.04 21.38 21.64 21.12 20.02 19.86
26.69 22.05 13.05 13.66 10.85 16.53 17.63 20.25 22.77 26.72 27.14 27.23 29.85 30.96 30.97 31.39 30.59 30.28 26.53 23.62 23.91 15.10 9.79 11.31 20.01 22.59 22.98 22.93 22.95 21.94 21.86 22.15 21.60 21.21 21.29 20.77 20.37 19.54 20.03 19.80 20.21 19.12 17.86 18.43
19.84 18.92 10.52 13.68 19.34 19.98 20.95 23.52 25.42 25.72 27.23 28.40 31.31 32.27 30.87 25.78 23.14 21.98 20.35 13.48 10.38 13.94 10.90 16.21 20.49 22.26 22.47 22.09 21.96 21.34 21.07 20.35 19.97 20.23 19.66 19.11 19.20 18.86 18.53 19.48 19.43 19.06 18.06 16.62
19.97 16.87 13.21 15.48 14.35 15.04 16.79 19.11 20.22 24.31 23.61 28.36 29.83 26.78 21.60 18.71 17.54 13.65 11.25 12.36 8.75 10.31 15.73 18.60 21.04 19.70 20.52 21.10 21.76 21.86 21.84 20.92 20.22 20.20 19.74 19.14 18.05 17.35 17.32 17.93 17.55 17.06 16.43 14.89
18.80 14.05 17.37 12.26 11.73 10.06 14.39 18.36 18.80 22.83 21.65 20.06 22.10 12.30 11.99 20.38 11.59 10.31 13.17 7.10 12.91 15.24 16.01 17.63 18.42 18.09 18.14 18.74 19.20 19.13 20.06 20.58 20.20 19.97 19.52 19.04 19.60 19.11 17.66 15.44 16.78 16.90 16.41 15.40

GFSNW_sfc_wetblb_081.txt.gz
Wetbulb
46.30 46.70 46.62 47.17 47.08 47.69 45.69 40.46 31.81 45.82 48.04 34.78 33.32 31.02 32.59 36.07 33.81 36.70 33.78 35.05 33.18 31.39 32.75 31.56 32.75 33.12 36.47 43.10 42.68 38.06 40.80 36.38 31.70 35.15 41.68 42.47 41.87 39.27 39.92 35.57 33.70 36.01 35.64 36.63
46.48 46.62 46.97 47.28 47.37 47.81 43.16 36.01 36.12 45.72 44.78 28.82 29.67 34.76 33.63 34.47 32.68 33.49 33.74 32.83 34.95 35.63 31.95 28.61 32.66 35.51 40.86 42.77 41.34 37.62 38.89 36.33 30.03 31.97 37.21 40.23 38.31 40.63 41.03 40.57 39.18 36.23 34.12 36.91
46.52 46.75 46.84 46.89 46.99 47.55 43.71 36.50 29.97 36.57 40.27 37.80 33.64 31.07 32.41 31.77 36.30 33.70 34.96 34.29 35.82 33.51 31.90 34.51 31.42 32.65 37.22 39.63 38.87 44.09 42.01 35.92 33.91 29.55 32.51 37.12 35.79 39.19 40.71 40.19 35.11 35.96 36.65 39.49
46.74 46.33 47.05 47.21 47.16 47.48 43.65 35.86 31.00 35.78 30.05 32.14 33.95 34.49 33.43 30.59 30.10 34.59 34.72 31.89 32.73 32.09 28.77 29.91 30.30 33.75 35.18 38.25 40.93 43.27 40.69 31.55 34.15 36.09 37.12 38.10 37.73 37.56 39.57 38.97 39.75 36.37 38.98 39.97
46.52 46.36 46.71 46.93 46.95 47.32 41.37 31.69 33.29 35.93 33.78 35.65 33.96 33.79 31.78 31.44 32.10 31.80 30.37 30.34 32.51 33.22 30.04 31.19 29.59 32.86 33.55 32.77 37.09 35.41 39.56 32.62 34.85 33.26 37.34 37.86 35.68 38.76 38.66 39.99 40.18 39.76 39.80 40.01
46.11 46.43 46.65 47.47 47.45 46.70 39.83 40.63 39.74 38.12 34.80 34.29 32.70 32.24 32.84 32.74 34.80 35.35 35.75 33.99 32.41 30.94 33.30 36.65 37.38 37.75 36.93 35.94 33.49 32.85 33.18 34.38 33.50 29.59 35.49 34.61 31.94 36.75 38.52 39.83 41.40 41.58 37.79 42.95
46.10 46.46 46.51 45.54 46.21 46.90 43.57 40.61 40.23 35.79 31.42 32.32 32.75 34.45 34.52 34.06 34.74 33.27 35.88 36.71 33.48 36.57 40.90 40.13 38.78 37.16 36.48 36.39 35.74 36.54 33.52 33.85 33.92 29.97 32.85 26.58 37.65 42.47 42.79 40.71 42.32 43.73 43.43 44.77
46.45 46.13 46.25 46.22 45.71 45.91 44.28 43.12 39.79 35.92 30.73 33.94 33.60 34.84 34.65 35.74 37.18 35.59 35.52 37.09 39.18 41.26 37.57 32.16 29.12 30.12 30.97 33.13 35.02 35.39 36.78 33.21 31.63 29.35 29.67 31.87 37.33 40.98 41.20 40.09 40.28 44.67 43.82 45.14
45.99 46.01 46.05 46.15 46.36 45.89 42.75 42.76 44.05 40.33 33.65 32.30 36.66 34.78 36.13 33.11 33.46 34.50 35.99 40.50 42.42 40.18 35.34 32.07 25.95 24.46 28.76 29.22 32.98 37.04 35.69 35.86 34.08 32.22 27.86 24.67 35.20 41.77 45.63 45.31 36.76 44.81 45.25 45.09
45.99 46.20 46.10 46.22 46.29 46.44 42.72 41.12 42.59 37.97 33.85 37.36 38.36 34.68 35.13 37.51 35.40 33.30 35.48 36.78 36.52 39.30 33.41 28.42 25.98 25.83 31.68 26.77 29.04 31.22 32.12 33.60 30.44 30.67 29.61 34.27 41.06 43.35 45.98 34.97 38.15 45.65 47.28 47.01
46.52 46.47 46.43 46.47 46.45 46.46 44.05 40.85 43.58 37.77 34.03 36.48 40.76 40.80 37.70 37.18 36.66 32.23 35.37 34.52 35.14 34.45 30.56 30.16 30.32 28.86 31.26 30.00 32.08 33.17 32.89 31.34 30.86 31.91 29.80 28.12 43.62 44.45 39.43 44.05 46.23 47.22 47.49 47.42
46.86 46.72 46.61 46.77 46.59 46.61 45.61 39.82 43.55 43.33 37.53 37.91 43.48 42.82 43.23 42.76 41.73 37.93 37.68 36.19 34.91 35.86 32.74 32.99 33.29 30.30 30.36 31.21 26.87 35.32 30.08 35.80 34.00 35.60 35.36 42.42 44.06 45.34 47.61 48.12 47.10 48.77 47.98 49.24
46.95 47.02 46.88 46.95 47.00 46.87 45.75 42.05 42.23 40.93 35.91 37.26 38.16 37.34 43.11 45.63 45.02 45.93 36.23 37.60 39.95 37.78 40.86 36.03 34.36 30.16 33.11 29.36 30.58 32.17 35.28 38.98 36.93 36.99 39.42 40.28 42.66 45.44 46.74 47.33 47.52 49.26 49.06 48.65
46.74 46.95 46.81 46.67 47.00 47.07 46.35 41.88 43.13 41.25 38.28 32.76 34.21 42.51 40.06 44.95 45.60 44.32 44.46 42.95 43.74 42.42 41.87 36.99 33.74 32.44 36.09 32.47 34.56 33.96 36.09 37.40 36.14 36.52 39.13 41.58 43.02 44.35 44.46 44.67 44.96 46.32 48.88 48.96
46.61 46.79 46.77 46.93 47.23 47.18 46.08 44.43 43.44 43.68 38.33 31.18 33.34 41.64 43.11 42.89 43.09 43.10 43.92 43.21 42.92 41.27 37.43 34.80 34.37 36.25 37.16 35.93 35.41 34.49 38.13 36.76 35.42 34.41 39.52 39.60 40.54 43.24 42.98 42.27 43.65 45.69 46.97 46.84
46.49 46.83 46.77 47.22 47.11 46.68 42.02 35.48 42.70 44.06 43.15 35.48 30.29 39.90 42.33 43.85 42.78 42.24 41.39 41.98 42.97 42.47 38.30 36.81 37.90 40.44 38.27 33.91 33.03 36.14 36.99 37.08 36.77 36.59 38.51 38.29 39.85 41.54 40.60 40.87 38.75 37.32 37.40 40.00
46.51 46.47 46.68 46.79 46.47 43.05 38.68 36.47 40.83 44.33 44.06 37.16 29.80 32.38 41.07 44.08 43.22 41.97 41.55 42.44 42.00 41.97 39.55 37.62 37.47 38.12 38.86 33.38 31.22 34.14 34.26 33.73 34.92 36.68 36.64 38.27 39.43 36.82 37.69 38.87 36.54 34.91 33.30 32.48
46.17 46.40 46.42 44.70 45.43 45.34 42.03 43.78 44.35 44.14 39.87 37.68 29.07 31.99 36.26 41.57 36.75 37.06 42.66 39.50 40.41 40.37 39.09 39.48 36.93 38.82 37.10 31.14 30.48 31.56 31.60 32.59 34.85 33.62 35.11 36.57 36.53 35.16 33.94 35.85 35.82 32.15 29.61 29.29
45.61 45.23 45.60 43.63 41.72 39.96 41.42 45.07 45.28 45.52 39.65 31.43 31.67 30.29 30.12 39.06 35.04 35.91 35.83 37.92 32.55 35.77 34.33 37.20 37.60 33.95 22.37 25.09 27.13 27.60 28.70 28.93 29.77 32.12 34.55 34.36 33.16 30.62 29.75 30.88 30.64 28.87 27.28 27.14
43.87 41.72 38.44 32.97 40.32 45.38 44.86 41.27 37.71 36.88 37.48 35.57 30.67 35.18 32.05 37.25 32.40 32.25 32.74 32.20 31.55 29.60 33.32 36.83 28.61 23.78 27.40 26.90 27.87 27.20 27.45 28.34 29.22 27.96 29.77 29.88 29.74 28.24 26.62 26.39 26.80 26.28 25.67 25.33
40.69 35.42 33.30 42.33 44.99 40.59 36.31 31.63 32.17 32.29 30.26 32.17 33.32 33.42 33.47 36.12 32.39 32.17 33.35 30.46 30.79 27.19 31.45 31.09 25.24 20.67 23.72 26.22 26.14 26.04 26.23 26.97 27.22 28.00 28.89 28.95 28.41 27.15 26.20 25.16 25.32 24.75 23.75 22.23
41.12 39.29 39.92 36.59 31.09 28.75 28.35 27.70 30.71 29.78 27.56 30.55 32.20 31.99 34.43 34.04 36.18 33.14 34.26 30.22 31.14 25.96 29.73 23.17 16.65 21.55 23.75 23.87 23.59 23.90 24.36 24.57 24.65 25.37 25.44 26.04 26.06 26.30 24.75 23.26 22.48 21.77 21.13 20.46
36.96 32.21 26.23 26.98 21.03 15.43 18.17 19.07 22.48 23.51 25.96 28.36 31.97 30.02 31.45 33.54 35.30 33.08 32.96 29.24 25.42 28.26 20.19 15.92 18.41 21.76 22.88 22.66 22.80 22.80 23.35 23.29 22.85 22.67 22.78 22.31 21.92 22.85 22.14 19.94 20.44 19.85 18.55 18.23
25.40 21.97 12.55 12.03 9.83 16.45 17.17 19.35 22.22 26.14 26.55 26.45 30.42 31.38 31.67 31.62 28.73 28.46 23.47 22.91 24.49 16.79 12.74 12.71 18.06 20.69 21.67 22.29 22.53 21.27 20.48 20.51 20.20 20.07 20.54 19.95 19.36 18.81 19.28 19.32 19.19 17.50 15.88 15.95
19.71 18.36 10.37 13.32 18.61 19.67 20.44 22.17 24.40 23.94 25.52 28.43 31.53 29.42 27.85 23.32 20.95 22.23 21.33 16.49 12.10 13.80 11.70 16.38 19.57 21.14 21.72 21.19 20.95 20.31 20.04 19.47 19.24 19.39 18.56 17.90 18.01 17.54 17.39 18.35 18.01 17.06 15.84 15.09
19.29 16.19 14.34 15.68 16.67 15.44 16.90 18.17 19.41 23.24 22.51 26.54 26.96 23.79 19.53 17.79 17.47 14.12 11.39 12.86 8.87 11.57 15.81 18.74 20.09 19.27 19.54 19.88 20.72 20.41 20.71 20.48 19.87 19.31 18.85 18.11 17.03 16.16 16.19 17.01 16.28 15.30 14.70 13.47
16.91 13.81 17.44 14.41 14.51 13.71 15.88 17.76 17.93 21.75 21.58 18.66 20.49 14.00 13.90 19.38 12.80 10.07 13.23 9.20 12.91 15.46 16.26 17.66 18.42 18.33 18.23 18.98 19.25 19.30 20.39 19.77 19.55 19.17 18.57 18.21 18.51 18.03 16.40 14.46 15.85 15.89 15.31 14.16

GFSNW_sfc_wetblb_084.txt.gz
Wetbulb
45.36 45.17 45.42 45.96 46.44 47.27 45.14 40.47 31.89 46.94 50.11 34.23 33.83 31.74 34.84 37.38 36.68 39.35 36.62 37.24 36.02 34.80 35.29 34.19 34.02 34.02 38.20 43.59 43.40 38.89 42.82 40.52 34.62 37.82 43.90 44.91 43.77 41.89 42.05 36.77 35.98 39.49 38.38 39.29
45.82 46.18 46.06 46.37 46.67 46.76 44.82 36.27 35.95 46.71 46.03 30.55 30.53 34.51 35.32 37.61 35.79 36.38 36.32 34.80 36.71 37.93 34.87 31.65 35.49 36.70 41.85 42.79 41.48 39.23 41.36 37.70 33.79 35.22 40.09 43.26 40.27 42.18 42.74 42.79 42.13 38.23 36.74 39.90
46.31 46.63 46.78 46.84 46.96 47.25 45.18 36.68 30.87 38.33 40.29 38.65 35.17 33.29 32.07 34.11 38.08 36.89 38.04 36.63 38.13 36.31 34.61 37.42 33.99 35.35 39.18 42.03 41.38 43.14 42.20 37.20 34.25 31.99 35.45 40.09 37.63 40.22 42.32 41.86 37.39 37.44 39.20 40.89
46.34 46.43 46.76 46.85 46.98 46.98 43.82 36.30 32.25 37.49 31.34 32.52 33.18 35.82 34.68 32.07 32.22 36.80 38.10 35.00 35.90 34.82 32.17 34.17 34.16 37.21 38.40 40.55 41.88 42.35 41.17 33.84 36.10 36.99 38.76 39.38 39.12 39.67 40.95 40.07 41.49 38.80 40.97 41.76
46.42 46.42 46.54 46.88 46.63 47.26 40.71 32.36 33.63 38.00 35.87 37.03 33.65 33.64 32.45 33.11 34.77 35.23 33.92 33.81 36.01 36.83 33.90 35.17 32.87 35.49 36.75 35.43 38.94 37.74 39.23 34.45 36.36 34.28 38.58 39.34 38.03 40.14 41.43 42.06 42.05 42.48 43.00 42.72
46.54 46.69 46.98 46.95 46.86 46.62 39.56 39.59 40.84 38.47 35.08 35.27 32.90 33.06 35.10 35.05 37.31 37.62 38.91 37.64 36.26 34.91 36.83 39.31 40.09 40.00 39.52 38.95 36.92 36.44 35.56 34.94 32.02 30.13 37.45 37.13 33.73 39.31 41.33 42.60 44.04 43.26 40.30 45.29
46.31 46.68 46.39 45.95 46.70 46.69 42.96 41.28 40.39 34.92 30.81 34.05 33.67 34.86 35.96 35.33 36.48 35.42 38.43 39.37 36.88 38.86 42.59 42.26 41.45 40.72 39.64 39.71 39.35 40.15 34.48 35.00 34.45 30.42 33.89 26.30 38.34 42.72 44.59 43.54 44.77 45.85 45.64 46.95
46.26 46.36 46.29 46.45 46.38 45.88 43.88 43.37 40.70 36.78 32.21 34.44 35.35 35.57 35.80 37.65 38.68 36.77 37.13 40.00 41.28 43.05 38.69 35.08 32.43 33.55 33.91 35.74 38.35 38.72 39.50 35.87 31.68 28.42 31.41 35.40 35.81 37.62 40.41 41.84 42.66 47.29 46.35 47.76
46.03 46.19 46.17 46.35 46.40 45.94 43.60 43.49 44.81 41.07 36.14 34.77 38.23 36.56 36.86 34.93 35.18 35.99 37.36 41.03 43.07 40.70 36.26 33.73 27.89 27.23 30.98 31.08 34.87 40.25 38.83 38.44 34.35 31.70 28.44 26.52 36.12 40.88 45.01 45.54 38.66 48.15 49.00 48.71
46.12 46.16 46.21 46.15 46.29 46.36 44.13 40.40 44.12 40.57 35.26 39.13 39.69 36.01 36.59 39.56 37.72 35.29 36.71 38.04 37.14 39.81 33.90 31.12 29.40 29.15 33.82 29.12 30.04 30.30 32.77 32.31 30.07 30.56 29.37 35.12 42.78 44.77 46.35 34.95 37.71 47.48 48.77 49.95
46.26 46.40 46.24 46.33 46.49 46.36 44.44 41.22 44.15 38.66 36.39 39.79 42.09 42.27 39.28 39.55 39.39 34.70 38.23 36.26 35.42 33.75 32.54 32.31 31.87 30.68 33.37 32.50 34.89 35.16 31.36 30.57 30.81 31.12 30.38 28.61 45.14 44.44 38.67 42.61 48.60 49.13 49.10 50.11
46.56 46.49 46.88 46.40 46.58 46.52 45.95 40.26 44.96 43.25 37.75 38.33 43.36 42.88 45.42 45.43 44.60 40.63 40.27 37.67 37.28 38.28 35.03 35.90 36.25 33.00 35.92 33.86 30.23 38.38 31.76 37.53 34.74 36.87 36.47 43.42 44.21 44.25 47.36 47.86 46.88 47.46 49.39 51.57
46.69 46.79 46.99 46.99 46.77 46.68 45.91 42.75 42.90 40.07 35.38 37.89 38.72 37.25 44.43 47.93 47.82 49.27 38.76 40.66 42.20 41.09 43.96 39.96 37.97 32.80 37.11 32.12 33.58 36.24 38.86 41.72 38.23 37.62 41.17 41.87 43.14 46.20 45.44 47.16 46.86 48.84 49.80 49.96
46.60 46.79 46.92 47.04 46.92 46.96 45.89 42.56 43.44 41.79 39.13 33.30 37.48 44.65 42.13 48.23 47.92 47.08 47.14 44.56 45.17 44.71 42.99 39.11 37.64 35.03 40.27 36.23 37.96 37.37 40.30 40.90 37.93 38.11 41.41 43.74 44.45 45.43 44.76 44.29 45.88 46.18 49.20 51.14
46.62 46.97 47.10 47.13 46.99 46.83 45.50 45.21 44.20 46.04 40.30 33.25 35.89 41.69 44.09 46.15 46.94 45.40 45.17 44.18 43.40 42.28 38.32 37.69 36.83 40.13 39.89 41.08 39.87 37.48 41.93 39.52 37.78 37.72 39.72 40.49 43.28 44.30 44.26 42.64 42.26 42.24 44.09 48.98
46.37 46.68 47.20 47.12 46.67 46.79 43.10 35.79 42.85 45.97 46.32 37.40 32.71 42.66 42.36 43.65 44.60 44.51 43.53 43.89 42.46 41.60 38.51 38.56 41.72 43.56 40.57 36.48 35.11 38.01 38.53 38.61 39.43 38.59 39.39 41.18 43.24 44.37 42.46 41.25 41.27 39.26 40.33 41.27
46.33 46.49 46.90 46.83 46.55 43.25 39.55 38.96 42.50 46.42 47.43 39.02 35.15 36.26 41.77 44.32 42.99 43.36 43.56 43.98 41.85 41.20 39.87 39.08 40.46 41.94 41.87 36.89 34.60 33.86 34.20 35.37 38.07 37.11 38.21 39.92 40.33 36.80 39.01 40.00 41.28 39.02 38.07 37.91
46.42 46.60 46.39 46.40 45.57 45.10 43.13 44.99 45.02 45.69 40.49 40.05 33.97 34.66 37.03 43.45 39.52 38.50 43.59 40.42 40.63 39.61 39.73 42.34 39.71 42.61 41.85 32.14 30.73 31.12 32.07 33.90 35.58 34.37 35.45 36.74 37.18 35.76 35.62 38.20 38.64 36.99 34.94 34.45
45.78 45.53 45.22 43.52 42.25 39.41 41.64 45.13 45.52 48.33 42.05 35.13 33.19 32.13 31.23 41.71 37.39 38.14 38.68 39.82 34.37 37.83 37.05 37.69 39.19 32.80 26.95 25.64 27.40 28.98 28.23 28.29 29.18 32.10 34.02 33.68 32.90 31.44 30.18 31.70 34.32 33.74 31.36 31.42
44.49 44.04 39.48 34.01 41.19 44.91 44.47 41.29 37.63 38.34 40.18 39.12 34.79 37.82 33.46 37.70 36.53 35.43 33.52 36.33 34.90 32.86 35.90 37.68 31.57 25.67 27.56 28.03 28.11 27.85 27.55 27.75 29.15 28.36 30.06 30.59 30.20 29.53 27.65 27.12 29.11 29.91 29.28 28.48
43.29 36.92 35.66 40.79 44.10 42.34 38.64 33.95 34.06 34.07 31.70 34.86 35.90 36.14 34.52 37.57 35.35 33.99 34.40 34.30 34.87 30.51 32.77 33.16 28.05 24.21 24.59 27.08 26.22 27.34 27.38 27.53 27.92 28.23 29.12 29.21 29.11 27.91 26.86 25.52 25.49 25.34 25.39 24.19
41.16 38.85 39.36 37.62 33.31 33.67 32.77 31.38 32.71 32.46 29.93 33.96 33.60 34.04 34.00 36.14 38.17 34.97 35.65 32.44 33.81 28.41 31.42 28.11 22.80 23.29 25.47 26.11 25.53 26.14 26.35 25.94 25.70 26.12 25.96 26.60 26.81 26.97 25.69 24.44 22.41 21.56 20.78 20.39
39.59 34.88 29.50 29.12 25.69 22.58 23.81 22.96 26.70 28.41 29.06 31.25 33.27 32.36 35.32 36.56 38.28 33.83 34.27 30.45 26.91 31.36 24.53 20.66 21.14 23.34 24.80 24.98 25.08 25.11 25.50 25.05 24.74 23.95 24.19 23.61 22.99 23.50 22.70 20.71 20.42 20.10 18.16 18.33
30.15 26.62 19.27 21.23 18.92 21.54 21.98 23.54 25.44 28.73 28.95 28.91 33.01 34.49 34.09 34.98 32.03 32.35 27.83 26.61 30.07 23.22 19.44 16.26 21.37 21.81 22.84 23.49 23.80 22.94 21.73 21.61 21.52 21.23 21.18 20.75 19.85 18.46 18.50 18.27 18.35 17.18 16.23 16.65
24.62 25.09 18.64 19.61 22.34 23.84 23.89 25.31 27.62 26.01 26.28 30.71 35.30 32.98 32.74 28.26 26.35 27.11 26.71 22.32 17.85 18.70 17.66 20.12 21.90 22.33 22.60 22.31 22.45 21.68 20.91 20.29 20.36 20.52 19.39 18.99 19.23 18.50 18.00 18.59 18.62 17.88 17.03 16.74
23.58 20.64 20.57 22.19 23.67 22.19 23.15 22.69 23.77 25.61 26.22 32.12 33.02 29.38 25.68 21.53 22.43 19.77 17.24 17.48 14.99 16.19 19.76 21.64 22.82 21.04 21.23 21.45 21.74 21.16 21.47 21.18 20.71 20.36 19.85 19.01 17.97 16.91 16.97 17.28 16.57 16.06 15.62 14.40
20.54 18.82 21.55 21.29 21.74 19.42 20.57 21.60 21.99 25.29 27.68 26.14 26.77 21.55 18.70 24.76 19.00 15.17 17.39 15.34 17.33 19.95 20.64 21.64 21.21 20.81 20.58 20.69 20.41 20.76 20.75 20.61 20.30 19.82 19.28 18.90 19.46 19.34 17.61 15.25 16.48 16.42 15.93 14.98

GFSNW_sfc_wetblb_087.txt.gz
Wetbulb
45.36 45.77 45.86 46.02 46.09 46.50 44.25 40.83 32.59 47.69 51.15 35.80 36.64 30.58 35.86 38.13 39.36 41.48 39.20 38.83 38.26 37.12 37.09 36.04 36.06 36.18 39.79 44.25 44.18 40.41 44.42 41.91 36.37 38.67 44.32 45.80 44.40 42.14 41.62 36.26 36.21 40.03 39.04 39.46
45.44 45.90 45.93 46.01 46.62 46.69 44.08 36.04 37.78 47.47 47.88 31.30 32.18 36.25 34.24 37.81 36.76 37.90 37.58 36.87 38.43 39.18 36.60 33.31 37.24 38.46 42.83 43.21 41.83 39.75 41.45 38.96 33.98 36.47 40.61 43.67 41.43 42.99 43.67 43.27 42.33 38.22 37.00 39.77
45.79 46.11 46.62 46.71 46.19 46.50 45.16 37.73 32.39 39.09 41.70 40.54 35.35 33.80 33.95 33.60 39.58 38.41 39.40 38.43 39.56 37.50 35.85 38.73 36.01 37.30 40.75 42.84 42.37 41.96 41.87 37.69 35.38 31.85 35.59 41.25 38.93 41.02 42.72 42.07 38.32 38.45 39.53 41.73
46.02 46.16 46.47 46.78 46.91 46.65 45.03 37.22 33.69 38.63 31.93 34.87 36.13 36.21 34.86 33.76 33.44 38.33 39.80 36.53 37.42 36.46 33.08 35.18 35.54 38.80 39.52 42.07 43.72 42.18 40.75 33.83 36.72 37.84 39.01 39.42 40.21 40.13 41.27 40.09 41.10 37.99 40.90 42.19
46.05 46.36 46.50 46.57 46.69 46.64 41.39 32.56 33.00 38.17 36.59 37.53 35.56 35.07 33.64 33.25 34.53 36.45 35.31 35.56 37.66 37.80 34.93 36.17 33.80 36.93 38.26 37.31 41.29 40.21 41.30 35.23 37.52 35.57 38.94 39.44 37.43 40.42 41.24 41.82 42.02 42.18 42.69 42.65
45.93 46.20 46.65 47.01 46.93 45.86 39.09 40.67 42.08 38.87 35.66 35.70 34.02 34.32 35.28 35.15 37.85 38.64 39.55 38.59 37.49 36.28 38.19 40.91 42.25 41.97 41.84 40.96 38.41 37.84 37.67 35.77 33.53 30.55 37.25 38.30 34.34 38.97 40.77 42.26 44.33 43.73 40.08 44.73
46.50 46.59 46.77 46.93 46.97 46.31 41.81 40.36 40.65 35.17 31.80 34.15 34.93 36.23 37.05 36.41 37.89 36.57 39.47 41.14 38.41 40.99 45.00 44.19 43.48 42.12 40.79 40.46 39.91 40.11 36.35 35.33 34.00 31.13 33.37 24.58 38.05 45.15 43.28 41.73 43.23 46.76 46.62 47.37
46.92 47.04 46.78 46.63 46.80 47.04 43.13 43.14 40.43 37.08 32.53 35.72 35.42 36.55 36.99 38.47 39.80 38.44 39.45 41.88 42.57 44.77 41.46 35.23 33.01 34.27 34.81 37.59 40.40 39.90 39.31 36.12 32.34 29.41 30.19 34.59 37.75 42.06 40.28 38.84 38.45 47.42 48.45 48.10
46.45 46.47 46.38 46.49 46.61 46.52 45.08 43.03 44.53 41.90 35.81 35.10 38.90 36.30 37.92 35.78 35.86 37.71 39.88 43.62 44.50 43.04 37.33 35.07 28.77 28.84 33.37 33.07 36.41 41.57 40.34 39.25 34.05 32.44 27.34 26.65 38.53 43.71 46.26 45.40 37.54 45.17 48.08 50.03
46.00 45.91 46.19 46.37 46.45 46.57 46.07 42.57 44.42 41.47 36.44 40.67 40.85 36.95 36.89 40.77 38.96 37.22 39.51 38.79 38.08 41.57 35.30 31.75 30.39 31.02 36.43 30.87 31.75 33.67 34.88 34.61 30.65 31.29 29.40 34.41 42.98 46.11 47.51 34.56 36.90 44.42 45.91 49.89
46.17 46.05 46.12 46.33 46.36 46.40 46.70 42.66 45.26 39.77 36.51 41.30 43.60 43.59 39.44 40.61 40.45 35.97 39.57 37.20 36.68 34.60 32.59 32.69 33.48 33.35 35.76 34.33 36.70 35.41 33.47 31.59 31.27 32.47 29.55 27.76 45.34 45.09 39.21 41.98 46.14 45.93 47.35 47.92
46.17 46.35 46.44 46.51 46.49 46.49 46.30 41.20 45.57 43.90 37.74 38.97 45.95 47.07 47.76 46.81 44.77 41.41 40.45 38.51 37.89 39.35 36.63 37.37 37.65 34.90 37.41 35.07 30.54 41.15 33.27 36.96 35.70 35.75 36.04 43.24 45.96 45.89 46.00 46.12 45.34 46.73 47.45 49.14
46.37 46.49 46.69 46.78 46.97 46.52 45.82 43.28 45.15 40.49 34.58 38.78 39.49 40.83 46.20 49.14 48.89 49.32 39.28 40.68 42.22 41.61 44.95 39.91 39.10 34.87 38.46 32.55 34.69 35.77 40.43 43.26 37.58 37.23 40.24 41.78 44.53 45.72 45.95 46.24 44.80 46.03 48.02 51.25
46.69 46.72 46.69 46.83 47.08 47.11 46.12 42.68 44.31 42.59 39.29 34.43 38.48 47.03 44.06 48.68 49.67 48.80 48.02 44.42 45.63 44.58 44.31 40.53 39.09 36.39 41.16 36.45 38.41 37.76 40.98 41.28 40.12 39.28 41.74 43.50 43.63 44.68 44.68 45.18 46.33 44.70 45.95 49.86
46.65 46.92 46.85 46.99 47.33 47.13 46.02 44.65 44.90 46.39 40.53 34.47 37.11 43.17 45.91 47.69 47.90 46.81 46.91 44.35 42.82 42.72 39.41 38.37 36.95 40.75 39.74 40.55 40.72 38.58 42.27 39.09 38.68 37.81 41.74 41.63 43.07 44.91 43.56 43.07 43.96 43.04 43.01 44.10
46.69 46.78 47.04 47.15 47.18 46.92 43.30 34.82 43.55 47.22 47.04 39.32 34.14 43.47 43.32 45.66 46.50 45.16 44.79 44.37 43.10 42.36 39.57 39.69 41.56 44.32 41.05 36.31 35.07 36.31 38.44 39.96 40.59 37.65 40.53 42.20 42.58 44.51 42.01 41.50 43.09 42.95 42.28 41.92
46.37 46.56 46.86 47.17 46.85 44.94 38.33 40.30 43.61 46.30 48.45 38.78 35.61 35.31 42.69 44.92 44.66 44.17 43.59 44.51 42.22 43.20 38.44 38.87 40.87 41.22 41.92 38.73 34.19 34.54 35.05 36.39 38.28 38.33 39.83 40.85 39.31 36.93 38.68 38.88 42.18 43.46 42.18 40.69
46.33 46.49 46.88 46.92 45.74 44.27 42.14 46.51 45.61 47.45 41.97 40.15 34.38 35.74 37.73 43.72 39.48 38.31 44.74 39.85 40.56 40.08 39.15 42.07 40.02 41.10 40.51 32.51 32.70 33.22 32.47 34.36 35.20 35.30 37.62 37.16 37.28 37.82 36.25 36.59 36.72 39.20 37.73 37.06
46.51 46.54 46.08 43.21 41.45 39.32 43.00 45.39 46.08 47.67 42.96 36.58 35.60 32.60 31.91 42.74 39.35 40.57 40.71 41.91 33.72 39.47 36.42 39.08 40.05 35.15 29.03 27.23 28.24 28.59 29.24 29.20 30.27 33.41 35.82 36.15 35.27 34.74 34.22 34.01 33.59 32.66 32.86 32.90
45.12 44.25 38.22 33.19 41.20 45.14 44.95 41.31 37.07 39.49 41.76 42.14 36.94 40.45 35.60 38.35 36.75 36.09 36.06 38.86 35.44 33.31 35.56 39.65 36.38 27.67 28.93 29.15 29.04 28.90 28.74 29.38 30.48 29.32 30.89 32.18 32.74 32.69 31.89 29.92 29.26 29.31 28.74 28.59
44.66 38.77 35.50 41.31 44.01 43.21 39.73 34.78 34.68 36.17 33.49 37.74 39.17 38.94 35.72 38.01 35.25 35.68 40.02 34.59 36.36 31.48 33.49 35.24 30.86 25.30 26.50 29.41 28.99 29.45 29.01 28.88 28.63 28.41 29.30 29.99 30.07 30.01 30.13 28.18 26.45 25.28 24.45 22.87
42.77 40.23 39.94 39.31 39.98 37.68 34.00 32.63 34.04 33.44 31.27 34.94 35.32 35.64 38.59 37.53 39.34 37.51 35.84 33.37 34.53 30.23 34.04 32.14 25.98 24.16 27.41 27.97 27.72 28.78 28.34 27.42 26.89 27.02 26.09 26.60 26.82 28.13 27.85 26.53 23.77 22.72 21.88 20.87
44.05 38.63 32.51 34.05 31.16 28.10 28.76 26.63 29.57 30.79 32.17 33.40 34.07 32.82 37.29 36.26 37.82 36.41 35.68 31.74 28.84 34.82 30.23 23.96 23.56 25.16 25.51 25.74 25.91 26.10 26.19 25.46 25.04 24.31 24.68 24.07 23.52 23.98 23.11 21.43 21.70 21.51 20.41 20.48
32.39 29.86 23.01 25.71 24.56 25.11 25.26 26.51 27.86 29.64 30.10 30.95 32.16 33.92 33.19 35.12 32.83 33.74 28.35 29.64 32.02 26.72 24.24 19.89 22.79 23.21 23.95 24.54 25.06 24.11 22.51 22.31 22.47 21.99 21.90 20.78 20.34 19.64 19.93 20.09 20.38 19.50 18.11 18.00
27.81 28.54 22.16 22.37 26.12 26.97 26.92 28.89 30.37 28.19 29.26 31.39 33.54 33.88 33.79 30.36 28.97 30.22 29.20 25.97 21.96 23.01 20.95 22.60 23.82 23.32 23.57 23.14 23.18 22.78 22.04 21.72 21.49 21.59 20.21 20.03 19.84 19.32 19.17 20.10 20.25 19.61 18.69 18.14
27.16 24.59 24.05 26.93 28.47 26.46 26.86 26.53 26.43 29.13 30.00 33.62 36.72 32.64 28.21 25.34 27.51 24.16 21.62 22.10 19.64 20.20 22.85 24.06 23.93 22.25 22.46 22.56 22.41 22.22 22.59 22.26 21.78 21.21 20.51 19.41 18.48 18.12 18.14 18.64 18.15 17.64 16.84 15.45
24.28 22.83 24.86 26.17 25.48 23.80 23.98 25.29 25.67 30.14 30.36 29.07 30.85 24.63 21.95 29.19 22.98 18.52 20.05 18.65 20.08 22.14 22.15 23.10 22.99 22.33 21.73 22.09 22.34 22.56 22.08 21.64 21.21 20.79 20.85 20.64 20.97 20.46 18.56 16.35 17.22 17.17 16.74 15.80

GFSNW_sfc_wetblb_090.txt.gz
Wetbulb
45.20 45.16 45.77 46.10 46.23 46.29 43.09 39.94 32.32 46.75 50.16 35.69 36.96 31.95 34.32 37.75 37.46 40.06 36.81 38.68 37.53 35.55 36.48 36.27 37.01 36.77 40.79 44.55 43.95 39.53 42.57 40.33 35.09 37.93 43.52 44.45 42.60 38.24 37.86 32.44 33.44 38.07 36.13 35.35
45.51 45.36 45.54 45.87 45.92 46.06 42.48 35.97 36.45 46.73 47.45 30.47 31.21 35.10 34.67 36.70 35.79 36.91 36.74 36.15 38.33 38.55 35.53 32.99 36.79 38.36 43.47 43.43 41.85 38.25 39.44 37.33 31.88 34.92 39.75 42.97 40.67 42.22 41.71 40.80 39.75 35.33 32.66 36.88
45.05 45.31 45.43 45.71 45.91 46.03 43.85 37.27 31.23 37.30 41.42 39.53 34.81 33.01 32.80 32.71 38.19 37.01 37.75 37.73 39.86 37.24 35.15 37.67 35.37 37.44 41.35 43.43 42.24 42.08 41.42 36.33 33.57 29.65 33.70 38.38 36.46 40.51 41.70 41.00 35.98 36.83 37.33 39.40
45.22 45.36 45.68 45.65 46.07 46.00 44.03 37.69 33.46 37.12 31.55 34.02 34.58 35.40 34.52 32.43 32.68 37.62 38.60 36.17 36.87 36.26 32.51 34.32 34.35 37.83 39.37 41.62 42.59 41.94 39.93 32.61 35.27 36.18 37.18 37.73 37.11 37.55 40.09 39.44 40.14 36.46 39.21 40.04
46.01 45.90 46.37 46.46 46.23 46.27 40.04 32.89 33.05 36.55 34.37 36.01 34.79 34.36 32.90 32.73 34.02 35.26 34.50 34.27 37.32 37.55 33.94 35.75 34.12 37.07 38.04 37.47 40.74 40.00 41.35 34.44 36.49 34.16 37.73 37.95 36.00 37.77 38.67 39.72 40.42 40.26 40.74 40.69
46.39 46.22 46.71 46.66 46.52 45.18 38.70 40.05 40.10 36.59 33.45 33.70 32.82 33.20 34.43 34.56 36.35 37.19 37.41 37.15 36.98 35.98 38.26 40.92 41.79 41.23 41.32 40.57 38.27 37.29 37.11 35.57 33.59 29.18 35.87 35.73 31.62 37.28 38.29 38.81 41.35 41.23 38.00 43.18
46.74 46.58 46.44 46.46 46.65 45.39 41.79 41.18 38.63 33.82 29.04 32.23 32.30 34.63 36.11 35.60 36.94 35.05 38.35 38.26 36.94 40.76 45.17 44.63 43.11 41.69 40.66 40.28 39.67 40.65 35.89 35.01 34.41 29.88 32.45 23.55 36.40 42.28 44.03 41.49 42.95 44.22 43.89 44.74
46.94 46.93 46.79 46.53 46.58 46.69 42.05 42.46 39.09 36.34 30.34 32.53 33.81 35.09 36.02 37.86 38.66 37.57 38.07 40.45 42.47 45.09 42.08 36.15 32.68 33.34 34.68 36.49 39.26 38.98 39.82 35.68 31.37 28.18 28.60 32.98 36.48 39.69 40.72 39.76 39.30 43.80 43.78 45.50
46.68 46.74 46.90 46.66 46.69 46.59 44.58 41.30 43.05 39.93 33.58 31.30 36.00 35.04 36.74 34.20 35.49 36.61 39.04 43.33 45.17 43.84 36.97 33.75 27.19 26.67 31.68 32.34 35.43 40.34 39.48 38.68 33.51 31.49 25.88 24.14 37.47 42.91 46.37 45.06 35.69 44.49 43.01 43.34
46.28 46.51 46.46 46.60 46.79 46.55 45.15 42.77 43.64 39.47 33.88 37.70 38.41 35.28 35.42 39.67 37.95 35.80 38.62 39.38 39.41 42.21 35.26 30.51 28.70 28.69 36.00 30.59 31.77 32.34 33.59 33.93 30.37 30.60 28.07 32.89 41.25 42.87 44.02 34.18 35.46 44.51 45.87 44.21
45.93 46.31 46.33 46.26 46.40 46.52 45.87 42.99 44.34 39.17 33.88 37.99 40.82 41.69 38.99 39.98 39.45 35.48 38.59 37.30 36.52 34.80 32.03 31.46 31.64 31.95 34.21 34.38 36.34 34.46 32.09 31.12 30.49 32.00 28.51 25.95 44.87 43.83 37.72 41.27 45.45 45.47 45.67 45.14
45.98 45.98 46.14 46.30 46.37 46.35 46.40 40.98 44.77 45.31 36.95 37.31 42.36 44.86 46.46 44.89 43.77 40.66 40.31 39.25 37.63 38.69 34.66 35.89 36.61 33.90 37.35 35.09 29.89 40.06 32.63 36.71 34.45 34.48 34.50 43.31 42.49 43.46 44.78 45.30 43.49 43.19 43.72 45.10
46.51 46.10 46.28 46.44 46.56 46.38 45.84 42.80 45.33 40.94 35.63 36.83 38.23 38.86 45.54 48.99 48.74 48.78 38.09 40.26 42.89 41.62 44.39 40.29 38.61 33.90 37.89 32.17 33.65 35.71 39.81 43.04 37.98 36.29 40.34 42.45 42.97 44.67 44.44 45.03 43.92 43.15 43.91 44.66
46.76 46.65 46.39 46.55 46.42 46.47 45.98 41.98 44.12 41.86 38.61 32.77 36.31 46.91 43.70 47.91 48.27 48.12 47.67 45.69 45.71 45.17 44.31 39.07 37.99 35.98 41.37 35.98 37.14 36.37 39.16 40.45 39.10 38.24 41.05 42.56 42.68 42.70 42.19 42.61 43.79 42.87 43.74 43.46
46.85 47.06 46.90 46.76 46.92 46.87 45.69 44.49 44.62 45.70 39.93 34.52 35.38 43.66 46.22 47.08 46.76 45.50 46.88 45.60 43.48 42.22 38.34 37.77 35.91 39.55 39.07 40.10 39.81 36.10 38.63 36.66 36.37 35.54 38.72 40.04 39.83 39.87 40.96 40.68 41.03 42.21 41.51 41.11
46.37 46.89 46.94 46.90 46.88 46.67 43.28 33.70 43.16 46.87 46.32 38.29 33.17 43.13 43.03 45.23 45.60 44.87 44.77 44.45 43.68 42.11 38.80 38.88 40.46 43.50 40.41 35.19 33.32 35.41 36.89 38.80 38.43 35.84 39.28 40.17 39.95 40.19 39.90 38.73 39.69 41.94 41.09 39.80
46.07 46.53 46.65 46.74 46.65 45.50 37.90 38.26 42.58 45.78 47.52 38.30 33.99 35.17 42.56 44.56 44.47 44.48 43.61 44.58 42.66 40.24 38.55 38.30 39.07 40.37 41.11 36.54 32.87 33.42 33.46 36.52 36.54 37.87 39.00 37.50 37.48 36.08 38.60 38.35 38.65 41.60 40.00 38.24
46.22 46.56 46.74 46.74 46.64 43.54 40.73 47.34 45.54 46.35 42.77 40.60 33.61 34.16 37.82 44.33 39.91 38.61 43.66 39.93 40.85 40.12 38.23 39.98 38.50 40.38 38.82 30.72 31.42 31.37 31.20 33.80 34.65 34.65 37.22 37.56 38.53 38.40 37.18 37.16 36.47 36.55 34.19 33.60
46.55 46.76 46.55 42.20 40.76 37.30 41.94 45.74 45.83 48.37 42.71 34.80 35.98 32.37 31.53 42.65 39.70 41.09 40.41 40.39 32.80 39.64 35.41 37.38 39.43 35.81 26.74 27.42 27.95 28.09 28.89 28.90 29.84 32.76 36.36 35.66 35.43 34.62 34.52 32.96 32.10 31.35 30.20 29.40
44.55 42.96 37.76 32.07 41.26 45.35 45.15 41.37 37.05 37.81 39.20 40.39 35.67 39.37 34.38 39.09 36.78 35.70 36.36 37.59 33.32 31.84 35.67 40.86 34.66 25.64 28.70 29.53 29.54 29.18 28.67 29.05 29.29 27.39 27.55 28.71 29.06 29.79 30.57 29.07 28.78 27.47 26.83 26.21
43.97 37.80 35.65 41.78 45.38 42.99 38.91 33.69 34.50 35.30 32.71 37.92 37.98 38.31 35.00 39.96 34.65 33.82 39.22 34.08 35.30 29.89 33.88 34.25 30.84 24.66 26.57 30.07 29.27 29.19 28.55 28.10 27.72 27.61 27.38 27.45 27.64 27.60 28.12 26.81 25.55 24.59 23.77 22.20
42.13 39.98 41.50 41.81 39.54 37.17 33.38 31.79 34.38 33.59 31.55 36.83 35.49 37.02 38.88 37.98 38.20 36.92 36.47 33.14 34.56 28.59 35.76 33.32 24.74 24.37 27.11 27.42 27.13 27.14 26.68 26.13 25.70 25.99 24.97 24.68 24.50 25.73 24.73 23.78 22.33 21.78 21.17 20.86
44.50 39.38 34.52 35.29 33.27 29.64 28.86 25.71 29.47 30.30 33.03 34.08 34.37 33.62 37.50 37.50 36.15 33.87 35.38 30.79 30.52 35.57 31.23 22.99 22.43 23.83 25.09 25.09 25.70 25.14 24.99 24.46 23.69 22.89 23.00 21.88 20.85 21.17 21.57 20.31 21.23 21.13 20.49 20.87
34.41 31.76 24.08 27.92 25.66 25.37 25.32 26.28 27.61 29.28 31.22 32.10 32.83 33.88 34.74 33.99 32.98 32.61 29.18 31.01 32.96 27.86 24.66 18.97 21.75 23.11 23.66 24.31 24.65 23.60 21.69 21.96 21.67 21.10 20.53 19.45 19.22 18.94 19.35 19.12 19.01 17.81 16.32 16.90
28.78 29.33 23.23 23.62 27.32 27.77 28.59 30.76 30.49 29.52 30.55 31.33 32.57 34.06 34.66 31.83 29.37 31.30 29.37 26.45 22.58 21.86 19.43 20.69 22.51 23.37 23.22 22.48 22.81 22.42 21.57 21.18 20.43 20.23 19.12 18.84 18.17 17.57 17.38 18.66 19.20 18.79 17.78 17.22
27.38 25.03 25.79 27.66 28.56 26.13 25.96 26.24 26.64 30.52 30.28 31.04 32.58 31.45 28.38 26.35 28.34 24.76 22.30 24.08 18.76 19.76 22.13 23.75 23.17 21.53 22.08 21.81 21.78 21.75 21.94 21.56 20.51 19.93 19.19 18.64 17.75 17.01 16.87 17.38 17.24 16.88 16.43 15.21
25.41 23.32 26.29 28.11 26.78 24.87 25.14 26.78 26.68 30.83 30.21 29.14 30.76 25.07 23.53 29.25 23.08 18.37 20.56 18.68 20.45 21.89 22.07 22.74 22.71 22.08 21.38 21.84 22.51 22.02 21.67 20.75 20.37 20.23 20.25 19.77 20.07 19.45 17.75 15.75 16.48 16.63 16.26 15.80

GFSNW_sfc_wetblb_093.txt.gz
Wetbulb
45.43 45.41 45.22 45.30 45.51 45.62 42.36 35.41 27.37 40.52 43.80 30.97 31.17 27.36 31.79 35.86 34.08 37.46 35.22 36.18 34.68 34.74 33.96 32.46 33.54 33.51 38.01 42.43 41.43 37.24 37.93 37.65 32.36 36.04 42.46 43.02 39.08 36.61 36.23 29.69 29.28 32.62 32.19 32.47
45.44 45.35 45.54 45.04 45.08 45.13 38.84 33.01 30.84 40.58 43.25 22.15 26.38 32.07 32.67 34.64 33.35 33.77 34.66 34.13 35.97 37.02 32.39 29.48 32.98 35.34 42.39 42.75 40.54 35.90 37.20 32.99 29.05 31.63 37.26 41.16 38.34 39.08 38.70 36.95 35.41 30.92 27.81 31.63
45.06 45.17 45.26 45.46 45.59 45.15 41.38 34.05 23.13 30.94 36.68 35.93 32.51 30.83 30.61 30.23 36.49 34.54 35.53 35.29 36.69 34.35 33.26 35.13 32.46 33.68 39.92 42.12 40.27 42.22 40.04 33.75 30.60 26.62 30.83 34.89 32.48 36.04 38.85 37.97 31.38 31.40 32.36 35.14
45.44 45.52 45.47 45.80 45.91 45.68 39.06 32.01 28.85 34.07 25.22 29.02 32.45 32.42 32.13 30.54 30.65 36.11 36.12 34.07 34.08 33.05 30.50 32.57 31.42 36.04 38.02 40.38 41.99 40.63 37.95 30.10 33.29 34.42 35.81 36.18 35.02 34.85 35.68 34.44 37.67 33.43 35.83 37.35
46.19 46.32 46.02 46.30 46.23 45.73 38.11 30.81 30.11 33.96 31.61 33.35 33.03 32.35 29.38 30.34 32.45 33.45 32.47 32.44 34.55 34.66 31.30 33.45 31.61 34.80 35.51 35.65 39.14 38.25 40.62 32.62 35.01 32.72 36.50 36.58 34.39 36.64 36.50 36.42 36.74 37.04 38.25 36.92
46.47 46.78 46.35 46.58 46.55 44.80 37.08 37.47 37.50 33.89 30.67 31.01 29.98 30.00 32.02 32.50 34.28 35.06 36.48 35.25 33.86 33.01 35.37 37.83 38.55 38.37 38.61 38.23 36.39 34.79 35.46 33.57 30.09 27.89 34.35 33.21 28.52 34.12 36.38 37.46 38.80 37.69 33.58 40.03
46.57 46.98 46.83 46.51 46.74 45.72 40.28 38.63 36.33 31.40 25.09 28.33 28.39 31.00 32.58 33.00 33.97 32.84 36.58 37.55 34.28 38.31 43.77 41.76 40.09 38.82 38.69 38.62 38.44 39.06 34.17 33.20 31.15 27.42 29.60 19.41 34.26 40.32 40.44 40.52 40.65 41.44 42.03 42.73
46.93 46.86 46.88 46.96 46.41 46.70 41.25 41.31 37.63 32.85 25.93 29.74 30.52 31.55 32.62 34.79 35.70 34.59 35.89 38.39 40.39 42.57 40.03 33.52 29.66 29.12 31.06 34.53 37.16 36.53 37.72 33.39 26.38 25.01 24.84 30.46 34.61 39.70 39.05 37.15 37.63 41.86 40.72 41.68
46.55 46.61 46.86 46.99 46.88 46.78 43.75 40.78 42.22 37.82 30.91 28.33 34.12 32.03 32.71 31.36 30.80 31.97 35.60 41.12 42.05 41.61 35.06 28.51 23.81 22.85 29.82 29.78 33.26 38.49 37.14 35.70 29.55 26.48 24.50 20.34 35.49 40.13 43.85 42.67 33.07 42.92 43.27 42.40
46.64 46.37 46.58 46.79 46.93 46.54 43.36 40.81 42.91 38.27 32.15 34.52 35.44 30.33 30.22 35.45 33.85 31.53 34.29 36.68 36.80 38.81 32.67 25.39 24.41 24.21 33.10 27.30 30.31 29.70 30.49 30.74 26.79 26.17 26.14 29.78 39.82 41.52 44.23 33.07 33.07 42.01 43.01 43.33
47.26 46.82 46.39 46.65 46.74 46.65 43.53 40.88 42.61 37.86 32.69 35.09 39.14 39.29 35.69 35.09 34.59 30.84 34.74 33.93 35.55 33.83 27.53 26.10 25.63 24.35 30.87 31.77 34.21 32.62 29.70 29.17 26.66 26.93 26.38 23.20 41.09 41.16 36.30 37.98 41.69 40.58 40.89 42.69
47.16 46.82 46.25 46.57 46.69 46.44 45.20 39.79 43.10 42.86 36.63 35.99 39.91 40.08 41.37 41.21 41.42 38.85 37.34 36.51 35.75 34.69 29.84 30.06 30.29 26.17 28.82 32.25 25.95 37.66 29.27 33.32 28.71 30.88 30.08 39.61 41.84 40.34 42.82 42.25 39.05 39.14 39.93 42.07
46.83 47.05 46.55 46.37 46.62 46.39 44.80 39.81 42.56 40.58 35.17 34.56 34.15 34.45 40.06 43.45 44.95 46.37 35.86 36.69 39.82 38.31 39.28 34.54 33.33 27.52 33.77 27.27 29.27 32.56 38.04 40.64 36.13 34.00 39.04 40.57 41.13 41.93 42.11 41.88 40.77 40.41 40.92 41.79
46.80 46.78 46.78 46.27 46.39 46.33 45.39 40.57 43.00 40.75 36.86 27.97 31.23 42.38 38.99 43.21 44.33 46.23 44.33 42.16 43.02 41.57 39.37 34.10 32.14 32.43 38.28 33.97 35.94 32.81 37.48 38.29 38.05 37.40 39.47 39.21 38.49 38.70 39.29 39.74 41.29 40.71 40.63 39.85
46.41 46.94 46.87 46.67 46.64 46.46 44.93 43.27 43.05 42.89 35.59 29.27 32.10 39.00 41.77 44.11 42.62 42.51 43.72 42.36 40.29 37.14 33.96 32.97 33.03 37.29 36.95 37.65 36.64 32.87 36.77 33.54 32.82 31.03 34.53 37.46 35.79 37.43 38.89 37.67 37.25 39.45 38.03 36.94
45.84 46.28 47.12 46.98 46.57 45.98 42.97 33.81 42.79 44.16 41.67 35.17 29.77 40.13 40.18 42.38 42.51 41.51 40.45 41.56 39.76 39.40 37.40 34.11 38.40 40.92 38.35 33.37 30.68 32.88 34.81 36.36 35.28 32.46 36.72 37.08 38.10 37.60 37.48 36.79 36.89 37.88 36.04 34.53
45.89 46.07 46.82 46.92 46.51 44.41 37.12 36.12 40.44 44.84 43.89 36.41 30.04 32.72 39.74 42.65 41.77 39.74 39.17 40.69 40.27 40.32 37.34 35.44 37.36 37.47 38.78 33.00 29.04 31.01 32.40 33.90 33.62 34.25 35.96 35.19 36.26 33.80 35.09 35.04 36.31 36.26 34.36 31.76
46.19 46.18 46.75 46.80 46.64 43.96 39.68 43.44 45.20 44.39 40.62 38.47 30.46 31.37 36.24 41.48 36.69 36.88 40.12 38.91 39.84 38.34 36.53 37.70 36.86 38.22 37.24 26.84 28.29 29.16 30.01 31.87 30.59 31.31 34.71 34.56 35.93 35.53 32.97 32.63 33.07 31.53 29.39 28.55
46.28 46.51 46.58 41.37 40.43 36.57 40.15 45.63 45.43 44.78 40.26 31.45 29.05 26.69 30.22 40.24 36.58 37.80 38.58 38.86 31.58 37.29 32.23 34.36 36.20 31.21 23.48 26.74 27.16 27.20 27.32 26.84 27.07 29.84 30.15 30.55 30.31 30.75 31.13 29.48 28.27 27.40 26.37 25.52
44.81 42.23 36.69 32.00 39.63 45.63 44.73 40.51 34.94 37.36 37.25 36.83 32.71 35.96 32.35 38.13 35.79 34.31 34.26 35.02 32.48 30.38 32.49 37.70 28.01 22.77 28.27 28.44 27.96 27.47 27.03 26.98 27.21 24.62 23.92 25.34 25.79 27.39 27.21 25.99 25.85 25.28 23.92 22.97
41.87 37.03 34.34 42.12 45.44 40.71 36.78 31.37 31.66 32.46 29.96 31.51 33.32 35.20 32.33 36.94 32.32 31.35 32.70 31.72 31.99 25.02 29.82 31.33 27.46 22.78 25.91 27.75 25.91 26.07 26.14 26.37 25.51 25.60 24.99 24.42 24.72 25.23 24.26 22.60 22.50 21.94 21.22 20.47
41.00 39.96 41.74 41.77 38.24 35.26 31.16 27.12 29.73 28.09 26.46 32.21 28.89 32.05 35.94 34.70 37.79 33.19 33.04 30.52 31.03 24.31 34.44 29.91 18.54 21.93 24.13 25.01 23.89 23.40 23.93 23.88 23.06 22.95 21.45 20.66 21.12 22.23 21.12 20.46 20.14 19.92 20.11 19.03
42.46 37.97 33.62 33.52 29.70 25.84 22.82 22.77 24.63 27.93 31.32 32.92 33.13 32.29 33.77 33.43 33.96 32.29 32.69 28.15 27.58 29.49 25.50 17.24 18.02 21.85 22.75 22.73 23.19 21.93 22.55 22.43 21.26 19.90 19.97 19.06 18.33 18.30 18.55 15.86 16.20 15.49 15.31 16.10
31.55 27.37 15.79 21.28 23.06 22.40 23.05 24.94 26.29 28.01 29.41 30.09 32.11 32.32 31.68 32.69 30.32 31.40 27.61 28.65 27.84 24.41 18.02 11.76 18.86 20.63 21.44 21.99 22.61 20.86 19.79 20.16 19.29 16.92 15.20 16.23 16.36 15.23 15.53 15.35 14.60 14.08 13.44 14.25
26.15 26.04 19.70 19.81 23.99 26.23 25.67 28.65 28.66 28.47 30.02 30.18 31.35 32.36 32.88 28.91 24.74 29.32 26.08 22.87 16.31 16.80 11.60 16.55 19.66 20.64 20.50 19.48 21.12 19.55 18.58 15.67 15.26 12.01 13.66 12.24 13.29 13.69 13.67 14.01 13.92 13.48 12.84 12.18
25.94 23.96 23.36 24.83 23.85 21.44 21.46 22.42 22.55 29.11 28.57 30.25 30.43 29.69 25.35 22.92 24.12 20.39 14.38 19.63 11.86 14.37 18.42 19.38 18.54 17.54 18.24 16.51 18.70 17.28 18.64 14.72 14.53 14.79 14.56 13.46 11.50 12.15 12.44 13.07 13.48 14.08 13.21 11.41
24.81 21.66 24.74 25.35 24.25 21.79 22.21 25.26 25.67 29.96 28.78 27.51 28.41 23.87 23.18 27.19 21.04 16.58 19.06 14.13 16.41 17.34 18.43 19.58 18.88 17.28 16.19 18.61 18.52 16.48 15.96 15.18 16.66 17.18 17.77 16.40 15.86 15.12 14.14 12.26 13.00 13.83 13.88 12.64

GFSNW_sfc_wetblb_096.txt.gz
Wetbulb
45.26 45.48 45.45 45.34 45.12 44.84 43.15 34.78 21.00 36.57 41.23 29.48 32.13 22.14 30.53 34.80 32.82 35.59 33.87 34.89 33.14 32.35 34.65 31.56 31.60 32.23 35.56 40.25 39.66 35.77 37.52 36.17 31.78 34.51 41.09 42.15 37.97 35.08 35.53 28.94 28.70 30.72 28.85 31.25
45.32 45.31 45.11 45.11 44.79 44.69 40.24 32.07 28.61 37.21 42.32 24.86 25.03 29.98 31.70 32.95 32.02 32.70 32.70 32.75 35.20 35.56 32.19 30.24 32.49 34.58 38.50 39.73 38.64 36.69 37.28 32.82 28.74 30.85 36.96 38.70 35.84 37.43 37.20 38.00 33.16 28.69 24.28 30.09
45.52 45.45 45.38 45.18 45.07 44.73 40.55 33.63 23.70 28.34 33.97 35.81 31.35 28.02 27.87 28.38 35.43 33.42 34.14 33.01 35.18 33.81 31.13 34.22 31.15 32.46 36.49 39.55 38.83 42.68 40.05 32.79 29.13 26.00 28.41 33.46 32.28 34.26 35.68 34.21 29.28 29.30 30.10 33.94
45.56 45.58 45.68 45.52 45.45 45.17 40.96 31.65 23.53 29.40 27.48 27.38 31.61 30.91 31.32 28.76 28.75 34.65 34.88 31.82 32.87 31.77 28.83 30.20 30.83 33.78 35.37 38.42 40.32 40.78 37.68 28.83 32.85 33.94 34.72 34.61 34.29 33.23 34.45 33.31 33.55 30.59 35.24 36.14
46.37 46.61 46.36 46.31 45.95 45.24 38.36 27.65 24.07 30.22 29.75 32.19 31.11 30.49 29.56 28.20 29.83 31.83 30.80 30.59 33.21 33.16 30.01 31.70 29.70 33.61 34.20 35.08 38.04 36.38 38.89 31.14 33.16 31.19 34.89 34.73 33.04 35.16 35.26 36.01 36.23 35.75 37.37 36.51
46.68 46.59 46.63 46.59 46.40 43.84 36.83 35.65 35.30 32.08 29.66 29.24 27.31 28.32 30.47 30.57 32.37 33.52 35.06 33.93 32.85 32.38 33.71 37.34 38.40 38.68 38.47 38.12 35.59 32.76 33.31 31.59 28.27 26.80 32.30 32.21 27.95 33.30 35.15 36.22 38.89 38.33 33.28 39.78
46.45 46.86 46.88 46.76 46.57 44.86 37.79 36.50 33.64 28.67 24.08 26.78 26.98 29.14 30.45 29.56 30.95 31.30 35.03 35.74 33.78 37.57 42.05 40.78 39.21 38.66 38.30 37.97 37.24 37.32 31.96 31.29 29.41 27.11 27.38 18.10 33.70 40.90 41.48 38.76 39.51 40.17 39.64 40.49
46.53 46.75 46.81 46.92 46.92 46.52 40.13 37.77 34.85 31.17 22.98 27.49 28.33 29.59 30.36 31.95 33.54 32.16 33.14 35.86 38.66 40.92 38.13 32.48 29.47 28.68 29.87 32.65 35.86 35.59 35.87 31.67 26.81 23.84 22.62 28.86 33.86 37.85 38.28 37.01 36.32 41.84 39.64 41.79
46.57 46.50 46.59 46.96 47.01 46.89 43.14 40.40 39.15 35.01 29.20 27.28 32.11 29.70 31.66 27.48 27.55 29.91 33.08 39.48 41.30 40.06 32.27 30.19 24.83 22.73 27.58 28.16 31.85 36.24 35.12 33.90 28.77 26.07 23.68 20.39 34.06 40.25 42.46 42.03 33.56 39.96 40.69 40.65
46.77 46.98 46.91 46.78 47.03 46.99 44.54 40.58 41.68 37.83 31.41 33.44 33.79 28.85 29.41 32.82 31.75 29.48 31.98 33.30 34.35 37.27 30.06 27.39 24.17 23.53 31.31 24.94 28.15 28.49 28.51 28.58 26.45 26.16 24.34 28.96 38.65 41.07 42.47 28.44 31.62 39.34 39.92 41.51
46.54 47.05 47.28 46.64 46.87 46.88 43.95 40.71 42.50 37.18 32.90 34.19 37.02 36.64 32.92 33.28 32.94 29.20 32.68 31.83 33.16 33.79 30.31 27.30 25.05 22.83 28.27 29.91 33.35 32.18 29.37 27.38 26.40 27.43 24.57 22.57 40.17 40.08 33.71 36.68 40.43 40.02 39.72 41.33
46.27 46.91 47.08 46.98 46.73 46.71 44.61 39.21 42.43 43.03 36.67 35.90 38.73 38.61 39.34 38.95 38.58 35.78 37.97 35.03 35.29 35.11 29.86 28.67 28.49 24.83 28.01 31.68 26.79 36.16 29.81 32.68 29.18 30.59 29.15 39.87 40.01 38.59 40.83 40.39 38.03 37.70 37.94 39.15
46.22 46.89 47.00 46.94 46.75 46.59 44.97 40.81 41.58 39.93 35.92 35.05 34.99 33.41 38.69 41.74 41.05 43.05 32.98 36.60 38.43 37.61 38.49 34.35 31.44 26.17 31.63 27.79 30.58 33.12 37.72 39.95 33.89 34.56 38.39 38.73 38.98 39.79 39.69 40.07 38.11 38.22 37.53 37.27
46.37 46.80 46.95 46.87 46.76 46.46 45.07 40.56 42.57 40.08 36.74 30.68 28.99 39.37 36.61 41.03 40.86 43.28 42.60 39.55 42.35 41.50 40.55 33.88 29.49 28.36 35.57 32.07 35.47 33.91 35.74 36.58 34.84 35.57 35.95 36.43 35.69 36.77 37.61 37.09 38.30 37.45 35.80 35.21
46.36 46.48 46.91 47.21 46.87 46.21 44.57 42.37 42.74 42.25 36.45 28.70 31.18 37.30 40.02 41.34 39.94 40.28 42.87 41.86 39.98 38.87 35.45 28.56 28.78 34.28 34.39 34.49 35.81 31.42 35.56 32.72 30.30 28.61 33.49 36.00 33.76 35.26 36.96 35.10 35.80 35.00 34.12 32.27
45.93 46.41 46.68 46.96 46.84 45.67 41.93 35.30 41.81 43.32 40.64 35.34 24.95 36.50 37.21 39.06 40.22 40.46 40.87 41.00 40.15 40.01 34.98 30.87 34.76 39.27 36.22 31.80 29.46 32.21 33.19 33.94 35.04 31.68 34.31 35.28 35.21 34.99 34.61 34.56 32.77 31.57 30.04 29.81
45.70 45.97 46.39 46.84 46.50 42.90 36.90 34.50 39.02 43.80 42.82 35.23 29.18 27.98 36.05 40.26 40.30 38.32 38.11 39.62 36.97 38.92 36.92 33.79 36.02 36.94 37.56 32.18 26.41 29.15 31.64 32.68 33.23 33.06 34.98 33.82 33.14 29.91 31.77 32.84 32.51 31.67 28.66 27.14
45.77 46.21 46.27 46.55 46.21 43.59 39.44 43.02 44.93 43.86 39.87 38.18 29.10 29.52 33.79 40.94 35.18 36.28 40.94 37.49 37.99 38.51 35.94 37.55 36.04 37.69 35.54 23.90 27.39 28.60 29.59 31.56 29.54 30.31 31.78 32.04 32.95 31.56 29.50 30.42 30.46 27.85 25.80 24.86
46.39 46.25 46.43 42.47 38.23 35.68 39.43 45.41 45.02 44.17 39.65 30.75 30.63 25.91 27.93 38.21 36.89 38.51 38.11 38.28 31.79 36.40 33.34 33.76 36.02 28.26 21.25 25.59 25.96 25.72 26.66 26.23 25.60 28.24 28.39 28.90 28.44 29.26 28.23 27.17 26.37 24.95 23.87 23.87
45.57 41.84 35.54 31.86 38.98 45.33 44.70 38.20 34.70 35.31 37.59 37.41 31.46 34.70 30.53 35.96 35.20 33.70 33.79 34.37 32.13 29.54 32.75 35.58 26.73 22.81 26.47 26.36 25.98 25.77 25.79 25.05 25.39 23.87 23.12 23.92 24.52 25.78 23.75 22.84 22.99 23.02 22.00 21.76
40.94 36.19 34.38 41.69 44.65 39.49 34.61 30.31 31.17 32.27 28.99 29.84 31.44 34.43 32.71 37.20 31.63 31.97 32.62 31.41 31.77 26.62 29.24 31.29 24.34 21.00 23.28 24.49 23.65 24.73 24.86 24.30 22.98 22.69 21.83 22.34 23.34 23.22 22.27 20.91 20.69 20.48 20.62 19.53
40.43 40.46 42.28 41.43 36.60 33.61 30.65 28.01 30.26 26.43 25.36 31.73 27.05 31.73 35.37 34.98 36.10 32.93 33.37 27.32 30.14 21.68 33.20 26.26 15.06 20.39 24.02 22.65 22.15 22.65 22.78 22.02 20.76 20.77 18.98 19.42 21.04 21.08 20.50 19.82 19.32 19.05 18.64 17.08
41.04 36.67 32.89 32.40 29.11 24.60 18.52 23.85 26.86 27.16 29.69 32.48 33.25 32.15 30.94 32.81 34.15 32.00 31.83 27.53 24.83 32.29 21.77 15.57 16.37 20.90 21.99 21.67 21.10 20.90 21.54 20.45 19.37 18.49 18.52 17.68 16.59 16.21 15.94 13.95 14.16 13.34 12.02 12.39
31.40 25.85 14.07 18.27 19.25 17.26 19.04 23.21 22.91 25.63 28.70 29.86 32.15 31.77 30.49 32.28 29.72 30.14 26.96 28.50 29.07 22.78 14.97 8.30 16.84 19.43 20.77 21.08 20.78 19.13 17.72 17.73 16.14 13.13 12.81 13.02 12.79 11.75 12.57 12.06 12.07 11.07 10.58 11.13
25.15 24.07 15.49 16.74 20.96 21.67 22.40 26.02 26.03 28.19 29.92 30.03 32.10 31.86 31.65 26.65 20.74 26.24 27.43 20.69 13.93 14.20 8.51 12.85 17.90 19.28 19.45 19.36 19.47 18.12 16.54 10.86 11.06 8.01 9.89 8.01 8.58 11.10 11.15 12.38 11.94 11.50 10.30 10.49
24.40 21.87 21.07 23.26 17.59 16.65 18.49 20.93 20.96 28.08 27.70 29.00 30.04 22.49 19.78 16.78 16.79 14.90 10.80 15.53 7.64 8.50 12.17 16.42 17.85 14.15 14.97 15.70 17.67 14.34 12.04 11.16 10.46 10.43 11.35 10.60 9.37 9.89 10.83 12.07 12.42 11.58 10.65 8.09
22.20 18.52 22.40 22.91 20.73 18.79 17.70 20.45 22.80 27.54 26.80 23.53 25.84 18.40 18.18 24.05 14.80 12.03 15.55 8.35 10.36 15.24 16.76 16.32 14.36 15.86 15.92 14.40 14.50 14.53 14.97 12.85 11.91 11.77 12.17 12.70 14.08 13.18 12.92 10.54 11.37 12.41 11.76 10.55

GFSNW_sfc_wetblb_099.txt.gz
Wetbulb
45.09 45.35 45.60 45.47 45.20 45.04 41.16 33.35 21.19 37.11 40.07 25.84 26.69 17.78 28.78 33.64 31.77 33.85 32.37 33.25 32.14 32.11 31.66 29.77 30.92 33.46 36.05 39.06 39.29 34.86 36.25 33.95 27.43 31.47 39.07 40.24 34.29 32.83 34.09 27.62 26.71 28.43 27.14 28.46
45.37 45.36 45.65 45.22 44.86 44.14 39.27 32.31 30.57 36.13 38.53 25.66 24.93 29.02 30.39 31.66 30.52 31.43 31.47 30.95 33.83 34.91 31.04 26.54 32.48 32.95 38.10 38.73 37.21 35.69 35.98 31.53 26.65 28.56 34.46 37.01 35.41 36.23 34.76 34.95 30.89 27.15 24.76 28.28
45.76 45.74 45.81 45.63 45.19 44.89 39.88 31.84 24.15 27.66 31.93 34.29 29.97 27.85 26.83 26.74 33.78 32.92 32.95 32.05 32.77 30.60 30.51 32.71 29.66 32.21 36.54 38.64 38.69 40.57 39.14 32.94 29.37 25.74 27.28 34.32 30.28 34.61 34.81 32.57 27.97 27.42 29.14 32.70
45.77 46.15 46.07 45.91 45.56 44.94 39.11 33.27 22.86 27.09 24.36 29.24 30.22 30.58 29.12 27.22 27.12 33.32 34.89 30.57 30.53 29.27 26.68 30.11 28.97 33.93 35.74 37.79 39.51 39.87 38.41 29.39 32.56 34.16 34.64 33.85 33.20 33.33 34.32 31.43 32.32 28.18 32.67 34.32
46.16 46.57 46.71 46.28 46.15 45.18 36.36 25.49 23.45 28.08 26.80 29.27 28.36 29.44 28.55 28.15 30.71 30.43 29.96 29.75 32.01 32.43 29.63 30.87 27.98 32.73 33.26 32.79 38.04 35.96 38.91 31.23 32.96 30.30 32.54 32.18 30.77 33.81 33.81 33.74 35.08 34.56 34.16 34.79
46.26 46.61 46.91 46.98 46.63 43.38 36.32 35.18 31.88 29.28 27.18 26.76 25.59 27.88 29.51 29.74 30.72 31.18 33.97 32.93 32.19 30.73 32.70 35.45 36.65 37.66 37.53 37.25 34.27 33.55 33.50 31.94 27.99 25.65 30.53 29.58 26.89 31.55 33.32 36.60 37.63 37.91 33.84 38.25
45.95 46.45 47.02 46.85 46.93 44.92 35.63 37.40 31.20 26.31 22.34 26.40 26.45 28.60 29.83 28.97 30.18 28.45 32.18 34.11 32.97 36.35 41.00 39.47 38.85 37.51 37.25 37.53 36.47 37.55 32.06 30.96 28.26 25.15 26.49 16.26 32.12 41.34 39.47 38.07 38.80 39.65 40.09 40.35
45.74 46.51 46.65 46.83 46.74 46.83 40.20 37.44 33.02 28.81 20.62 26.39 27.29 28.37 28.50 30.16 31.68 30.41 31.66 34.43 37.16 41.01 38.77 32.07 29.08 28.14 29.52 31.88 35.35 35.27 36.16 31.29 25.31 21.35 22.27 26.52 34.08 36.87 37.36 36.31 34.77 38.85 38.28 40.57
45.67 46.25 46.46 46.73 46.80 46.95 42.55 39.89 38.80 33.70 27.58 25.03 30.95 27.66 29.42 27.11 27.58 28.70 31.48 36.49 40.20 39.31 32.47 27.22 25.03 22.74 26.96 27.28 31.17 35.92 34.38 32.78 27.09 24.14 22.06 16.97 31.90 39.26 41.23 41.00 32.50 38.39 38.64 40.40
45.64 46.27 46.55 46.76 47.05 46.72 44.69 41.14 41.29 37.08 30.10 32.22 32.09 27.62 28.76 31.91 29.92 28.10 30.20 34.02 33.60 37.40 30.26 24.74 24.47 25.13 30.01 24.61 26.85 28.27 27.81 27.60 25.58 24.18 21.81 27.05 36.83 39.60 41.24 28.60 29.77 38.44 39.13 40.45
45.46 46.30 46.60 46.84 47.35 46.88 44.11 40.68 41.73 37.27 32.50 32.98 35.35 35.13 30.78 32.20 31.37 26.17 29.53 28.09 29.77 31.19 28.51 26.84 26.07 24.97 27.08 27.94 31.59 30.85 29.15 27.04 26.09 27.33 22.46 21.39 38.80 38.91 31.34 34.75 39.21 38.56 39.03 39.78
45.44 46.27 46.43 46.96 47.43 46.87 44.93 38.92 42.33 42.18 36.29 35.53 38.83 37.93 38.61 36.93 36.51 33.32 33.42 32.88 33.19 35.31 31.30 29.43 28.87 26.07 24.78 29.58 25.25 35.16 29.92 32.57 27.65 29.42 28.50 37.96 37.99 37.00 38.83 38.79 36.28 37.06 37.07 37.57
45.38 46.11 46.30 46.87 47.35 47.03 45.16 40.79 41.40 39.93 34.45 33.94 34.36 33.49 38.30 40.33 39.46 40.85 31.11 33.67 38.22 37.94 39.60 34.96 33.18 26.05 30.40 27.11 29.86 32.53 33.75 38.77 35.10 33.72 37.28 35.90 37.27 38.04 37.11 38.25 36.08 35.58 35.33 34.56
45.54 45.79 46.11 46.68 46.99 47.17 45.08 40.75 41.69 39.52 36.82 26.45 29.18 37.89 35.35 39.63 39.66 39.51 39.62 37.25 39.10 38.54 39.18 35.39 33.41 28.72 35.04 31.37 34.51 33.44 34.08 35.58 33.06 33.69 33.99 35.73 34.03 34.71 35.30 36.67 35.67 33.72 32.81 31.87
45.54 46.07 46.20 46.73 47.17 46.99 44.39 42.48 42.35 41.51 36.55 27.80 29.46 35.20 37.95 39.32 38.13 37.84 39.17 38.72 36.28 35.07 33.75 31.99 30.18 31.61 33.24 35.32 34.88 29.98 34.05 31.17 29.74 25.64 33.27 34.40 32.64 34.07 35.45 32.00 30.61 30.73 31.41 30.61
45.71 46.34 46.60 46.55 47.10 46.44 41.71 33.81 41.98 42.81 40.77 34.64 24.91 33.24 35.92 37.27 37.36 36.40 37.61 38.75 38.11 38.52 35.83 31.24 32.16 36.73 34.27 29.50 27.65 31.63 32.75 33.20 32.91 30.81 33.09 34.99 33.86 33.44 33.45 29.95 28.67 28.00 27.19 27.04
45.53 45.75 46.07 46.48 46.71 42.81 36.61 33.64 38.44 43.86 42.33 34.87 28.38 26.46 34.36 38.09 37.30 36.42 38.51 38.18 37.81 39.11 36.77 33.39 31.52 33.66 37.13 31.16 26.50 28.51 31.93 30.74 31.11 32.16 35.63 31.60 30.74 28.53 31.29 30.46 29.31 28.53 25.69 24.31
45.45 45.75 45.86 46.28 46.28 43.17 38.78 42.64 44.65 43.75 39.27 37.24 28.32 26.35 30.63 40.13 31.64 31.95 38.41 35.39 37.65 37.61 34.45 36.63 32.67 36.45 33.36 22.37 26.66 26.76 28.14 30.38 28.88 29.51 30.42 31.13 31.38 30.41 28.60 28.77 28.02 24.98 23.83 23.75
45.71 45.63 45.87 43.54 38.04 35.35 38.15 45.16 44.50 43.89 39.01 30.02 30.59 26.72 24.70 37.71 36.15 36.81 36.71 37.78 31.37 36.10 32.61 33.32 34.21 27.56 20.13 24.98 25.09 24.04 25.11 24.86 25.07 27.69 27.38 28.38 28.36 26.77 26.13 25.20 24.49 23.41 22.79 22.81
46.21 43.16 35.24 30.13 36.16 45.23 44.10 39.07 34.86 35.20 35.90 36.92 30.90 31.20 29.85 34.42 34.89 33.63 33.56 34.64 30.84 29.08 32.49 32.07 25.48 19.47 24.78 25.15 25.64 25.83 24.76 23.97 24.20 23.88 22.82 22.90 23.70 23.45 22.25 21.13 21.78 21.58 21.37 21.69
39.94 33.04 32.91 40.96 44.04 38.67 34.01 29.52 30.80 31.91 29.70 31.15 31.28 32.31 32.74 36.51 31.02 31.37 33.69 30.79 31.67 26.85 29.81 30.00 23.09 20.07 22.11 24.10 23.10 24.09 23.65 22.59 21.82 21.57 20.85 21.91 22.41 22.50 21.43 20.22 20.47 19.90 19.29 18.27
40.98 39.96 42.16 40.38 35.20 32.68 30.20 27.94 30.06 26.98 24.92 27.53 28.53 33.42 35.17 34.63 33.78 32.53 32.43 27.22 30.10 21.09 33.39 23.09 12.47 19.71 22.36 22.07 21.44 21.60 21.72 21.16 19.36 19.50 18.67 19.31 20.51 20.70 20.09 19.39 18.21 17.42 16.81 15.59
40.24 35.91 31.51 32.19 27.43 21.52 17.33 21.71 25.21 26.45 29.43 32.44 33.62 31.56 30.54 33.15 33.73 31.79 31.41 27.10 24.82 31.31 21.45 13.12 15.15 21.27 21.67 21.10 21.05 20.26 20.32 19.59 18.80 17.66 17.29 16.48 14.85 14.48 14.98 13.13 13.23 12.61 11.26 11.65
29.94 23.64 12.32 16.82 9.05 13.95 14.15 20.71 18.89 26.47 28.87 30.59 32.49 30.60 30.20 31.72 29.38 29.88 23.72 28.42 29.65 20.37 15.13 8.65 15.91 19.61 20.22 20.26 20.15 17.99 16.31 15.46 13.57 10.68 10.38 10.44 10.59 9.96 10.26 9.59 9.71 9.54 9.16 9.35
24.55 22.89 14.93 13.86 18.14 19.44 19.81 22.01 24.82 27.51 29.73 30.62 31.37 30.29 28.55 25.03 19.53 22.91 22.23 16.39 11.30 12.92 6.55 7.61 15.19 18.76 19.18 18.15 17.95 15.71 13.25 8.64 8.52 6.54 8.22 7.01 8.16 9.79 9.23 9.90 10.55 10.63 9.42 8.56
24.03 20.88 17.95 19.92 15.85 15.93 17.37 20.32 22.54 28.00 28.07 29.89 29.87 23.12 16.40 16.46 13.47 13.81 10.34 14.75 6.08 6.00 10.30 15.36 17.77 12.90 14.12 14.63 14.71 11.87 10.05 8.95 8.26 7.48 8.99 8.44 6.56 7.79 8.77 9.50 9.45 7.60 6.96 6.33
20.19 16.50 20.51 14.98 15.27 13.65 15.70 18.39 23.19 28.22 25.80 19.21 23.10 14.12 13.89 19.45 12.36 10.93 13.36 3.94 4.62 10.47 13.55 13.61 13.07 13.96 13.05 13.44 15.07 13.44 12.71 11.62 10.03 9.30 9.53 7.85 8.46 8.90 10.76 8.12 9.13 11.47 11.26 9.41

GFSNW_sfc_wetblb_102.txt.gz
Wetbulb
44.84 45.04 45.39 45.44 45.44 44.84 39.99 32.93 20.85 33.92 41.86 27.88 26.89 17.77 26.34 32.02 30.09 32.74 31.39 31.69 31.13 30.50 30.30 28.14 30.35 30.46 33.61 38.15 37.35 34.72 35.62 32.08 27.49 29.31 36.57 39.25 33.60 31.59 31.49 25.72 25.28 27.59 26.20 27.77
45.04 45.40 45.57 45.52 45.13 44.12 39.05 29.68 29.83 35.08 36.48 18.56 24.79 28.49 29.25 31.06 29.72 30.29 30.08 29.24 32.60 33.31 29.55 23.87 30.19 32.22 37.46 38.57 36.43 34.54 36.02 30.71 26.73 27.96 32.46 34.71 33.19 34.68 33.84 33.19 29.46 26.68 23.67 26.41
45.05 45.50 45.69 45.95 45.32 44.79 37.83 30.03 22.66 25.50 31.53 33.81 29.19 27.22 27.47 26.62 32.68 32.28 32.33 30.67 31.48 29.02 28.33 31.10 27.53 30.61 36.25 38.19 38.02 40.99 38.73 31.70 27.56 24.37 26.57 30.55 29.36 32.54 33.91 31.50 26.90 26.55 26.75 30.24
45.04 45.85 46.22 46.28 45.77 45.01 35.97 32.98 23.28 26.24 19.79 28.89 29.32 30.04 28.38 27.02 27.10 31.75 32.75 29.60 30.62 29.02 26.15 26.91 27.82 32.27 33.36 36.42 38.16 38.22 37.76 27.63 30.11 32.04 33.26 33.21 32.94 31.89 32.37 30.12 30.37 27.10 30.13 30.72
45.22 45.82 46.40 46.57 46.00 44.88 34.78 29.00 22.79 27.05 26.89 28.07 27.54 28.37 27.07 28.06 28.19 30.23 29.68 27.92 29.94 30.73 27.20 28.70 27.05 30.31 31.46 32.05 36.68 35.50 37.28 30.39 31.81 28.61 33.45 32.55 30.76 33.51 33.31 33.58 33.95 33.31 33.15 32.34
45.18 45.59 46.24 46.69 46.19 44.12 36.55 33.42 31.97 29.39 25.68 25.10 23.53 24.44 28.58 28.94 29.83 30.87 33.09 29.68 29.14 28.50 32.43 34.24 34.53 34.43 35.81 35.82 33.92 33.35 33.08 31.64 27.88 24.67 31.15 29.56 26.09 29.97 32.29 35.08 36.23 36.03 31.24 37.11
44.99 45.55 45.93 46.34 46.33 43.94 37.59 35.13 32.80 28.07 21.19 24.93 25.34 27.68 28.82 27.70 28.94 27.49 30.66 31.89 29.60 33.89 39.45 38.27 37.23 36.82 36.04 35.51 35.83 36.27 31.74 30.48 27.76 26.21 26.98 15.88 31.96 39.09 38.19 36.48 37.65 39.44 38.69 39.28
44.60 45.10 45.62 46.11 46.27 46.34 39.79 38.51 33.73 29.93 18.87 26.46 26.54 27.37 27.38 28.63 29.83 28.50 29.63 32.41 34.88 38.91 37.34 31.48 28.87 28.15 28.39 31.10 34.73 34.68 35.55 30.79 25.62 23.79 22.70 25.59 33.43 36.48 36.40 35.85 34.76 38.42 37.86 40.88
44.09 45.07 45.34 45.90 46.59 46.69 42.91 39.74 39.64 35.05 26.34 24.99 29.93 27.26 28.28 25.68 26.39 28.14 30.48 35.50 37.09 36.87 32.59 29.29 24.73 22.35 26.40 26.59 30.32 34.63 34.02 33.03 28.05 25.77 22.34 16.20 29.28 38.44 40.25 39.63 31.40 38.59 38.39 40.64
44.00 44.39 45.03 45.88 46.43 46.86 43.54 40.84 40.70 36.55 30.01 30.74 31.36 26.83 27.58 30.81 29.34 28.00 29.93 32.15 31.31 35.88 28.16 27.53 23.76 24.24 28.98 24.07 26.21 26.57 27.88 28.64 25.86 25.17 23.48 26.75 34.04 38.31 40.41 26.15 27.41 37.14 39.19 40.42
43.49 43.96 44.84 45.79 46.16 46.73 45.13 41.36 41.57 37.21 32.57 31.98 34.16 34.15 30.36 30.74 30.84 26.57 29.85 26.95 31.58 30.60 27.65 27.38 26.70 24.25 26.68 27.59 30.47 26.06 27.22 25.82 24.77 26.29 23.64 20.54 36.22 37.04 29.83 33.05 36.21 36.85 36.93 36.95
43.30 43.84 44.82 45.79 46.15 46.78 45.98 39.01 42.15 41.78 35.65 34.89 38.26 37.23 37.57 36.81 35.54 31.67 32.48 29.88 32.97 31.36 31.81 31.67 30.94 26.87 26.52 26.76 23.00 33.96 28.70 32.14 28.79 28.96 27.89 35.52 35.84 35.32 36.56 36.90 34.31 34.47 33.66 34.59
43.16 43.80 44.90 45.69 46.11 46.66 45.34 40.38 41.13 39.28 34.29 34.77 34.75 34.02 38.52 40.11 38.93 39.89 31.25 31.12 35.98 35.29 37.71 34.44 33.84 28.82 28.69 23.32 27.56 31.24 34.76 35.28 32.20 33.58 34.68 34.68 35.30 35.96 35.03 34.37 32.38 32.23 32.26 32.49
43.11 44.28 45.18 45.79 46.13 46.55 46.16 40.49 41.94 39.38 36.25 28.11 28.52 36.66 34.70 38.83 39.08 38.34 38.50 36.01 38.09 38.02 36.89 32.94 32.91 29.17 33.04 28.10 33.18 32.12 33.34 33.65 31.31 32.15 33.84 34.17 33.60 35.56 34.48 32.96 33.12 31.77 30.88 30.16
43.59 44.33 45.47 45.90 46.27 46.76 44.98 42.49 42.08 41.77 36.42 29.05 29.24 33.76 37.04 38.12 36.93 36.58 37.22 36.05 34.28 32.01 32.67 31.64 31.07 31.36 31.15 32.64 34.00 29.20 33.16 28.91 28.32 26.64 31.34 32.73 31.75 33.58 32.03 29.29 28.28 28.06 28.00 27.93
43.65 44.52 45.54 46.23 46.23 46.84 41.72 33.53 41.53 42.70 41.47 33.99 25.42 32.01 33.38 36.10 35.97 35.15 35.40 35.55 34.26 36.92 35.22 32.23 33.39 36.27 33.61 29.58 26.85 30.73 32.38 32.05 31.88 29.26 33.16 33.30 33.48 32.58 31.42 28.26 26.83 25.76 24.32 24.08
44.59 45.44 45.82 45.94 45.87 43.73 37.05 33.34 36.89 43.38 42.16 34.02 28.03 26.13 32.01 36.48 35.23 33.69 35.30 38.33 36.27 36.49 36.64 34.62 33.42 32.33 34.94 29.93 25.60 28.96 30.21 30.15 30.17 31.32 34.20 30.60 29.68 28.29 30.29 28.49 26.85 26.57 23.90 22.99
44.95 45.70 45.68 45.65 45.83 43.56 38.79 40.00 44.08 43.26 38.38 37.00 26.02 26.68 28.14 40.37 30.33 32.01 38.23 34.59 35.54 35.93 36.00 36.43 33.43 35.52 32.75 24.96 25.85 25.94 26.89 29.02 27.34 28.08 30.28 31.13 30.11 28.74 27.06 27.72 26.45 23.84 22.36 22.14
44.99 45.20 45.73 44.15 39.48 34.57 38.23 44.89 44.42 43.03 38.27 29.34 29.79 24.87 21.20 38.12 35.15 34.02 33.40 33.49 30.83 35.02 31.62 30.77 33.46 28.49 19.11 23.73 24.68 23.57 23.57 23.32 23.11 26.75 26.20 27.77 25.80 24.63 24.03 23.59 22.99 21.92 21.99 21.78
45.56 43.46 33.87 29.65 34.41 44.69 43.98 38.61 34.02 35.05 35.69 36.42 30.10 30.75 27.95 33.24 34.24 33.15 33.18 33.55 30.67 28.07 30.01 31.39 26.28 19.52 24.13 24.60 24.28 23.88 22.99 21.99 22.53 23.79 21.58 21.66 22.92 22.28 20.96 20.23 20.98 21.19 20.68 19.56
38.21 32.06 32.26 39.26 44.22 38.20 33.65 29.78 30.13 31.41 29.49 31.63 31.80 31.57 30.43 36.46 29.98 31.40 33.55 30.70 31.00 25.42 29.71 27.68 21.36 18.18 21.32 23.48 22.33 22.34 22.09 21.29 20.43 20.33 20.57 21.90 21.71 21.33 20.77 19.76 19.57 18.64 17.37 16.01
37.72 39.88 41.70 39.46 35.34 32.24 29.53 28.04 29.76 27.33 24.96 26.46 29.21 32.10 34.98 34.37 34.10 30.55 31.47 29.53 29.58 24.05 31.61 22.43 12.18 18.56 21.65 21.72 20.77 20.38 20.56 19.74 18.62 19.09 18.01 18.23 18.77 19.23 18.48 17.39 16.34 15.56 14.81 13.77
39.19 35.91 31.60 32.03 25.53 23.77 21.61 20.95 24.20 24.00 30.12 32.27 32.97 31.47 30.99 32.58 33.64 31.68 30.94 26.41 25.25 30.98 19.33 11.16 14.10 20.13 20.77 20.73 20.16 18.64 19.01 18.56 17.02 15.82 15.79 15.24 13.64 13.42 13.74 11.47 11.97 11.44 9.76 10.50
29.19 25.64 12.29 20.15 10.44 13.38 13.40 23.86 25.16 26.74 27.95 31.81 31.97 30.15 30.52 31.14 29.29 28.82 25.39 27.52 29.66 20.05 7.30 6.34 15.00 19.06 19.06 19.19 19.01 16.86 14.25 13.80 12.64 10.29 10.09 10.15 9.77 8.47 8.40 7.73 5.58 6.15 6.29 6.51
24.75 23.58 14.70 11.45 16.91 18.97 19.66 21.48 26.70 27.46 29.67 31.05 31.10 29.03 27.01 23.46 22.59 20.14 20.04 15.52 10.48 12.17 7.51 6.36 15.98 18.86 18.09 16.83 16.22 14.24 11.73 8.23 6.78 4.96 6.51 5.47 6.29 7.48 7.18 7.21 5.23 6.14 5.64 5.83
22.45 19.33 15.70 18.90 15.47 14.58 19.44 22.01 23.88 27.63 28.41 29.18 26.58 21.00 15.14 16.85 13.49 12.93 8.88 14.63 7.17 5.12 8.78 14.66 16.72 12.03 13.95 12.95 13.15 10.47 8.70 6.53 5.17 4.69 7.11 6.57 5.01 5.81 6.56 7.48 6.03 4.15 4.38 3.58
20.26 15.89 19.12 12.31 13.87 11.55 15.75 19.15 22.20 27.02 26.99 13.22 19.53 12.35 13.52 17.24 9.39 7.32 10.64 2.18 1.73 7.65 11.80 11.52 12.39 14.77 12.44 12.89 13.73 13.04 12.28 9.50 8.91 8.92 10.00 7.55 7.19 8.09 9.62 7.27 8.11 10.54 9.08 6.49

GFSNW_sfc_wetblb_105.txt.gz
Wetbulb
44.15 44.84 45.30 45.44 45.44 44.75 39.74 33.09 24.32 36.05 41.24 28.27 28.12 24.23 27.07 32.00 29.54 33.14 32.01 31.96 31.19 29.45 30.09 28.46 29.49 30.13 33.22 38.31 37.84 34.16 36.71 33.84 29.75 31.92 37.88 40.91 37.34 34.78 34.52 29.23 27.81 31.47 30.59 30.76
44.52 45.03 45.67 45.64 45.28 43.90 38.00 30.12 29.28 36.64 37.82 21.35 25.01 29.22 28.74 31.20 30.40 30.79 31.30 29.71 31.78 32.60 29.59 26.08 30.54 31.88 37.69 38.74 37.17 35.36 36.37 32.15 28.36 30.00 35.38 37.41 35.22 36.26 35.65 35.27 33.76 30.44 28.15 31.46
44.15 44.95 45.64 45.85 45.57 44.75 38.09 29.24 21.77 27.57 34.38 33.24 27.92 26.74 26.72 27.38 32.76 31.87 33.51 31.72 32.84 30.91 28.96 32.04 29.08 30.61 35.89 38.14 38.31 40.47 38.67 32.54 29.26 26.64 28.85 32.96 31.16 34.08 35.68 35.25 30.95 30.98 32.14 33.91
43.66 44.88 45.83 46.43 45.99 45.22 36.50 32.89 25.43 28.16 21.13 28.64 28.50 28.90 28.23 27.24 27.59 32.78 33.60 30.54 29.52 29.25 26.92 28.29 28.55 32.29 33.29 35.78 38.69 38.30 36.83 29.57 31.31 32.35 33.66 33.98 33.17 33.35 34.09 33.05 33.38 31.20 33.04 33.80
43.58 44.78 45.75 46.22 46.00 44.15 34.76 26.39 26.64 28.83 28.25 28.62 27.31 27.88 26.26 27.07 27.68 28.91 29.46 27.27 28.93 30.05 27.61 29.61 28.11 30.75 31.36 31.12 36.22 35.75 36.11 29.69 30.97 30.19 33.75 33.45 30.65 33.61 35.07 35.16 35.05 35.22 35.84 35.21
43.43 44.53 45.45 46.19 46.19 43.29 36.83 33.71 33.11 31.43 27.12 26.35 25.73 26.24 27.93 28.20 29.85 30.72 32.34 30.29 28.84 28.59 31.54 35.24 36.35 36.69 35.85 35.29 33.08 33.07 34.18 32.08 29.79 25.49 31.76 30.73 26.90 31.65 34.09 35.01 37.64 36.93 32.53 37.67
43.16 44.32 45.55 45.83 46.07 43.99 39.09 35.65 34.76 29.85 23.42 25.59 25.76 27.14 28.48 27.49 28.33 26.67 30.29 31.78 29.77 34.34 39.76 39.43 37.88 36.55 35.95 35.84 35.72 36.73 32.29 30.99 30.63 26.80 29.03 19.22 33.77 40.08 39.37 37.21 37.64 38.57 38.35 40.45
42.68 44.09 44.86 45.48 45.69 46.30 40.27 39.25 35.54 31.09 24.01 27.06 26.90 27.60 27.66 29.02 30.37 28.44 29.13 32.58 35.53 38.67 38.28 31.83 29.16 29.45 30.54 32.16 34.51 34.73 35.82 32.40 28.05 24.66 25.02 28.43 33.26 37.27 36.93 36.03 34.42 39.20 38.58 40.89
42.38 43.76 44.42 45.25 45.58 46.26 41.87 39.48 40.38 35.56 28.75 26.38 30.38 27.89 28.83 26.54 27.23 28.90 31.07 36.78 38.71 39.07 33.39 30.91 25.00 23.00 26.64 26.63 30.59 36.05 35.15 35.02 30.29 27.17 22.24 20.02 31.52 38.95 41.03 41.07 30.82 38.89 39.50 40.19
42.08 43.19 44.28 44.70 45.55 46.35 43.80 40.25 40.82 36.78 30.64 31.35 32.38 28.46 28.81 31.66 30.48 28.82 30.90 32.70 33.45 36.33 31.01 27.92 26.13 25.19 30.14 24.79 26.12 27.97 29.05 30.64 27.52 26.33 24.31 28.10 35.12 37.66 41.14 29.57 30.60 38.90 39.09 38.81
41.24 42.52 43.77 44.29 45.22 46.09 44.86 41.20 41.39 37.00 32.65 33.15 35.01 34.62 31.21 31.75 32.27 28.58 31.78 30.33 32.55 32.16 28.64 28.10 28.83 27.41 29.06 28.63 30.99 29.34 28.56 27.11 26.80 27.49 24.08 21.13 36.08 37.60 33.23 35.33 36.82 36.72 36.11 36.45
40.93 42.30 43.31 43.96 44.94 45.79 46.14 39.35 41.69 42.05 36.04 35.21 38.76 38.06 38.33 36.65 36.28 33.25 33.14 31.80 32.82 33.15 29.41 30.62 32.11 29.13 29.77 28.84 25.55 34.28 28.72 32.35 30.51 30.04 29.72 35.13 36.18 34.84 35.82 37.58 34.71 34.21 34.51 35.06
40.93 42.03 43.29 43.70 44.89 45.95 45.75 40.68 41.05 39.40 34.31 34.33 35.20 33.82 38.85 40.91 39.80 41.14 32.00 33.88 36.89 35.90 37.81 34.44 31.81 28.39 32.49 27.64 28.96 31.23 34.85 35.93 32.28 32.81 34.00 34.21 34.05 33.97 34.31 34.28 32.59 32.52 32.76 33.37
40.77 41.97 43.02 44.06 45.06 45.70 45.47 40.60 41.66 39.64 35.96 28.87 30.46 37.60 35.65 39.66 40.25 39.69 39.84 37.96 39.00 39.04 38.37 32.93 30.19 28.03 35.20 31.69 33.03 31.93 32.98 34.27 30.19 31.23 33.05 34.30 33.34 33.87 33.41 32.16 32.31 31.04 29.99 29.42
40.85 42.10 43.12 44.23 45.13 45.83 45.54 42.86 42.29 41.99 36.43 29.91 30.99 35.13 37.56 38.70 38.25 37.44 38.13 37.20 35.86 34.82 32.37 31.76 29.76 34.34 34.19 34.76 35.04 29.53 31.58 27.71 26.87 26.37 31.07 31.38 30.67 31.59 31.65 29.09 27.87 28.02 28.37 26.54
41.21 41.93 43.36 44.19 45.33 46.00 40.45 32.89 41.37 42.57 41.55 34.44 26.73 34.43 34.51 36.87 36.76 36.18 35.82 36.27 35.58 35.79 33.61 31.89 34.66 36.43 35.53 30.31 28.89 30.22 32.23 31.47 30.71 29.22 32.34 31.98 31.33 30.94 30.70 28.04 26.33 25.83 25.06 24.87
41.45 42.57 43.44 44.49 45.48 42.90 36.65 35.15 39.07 43.17 42.26 34.11 27.87 27.99 33.54 37.12 35.51 35.24 35.80 37.17 36.90 36.03 34.50 34.10 34.60 35.00 36.40 30.85 27.62 28.69 29.70 29.64 29.77 31.55 33.41 29.48 30.00 27.94 29.31 27.44 26.59 26.25 24.43 23.94
42.25 43.10 44.16 45.10 45.84 43.89 38.24 42.11 43.91 43.18 38.35 35.69 26.53 26.44 30.15 38.99 34.04 32.91 38.32 34.03 36.05 36.17 35.54 35.71 33.42 34.99 34.10 27.95 26.56 26.20 27.18 28.65 27.28 28.46 31.46 29.64 29.21 27.88 26.65 27.53 26.76 24.67 23.17 22.92
42.76 44.13 45.06 43.83 39.36 34.79 38.10 44.60 44.37 43.63 37.73 29.06 28.93 25.01 23.90 38.36 35.54 35.56 35.37 36.23 29.63 35.65 33.06 34.48 34.70 30.39 26.17 24.92 24.85 23.43 23.14 22.82 23.08 26.73 26.98 27.13 25.25 23.98 23.43 23.52 23.76 22.96 22.45 21.83
43.15 42.77 37.60 30.85 35.06 43.97 43.65 35.92 33.75 34.46 35.98 35.45 29.43 31.53 27.30 33.64 32.89 32.04 32.80 33.52 31.36 29.20 31.62 33.49 30.45 23.19 23.87 23.98 23.61 22.97 22.60 22.10 23.58 24.83 21.89 22.49 23.22 22.32 21.38 20.67 21.02 21.28 20.31 19.50
39.84 31.98 32.16 38.32 43.47 38.94 34.25 30.08 30.37 29.95 27.59 31.23 31.81 31.62 29.71 36.15 30.77 31.61 34.07 30.05 31.43 25.52 29.85 29.44 24.14 20.58 21.58 23.45 22.01 22.25 21.95 21.35 20.85 21.45 21.81 22.30 21.93 21.70 21.36 19.72 18.97 18.12 17.57 16.12
36.50 38.72 41.29 39.92 35.91 32.52 29.23 27.45 29.41 27.04 25.35 29.08 29.13 31.01 34.78 35.35 35.50 31.73 31.94 30.33 30.78 25.66 31.32 26.11 18.82 18.67 21.78 21.80 20.73 20.25 20.57 19.80 18.78 19.18 18.18 18.77 19.14 19.27 18.61 17.55 16.29 15.67 14.84 13.82
41.27 36.62 32.30 32.27 27.84 26.13 22.57 20.07 24.57 24.33 27.14 30.27 32.43 31.59 33.96 34.23 34.63 31.78 31.41 27.98 27.34 31.57 22.24 15.56 16.61 20.05 21.12 20.89 19.99 18.39 18.74 17.82 16.81 16.05 16.10 15.25 13.36 13.32 14.05 12.04 12.16 12.09 10.91 11.40
30.78 27.88 20.44 24.18 19.77 18.12 18.68 23.04 26.34 27.89 30.07 32.86 33.16 31.05 31.81 31.96 30.45 28.45 26.73 27.09 30.21 21.04 17.25 12.90 17.52 19.07 19.34 19.39 18.81 16.51 13.83 13.28 12.20 11.08 11.53 11.04 10.13 9.39 9.68 9.52 9.66 9.08 8.66 9.13
25.00 24.42 16.60 13.28 18.30 20.02 21.52 24.91 28.13 28.09 30.31 32.25 31.06 29.22 29.54 25.07 24.83 21.71 24.28 21.22 14.25 14.50 12.96 13.70 18.16 19.15 18.20 16.88 16.07 14.30 12.15 9.70 9.39 10.10 9.18 8.55 9.50 9.38 8.79 9.31 9.77 9.46 8.56 8.72
22.92 19.23 18.40 20.52 18.37 18.75 21.90 23.25 25.12 27.55 28.89 31.26 29.13 23.35 20.30 17.87 17.05 16.39 11.75 16.14 13.01 11.40 13.60 17.27 17.96 15.82 14.92 14.34 13.64 11.78 11.03 10.29 9.88 10.29 10.34 9.36 8.23 8.79 9.09 9.20 8.32 7.35 7.23 6.53
19.48 16.28 17.09 14.60 13.23 15.05 19.60 21.35 22.45 27.04 26.75 22.80 23.02 18.30 16.26 18.80 13.36 10.59 11.58 10.46 11.30 13.14 15.57 16.41 16.44 14.64 12.86 12.51 12.89 12.22 12.21 12.01 11.94 11.43 11.36 10.70 11.51 11.75 11.34 9.72 10.77 10.77 9.58 8.36

GFSNW_sfc_wetblb_108.txt.gz
Wetbulb
43.45 44.34 45.35 45.87 45.82 45.44 43.36 40.98 33.76 43.18 46.33 36.44 36.53 30.69 31.09 32.98 33.60 36.69 34.90 35.07 32.97 31.12 31.47 30.42 30.74 30.11 33.52 38.66 38.09 36.25 39.24 36.93 32.90 35.20 41.15 41.71 38.68 35.96 37.24 31.52 30.67 34.05 33.34 33.93
43.67 44.46 45.44 45.56 45.79 44.27 43.91 37.76 37.63 44.64 43.51 30.31 30.06 32.97 31.95 33.20 32.96 33.70 33.96 33.10 35.14 36.12 31.95 28.60 32.55 33.72 38.78 39.51 39.10 37.08 37.81 35.03 29.81 31.86 37.15 40.64 38.48 39.73 39.23 38.95 38.50 34.02 32.08 35.48
43.30 44.07 45.05 45.96 45.96 44.49 44.69 38.29 31.76 37.73 40.82 38.02 31.33 29.53 30.23 30.60 36.07 34.43 35.43 34.09 35.79 33.52 32.51 35.01 31.50 33.46 37.37 39.34 40.01 40.47 40.63 35.50 32.12 29.13 32.60 37.24 35.07 38.16 39.75 38.91 34.46 34.88 35.43 37.41
42.65 43.77 45.08 46.19 46.24 45.37 43.37 38.32 32.76 33.75 30.86 33.37 31.84 31.60 30.52 29.57 29.39 34.30 36.17 33.10 32.94 30.88 27.60 31.55 31.01 34.28 35.67 38.26 39.56 39.19 38.20 32.40 34.81 35.66 36.25 36.55 36.57 36.59 38.04 37.05 38.13 34.13 36.68 36.98
42.57 43.42 44.96 46.02 46.22 44.68 41.69 34.11 35.04 35.69 34.34 31.96 30.86 30.59 29.87 28.13 30.77 31.02 30.95 31.91 33.01 33.18 29.77 31.76 30.51 33.56 34.42 33.76 37.47 36.49 37.97 32.79 32.86 31.93 35.82 36.09 34.40 37.11 38.22 38.32 38.29 38.12 38.54 38.27
42.57 43.36 44.64 45.75 46.41 44.78 39.66 41.22 40.03 36.93 32.01 30.76 30.41 31.03 30.05 30.14 32.17 33.08 34.15 33.07 31.87 31.77 34.62 37.91 38.57 39.49 39.41 38.63 36.16 33.50 34.12 33.65 31.42 28.37 33.79 33.54 29.97 35.16 37.19 38.53 39.61 39.10 35.93 40.34
42.53 43.14 44.34 45.47 46.28 44.58 42.23 40.70 41.03 34.67 30.71 31.60 31.46 30.52 31.19 30.62 31.56 30.20 33.26 34.91 33.00 36.74 41.60 41.63 41.86 40.83 39.39 39.11 38.62 39.09 33.57 33.02 33.20 29.75 31.27 22.00 36.14 42.43 41.64 38.97 39.87 41.17 39.85 40.63
42.66 42.97 43.85 45.13 45.56 45.67 42.38 41.59 40.05 35.62 30.17 33.24 32.02 31.89 31.88 33.03 33.75 32.25 32.97 35.78 38.89 41.88 39.97 35.26 32.12 32.71 33.53 35.13 38.05 37.84 38.31 33.85 30.09 27.49 28.02 31.46 34.35 37.64 38.00 37.26 35.97 40.57 39.04 41.06
42.64 42.53 43.51 44.63 45.27 45.68 42.96 40.85 41.67 38.00 31.80 33.30 34.30 32.32 32.79 31.59 32.00 32.71 34.04 39.50 41.83 41.19 37.03 33.49 26.40 25.39 27.56 28.21 32.28 38.01 36.98 36.47 31.90 30.84 24.52 21.72 34.72 38.16 43.20 43.40 31.87 40.33 40.47 39.75
42.26 42.18 43.09 44.04 45.04 45.39 44.35 41.10 42.71 37.19 33.05 36.18 36.41 33.63 33.32 35.71 34.14 32.41 34.81 35.25 36.05 40.09 31.78 30.38 28.55 28.36 33.01 27.52 27.52 28.81 31.61 32.49 29.40 28.87 27.32 31.37 37.34 38.23 41.92 31.97 32.16 38.10 39.38 39.10
42.17 41.84 42.42 43.60 44.44 44.96 44.49 41.70 42.91 39.19 34.51 36.94 38.48 38.36 35.65 36.29 35.53 31.89 35.58 34.50 35.75 35.84 31.03 30.97 31.07 30.47 32.94 31.60 32.82 31.54 30.53 29.43 30.28 30.64 26.63 24.01 37.62 40.40 35.16 36.31 38.55 38.33 37.66 38.03
41.90 41.24 41.57 42.93 44.09 44.73 45.61 40.47 42.42 42.69 36.09 38.08 41.40 42.25 42.80 41.35 40.40 36.08 36.38 34.76 34.26 36.53 32.91 34.34 33.77 31.60 34.46 32.15 28.98 36.67 30.41 33.62 30.89 32.71 32.30 35.77 36.08 34.56 37.32 39.77 38.66 37.64 37.14 37.08
41.83 41.29 41.57 42.72 43.91 44.56 45.14 42.16 41.73 39.04 34.00 36.27 36.53 37.15 42.86 44.64 43.51 44.37 34.28 36.43 38.07 38.12 41.19 35.98 34.99 29.60 33.06 29.99 31.85 33.08 36.18 36.72 32.79 33.20 33.14 33.69 34.28 35.93 35.90 36.98 36.53 36.84 37.28 36.76
41.49 40.93 41.51 42.66 43.73 44.58 45.32 41.70 42.18 39.68 37.04 32.35 35.96 42.20 39.97 43.62 44.38 43.46 42.84 40.89 42.47 41.75 39.84 36.21 33.73 30.65 37.66 34.34 35.13 33.70 34.33 35.46 31.69 32.01 32.94 32.51 31.97 33.24 34.26 33.89 34.85 34.38 33.83 34.22
41.06 40.78 41.33 42.61 43.69 44.83 45.96 44.27 42.31 42.97 38.06 33.72 36.02 40.75 42.46 43.12 42.81 41.98 42.38 40.99 38.87 36.99 34.17 33.76 31.57 36.00 35.45 37.26 36.57 32.75 33.49 29.48 29.23 29.38 31.51 31.47 30.71 32.14 32.86 31.14 30.64 31.76 32.31 31.10
40.54 40.44 41.35 42.46 43.68 44.53 41.10 33.85 42.26 43.62 42.17 36.27 31.65 40.22 38.48 40.94 41.66 40.44 39.89 40.27 37.21 36.43 34.78 35.03 36.50 37.65 35.19 32.63 31.23 30.96 32.65 32.37 31.97 30.95 32.41 32.13 31.67 31.93 32.24 29.80 28.37 28.95 29.99 29.91
40.33 40.60 41.45 42.67 43.88 44.32 37.66 39.13 42.88 43.91 43.02 36.06 30.41 33.72 38.37 40.11 39.99 38.16 36.40 38.02 37.20 36.57 35.06 35.38 35.99 37.00 37.96 33.87 29.31 29.57 30.59 30.96 31.63 33.95 33.91 29.93 31.14 28.09 29.95 29.35 28.39 27.91 27.85 28.37
40.28 40.90 42.11 43.20 44.18 43.91 39.57 43.57 44.65 43.68 39.03 37.64 29.73 31.62 33.91 40.09 35.41 34.52 38.61 34.45 36.44 37.03 36.32 36.76 35.31 36.10 37.29 30.30 28.73 28.56 29.47 30.20 29.84 31.69 31.96 30.40 29.99 29.29 28.29 29.80 29.45 28.05 27.23 27.02
40.67 41.58 42.42 42.68 40.71 35.40 38.98 44.70 44.36 45.14 39.46 30.81 30.03 29.79 29.95 40.41 36.40 38.05 36.77 36.30 30.77 39.37 34.08 36.04 35.90 33.44 29.98 27.24 27.52 26.72 26.32 25.72 25.92 28.80 29.88 29.02 27.21 26.16 26.25 27.29 27.91 26.56 25.37 25.53
41.28 40.60 36.35 32.05 36.20 44.34 43.11 37.33 34.33 34.83 35.77 37.19 30.57 36.35 32.37 37.17 34.39 34.67 35.32 35.91 31.61 28.75 32.59 38.11 33.91 27.32 26.08 26.74 26.91 26.80 25.81 26.07 27.78 26.77 25.59 25.34 25.07 24.79 24.49 23.83 24.52 24.55 23.53 23.08
37.55 32.59 32.93 41.20 44.14 40.58 35.08 32.05 31.65 33.14 29.48 32.81 34.14 35.12 34.38 39.33 32.77 33.24 35.62 31.32 33.73 27.07 32.39 31.57 30.10 25.97 23.87 25.77 24.92 25.39 25.26 25.37 24.80 25.07 24.59 24.56 24.26 24.04 23.92 22.37 22.01 21.68 21.06 19.75
37.97 38.77 41.58 40.32 37.12 34.04 31.31 30.41 31.50 28.54 28.70 33.56 30.93 32.42 34.67 37.54 38.56 35.19 34.51 32.40 32.73 26.64 34.78 31.31 26.61 21.65 23.80 24.45 23.50 23.67 23.54 22.92 22.27 22.36 21.12 21.45 21.61 22.31 22.04 20.95 19.68 18.68 17.95 17.11
39.55 37.69 32.38 32.91 31.99 28.45 27.40 23.88 26.08 27.66 33.34 33.67 33.83 32.60 36.71 36.17 36.55 33.45 32.78 30.24 30.14 34.34 30.27 26.11 21.86 22.75 23.37 23.24 22.93 21.70 22.06 21.34 20.71 19.60 19.13 18.30 16.33 16.61 17.00 15.08 15.90 16.19 14.55 15.33
31.64 31.16 24.84 29.39 27.37 30.39 31.30 31.50 32.25 34.55 35.42 35.34 36.43 33.98 35.06 35.48 32.35 31.85 27.78 30.37 32.30 27.70 23.62 19.58 21.29 22.14 21.99 22.12 21.56 20.38 17.03 16.34 16.34 15.77 15.22 14.14 13.64 13.14 13.32 13.54 14.30 14.16 13.38 13.59
28.13 30.37 25.42 24.41 26.50 27.84 28.82 30.89 32.53 32.01 34.30 35.34 33.68 33.93 34.82 29.90 28.78 28.12 28.20 27.00 22.58 21.89 21.57 21.18 21.93 21.90 21.12 20.12 19.12 17.64 15.44 14.12 14.77 15.46 14.08 13.43 13.65 13.44 13.17 13.89 14.82 14.26 13.46 13.63
26.05 24.03 23.56 25.14 26.90 26.02 28.31 30.82 29.67 30.15 31.98 35.72 36.47 30.25 28.16 24.41 25.82 23.80 19.06 22.63 21.78 19.43 20.56 21.63 21.88 19.69 18.82 17.99 17.14 16.36 15.99 15.93 15.66 15.66 15.23 14.45 13.73 14.03 13.83 13.82 13.38 12.92 13.01 12.70
22.70 22.41 24.88 25.95 27.96 26.10 24.49 28.26 28.97 30.90 32.29 30.89 31.53 26.44 21.85 26.10 22.98 18.82 21.52 21.20 19.93 20.79 21.29 22.88 21.66 19.37 17.37 16.83 16.25 15.46 16.10 16.09 16.20 15.83 15.76 15.37 15.91 15.91 15.77 14.33 14.48 14.79 14.07 13.51

GFSNW_sfc_wetblb_111.txt.gz
Wetbulb
43.70 44.21 45.05 46.00 46.21 46.34 44.51 44.18 38.14 46.46 48.72 39.28 40.10 34.70 33.94 35.48 36.14 38.64 36.82 37.11 34.94 33.67 33.82 31.79 32.04 31.64 33.88 38.67 39.89 35.75 40.24 37.91 33.39 36.28 42.22 43.07 40.19 38.39 39.11 33.40 31.91 35.17 33.59 32.53
43.73 44.31 44.87 45.61 45.99 45.75 45.95 41.46 40.94 47.38 46.50 34.59 36.57 36.05 34.95 36.09 35.88 36.01 35.34 34.42 36.18 36.93 34.18 30.49 33.47 34.94 39.48 40.21 39.04 36.62 38.50 36.36 29.25 32.29 38.89 41.04 37.62 38.81 39.90 39.75 38.83 33.17 30.66 33.63
43.73 43.75 44.60 45.90 46.48 45.92 44.98 40.66 35.16 41.28 43.97 40.70 34.91 32.83 32.69 33.50 38.02 36.88 37.26 36.03 37.75 35.58 33.42 36.44 32.96 34.26 37.91 40.67 40.50 40.81 40.84 36.07 32.79 29.61 32.37 38.18 36.56 38.16 38.98 38.53 33.89 34.88 36.06 36.63
43.11 43.15 44.14 45.77 46.40 46.21 44.16 41.31 36.13 37.55 34.69 36.67 34.85 34.95 33.94 32.52 32.34 36.97 38.45 35.70 35.85 33.90 30.55 32.86 33.01 36.09 36.99 39.57 41.33 40.62 39.24 33.40 35.71 35.94 37.02 38.64 36.80 37.52 39.30 37.47 38.36 34.31 37.07 37.93
42.87 42.87 44.14 45.52 46.24 46.17 42.28 33.36 37.32 39.38 38.76 34.79 33.54 32.55 33.17 32.05 33.95 34.70 33.54 33.59 35.03 35.58 32.74 33.87 32.30 35.22 36.02 35.05 39.56 38.49 38.72 33.39 36.15 34.04 37.70 37.94 36.11 38.31 38.94 39.37 39.11 38.97 39.51 38.87
42.55 42.87 43.93 45.16 46.41 45.44 40.77 44.02 44.05 39.40 34.76 34.38 34.08 34.39 32.85 32.89 35.13 35.86 36.55 35.50 34.19 34.00 36.33 38.95 39.66 40.23 40.15 39.41 36.83 35.78 35.29 33.92 33.52 29.71 35.61 35.41 31.78 36.97 38.40 39.20 40.62 40.15 36.61 41.68
42.40 42.92 43.57 44.63 46.03 45.44 46.13 43.40 42.58 35.88 31.69 35.50 34.10 34.12 34.92 33.75 34.77 32.79 35.72 37.29 35.26 39.02 43.35 42.92 42.85 42.29 41.60 41.04 39.97 39.68 35.66 34.12 34.02 30.71 32.42 23.87 37.09 43.25 42.24 39.91 41.36 42.53 41.69 42.98
42.62 42.86 43.31 44.24 45.40 46.00 45.61 47.41 41.06 38.25 31.83 34.55 34.70 34.67 34.84 36.23 37.36 35.10 35.79 38.22 40.99 43.38 40.66 35.35 33.55 34.44 34.59 36.57 39.37 38.89 38.84 35.38 31.87 29.02 29.41 33.64 36.49 39.77 38.83 38.22 36.70 41.94 40.94 41.94
42.79 42.89 43.06 43.83 44.89 45.96 43.36 42.49 47.64 42.57 34.56 35.01 37.24 35.25 36.40 34.11 33.95 35.46 36.85 41.35 43.80 42.34 37.22 34.08 28.23 26.93 30.46 29.89 32.82 39.68 38.68 39.25 33.18 31.93 26.22 23.44 32.90 38.77 41.61 41.56 33.63 40.04 40.71 39.99
42.96 42.76 42.84 43.34 44.41 45.08 45.96 42.68 43.71 39.17 34.97 39.44 39.64 35.91 35.15 38.46 36.43 33.79 37.37 38.19 38.34 41.96 33.39 30.89 30.36 29.82 35.29 29.04 28.02 29.40 32.65 33.42 30.46 30.80 28.94 33.13 38.08 41.42 41.05 31.62 31.36 39.29 40.67 40.21
42.89 42.64 42.56 42.99 43.79 44.63 45.35 43.25 43.93 39.84 36.72 39.65 40.69 41.51 38.32 38.18 37.19 32.63 37.28 36.57 37.28 36.26 31.84 31.93 31.91 31.60 34.18 33.20 34.19 32.02 31.25 30.28 30.56 32.81 28.74 25.60 39.14 39.97 33.32 34.58 38.83 39.10 39.07 38.75
42.64 42.61 42.08 42.51 43.11 44.13 45.16 41.21 43.22 43.93 37.30 37.54 43.95 44.62 45.37 43.84 41.56 38.41 38.41 35.45 35.20 36.66 34.01 35.54 34.27 31.21 34.82 33.13 28.95 38.21 31.37 34.03 30.22 33.60 30.88 35.59 36.93 35.19 37.19 39.29 38.34 38.70 38.52 38.78
42.32 42.39 41.85 41.80 42.71 43.90 44.58 43.87 42.47 39.33 34.92 36.04 37.09 39.50 45.29 47.01 46.12 46.85 36.27 38.03 39.12 38.77 41.95 37.79 36.19 31.12 37.41 30.47 32.18 34.71 37.24 39.09 34.49 34.09 31.02 31.80 34.49 35.90 36.95 38.08 38.11 38.75 39.43 38.81
42.14 42.25 41.80 41.68 42.61 43.74 44.35 43.17 42.80 39.84 37.75 34.17 38.22 46.34 43.34 46.57 46.74 45.83 44.98 42.63 43.05 41.77 41.78 36.41 34.96 30.93 38.57 33.71 35.44 33.62 36.54 37.53 32.91 32.58 32.79 33.67 33.71 34.27 35.67 35.55 36.81 37.23 37.04 36.86
41.50 41.85 41.34 41.45 42.29 43.71 45.56 46.79 43.98 43.54 39.16 35.12 36.76 43.61 45.10 45.41 44.82 44.04 44.34 41.83 39.77 36.58 35.76 35.83 32.37 37.27 36.70 38.12 37.17 32.75 35.18 30.64 31.23 29.65 31.67 33.60 31.90 33.89 34.86 33.01 33.12 34.58 34.99 34.31
41.83 41.59 41.06 41.37 42.58 43.46 43.23 36.14 43.69 44.35 43.02 35.53 33.34 42.90 41.04 43.03 43.88 42.68 41.82 40.85 39.16 37.04 35.48 35.04 36.74 39.37 37.20 32.34 33.06 32.00 33.03 33.29 33.39 31.81 33.48 33.36 33.08 33.17 33.30 31.48 30.68 31.58 32.77 33.19
41.14 41.00 40.93 41.13 42.29 43.66 38.68 37.44 41.78 44.40 43.64 35.94 33.73 34.97 40.49 41.98 42.06 40.32 39.46 39.58 38.03 36.58 34.95 35.00 35.89 37.33 37.16 35.05 31.52 31.34 31.72 32.21 33.48 34.71 34.40 31.04 31.65 30.26 31.92 31.40 31.33 31.39 31.06 31.47
41.08 40.88 40.83 41.41 42.42 42.66 39.92 44.96 44.79 44.52 38.78 38.96 31.96 33.60 36.76 42.07 35.23 34.45 38.05 35.09 36.96 36.10 35.73 37.98 35.50 39.21 37.49 32.12 31.06 31.78 31.82 31.78 31.85 32.60 32.57 31.19 31.24 30.87 30.63 32.06 31.91 30.75 29.44 30.42
40.41 40.72 41.09 41.58 39.68 37.33 39.63 45.07 44.94 44.63 39.87 34.53 31.87 30.84 32.13 40.69 39.05 38.57 37.78 38.07 32.58 39.39 34.26 35.82 37.79 35.26 31.33 29.74 30.37 29.66 29.63 29.09 28.53 31.32 31.49 30.38 28.78 28.38 27.97 28.39 29.87 29.51 28.20 28.29
40.28 40.41 35.91 31.85 37.23 43.90 43.66 38.06 33.78 35.02 36.61 38.18 32.46 38.24 34.57 39.09 37.10 36.45 35.12 35.92 34.19 29.21 34.95 39.65 34.24 30.97 29.37 29.55 29.64 30.07 29.21 29.25 30.99 29.56 28.44 27.71 27.09 26.45 25.59 25.85 26.61 27.09 26.44 26.20
37.80 33.48 33.63 41.48 44.39 40.35 35.83 32.40 32.81 33.96 31.97 35.91 36.76 37.61 35.41 41.53 34.11 34.37 38.02 34.08 34.38 28.16 33.55 32.11 31.32 27.50 26.29 28.45 27.57 28.58 28.53 28.25 27.87 28.22 27.81 27.65 27.08 26.77 26.06 24.68 24.52 24.23 23.19 21.26
38.54 39.29 40.13 40.43 37.10 34.57 32.03 30.56 33.20 31.38 30.18 35.95 33.66 34.23 37.39 39.32 41.14 36.58 35.93 31.62 34.50 27.42 37.69 31.30 28.06 24.32 26.55 26.88 26.17 26.39 26.60 25.98 25.13 25.36 23.40 23.57 23.56 24.45 24.11 22.82 20.97 20.29 19.70 19.29
37.75 35.36 31.66 33.29 33.66 29.86 28.18 26.19 27.95 29.51 35.28 35.84 35.77 33.56 37.57 38.96 39.91 35.56 33.63 29.84 30.18 38.23 31.35 28.39 24.05 24.82 25.91 25.88 26.04 24.75 24.91 24.64 23.40 21.66 21.23 19.84 18.05 19.10 19.03 17.62 18.53 18.43 17.42 18.43
32.58 30.98 27.57 30.71 28.56 31.59 33.01 33.58 34.78 37.96 38.73 36.42 36.98 36.65 35.55 37.00 33.32 34.36 29.31 33.72 33.56 29.04 26.66 23.92 24.22 24.40 24.12 24.39 24.06 22.83 19.37 19.26 19.12 18.20 17.51 16.79 16.18 15.71 16.70 16.97 17.50 17.12 15.82 16.27
30.60 31.18 29.12 28.61 31.03 32.61 32.65 34.73 35.12 34.82 38.67 38.82 36.39 36.72 35.89 33.72 31.66 31.42 31.13 28.10 27.42 26.14 24.02 23.85 24.76 24.28 23.36 22.21 21.39 19.50 17.65 17.60 17.99 18.18 16.99 16.32 16.70 16.55 16.10 17.01 17.80 17.12 16.40 16.18
28.87 27.87 26.44 29.16 30.19 29.25 31.47 32.76 31.22 33.60 36.57 40.09 38.79 33.23 30.87 29.70 30.70 27.74 26.62 26.04 25.69 23.29 23.73 24.16 23.95 22.27 21.58 20.46 19.64 19.14 19.22 19.05 18.66 18.45 18.19 17.52 16.77 16.73 16.80 17.06 16.62 16.19 16.44 15.80
26.06 26.03 28.97 29.95 33.11 31.57 30.44 33.06 32.07 35.41 35.11 32.65 34.91 29.28 28.00 30.81 27.58 24.83 27.65 24.87 24.31 23.93 24.39 25.43 23.76 21.99 20.11 19.52 18.64 18.46 19.28 19.24 19.16 18.94 18.71 18.37 18.90 19.05 19.27 17.51 17.80 18.02 17.31 16.19

GFSNW_sfc_wetblb_117.txt.gz
Wetbulb
45.39 45.33 44.59 45.73 46.20 46.85 44.39 38.69 32.69 42.77 43.14 31.63 32.98 26.29 33.80 37.58 35.99 38.84 36.73 35.80 33.63 32.00 31.71 29.88 30.98 30.67 33.53 37.42 37.94 33.09 37.83 33.10 29.15 31.78 38.76 41.30 39.58 35.82 35.79 28.29 28.58 30.92 29.76 30.33
44.50 44.52 44.72 45.29 46.40 46.94 40.03 36.43 35.66 42.20 41.88 27.24 27.83 35.07 35.48 37.07 35.60 35.13 35.13 33.79 35.91 35.70 31.06 27.88 32.02 33.82 38.59 37.69 36.95 35.16 36.69 31.71 25.24 28.78 33.83 38.39 35.45 37.04 38.21 36.97 35.97 29.93 26.53 31.37
44.19 44.58 44.25 45.05 46.42 46.86 40.85 36.31 28.76 34.78 36.29 35.10 30.35 30.29 33.01 32.34 38.31 36.39 36.53 35.91 36.90 33.32 30.55 33.01 30.93 32.55 36.03 37.82 36.92 41.77 39.81 34.61 30.26 23.55 27.57 33.21 31.28 35.64 38.23 36.43 29.77 30.68 32.27 35.47
44.44 44.31 43.76 45.00 46.17 46.78 40.15 35.59 31.47 32.56 26.84 30.12 30.85 31.80 33.00 31.32 31.91 36.90 36.42 33.88 33.28 30.54 26.14 29.10 29.28 32.05 33.30 36.08 38.93 36.76 34.96 29.39 33.05 33.74 35.29 33.85 34.16 35.19 35.91 34.23 35.18 31.31 34.58 36.28
44.40 43.61 43.16 44.60 45.98 46.33 38.70 27.17 31.50 34.52 32.98 34.05 31.11 31.94 31.44 31.70 32.75 32.76 31.59 31.17 32.45 31.69 27.99 31.22 27.62 30.99 31.04 30.59 34.99 33.86 35.37 29.42 32.57 30.65 35.87 34.75 33.83 35.84 35.90 36.33 36.43 36.63 37.13 37.60
43.79 43.12 42.81 44.21 45.64 45.16 38.47 38.57 39.10 33.99 33.41 31.13 28.52 30.88 32.66 32.95 34.71 35.38 36.02 33.20 30.83 30.23 33.50 35.03 35.40 35.80 35.68 34.76 32.70 31.64 32.02 30.86 29.27 27.07 34.06 33.65 30.57 34.21 35.25 35.20 37.95 38.37 33.66 38.10
43.74 43.04 42.96 43.74 45.14 45.35 42.45 39.95 36.66 30.25 25.83 30.08 32.31 35.07 35.12 34.22 34.83 31.70 35.47 35.87 32.65 36.53 39.73 38.45 37.92 37.18 37.36 37.55 36.71 36.91 32.01 30.90 30.19 26.79 29.74 22.58 32.75 38.44 39.03 34.92 34.77 36.43 38.79 38.80
43.68 43.22 43.22 43.65 44.93 46.07 43.16 42.28 38.24 33.16 26.15 32.11 33.45 35.27 35.31 34.63 35.49 34.71 35.43 38.10 39.19 39.18 36.13 30.76 28.45 28.95 32.14 35.60 37.14 36.44 36.97 32.23 26.36 24.14 24.81 31.32 31.69 33.05 33.21 34.12 32.16 35.35 36.82 37.35
44.20 43.86 43.79 43.52 44.67 45.39 42.65 42.51 41.29 36.84 28.13 29.72 36.57 33.03 34.99 30.14 29.18 30.80 36.23 39.03 39.94 37.95 32.22 25.73 23.43 23.34 29.20 28.54 32.20 37.67 37.45 35.64 28.94 25.70 23.16 21.48 28.71 33.19 37.77 37.33 26.08 35.91 35.29 34.79
44.16 44.06 43.94 43.57 44.08 45.46 43.25 39.73 40.99 36.90 31.43 34.75 35.51 32.51 32.35 35.48 32.39 28.87 33.22 34.35 33.93 37.03 26.25 24.34 24.00 24.91 33.02 26.18 26.31 26.62 28.31 28.47 25.85 25.37 24.29 28.81 32.26 35.13 37.62 26.45 27.54 35.79 36.20 35.21
44.21 44.04 43.64 43.69 43.92 44.74 42.52 40.72 43.44 36.75 33.59 34.07 38.05 39.47 35.22 34.78 33.13 28.05 32.06 29.77 30.53 28.68 24.75 27.52 25.46 24.94 28.27 28.68 32.81 31.25 27.31 24.01 20.79 25.77 23.13 20.98 35.06 34.10 28.86 33.46 37.10 37.04 36.49 35.93
44.02 44.06 43.72 43.55 43.75 44.33 43.43 39.07 44.43 43.18 36.03 34.78 38.37 38.54 39.86 38.86 37.97 34.68 34.01 31.62 31.73 31.86 26.19 26.99 27.79 24.75 27.67 27.84 26.96 35.11 28.48 30.94 27.82 27.58 26.62 33.39 34.46 33.74 35.59 36.50 33.93 34.37 35.62 36.39
43.90 43.95 43.20 43.17 43.27 43.75 42.43 38.94 41.62 39.58 34.97 33.96 33.36 35.03 41.23 43.15 41.69 41.44 32.10 33.33 36.70 35.80 37.40 31.33 30.39 25.09 26.01 25.88 25.82 30.57 34.80 36.55 29.18 30.62 30.93 31.32 31.55 33.15 35.25 35.23 34.98 35.10 34.69 33.92
43.58 43.34 43.53 42.85 42.55 42.82 42.88 38.14 41.49 39.61 36.70 29.94 32.67 44.54 39.97 44.77 43.56 42.17 41.06 38.99 39.23 37.70 35.34 30.58 27.83 26.82 32.75 26.80 30.14 31.06 31.96 31.53 26.06 28.78 30.09 31.30 30.67 32.42 33.09 33.02 33.34 33.39 34.32 32.99
42.81 42.53 42.86 42.34 41.96 42.08 40.62 39.45 40.96 40.77 36.70 31.09 30.44 37.61 40.76 42.10 42.04 40.72 41.08 38.76 36.38 34.87 27.76 28.05 24.79 30.97 29.99 31.31 32.88 29.83 31.64 28.33 26.68 25.33 29.67 30.58 29.19 32.37 32.50 30.27 30.89 31.29 31.25 31.36
42.78 42.49 42.68 42.28 41.99 42.10 37.47 33.99 40.07 42.30 42.56 34.33 27.27 37.20 39.64 41.82 41.02 40.49 38.89 37.82 35.22 33.75 30.96 25.67 29.59 34.85 29.70 27.63 23.66 30.21 31.81 32.02 31.89 29.99 32.94 31.76 32.20 32.49 33.24 31.09 31.33 31.52 30.48 30.36
42.77 42.70 42.32 41.95 42.26 38.12 33.58 34.32 39.69 43.67 43.47 34.89 28.15 28.97 37.94 40.91 39.15 37.03 36.55 37.55 35.66 34.11 31.72 28.99 29.49 30.35 33.33 27.53 22.97 29.94 31.15 31.72 32.01 34.01 33.89 29.11 30.24 28.63 32.25 33.47 34.24 32.12 30.76 29.39
42.35 42.43 42.13 41.73 41.53 39.72 34.45 39.89 43.60 44.18 39.01 37.11 27.92 27.11 32.03 38.83 33.59 30.24 34.94 34.08 35.92 32.57 30.45 31.30 29.48 32.22 32.47 26.10 30.34 31.43 31.78 31.76 32.20 30.97 31.28 30.12 30.65 29.74 29.21 30.08 31.51 28.86 27.49 26.77
42.03 41.89 41.36 37.91 34.86 30.82 34.05 44.52 44.77 43.40 37.56 31.68 30.75 25.63 20.33 38.03 34.83 35.04 34.21 34.61 29.05 32.57 28.74 29.20 30.18 25.28 23.73 29.34 29.03 28.78 29.40 28.35 29.51 31.64 30.75 29.57 27.81 26.77 26.30 26.57 26.62 24.98 23.23 23.05
41.96 37.62 31.67 26.30 32.39 44.17 42.88 38.86 34.62 34.24 34.87 35.54 30.20 31.50 25.54 33.96 30.54 31.48 30.45 34.12 30.57 23.94 28.15 32.83 26.41 22.99 27.90 27.67 27.92 28.10 27.80 27.34 27.59 28.41 23.41 24.76 24.93 24.39 23.34 22.38 22.47 21.60 20.77 20.58
35.21 31.10 29.46 35.38 43.60 36.65 34.59 28.70 28.66 30.58 29.25 30.23 30.92 31.66 27.41 35.96 27.95 25.48 29.76 31.09 30.68 23.97 27.38 29.11 27.75 23.04 25.30 26.55 25.60 26.21 25.45 24.04 23.33 22.23 21.43 21.37 22.11 22.13 21.25 19.56 19.67 19.55 19.43 18.64
34.98 35.04 39.63 38.20 34.13 31.17 26.63 27.39 27.36 27.68 25.22 28.38 27.54 29.27 32.79 33.24 35.53 31.41 31.74 27.89 27.83 22.90 31.89 26.81 19.92 22.81 24.34 23.91 23.56 23.22 22.81 21.36 19.86 19.94 18.44 18.58 19.50 19.39 18.77 18.18 17.40 17.71 18.22 17.91
37.97 34.31 31.48 30.02 30.07 23.43 21.98 19.74 23.23 21.12 27.46 30.14 28.95 25.16 31.10 32.55 34.30 26.54 28.72 26.55 24.70 28.01 25.09 21.77 20.89 23.79 23.45 22.22 21.36 20.20 20.92 20.40 19.23 17.95 17.50 16.59 15.79 15.56 15.57 13.29 12.32 12.65 10.60 12.10
28.26 26.78 18.36 23.95 25.24 25.94 23.65 24.18 26.18 29.60 31.09 31.67 30.57 27.73 28.29 28.00 28.63 30.56 25.38 26.01 29.85 23.11 18.16 17.61 21.27 21.67 21.48 21.26 20.54 18.46 17.13 16.29 15.96 14.03 12.91 12.30 13.49 12.64 10.27 8.46 7.89 6.64 6.34 4.26
27.73 28.94 18.42 25.13 31.46 31.38 32.04 33.17 31.25 31.84 32.86 32.18 29.10 29.12 30.65 28.02 25.86 28.89 26.19 24.24 18.48 22.32 16.41 17.13 20.27 20.63 20.25 18.52 18.47 16.58 15.51 12.94 11.96 10.99 10.90 10.59 11.20 12.20 11.25 11.59 8.94 8.87 8.00 9.50
29.72 28.44 24.43 29.05 29.60 28.45 31.46 32.26 32.28 33.68 29.16 29.72 29.33 26.40 27.49 22.70 27.77 26.20 19.87 22.26 18.27 20.58 19.60 20.52 20.23 18.11 17.30 16.98 17.17 16.67 15.46 13.84 11.86 11.39 12.88 12.34 9.31 8.15 7.17 7.38 7.56 4.38 4.55 3.19
27.14 25.86 28.18 28.30 29.03 30.02 30.39 32.07 32.04 34.40 30.63 28.56 29.50 23.67 25.49 27.79 22.14 24.34 25.06 20.03 15.15 19.98 21.06 20.84 19.21 16.98 14.47 13.98 15.21 14.97 16.61 15.22 14.73 12.98 11.98 10.00 12.24 13.56 16.16 11.51 8.44 8.93 8.48 5.07

GFSNW_sfc_wetblb_120.txt.gz
Wetbulb
45.03 45.31 44.99 45.65 46.12 46.68 43.53 38.09 31.54 41.90 42.80 30.87 29.43 24.98 33.10 37.35 34.83 37.27 35.53 34.01 32.75 30.91 30.46 27.73 28.64 29.09 32.67 35.84 34.40 30.26 35.88 34.59 28.51 31.10 38.28 39.91 38.42 35.09 34.44 27.08 28.13 30.35 29.08 29.59
45.75 45.16 45.38 45.85 46.43 46.21 39.53 36.02 34.69 41.38 40.80 24.97 27.01 33.70 34.68 35.64 34.44 33.70 33.55 32.21 35.18 33.99 29.71 25.36 29.72 31.47 36.78 36.16 33.81 30.33 34.56 31.11 25.00 26.57 32.29 36.00 32.81 34.86 35.75 35.24 33.99 29.14 26.44 30.58
44.83 44.88 45.02 45.75 46.24 46.53 40.13 35.43 27.72 33.94 34.99 33.79 28.83 28.33 31.01 30.98 37.11 35.20 35.05 34.88 35.47 30.72 28.57 30.81 27.58 30.43 34.49 36.13 35.29 40.77 37.40 32.32 29.75 24.13 27.15 32.60 30.76 32.81 35.24 34.13 28.98 30.16 31.62 33.30
44.69 44.61 44.27 45.30 46.01 46.34 40.00 32.78 29.67 32.80 23.09 26.55 29.02 29.87 31.43 30.15 31.19 35.12 34.46 32.00 31.30 28.52 24.85 26.73 27.47 30.71 31.64 34.11 37.48 35.05 33.06 27.57 30.26 32.02 34.37 34.74 34.15 33.79 34.22 33.69 34.96 30.37 34.31 35.44
44.47 44.21 43.66 44.84 46.00 45.98 38.22 27.93 30.66 32.56 30.80 31.96 29.13 31.02 29.75 30.15 31.36 31.31 30.02 29.01 30.93 29.74 25.87 28.57 26.77 29.38 29.58 28.90 33.52 31.81 33.35 27.13 30.78 29.60 34.72 34.08 32.17 35.33 33.79 33.92 34.06 36.30 35.64 34.55
44.33 43.39 43.53 44.48 45.83 44.67 36.89 37.21 37.04 32.35 30.59 29.28 26.89 28.10 31.07 32.15 33.42 34.16 34.77 32.36 29.75 28.41 31.22 33.91 34.36 34.27 33.95 33.24 31.67 29.79 29.79 28.61 27.52 25.81 31.96 33.47 26.65 29.97 31.98 31.84 32.83 36.36 32.56 35.72
43.91 43.23 43.26 44.33 45.48 44.66 40.56 38.49 35.43 28.36 24.27 28.33 29.94 34.36 33.94 32.78 33.74 30.67 34.30 35.48 32.03 35.66 38.46 36.76 35.93 34.90 34.58 34.63 34.08 34.43 30.04 29.50 28.77 25.87 28.63 22.24 31.58 34.06 35.17 31.90 32.43 33.27 34.77 34.02
43.98 43.37 43.64 44.36 45.53 46.02 41.16 40.20 36.40 31.26 24.21 30.74 32.47 33.31 33.49 33.17 33.42 32.33 34.44 35.95 37.56 37.89 34.77 29.25 27.58 27.93 31.05 33.81 36.55 35.25 34.65 30.34 25.25 23.86 24.21 30.71 30.05 31.06 31.57 31.22 29.87 34.55 33.72 35.01
44.42 43.99 43.94 44.36 44.88 45.76 41.08 39.33 39.35 34.77 26.84 29.12 35.18 32.24 33.21 28.01 27.51 29.28 33.48 37.47 37.94 36.44 30.24 24.56 23.23 23.11 27.27 27.55 31.30 35.95 35.95 34.78 27.41 25.76 23.30 19.69 27.56 31.25 35.33 35.36 25.39 34.92 33.56 33.58
44.53 43.84 44.13 44.33 44.95 46.16 41.40 38.51 39.45 34.58 24.98 33.21 34.12 29.95 30.10 33.54 30.70 27.70 30.88 32.75 32.46 33.79 23.96 23.85 22.83 23.85 30.94 24.81 25.96 27.02 28.12 27.79 23.85 24.41 23.84 26.93 30.67 32.61 34.90 24.08 26.44 35.29 35.57 34.38
44.40 43.99 44.01 44.06 44.84 45.62 41.34 39.25 40.10 35.15 28.64 32.52 36.46 38.35 32.96 33.57 31.74 26.75 30.35 27.26 29.66 26.96 23.53 25.08 23.96 23.51 27.02 27.49 31.08 29.59 26.74 23.80 24.21 24.13 21.21 18.32 32.39 31.56 27.09 31.50 33.22 34.49 35.11 34.93
44.33 44.00 44.17 43.88 44.62 44.84 42.22 38.14 42.53 40.75 33.18 30.93 37.28 37.70 38.73 38.00 37.33 33.10 32.30 30.30 29.85 31.13 24.28 24.09 26.11 23.91 25.57 26.41 21.26 34.33 27.46 30.07 25.63 27.16 25.75 31.92 32.65 32.64 34.40 35.63 33.52 32.35 31.52 33.46
44.32 44.09 43.53 43.67 44.11 44.31 41.52 38.97 41.10 37.43 34.22 31.79 32.00 34.09 40.02 40.49 39.08 39.31 31.05 31.32 35.26 34.81 34.62 28.95 27.64 24.15 23.81 21.53 23.69 27.44 33.00 33.07 28.18 29.21 29.79 30.01 30.54 32.13 33.54 34.24 32.73 33.43 34.21 31.80
44.13 44.05 43.92 43.48 43.23 43.73 42.01 36.86 41.34 38.40 35.25 28.36 30.23 40.57 37.31 42.18 41.12 39.44 38.72 37.03 39.83 38.09 34.06 29.46 25.77 25.68 30.91 25.64 28.50 27.45 31.01 29.24 27.82 27.27 29.85 30.13 29.87 30.83 30.72 31.19 32.05 31.89 32.18 31.59
43.56 43.25 43.12 42.63 42.60 42.78 39.01 37.56 39.08 40.37 34.55 27.57 28.78 34.99 38.98 40.40 40.82 39.79 39.23 37.21 34.13 30.59 25.84 22.88 23.75 29.02 27.93 28.81 30.85 25.44 30.26 27.19 22.89 18.24 25.03 29.56 27.85 30.91 31.37 28.83 30.02 30.29 30.05 28.84
42.98 42.93 42.96 42.36 42.29 41.68 36.14 29.00 37.25 40.29 42.38 31.98 26.41 33.87 35.86 39.14 39.38 38.72 38.57 36.60 36.59 31.94 29.42 23.85 26.31 32.77 27.95 20.68 26.64 30.14 31.55 31.74 32.38 30.08 31.28 29.99 30.18 31.40 32.79 30.30 30.97 30.18 28.93 29.35
43.15 43.31 42.95 42.27 42.46 37.07 33.31 30.82 39.72 43.21 42.68 33.20 27.33 26.65 35.99 39.10 38.00 35.56 34.86 38.90 36.55 34.15 30.73 28.07 28.18 28.60 31.04 23.80 23.32 29.41 31.06 31.49 31.94 32.71 31.63 26.92 29.76 27.82 30.84 30.73 33.15 30.86 28.81 28.60
42.81 42.84 42.73 42.23 41.87 38.78 32.96 39.16 42.98 43.99 38.66 36.11 27.88 25.36 31.37 37.22 31.11 29.36 32.81 32.34 35.57 34.00 30.22 29.16 27.98 29.99 29.39 23.02 29.22 30.68 31.55 31.78 31.15 29.99 30.05 29.22 28.71 28.38 27.94 29.76 29.72 26.39 24.74 24.73
42.25 42.15 41.65 36.20 33.18 29.26 32.29 42.02 44.07 41.96 37.46 30.00 29.51 24.32 23.93 36.25 32.49 31.49 31.55 31.52 24.08 30.32 25.87 27.76 28.22 23.17 16.91 26.18 27.30 26.94 28.00 26.59 28.42 31.13 29.79 27.81 25.66 23.95 24.25 24.43 23.72 22.18 21.82 21.93
41.82 35.60 28.25 18.94 28.71 39.79 41.15 38.60 34.18 34.51 35.13 34.29 29.13 29.85 24.19 31.94 23.98 30.42 27.99 32.74 29.37 23.50 26.45 30.77 23.84 21.53 25.69 25.95 25.54 25.44 24.58 24.12 29.77 23.62 21.82 23.01 23.63 20.90 20.17 19.71 20.53 20.20 19.65 19.72
33.72 23.70 28.67 32.35 40.37 34.85 32.18 27.74 28.24 30.24 28.21 30.35 30.46 28.91 25.47 33.25 24.81 22.37 27.09 29.15 29.82 24.15 25.11 25.47 26.48 21.20 23.26 24.95 23.43 23.24 22.81 21.95 21.04 21.35 20.78 21.22 22.65 20.26 19.03 18.32 18.73 19.07 19.00 17.37
32.62 32.73 37.73 35.23 31.36 28.85 25.21 24.54 27.96 27.82 23.68 24.74 25.40 27.30 30.26 30.35 31.83 27.32 31.65 28.05 28.00 23.84 31.52 28.90 19.24 20.24 22.41 21.72 20.77 20.09 19.72 18.92 17.87 18.25 17.47 19.08 18.78 18.89 18.00 17.17 16.55 16.55 17.24 16.46
35.60 32.91 30.89 29.41 23.18 21.62 21.37 18.60 23.34 18.63 24.71 25.24 26.13 24.05 30.61 33.41 32.07 29.29 21.31 26.03 24.39 25.62 20.72 16.67 18.99 22.21 20.30 19.49 19.47 18.83 19.35 18.74 17.84 16.67 16.81 16.38 15.34 15.22 14.44 10.84 8.21 9.79 8.83 6.69
24.95 25.50 17.30 23.55 21.04 19.94 21.90 22.05 22.75 26.47 25.29 28.11 27.07 24.80 28.02 25.71 26.11 19.66 16.28 23.08 28.95 23.34 16.32 15.11 18.46 19.83 19.38 19.64 19.57 17.59 15.19 14.12 13.45 11.00 10.98 11.03 11.31 9.34 8.26 5.11 4.67 6.77 9.07 9.17
23.54 26.89 17.07 16.04 27.71 30.09 29.42 31.04 32.70 32.34 27.46 29.90 27.48 27.52 28.17 23.58 27.01 28.08 27.08 25.15 22.61 19.90 14.50 12.10 17.84 18.41 18.35 17.41 17.11 15.21 13.40 9.65 8.96 6.83 7.26 4.06 5.20 7.73 3.80 2.53 3.34 4.08 1.09 0.37
27.02 26.44 19.78 22.60 26.63 27.29 30.52 32.06 32.24 33.50 28.02 26.42 27.99 26.06 26.16 25.42 26.60 25.29 23.28 22.02 15.86 14.34 16.01 17.64 18.56 16.31 15.71 15.25 15.50 13.68 12.42 11.28 9.31 9.15 9.15 7.53 4.85 5.68 4.30 3.06 3.39 -0.60 -0.17 -0.47
25.17 19.55 20.64 21.57 26.99 27.71 30.00 31.85 31.50 33.80 29.07 21.75 29.75 22.76 24.67 27.20 24.81 22.62 26.16 21.28 11.37 18.28 19.32 17.93 17.28 15.62 13.73 13.51 13.61 11.51 11.67 10.53 9.78 7.15 7.99 6.19 7.08 6.94 11.74 7.70 4.39 6.12 6.13 1.11

GFSNW_sfc_wetblb_123.txt.gz
Wetbulb
44.49 44.83 44.71 45.73 46.25 46.46 43.42 37.50 29.38 40.67 43.00 32.66 30.97 28.42 33.38 36.90 33.96 36.23 34.49 32.83 31.36 29.52 28.58 26.03 26.55 27.70 30.89 34.90 32.75 27.16 32.15 30.96 26.70 29.65 37.28 39.32 37.13 33.84 34.13 27.87 27.03 30.57 29.32 29.58
44.70 44.94 45.63 46.19 46.58 46.52 39.02 34.37 33.93 40.57 40.82 28.05 29.62 33.76 33.92 34.89 33.42 32.84 32.45 30.99 33.77 31.76 27.70 24.54 27.81 29.55 35.15 35.09 32.23 29.16 31.95 28.31 22.36 24.14 30.70 34.20 32.16 34.40 35.02 35.55 34.41 29.55 26.80 28.31
45.75 45.17 45.64 46.25 46.35 46.45 39.33 33.20 27.73 34.14 35.89 34.34 29.32 28.55 30.08 30.30 35.63 33.76 33.43 32.80 32.17 29.14 26.55 29.37 26.08 27.78 33.41 35.05 34.07 38.52 35.63 30.14 23.71 18.04 25.46 31.59 30.66 32.87 35.27 34.33 29.22 29.76 31.08 30.77
45.16 44.98 45.26 45.62 46.01 46.19 38.71 32.29 30.46 33.64 27.50 27.81 28.19 29.03 30.36 29.14 29.10 32.78 32.71 30.08 29.60 27.16 24.12 25.65 25.56 29.27 30.50 32.97 35.65 33.50 31.58 25.70 29.09 30.12 32.50 32.52 33.03 33.29 33.48 31.47 33.23 30.31 32.85 30.72
44.50 44.38 44.45 45.23 45.98 45.51 37.72 31.40 32.06 32.23 30.46 30.52 28.27 29.97 28.36 28.71 29.49 29.94 28.59 27.70 29.67 28.46 25.41 26.92 25.24 28.49 28.69 27.80 31.52 30.07 31.22 25.62 28.74 27.52 33.72 32.56 27.65 30.58 31.26 31.02 31.78 35.18 32.96 30.04
44.60 43.97 44.23 45.04 46.01 43.97 36.04 36.61 36.59 32.95 29.91 28.15 26.27 27.23 29.67 30.67 31.94 32.64 33.42 30.91 28.51 28.14 30.20 31.93 32.82 33.48 33.36 32.35 30.01 28.69 28.16 27.76 26.86 24.39 31.16 33.33 25.36 27.55 29.91 30.30 31.28 33.06 30.56 32.33
43.99 43.47 44.22 44.83 45.82 44.14 39.64 38.40 34.82 29.99 25.80 28.22 28.83 32.82 32.18 32.00 32.51 29.74 33.80 33.97 30.69 34.52 37.20 35.52 34.63 33.27 33.03 32.80 32.25 32.76 28.48 28.48 27.92 25.40 28.32 19.80 29.64 33.14 34.22 31.19 31.09 32.03 33.09 32.47
43.74 43.34 44.22 44.97 45.84 45.87 40.52 39.64 35.84 30.73 25.29 29.57 31.14 32.85 31.80 31.63 32.22 30.47 32.57 34.34 35.89 36.38 33.39 29.01 27.36 27.85 29.29 31.99 34.97 33.25 32.00 29.13 25.26 22.56 24.81 28.11 29.98 29.50 29.25 29.52 28.78 32.75 31.72 34.20
43.91 43.53 44.18 44.89 45.23 45.77 40.66 38.19 38.46 34.12 28.85 28.49 34.09 31.48 31.61 27.58 27.28 28.61 31.37 36.16 36.22 34.08 29.21 24.30 23.29 22.78 26.57 26.59 29.05 33.66 33.92 31.39 28.50 25.44 22.73 18.15 26.20 30.24 33.58 34.41 24.32 33.51 32.95 32.15
43.98 43.56 44.03 44.77 45.86 45.56 40.76 38.77 38.78 34.22 27.88 32.33 33.33 29.40 29.60 32.13 29.30 27.27 29.58 31.76 31.05 31.78 23.53 23.73 22.54 23.46 29.05 24.51 24.57 25.13 26.79 26.09 23.75 23.56 24.74 25.96 29.57 31.54 33.64 23.56 23.58 33.05 33.90 33.43
44.22 43.66 44.05 44.76 45.79 45.58 41.08 38.88 39.77 34.41 28.12 31.19 35.10 37.17 32.85 32.10 30.01 26.02 29.22 26.29 27.46 26.74 22.26 24.01 23.07 22.96 26.65 26.85 29.76 26.98 26.34 24.60 22.80 23.51 20.40 16.23 31.24 30.81 26.03 30.63 32.59 31.77 30.72 33.45
44.47 43.98 43.96 44.73 45.25 44.73 42.18 38.32 41.26 39.41 32.35 30.86 36.13 37.14 37.63 36.88 35.76 31.75 30.74 28.93 29.37 29.90 22.85 22.01 25.21 23.71 24.30 25.67 20.60 31.41 20.95 29.75 26.00 27.05 24.87 31.16 32.38 32.18 34.14 34.19 32.45 32.46 30.92 31.47
44.45 44.18 43.86 44.39 44.58 44.38 42.22 38.27 38.23 35.39 29.35 29.09 31.07 33.02 37.94 38.98 37.64 38.01 29.01 30.23 33.60 33.09 32.51 27.83 26.62 24.41 23.05 21.07 23.12 26.59 30.32 31.32 27.02 28.39 29.66 29.59 29.94 31.40 32.16 32.55 31.10 31.70 32.78 30.97
44.31 44.18 43.96 44.04 44.16 43.89 41.85 37.65 37.73 35.36 34.81 23.79 29.60 38.54 35.18 40.57 38.92 37.68 36.82 36.07 39.49 36.99 32.10 28.46 24.91 25.07 29.45 25.22 27.29 26.72 30.51 28.83 27.43 27.11 29.59 29.79 29.53 29.62 29.75 30.70 31.16 30.72 29.26 28.94
44.28 43.91 43.57 43.34 43.33 42.81 39.51 38.28 37.69 37.49 31.50 25.38 27.71 33.63 37.52 39.13 39.12 37.94 37.69 35.88 33.66 29.20 25.09 22.34 23.51 28.31 26.79 27.82 28.85 27.83 29.86 26.44 21.53 14.82 28.41 28.90 28.09 30.34 30.89 27.52 29.44 29.67 29.50 27.77
44.10 43.70 42.78 42.70 43.01 40.72 34.99 27.54 36.01 39.60 41.90 27.95 23.40 32.08 34.09 37.25 38.93 38.82 37.75 35.43 35.95 33.23 29.12 22.93 25.19 30.71 27.03 18.34 25.23 29.96 31.41 32.07 32.43 29.74 30.99 28.92 28.74 29.97 31.69 31.78 30.07 29.11 28.11 27.97
43.86 43.65 42.94 42.49 41.84 36.74 31.62 30.00 39.59 41.94 41.18 32.27 22.55 25.98 35.16 38.79 38.55 34.95 36.94 38.67 36.31 35.13 32.53 27.91 27.41 27.88 29.97 22.67 24.98 27.62 30.47 31.66 31.37 31.96 31.24 26.56 28.52 26.75 28.85 31.24 29.77 29.18 27.33 26.14
43.44 43.33 42.96 42.44 41.22 37.96 33.12 39.96 42.95 42.45 38.00 35.69 21.44 24.26 32.68 38.82 32.44 30.55 32.06 33.56 35.43 34.38 32.67 29.44 27.44 29.01 27.73 20.37 29.29 30.69 31.36 31.15 30.38 29.42 28.06 26.83 26.04 25.08 25.81 28.10 26.54 23.83 22.59 22.99
42.92 42.79 41.21 36.25 33.69 30.12 33.28 43.10 43.23 41.23 37.18 28.31 27.70 20.99 19.78 36.79 32.85 29.87 30.18 29.59 26.52 29.74 25.45 27.04 27.70 21.81 19.36 22.03 27.84 28.17 27.34 27.60 29.22 29.42 27.26 25.27 23.24 21.04 21.48 22.21 22.03 20.75 20.39 20.31
41.26 35.35 29.20 22.07 30.41 38.74 41.54 38.15 33.53 34.49 34.67 33.36 28.46 27.86 26.81 31.82 27.40 29.20 27.32 31.88 26.01 22.73 26.89 29.40 23.10 18.30 24.76 24.35 23.85 23.84 23.37 24.62 27.85 23.28 21.79 23.75 20.19 19.89 19.42 19.12 19.71 19.33 18.88 18.89
31.36 25.12 23.58 31.69 39.47 34.16 31.54 26.91 26.91 29.62 26.61 30.38 29.83 27.51 24.19 31.68 24.42 23.63 25.33 27.88 28.86 23.49 24.79 25.71 22.86 19.63 21.94 23.46 21.91 22.21 21.95 21.64 21.09 21.69 21.55 22.78 21.70 19.91 18.74 18.06 18.73 18.74 17.91 16.05
32.30 32.77 35.74 35.00 30.86 28.34 24.94 23.10 26.34 26.06 23.33 26.17 27.15 27.87 28.42 29.08 28.79 25.36 30.36 27.44 28.56 23.77 31.00 27.48 18.31 17.05 21.72 20.62 19.84 19.35 18.96 18.59 17.77 19.05 19.05 19.17 19.32 18.79 17.77 16.53 15.57 15.83 14.86 12.71
34.00 30.72 29.50 27.56 23.39 17.99 19.17 17.35 23.15 22.71 23.38 23.33 24.92 22.06 28.01 29.31 29.46 26.89 26.87 25.67 24.04 25.52 22.80 17.11 14.40 20.15 20.31 19.56 19.03 18.08 18.59 18.08 17.22 16.61 16.58 15.79 13.75 12.96 12.96 9.28 7.44 6.30 6.28 4.01
22.07 19.69 13.50 17.02 18.94 20.92 18.32 20.92 21.11 23.97 21.98 24.71 24.93 23.83 26.64 28.73 25.25 18.40 14.21 20.87 27.83 22.48 20.26 14.67 15.22 18.32 18.97 19.21 19.13 17.11 14.63 13.41 12.51 9.79 9.61 9.09 8.80 2.94 -0.15 -1.05 -2.50 1.32 1.56 -1.23
24.28 26.13 15.46 13.89 20.45 26.16 27.60 24.73 27.80 31.84 27.72 24.97 25.61 26.21 28.19 26.49 26.72 27.98 23.29 24.15 22.09 18.53 15.31 11.75 15.54 18.53 18.35 17.33 16.52 13.76 12.08 8.55 7.74 4.55 4.62 0.58 2.15 5.59 1.30 -1.05 -0.92 0.92 -3.09 -3.05
23.83 25.48 18.73 19.06 19.43 20.22 18.37 31.88 31.78 33.36 23.69 25.82 26.61 25.14 21.70 24.29 21.26 24.66 22.56 21.45 14.47 15.02 12.65 12.80 17.90 16.61 15.44 14.72 14.37 11.93 10.31 9.35 7.22 6.85 6.96 5.28 2.97 3.62 2.80 0.63 1.66 -3.06 -2.90 -2.87
24.75 22.74 25.44 19.09 20.76 25.91 28.01 30.27 31.69 33.35 31.00 27.72 28.97 21.73 24.36 27.02 24.28 23.67 26.35 21.21 13.86 13.61 17.67 17.40 17.27 15.49 13.22 12.80 12.29 10.29 10.09 9.49 9.30 6.80 6.68 4.19 4.66 4.71 9.94 6.64 3.13 4.13 3.60 -1.27

GFSNW_sfc_wetblb_126.txt.gz
Wetbulb
45.17 45.31 45.20 45.67 45.80 46.72 42.21 37.86 31.57 40.36 42.49 30.92 29.91 27.47 32.23 36.27 33.64 35.84 33.82 32.63 30.91 28.70 28.04 25.85 25.61 27.04 29.46 32.87 30.99 26.54 29.62 28.72 24.98 27.00 34.57 37.15 35.19 33.64 33.46 28.51 26.89 29.19 27.97 24.95
44.96 44.81 45.34 46.01 46.32 46.13 39.04 34.29 34.74 40.37 40.07 27.29 29.09 33.10 33.41 34.60 33.00 32.35 31.42 30.66 32.64 31.22 27.29 23.93 27.01 27.79 32.79 33.77 30.95 27.99 30.66 26.69 20.44 22.17 28.82 33.47 30.53 32.80 34.29 35.20 34.18 29.67 26.32 24.72
44.76 45.04 45.83 46.22 46.76 46.30 40.01 33.95 27.13 33.21 34.37 34.14 30.46 29.03 29.84 30.56 35.03 32.59 32.80 31.19 31.12 28.06 25.90 27.29 25.41 26.27 31.58 33.81 32.41 36.88 35.39 28.66 21.10 15.39 21.48 31.32 28.54 32.53 35.07 34.03 28.70 29.73 28.32 26.42
45.02 45.68 45.86 46.10 46.33 46.24 38.24 32.33 27.62 31.65 25.72 28.61 29.35 29.95 30.90 29.23 28.87 31.89 32.12 28.93 28.53 26.58 23.52 24.82 24.65 27.30 29.29 31.87 35.34 32.88 32.18 24.99 27.30 28.77 30.83 32.83 29.34 29.29 29.77 29.58 31.72 29.92 28.82 26.42
44.94 44.92 45.25 45.77 46.11 45.41 35.13 31.33 30.00 31.58 30.13 31.62 29.03 30.69 28.85 28.53 29.18 29.56 27.95 27.39 28.58 27.33 25.00 26.41 24.69 26.41 27.33 27.13 30.26 28.34 29.97 25.04 27.66 26.81 32.69 34.30 27.96 28.96 29.07 28.49 29.81 33.37 30.83 27.43
44.54 44.27 44.74 45.50 45.71 43.74 35.26 35.32 35.35 32.77 30.39 28.07 28.33 28.09 29.42 29.71 31.23 31.79 32.40 30.19 28.23 27.65 29.24 30.61 30.74 31.41 31.97 31.41 28.65 27.33 27.63 26.75 26.86 23.87 30.28 31.89 24.53 27.12 29.86 28.95 29.69 31.09 25.20 30.20
44.20 43.87 44.36 45.31 45.64 43.54 38.37 36.16 33.32 31.09 26.74 28.76 29.28 32.14 32.01 30.71 31.02 29.24 32.81 32.38 29.56 32.75 35.50 34.55 32.84 31.93 31.88 31.76 31.05 31.44 27.79 27.80 28.05 24.61 28.66 19.66 29.19 32.03 33.33 30.50 30.20 30.86 31.26 31.51
43.48 43.87 44.31 45.55 45.95 45.22 38.95 37.50 35.17 31.75 27.16 30.37 31.50 31.84 31.21 30.79 31.52 30.61 31.46 32.89 34.23 34.57 32.31 28.66 27.12 27.52 28.84 30.84 33.46 31.80 30.58 28.50 26.47 22.39 24.25 27.13 28.75 28.36 27.60 27.34 27.93 32.09 30.48 30.92
43.60 44.04 44.41 45.03 46.12 44.91 39.05 37.55 37.66 34.45 31.09 29.22 34.14 30.73 30.90 27.52 27.22 28.15 30.57 34.65 35.07 32.66 28.93 24.37 23.27 22.10 25.62 25.94 27.98 32.64 31.34 29.82 28.37 24.44 22.36 17.07 25.22 28.81 32.57 34.02 23.85 31.39 32.23 30.60
43.63 44.09 44.53 45.67 46.00 45.07 40.47 37.85 37.66 34.36 29.82 32.42 33.28 29.58 29.59 31.53 29.08 26.61 29.27 30.75 29.90 30.56 22.80 23.47 22.09 23.22 27.62 24.02 23.80 25.10 25.96 25.86 23.16 22.36 23.37 25.37 28.48 30.17 32.64 22.75 21.58 30.78 30.50 32.20
43.58 43.83 44.46 45.88 45.64 44.86 40.98 39.19 38.79 33.76 29.34 31.55 35.15 36.99 32.85 32.04 29.56 25.25 28.47 25.91 26.69 26.10 21.82 23.65 22.68 22.64 26.10 25.70 28.09 28.73 25.27 24.37 22.32 23.71 19.50 14.75 30.16 29.57 24.76 29.49 32.65 31.42 30.11 31.07
43.86 43.74 44.46 45.38 45.06 44.51 42.61 36.81 39.87 38.60 32.53 31.42 36.22 37.04 37.20 36.38 34.82 31.45 30.31 27.99 28.60 29.58 22.62 21.07 24.94 23.84 23.65 25.12 20.38 29.62 20.05 27.97 25.36 26.48 24.98 30.53 31.24 30.50 32.66 33.07 31.62 31.16 30.46 30.16
44.18 43.84 44.42 44.74 44.72 44.61 42.19 37.04 36.77 34.98 30.01 30.16 32.25 33.45 37.42 38.23 37.50 37.00 28.94 29.66 32.73 31.34 30.88 27.31 26.08 24.78 23.01 20.41 22.96 26.18 30.77 31.28 27.31 26.64 29.43 29.47 29.19 30.41 30.84 31.90 30.17 29.67 29.62 29.77
44.23 43.87 44.39 44.46 44.39 44.15 42.10 36.66 36.15 35.28 31.49 27.23 30.89 37.81 34.82 39.65 38.08 36.47 35.68 35.57 36.59 34.51 30.68 27.75 24.31 24.71 28.79 24.86 26.61 26.47 29.61 29.63 26.53 27.27 29.38 29.87 29.23 29.55 29.33 30.27 30.92 29.85 29.17 27.83
44.27 43.79 44.00 43.84 44.06 43.48 39.78 37.21 36.81 36.67 31.12 26.06 28.34 33.00 36.17 37.74 37.80 36.62 36.35 34.87 33.41 28.99 24.54 22.10 22.79 27.75 26.29 27.36 28.01 20.81 29.52 27.26 21.84 23.77 28.55 28.96 28.37 30.60 31.69 28.54 28.80 28.79 28.00 26.34
43.92 43.53 43.34 43.16 42.30 39.57 34.88 29.51 36.42 39.34 37.47 28.04 24.75 31.41 32.86 36.69 37.58 38.78 36.65 34.44 33.64 31.88 28.29 22.33 24.15 29.33 26.50 17.71 18.75 28.12 30.86 32.39 32.75 29.17 30.72 29.42 28.66 29.70 28.59 29.24 28.67 27.42 25.89 26.13
43.73 43.33 43.03 42.38 41.62 37.53 31.06 29.84 38.19 42.11 37.42 27.23 23.37 26.47 33.29 37.16 37.75 33.27 36.74 38.30 34.47 33.28 31.44 27.61 27.48 27.44 29.77 25.40 22.36 28.27 31.05 31.66 31.48 32.82 31.07 26.88 27.78 24.26 29.34 28.36 26.89 26.54 24.69 24.79
43.63 43.34 42.34 41.45 40.89 37.87 34.28 40.59 43.19 41.36 35.16 31.83 20.68 24.38 30.86 38.34 32.68 31.44 33.39 34.21 35.17 34.17 32.31 30.08 27.34 28.42 27.08 17.83 27.06 29.97 31.25 30.55 29.68 28.11 26.51 24.31 23.84 22.81 23.65 25.66 24.44 22.21 20.90 21.33
43.26 42.30 39.88 35.25 32.67 29.28 33.94 43.13 42.58 40.31 33.98 25.27 23.31 23.19 22.41 35.45 32.35 31.53 29.10 29.79 27.01 29.36 25.17 26.92 27.05 22.00 23.16 22.81 29.87 28.85 27.35 28.76 28.04 26.23 24.36 22.75 21.26 20.03 20.12 20.22 20.24 19.17 18.76 19.08
40.55 34.70 29.02 22.19 29.99 39.87 42.16 37.29 33.43 31.16 33.83 31.23 24.54 27.78 28.27 33.72 28.76 28.83 24.89 31.09 26.92 23.26 25.87 28.36 22.98 25.81 23.25 24.23 24.83 24.17 24.75 26.75 30.27 25.56 23.36 21.68 20.06 19.56 18.97 18.44 19.00 18.13 17.64 17.69
31.42 24.94 25.20 32.15 39.43 33.71 28.91 23.13 23.65 28.55 25.60 28.48 28.03 27.98 28.29 31.48 24.63 24.88 24.85 27.71 29.02 23.04 25.13 24.31 19.91 19.88 21.85 23.65 22.21 21.85 22.08 21.75 21.72 22.56 22.84 23.15 21.66 19.67 18.48 17.63 17.89 17.63 16.47 14.82
31.81 32.98 35.55 34.09 29.83 26.19 19.73 20.13 25.42 25.40 23.96 27.25 27.24 26.52 28.04 28.95 27.90 25.35 30.06 26.92 28.29 22.72 29.52 25.07 16.79 15.99 21.77 20.77 19.51 19.05 19.42 19.54 19.37 19.95 19.08 19.58 19.34 18.82 17.22 15.91 14.97 14.15 13.54 10.15
32.50 29.35 23.61 22.01 23.23 13.97 14.59 14.53 21.49 22.00 25.37 25.54 27.72 23.85 26.56 31.47 28.62 28.33 28.45 25.20 23.23 25.76 23.95 16.81 16.99 18.54 20.92 19.62 18.88 18.11 18.60 18.42 17.38 16.46 16.29 14.97 12.28 11.68 12.18 8.66 5.32 4.01 3.02 -2.21
19.88 17.63 16.75 15.52 18.73 19.77 18.11 21.83 23.52 24.65 23.03 22.14 22.10 26.94 24.99 24.28 22.95 18.41 14.32 21.93 27.13 21.95 19.47 14.90 13.48 18.43 19.23 18.98 18.93 17.17 14.88 12.98 12.09 9.36 8.76 7.87 7.19 0.69 -2.75 -3.66 -5.11 -1.90 -0.76 -5.11
20.66 19.73 8.38 16.77 17.66 22.73 26.00 23.08 26.50 25.56 31.01 23.82 23.52 24.85 27.43 23.34 22.54 26.89 22.31 18.03 13.31 15.96 14.21 14.27 12.05 18.64 18.35 17.29 16.64 13.51 11.95 8.14 7.11 4.29 5.02 2.15 1.85 5.66 -0.03 -3.84 -3.48 0.15 -5.47 -5.29
22.88 24.67 19.62 17.26 19.44 15.63 16.32 26.55 28.62 30.87 28.89 29.67 27.96 24.03 17.82 20.32 20.02 24.26 21.61 20.66 12.88 14.34 14.09 11.53 17.81 17.47 16.34 14.84 13.75 11.79 9.52 8.17 6.18 6.01 6.33 5.69 4.45 4.81 2.63 -1.17 -0.70 -5.29 -3.66 -3.84
23.13 19.84 24.99 25.24 20.02 18.77 19.78 27.44 31.18 32.90 30.59 29.39 29.51 19.43 19.21 25.31 23.65 21.43 25.79 15.92 15.68 11.89 10.29 14.72 17.34 16.50 14.05 11.94 11.10 8.97 9.15 8.45 8.11 6.53 6.74 3.44 3.88 4.94 9.02 6.26 1.80 2.88 1.47 -2.24